<?xml version="1.0" encoding="UTF-8" standalone="no" ?>
<gpx xmlns="http://www.topografix.com/GPX/1/1" xmlns:xsi="http://www.w3.org/2001/XMLSchema-instance" xsi:schemaLocation="http://www.topografix.com/GPX/1/1 http://www.topografix.com/GPX/1/1/gpx.xsd" version="1.1" creator="VisuGPX - https://www.visugpx.com">
  <metadata>
    <name>gréoux les bain</name>
    <desc><![CDATA[super michel,paps,maurice,denis,burnot,vincent,christian,]]></desc>
  </metadata>
  <trk>
    <name><![CDATA[gréoux les bain_2]]></name>
    <trkseg>
      <trkpt lat="43.75778" lon="5.88562">
        <ele>346.79998779297</ele>
        <time>2021-01-18T10:11:36.000Z</time>
      </trkpt>
      <trkpt lat="43.7578" lon="5.88563">
        <ele>346.79998779297</ele>
        <time>2021-01-18T10:11:38.000Z</time>
      </trkpt>
      <trkpt lat="43.75779" lon="5.88569">
        <ele>346.79998779297</ele>
        <time>2021-01-18T10:11:42.000Z</time>
      </trkpt>
      <trkpt lat="43.75774" lon="5.88566">
        <ele>346.79998779297</ele>
        <time>2021-01-18T10:11:46.000Z</time>
      </trkpt>
      <trkpt lat="43.75768" lon="5.88567">
        <ele>347</ele>
        <time>2021-01-18T10:11:50.000Z</time>
      </trkpt>
      <trkpt lat="43.75764" lon="5.8857">
        <ele>346.79998779297</ele>
        <time>2021-01-18T10:11:53.000Z</time>
      </trkpt>
      <trkpt lat="43.75763" lon="5.88571">
        <ele>346.79998779297</ele>
        <time>2021-01-18T10:11:59.000Z</time>
      </trkpt>
      <trkpt lat="43.7576" lon="5.88573">
        <ele>346.79998779297</ele>
        <time>2021-01-18T10:12:02.000Z</time>
      </trkpt>
      <trkpt lat="43.75758" lon="5.88576">
        <ele>346.79998779297</ele>
        <time>2021-01-18T10:12:05.000Z</time>
      </trkpt>
      <trkpt lat="43.75758" lon="5.88573">
        <ele>346.79998779297</ele>
        <time>2021-01-18T10:12:08.000Z</time>
      </trkpt>
      <trkpt lat="43.75761" lon="5.88572">
        <ele>346.79998779297</ele>
        <time>2021-01-18T10:12:14.000Z</time>
      </trkpt>
      <trkpt lat="43.75761" lon="5.88572">
        <ele>347</ele>
        <time>2021-01-18T10:12:24.000Z</time>
      </trkpt>
      <trkpt lat="43.75761" lon="5.88572">
        <ele>347</ele>
        <time>2021-01-18T10:12:44.000Z</time>
      </trkpt>
      <trkpt lat="43.75761" lon="5.88572">
        <ele>346.79998779297</ele>
        <time>2021-01-18T10:12:52.000Z</time>
      </trkpt>
      <trkpt lat="43.75761" lon="5.88572">
        <ele>346.39999389648</ele>
        <time>2021-01-18T10:13:06.000Z</time>
      </trkpt>
      <trkpt lat="43.75761" lon="5.88574">
        <ele>346.39999389648</ele>
        <time>2021-01-18T10:13:18.000Z</time>
      </trkpt>
      <trkpt lat="43.75761" lon="5.88575">
        <ele>346.39999389648</ele>
        <time>2021-01-18T10:13:27.000Z</time>
      </trkpt>
      <trkpt lat="43.75761" lon="5.88575">
        <ele>346.20001220703</ele>
        <time>2021-01-18T10:13:36.000Z</time>
      </trkpt>
      <trkpt lat="43.7576" lon="5.88574">
        <ele>345.79998779297</ele>
        <time>2021-01-18T10:13:53.000Z</time>
      </trkpt>
      <trkpt lat="43.75761" lon="5.88574">
        <ele>345.79998779297</ele>
        <time>2021-01-18T10:14:11.000Z</time>
      </trkpt>
      <trkpt lat="43.7576" lon="5.88574">
        <ele>345.79998779297</ele>
        <time>2021-01-18T10:14:25.000Z</time>
      </trkpt>
      <trkpt lat="43.7576" lon="5.88575">
        <ele>346</ele>
        <time>2021-01-18T10:15:01.000Z</time>
      </trkpt>
      <trkpt lat="43.75762" lon="5.88574">
        <ele>346</ele>
        <time>2021-01-18T10:15:11.000Z</time>
      </trkpt>
      <trkpt lat="43.75762" lon="5.88574">
        <ele>346</ele>
        <time>2021-01-18T10:15:24.000Z</time>
      </trkpt>
      <trkpt lat="43.75762" lon="5.88574">
        <ele>346</ele>
        <time>2021-01-18T10:15:38.000Z</time>
      </trkpt>
      <trkpt lat="43.75763" lon="5.88574">
        <ele>345.79998779297</ele>
        <time>2021-01-18T10:15:54.000Z</time>
      </trkpt>
      <trkpt lat="43.75763" lon="5.88574">
        <ele>345.79998779297</ele>
        <time>2021-01-18T10:16:08.000Z</time>
      </trkpt>
      <trkpt lat="43.75763" lon="5.88574">
        <ele>345.79998779297</ele>
        <time>2021-01-18T10:16:21.000Z</time>
      </trkpt>
      <trkpt lat="43.75763" lon="5.88574">
        <ele>345.79998779297</ele>
        <time>2021-01-18T10:16:32.000Z</time>
      </trkpt>
      <trkpt lat="43.75763" lon="5.88574">
        <ele>345.79998779297</ele>
        <time>2021-01-18T10:16:35.000Z</time>
      </trkpt>
      <trkpt lat="43.75762" lon="5.88575">
        <ele>346</ele>
        <time>2021-01-18T10:17:00.000Z</time>
      </trkpt>
      <trkpt lat="43.75762" lon="5.88575">
        <ele>346.20001220703</ele>
        <time>2021-01-18T10:17:15.000Z</time>
      </trkpt>
      <trkpt lat="43.75762" lon="5.88575">
        <ele>345.79998779297</ele>
        <time>2021-01-18T10:17:35.000Z</time>
      </trkpt>
      <trkpt lat="43.75762" lon="5.88575">
        <ele>346</ele>
        <time>2021-01-18T10:17:51.000Z</time>
      </trkpt>
      <trkpt lat="43.75762" lon="5.88575">
        <ele>346</ele>
        <time>2021-01-18T10:18:09.000Z</time>
      </trkpt>
      <trkpt lat="43.75761" lon="5.88575">
        <ele>345.79998779297</ele>
        <time>2021-01-18T10:18:25.000Z</time>
      </trkpt>
      <trkpt lat="43.75761" lon="5.88575">
        <ele>346</ele>
        <time>2021-01-18T10:18:40.000Z</time>
      </trkpt>
      <trkpt lat="43.75761" lon="5.88575">
        <ele>346</ele>
        <time>2021-01-18T10:18:57.000Z</time>
      </trkpt>
      <trkpt lat="43.75761" lon="5.88575">
        <ele>346</ele>
        <time>2021-01-18T10:19:12.000Z</time>
      </trkpt>
      <trkpt lat="43.75761" lon="5.88575">
        <ele>346</ele>
        <time>2021-01-18T10:19:24.000Z</time>
      </trkpt>
      <trkpt lat="43.75761" lon="5.88575">
        <ele>346</ele>
        <time>2021-01-18T10:19:43.000Z</time>
      </trkpt>
      <trkpt lat="43.75761" lon="5.88575">
        <ele>346</ele>
        <time>2021-01-18T10:20:00.000Z</time>
      </trkpt>
      <trkpt lat="43.75761" lon="5.88575">
        <ele>346</ele>
        <time>2021-01-18T10:20:11.000Z</time>
      </trkpt>
      <trkpt lat="43.75761" lon="5.88575">
        <ele>346.39999389648</ele>
        <time>2021-01-18T10:20:27.000Z</time>
      </trkpt>
      <trkpt lat="43.75761" lon="5.88575">
        <ele>346.20001220703</ele>
        <time>2021-01-18T10:20:43.000Z</time>
      </trkpt>
      <trkpt lat="43.75761" lon="5.88575">
        <ele>346</ele>
        <time>2021-01-18T10:20:55.000Z</time>
      </trkpt>
      <trkpt lat="43.75761" lon="5.88575">
        <ele>346.20001220703</ele>
        <time>2021-01-18T10:21:05.000Z</time>
      </trkpt>
      <trkpt lat="43.75766" lon="5.88574">
        <ele>346</ele>
        <time>2021-01-18T10:21:12.000Z</time>
      </trkpt>
      <trkpt lat="43.75765" lon="5.8857">
        <ele>346</ele>
        <time>2021-01-18T10:21:15.000Z</time>
      </trkpt>
      <trkpt lat="43.75763" lon="5.88572">
        <ele>346.20001220703</ele>
        <time>2021-01-18T10:21:20.000Z</time>
      </trkpt>
      <trkpt lat="43.75763" lon="5.88572">
        <ele>346.39999389648</ele>
        <time>2021-01-18T10:21:29.000Z</time>
      </trkpt>
      <trkpt lat="43.75763" lon="5.88572">
        <ele>346.20001220703</ele>
        <time>2021-01-18T10:21:49.000Z</time>
      </trkpt>
      <trkpt lat="43.75763" lon="5.88572">
        <ele>346.60000610352</ele>
        <time>2021-01-18T10:22:07.000Z</time>
      </trkpt>
      <trkpt lat="43.75763" lon="5.88572">
        <ele>346.39999389648</ele>
        <time>2021-01-18T10:22:19.000Z</time>
      </trkpt>
      <trkpt lat="43.75763" lon="5.88572">
        <ele>346.39999389648</ele>
        <time>2021-01-18T10:22:52.000Z</time>
      </trkpt>
      <trkpt lat="43.75763" lon="5.88572">
        <ele>346.79998779297</ele>
        <time>2021-01-18T10:23:11.000Z</time>
      </trkpt>
      <trkpt lat="43.75763" lon="5.88572">
        <ele>347</ele>
        <time>2021-01-18T10:23:28.000Z</time>
      </trkpt>
      <trkpt lat="43.75762" lon="5.88574">
        <ele>346.79998779297</ele>
        <time>2021-01-18T10:23:40.000Z</time>
      </trkpt>
      <trkpt lat="43.75761" lon="5.88575">
        <ele>346.79998779297</ele>
        <time>2021-01-18T10:23:45.000Z</time>
      </trkpt>
      <trkpt lat="43.75761" lon="5.88575">
        <ele>346.60000610352</ele>
        <time>2021-01-18T10:23:55.000Z</time>
      </trkpt>
      <trkpt lat="43.75762" lon="5.88574">
        <ele>346.60000610352</ele>
        <time>2021-01-18T10:24:04.000Z</time>
      </trkpt>
      <trkpt lat="43.75762" lon="5.88574">
        <ele>346.60000610352</ele>
        <time>2021-01-18T10:24:16.000Z</time>
      </trkpt>
      <trkpt lat="43.75762" lon="5.88574">
        <ele>346.39999389648</ele>
        <time>2021-01-18T10:24:30.000Z</time>
      </trkpt>
      <trkpt lat="43.75759" lon="5.88575">
        <ele>346.39999389648</ele>
        <time>2021-01-18T10:24:37.000Z</time>
      </trkpt>
      <trkpt lat="43.75758" lon="5.88575">
        <ele>346.20001220703</ele>
        <time>2021-01-18T10:24:38.000Z</time>
      </trkpt>
      <trkpt lat="43.75749" lon="5.88583">
        <ele>346.20001220703</ele>
        <time>2021-01-18T10:24:43.000Z</time>
      </trkpt>
      <trkpt lat="43.7574" lon="5.88593">
        <ele>346</ele>
        <time>2021-01-18T10:24:47.000Z</time>
      </trkpt>
      <trkpt lat="43.75722" lon="5.88599">
        <ele>345.79998779297</ele>
        <time>2021-01-18T10:24:54.000Z</time>
      </trkpt>
      <trkpt lat="43.75696" lon="5.8861">
        <ele>345.79998779297</ele>
        <time>2021-01-18T10:25:02.000Z</time>
      </trkpt>
      <trkpt lat="43.75669" lon="5.88624">
        <ele>346</ele>
        <time>2021-01-18T10:25:09.000Z</time>
      </trkpt>
      <trkpt lat="43.75646" lon="5.88633">
        <ele>345.39999389648</ele>
        <time>2021-01-18T10:25:15.000Z</time>
      </trkpt>
      <trkpt lat="43.75643" lon="5.88633">
        <ele>345.20001220703</ele>
        <time>2021-01-18T10:25:16.000Z</time>
      </trkpt>
      <trkpt lat="43.75631" lon="5.88634">
        <ele>345</ele>
        <time>2021-01-18T10:25:21.000Z</time>
      </trkpt>
      <trkpt lat="43.75626" lon="5.88643">
        <ele>344.79998779297</ele>
        <time>2021-01-18T10:25:25.000Z</time>
      </trkpt>
      <trkpt lat="43.75624" lon="5.88655">
        <ele>344.79998779297</ele>
        <time>2021-01-18T10:25:31.000Z</time>
      </trkpt>
      <trkpt lat="43.75623" lon="5.8867">
        <ele>344.60000610352</ele>
        <time>2021-01-18T10:25:37.000Z</time>
      </trkpt>
      <trkpt lat="43.75617" lon="5.88683">
        <ele>344.20001220703</ele>
        <time>2021-01-18T10:25:42.000Z</time>
      </trkpt>
      <trkpt lat="43.75611" lon="5.88699">
        <ele>343.60000610352</ele>
        <time>2021-01-18T10:25:48.000Z</time>
      </trkpt>
      <trkpt lat="43.75608" lon="5.88703">
        <ele>343.20001220703</ele>
        <time>2021-01-18T10:25:50.000Z</time>
      </trkpt>
      <trkpt lat="43.75605" lon="5.88708">
        <ele>342.39999389648</ele>
        <time>2021-01-18T10:25:53.000Z</time>
      </trkpt>
      <trkpt lat="43.75603" lon="5.88711">
        <ele>342</ele>
        <time>2021-01-18T10:25:55.000Z</time>
      </trkpt>
      <trkpt lat="43.756" lon="5.88717">
        <ele>341.39999389648</ele>
        <time>2021-01-18T10:25:57.000Z</time>
      </trkpt>
      <trkpt lat="43.75596" lon="5.88723">
        <ele>340.79998779297</ele>
        <time>2021-01-18T10:25:59.000Z</time>
      </trkpt>
      <trkpt lat="43.7559" lon="5.88735">
        <ele>340.20001220703</ele>
        <time>2021-01-18T10:26:02.000Z</time>
      </trkpt>
      <trkpt lat="43.75585" lon="5.88746">
        <ele>339.60000610352</ele>
        <time>2021-01-18T10:26:05.000Z</time>
      </trkpt>
      <trkpt lat="43.75582" lon="5.88754">
        <ele>339.20001220703</ele>
        <time>2021-01-18T10:26:07.000Z</time>
      </trkpt>
      <trkpt lat="43.75578" lon="5.88763">
        <ele>338.60000610352</ele>
        <time>2021-01-18T10:26:09.000Z</time>
      </trkpt>
      <trkpt lat="43.75571" lon="5.88782">
        <ele>338.20001220703</ele>
        <time>2021-01-18T10:26:12.000Z</time>
      </trkpt>
      <trkpt lat="43.75564" lon="5.88801">
        <ele>337.60000610352</ele>
        <time>2021-01-18T10:26:15.000Z</time>
      </trkpt>
      <trkpt lat="43.75557" lon="5.88821">
        <ele>336.60000610352</ele>
        <time>2021-01-18T10:26:18.000Z</time>
      </trkpt>
      <trkpt lat="43.75555" lon="5.88827">
        <ele>336.20001220703</ele>
        <time>2021-01-18T10:26:19.000Z</time>
      </trkpt>
      <trkpt lat="43.75541" lon="5.88864">
        <ele>335.20001220703</ele>
        <time>2021-01-18T10:26:24.000Z</time>
      </trkpt>
      <trkpt lat="43.75539" lon="5.88871">
        <ele>334.79998779297</ele>
        <time>2021-01-18T10:26:25.000Z</time>
      </trkpt>
      <trkpt lat="43.75529" lon="5.88897">
        <ele>333.60000610352</ele>
        <time>2021-01-18T10:26:29.000Z</time>
      </trkpt>
      <trkpt lat="43.75522" lon="5.8891">
        <ele>332.79998779297</ele>
        <time>2021-01-18T10:26:31.000Z</time>
      </trkpt>
      <trkpt lat="43.75518" lon="5.88917">
        <ele>332.39999389648</ele>
        <time>2021-01-18T10:26:32.000Z</time>
      </trkpt>
      <trkpt lat="43.75513" lon="5.88923">
        <ele>332</ele>
        <time>2021-01-18T10:26:33.000Z</time>
      </trkpt>
      <trkpt lat="43.75502" lon="5.88936">
        <ele>331</ele>
        <time>2021-01-18T10:26:35.000Z</time>
      </trkpt>
      <trkpt lat="43.75496" lon="5.88943">
        <ele>330.20001220703</ele>
        <time>2021-01-18T10:26:36.000Z</time>
      </trkpt>
      <trkpt lat="43.7549" lon="5.8895">
        <ele>329.79998779297</ele>
        <time>2021-01-18T10:26:37.000Z</time>
      </trkpt>
      <trkpt lat="43.7548" lon="5.88964">
        <ele>328.39999389648</ele>
        <time>2021-01-18T10:26:39.000Z</time>
      </trkpt>
      <trkpt lat="43.75476" lon="5.88972">
        <ele>327.60000610352</ele>
        <time>2021-01-18T10:26:40.000Z</time>
      </trkpt>
      <trkpt lat="43.75472" lon="5.88979">
        <ele>326.79998779297</ele>
        <time>2021-01-18T10:26:41.000Z</time>
      </trkpt>
      <trkpt lat="43.75464" lon="5.8899">
        <ele>324.79998779297</ele>
        <time>2021-01-18T10:26:43.000Z</time>
      </trkpt>
      <trkpt lat="43.75459" lon="5.88993">
        <ele>323.79998779297</ele>
        <time>2021-01-18T10:26:44.000Z</time>
      </trkpt>
      <trkpt lat="43.75449" lon="5.88993">
        <ele>322.39999389648</ele>
        <time>2021-01-18T10:26:46.000Z</time>
      </trkpt>
      <trkpt lat="43.75443" lon="5.8899">
        <ele>321.79998779297</ele>
        <time>2021-01-18T10:26:47.000Z</time>
      </trkpt>
      <trkpt lat="43.75439" lon="5.88986">
        <ele>321.20001220703</ele>
        <time>2021-01-18T10:26:48.000Z</time>
      </trkpt>
      <trkpt lat="43.75434" lon="5.88983">
        <ele>320.60000610352</ele>
        <time>2021-01-18T10:26:49.000Z</time>
      </trkpt>
      <trkpt lat="43.75423" lon="5.88982">
        <ele>320</ele>
        <time>2021-01-18T10:26:51.000Z</time>
      </trkpt>
      <trkpt lat="43.75404" lon="5.88988">
        <ele>318.60000610352</ele>
        <time>2021-01-18T10:26:54.000Z</time>
      </trkpt>
      <trkpt lat="43.75391" lon="5.8899">
        <ele>317</ele>
        <time>2021-01-18T10:26:56.000Z</time>
      </trkpt>
      <trkpt lat="43.75381" lon="5.88992">
        <ele>315.79998779297</ele>
        <time>2021-01-18T10:26:58.000Z</time>
      </trkpt>
      <trkpt lat="43.75372" lon="5.88993">
        <ele>314</ele>
        <time>2021-01-18T10:27:00.000Z</time>
      </trkpt>
      <trkpt lat="43.75368" lon="5.88993">
        <ele>313.39999389648</ele>
        <time>2021-01-18T10:27:01.000Z</time>
      </trkpt>
      <trkpt lat="43.75356" lon="5.88995">
        <ele>312.79998779297</ele>
        <time>2021-01-18T10:27:04.000Z</time>
      </trkpt>
      <trkpt lat="43.75335" lon="5.89004">
        <ele>312.20001220703</ele>
        <time>2021-01-18T10:27:10.000Z</time>
      </trkpt>
      <trkpt lat="43.75327" lon="5.8903">
        <ele>312.20001220703</ele>
        <time>2021-01-18T10:27:15.000Z</time>
      </trkpt>
      <trkpt lat="43.7532" lon="5.8906">
        <ele>312.20001220703</ele>
        <time>2021-01-18T10:27:21.000Z</time>
      </trkpt>
      <trkpt lat="43.75307" lon="5.89094">
        <ele>312</ele>
        <time>2021-01-18T10:27:27.000Z</time>
      </trkpt>
      <trkpt lat="43.75299" lon="5.89116">
        <ele>312</ele>
        <time>2021-01-18T10:27:32.000Z</time>
      </trkpt>
      <trkpt lat="43.7529" lon="5.89133">
        <ele>312.20001220703</ele>
        <time>2021-01-18T10:27:38.000Z</time>
      </trkpt>
      <trkpt lat="43.75287" lon="5.89135">
        <ele>312.60000610352</ele>
        <time>2021-01-18T10:27:40.000Z</time>
      </trkpt>
      <trkpt lat="43.75284" lon="5.89131">
        <ele>313.20001220703</ele>
        <time>2021-01-18T10:27:42.000Z</time>
      </trkpt>
      <trkpt lat="43.75287" lon="5.89123">
        <ele>313.79998779297</ele>
        <time>2021-01-18T10:27:45.000Z</time>
      </trkpt>
      <trkpt lat="43.75288" lon="5.8912">
        <ele>313.79998779297</ele>
        <time>2021-01-18T10:27:46.000Z</time>
      </trkpt>
      <trkpt lat="43.7529" lon="5.89104">
        <ele>314.60000610352</ele>
        <time>2021-01-18T10:27:51.000Z</time>
      </trkpt>
      <trkpt lat="43.75288" lon="5.891">
        <ele>315</ele>
        <time>2021-01-18T10:27:53.000Z</time>
      </trkpt>
      <trkpt lat="43.75288" lon="5.89091">
        <ele>316.20001220703</ele>
        <time>2021-01-18T10:27:57.000Z</time>
      </trkpt>
      <trkpt lat="43.75287" lon="5.89088">
        <ele>316.60000610352</ele>
        <time>2021-01-18T10:27:58.000Z</time>
      </trkpt>
      <trkpt lat="43.75285" lon="5.89084">
        <ele>317.39999389648</ele>
        <time>2021-01-18T10:28:00.000Z</time>
      </trkpt>
      <trkpt lat="43.75282" lon="5.89081">
        <ele>318</ele>
        <time>2021-01-18T10:28:02.000Z</time>
      </trkpt>
      <trkpt lat="43.7528" lon="5.89081">
        <ele>318.79998779297</ele>
        <time>2021-01-18T10:28:03.000Z</time>
      </trkpt>
      <trkpt lat="43.75275" lon="5.89081">
        <ele>320</ele>
        <time>2021-01-18T10:28:06.000Z</time>
      </trkpt>
      <trkpt lat="43.75273" lon="5.89081">
        <ele>320.39999389648</ele>
        <time>2021-01-18T10:28:07.000Z</time>
      </trkpt>
      <trkpt lat="43.75271" lon="5.89081">
        <ele>320.79998779297</ele>
        <time>2021-01-18T10:28:08.000Z</time>
      </trkpt>
      <trkpt lat="43.75269" lon="5.8908">
        <ele>321.20001220703</ele>
        <time>2021-01-18T10:28:09.000Z</time>
      </trkpt>
      <trkpt lat="43.75264" lon="5.8908">
        <ele>322.20001220703</ele>
        <time>2021-01-18T10:28:11.000Z</time>
      </trkpt>
      <trkpt lat="43.75258" lon="5.89079">
        <ele>323.60000610352</ele>
        <time>2021-01-18T10:28:14.000Z</time>
      </trkpt>
      <trkpt lat="43.7525" lon="5.8908">
        <ele>324.79998779297</ele>
        <time>2021-01-18T10:28:18.000Z</time>
      </trkpt>
      <trkpt lat="43.75243" lon="5.89084">
        <ele>326</ele>
        <time>2021-01-18T10:28:22.000Z</time>
      </trkpt>
      <trkpt lat="43.75239" lon="5.89087">
        <ele>326.60000610352</ele>
        <time>2021-01-18T10:28:24.000Z</time>
      </trkpt>
      <trkpt lat="43.75236" lon="5.8909">
        <ele>327</ele>
        <time>2021-01-18T10:28:26.000Z</time>
      </trkpt>
      <trkpt lat="43.75229" lon="5.89098">
        <ele>328</ele>
        <time>2021-01-18T10:28:30.000Z</time>
      </trkpt>
      <trkpt lat="43.75228" lon="5.89099">
        <ele>328.20001220703</ele>
        <time>2021-01-18T10:28:31.000Z</time>
      </trkpt>
      <trkpt lat="43.75225" lon="5.89103">
        <ele>329.20001220703</ele>
        <time>2021-01-18T10:28:33.000Z</time>
      </trkpt>
      <trkpt lat="43.75218" lon="5.8911">
        <ele>330.39999389648</ele>
        <time>2021-01-18T10:28:37.000Z</time>
      </trkpt>
      <trkpt lat="43.75213" lon="5.89115">
        <ele>330.79998779297</ele>
        <time>2021-01-18T10:28:40.000Z</time>
      </trkpt>
      <trkpt lat="43.75199" lon="5.89115">
        <ele>331.39999389648</ele>
        <time>2021-01-18T10:28:46.000Z</time>
      </trkpt>
      <trkpt lat="43.75194" lon="5.89109">
        <ele>331.60000610352</ele>
        <time>2021-01-18T10:28:49.000Z</time>
      </trkpt>
      <trkpt lat="43.7519" lon="5.89102">
        <ele>331.79998779297</ele>
        <time>2021-01-18T10:28:52.000Z</time>
      </trkpt>
      <trkpt lat="43.75187" lon="5.89096">
        <ele>332.20001220703</ele>
        <time>2021-01-18T10:28:55.000Z</time>
      </trkpt>
      <trkpt lat="43.75183" lon="5.8909">
        <ele>332.60000610352</ele>
        <time>2021-01-18T10:28:58.000Z</time>
      </trkpt>
      <trkpt lat="43.75182" lon="5.89088">
        <ele>332.79998779297</ele>
        <time>2021-01-18T10:28:59.000Z</time>
      </trkpt>
      <trkpt lat="43.7517" lon="5.89067">
        <ele>333.60000610352</ele>
        <time>2021-01-18T10:29:08.000Z</time>
      </trkpt>
      <trkpt lat="43.75168" lon="5.89064">
        <ele>333.79998779297</ele>
        <time>2021-01-18T10:29:09.000Z</time>
      </trkpt>
      <trkpt lat="43.75161" lon="5.89052">
        <ele>334.39999389648</ele>
        <time>2021-01-18T10:29:14.000Z</time>
      </trkpt>
      <trkpt lat="43.75157" lon="5.89043">
        <ele>334.79998779297</ele>
        <time>2021-01-18T10:29:18.000Z</time>
      </trkpt>
      <trkpt lat="43.75152" lon="5.89035">
        <ele>335.20001220703</ele>
        <time>2021-01-18T10:29:22.000Z</time>
      </trkpt>
      <trkpt lat="43.75148" lon="5.8903">
        <ele>335.60000610352</ele>
        <time>2021-01-18T10:29:28.000Z</time>
      </trkpt>
      <trkpt lat="43.75144" lon="5.89031">
        <ele>336</ele>
        <time>2021-01-18T10:29:31.000Z</time>
      </trkpt>
      <trkpt lat="43.75141" lon="5.89032">
        <ele>336.39999389648</ele>
        <time>2021-01-18T10:29:33.000Z</time>
      </trkpt>
      <trkpt lat="43.7513" lon="5.89033">
        <ele>336.60000610352</ele>
        <time>2021-01-18T10:29:38.000Z</time>
      </trkpt>
      <trkpt lat="43.75124" lon="5.8903">
        <ele>337</ele>
        <time>2021-01-18T10:29:41.000Z</time>
      </trkpt>
      <trkpt lat="43.75121" lon="5.89028">
        <ele>337.39999389648</ele>
        <time>2021-01-18T10:29:43.000Z</time>
      </trkpt>
      <trkpt lat="43.75115" lon="5.89017">
        <ele>338.20001220703</ele>
        <time>2021-01-18T10:29:48.000Z</time>
      </trkpt>
      <trkpt lat="43.75113" lon="5.89015">
        <ele>338.20001220703</ele>
        <time>2021-01-18T10:29:49.000Z</time>
      </trkpt>
      <trkpt lat="43.75107" lon="5.89014">
        <ele>339.20001220703</ele>
        <time>2021-01-18T10:29:52.000Z</time>
      </trkpt>
      <trkpt lat="43.75103" lon="5.89013">
        <ele>339.79998779297</ele>
        <time>2021-01-18T10:29:54.000Z</time>
      </trkpt>
      <trkpt lat="43.75102" lon="5.89012">
        <ele>340.20001220703</ele>
        <time>2021-01-18T10:29:55.000Z</time>
      </trkpt>
      <trkpt lat="43.75099" lon="5.89009">
        <ele>340.39999389648</ele>
        <time>2021-01-18T10:29:57.000Z</time>
      </trkpt>
      <trkpt lat="43.75095" lon="5.89003">
        <ele>340.79998779297</ele>
        <time>2021-01-18T10:30:00.000Z</time>
      </trkpt>
      <trkpt lat="43.75091" lon="5.89">
        <ele>341.39999389648</ele>
        <time>2021-01-18T10:30:02.000Z</time>
      </trkpt>
      <trkpt lat="43.75084" lon="5.88995">
        <ele>342.39999389648</ele>
        <time>2021-01-18T10:30:06.000Z</time>
      </trkpt>
      <trkpt lat="43.75083" lon="5.88992">
        <ele>342.60000610352</ele>
        <time>2021-01-18T10:30:07.000Z</time>
      </trkpt>
      <trkpt lat="43.75079" lon="5.88985">
        <ele>343.20001220703</ele>
        <time>2021-01-18T10:30:10.000Z</time>
      </trkpt>
      <trkpt lat="43.75078" lon="5.88983">
        <ele>343.39999389648</ele>
        <time>2021-01-18T10:30:11.000Z</time>
      </trkpt>
      <trkpt lat="43.75075" lon="5.88979">
        <ele>343.79998779297</ele>
        <time>2021-01-18T10:30:13.000Z</time>
      </trkpt>
      <trkpt lat="43.75068" lon="5.88971">
        <ele>344.39999389648</ele>
        <time>2021-01-18T10:30:17.000Z</time>
      </trkpt>
      <trkpt lat="43.75064" lon="5.88966">
        <ele>344.79998779297</ele>
        <time>2021-01-18T10:30:20.000Z</time>
      </trkpt>
      <trkpt lat="43.7506" lon="5.88963">
        <ele>345</ele>
        <time>2021-01-18T10:30:22.000Z</time>
      </trkpt>
      <trkpt lat="43.75053" lon="5.88957">
        <ele>345.79998779297</ele>
        <time>2021-01-18T10:30:26.000Z</time>
      </trkpt>
      <trkpt lat="43.75045" lon="5.88953">
        <ele>346.79998779297</ele>
        <time>2021-01-18T10:30:30.000Z</time>
      </trkpt>
      <trkpt lat="43.75043" lon="5.88952">
        <ele>347.20001220703</ele>
        <time>2021-01-18T10:30:31.000Z</time>
      </trkpt>
      <trkpt lat="43.75038" lon="5.88944">
        <ele>348</ele>
        <time>2021-01-18T10:30:35.000Z</time>
      </trkpt>
      <trkpt lat="43.75037" lon="5.8894">
        <ele>348.20001220703</ele>
        <time>2021-01-18T10:30:37.000Z</time>
      </trkpt>
      <trkpt lat="43.75036" lon="5.88938">
        <ele>348.60000610352</ele>
        <time>2021-01-18T10:30:38.000Z</time>
      </trkpt>
      <trkpt lat="43.75032" lon="5.88935">
        <ele>348.79998779297</ele>
        <time>2021-01-18T10:30:40.000Z</time>
      </trkpt>
      <trkpt lat="43.75027" lon="5.88933">
        <ele>349.39999389648</ele>
        <time>2021-01-18T10:30:42.000Z</time>
      </trkpt>
      <trkpt lat="43.75023" lon="5.88931">
        <ele>349.79998779297</ele>
        <time>2021-01-18T10:30:44.000Z</time>
      </trkpt>
      <trkpt lat="43.75019" lon="5.88928">
        <ele>350.20001220703</ele>
        <time>2021-01-18T10:30:46.000Z</time>
      </trkpt>
      <trkpt lat="43.75012" lon="5.88927">
        <ele>350.60000610352</ele>
        <time>2021-01-18T10:30:49.000Z</time>
      </trkpt>
      <trkpt lat="43.7501" lon="5.88928">
        <ele>350.79998779297</ele>
        <time>2021-01-18T10:30:50.000Z</time>
      </trkpt>
      <trkpt lat="43.75004" lon="5.88928">
        <ele>351.60000610352</ele>
        <time>2021-01-18T10:30:53.000Z</time>
      </trkpt>
      <trkpt lat="43.74999" lon="5.88926">
        <ele>352.20001220703</ele>
        <time>2021-01-18T10:30:55.000Z</time>
      </trkpt>
      <trkpt lat="43.74993" lon="5.88919">
        <ele>352.79998779297</ele>
        <time>2021-01-18T10:30:59.000Z</time>
      </trkpt>
      <trkpt lat="43.74991" lon="5.88919">
        <ele>353</ele>
        <time>2021-01-18T10:31:00.000Z</time>
      </trkpt>
      <trkpt lat="43.74984" lon="5.88921">
        <ele>353.79998779297</ele>
        <time>2021-01-18T10:31:03.000Z</time>
      </trkpt>
      <trkpt lat="43.7498" lon="5.88923">
        <ele>354.39999389648</ele>
        <time>2021-01-18T10:31:05.000Z</time>
      </trkpt>
      <trkpt lat="43.74974" lon="5.88923">
        <ele>355</ele>
        <time>2021-01-18T10:31:08.000Z</time>
      </trkpt>
      <trkpt lat="43.74973" lon="5.88921">
        <ele>355.20001220703</ele>
        <time>2021-01-18T10:31:09.000Z</time>
      </trkpt>
      <trkpt lat="43.74971" lon="5.88919">
        <ele>355.39999389648</ele>
        <time>2021-01-18T10:31:10.000Z</time>
      </trkpt>
      <trkpt lat="43.74964" lon="5.88914">
        <ele>356</ele>
        <time>2021-01-18T10:31:14.000Z</time>
      </trkpt>
      <trkpt lat="43.74954" lon="5.88911">
        <ele>357</ele>
        <time>2021-01-18T10:31:19.000Z</time>
      </trkpt>
      <trkpt lat="43.74953" lon="5.88909">
        <ele>357.20001220703</ele>
        <time>2021-01-18T10:31:20.000Z</time>
      </trkpt>
      <trkpt lat="43.74945" lon="5.889">
        <ele>358.20001220703</ele>
        <time>2021-01-18T10:31:25.000Z</time>
      </trkpt>
      <trkpt lat="43.74943" lon="5.889">
        <ele>358.60000610352</ele>
        <time>2021-01-18T10:31:26.000Z</time>
      </trkpt>
      <trkpt lat="43.74936" lon="5.889">
        <ele>359.60000610352</ele>
        <time>2021-01-18T10:31:30.000Z</time>
      </trkpt>
      <trkpt lat="43.74931" lon="5.88901">
        <ele>360</ele>
        <time>2021-01-18T10:31:32.000Z</time>
      </trkpt>
      <trkpt lat="43.74926" lon="5.88902">
        <ele>360.60000610352</ele>
        <time>2021-01-18T10:31:34.000Z</time>
      </trkpt>
      <trkpt lat="43.74917" lon="5.88904">
        <ele>361.39999389648</ele>
        <time>2021-01-18T10:31:38.000Z</time>
      </trkpt>
      <trkpt lat="43.74913" lon="5.88906">
        <ele>361.60000610352</ele>
        <time>2021-01-18T10:31:40.000Z</time>
      </trkpt>
      <trkpt lat="43.74898" lon="5.88906">
        <ele>362.20001220703</ele>
        <time>2021-01-18T10:31:46.000Z</time>
      </trkpt>
      <trkpt lat="43.74891" lon="5.88906">
        <ele>362.79998779297</ele>
        <time>2021-01-18T10:31:49.000Z</time>
      </trkpt>
      <trkpt lat="43.74881" lon="5.88904">
        <ele>363.39999389648</ele>
        <time>2021-01-18T10:31:53.000Z</time>
      </trkpt>
      <trkpt lat="43.74871" lon="5.88905">
        <ele>364</ele>
        <time>2021-01-18T10:31:57.000Z</time>
      </trkpt>
      <trkpt lat="43.74866" lon="5.88905">
        <ele>364.60000610352</ele>
        <time>2021-01-18T10:31:59.000Z</time>
      </trkpt>
      <trkpt lat="43.74862" lon="5.88904">
        <ele>365</ele>
        <time>2021-01-18T10:32:01.000Z</time>
      </trkpt>
      <trkpt lat="43.74854" lon="5.88899">
        <ele>365.60000610352</ele>
        <time>2021-01-18T10:32:05.000Z</time>
      </trkpt>
      <trkpt lat="43.7485" lon="5.88899">
        <ele>366.20001220703</ele>
        <time>2021-01-18T10:32:07.000Z</time>
      </trkpt>
      <trkpt lat="43.74841" lon="5.88897">
        <ele>367</ele>
        <time>2021-01-18T10:32:11.000Z</time>
      </trkpt>
      <trkpt lat="43.74839" lon="5.88896">
        <ele>367.39999389648</ele>
        <time>2021-01-18T10:32:12.000Z</time>
      </trkpt>
      <trkpt lat="43.74831" lon="5.88895">
        <ele>368.60000610352</ele>
        <time>2021-01-18T10:32:16.000Z</time>
      </trkpt>
      <trkpt lat="43.74829" lon="5.88895">
        <ele>369</ele>
        <time>2021-01-18T10:32:17.000Z</time>
      </trkpt>
      <trkpt lat="43.74823" lon="5.88894">
        <ele>369.79998779297</ele>
        <time>2021-01-18T10:32:20.000Z</time>
      </trkpt>
      <trkpt lat="43.74816" lon="5.88893">
        <ele>370.79998779297</ele>
        <time>2021-01-18T10:32:23.000Z</time>
      </trkpt>
      <trkpt lat="43.74814" lon="5.88893">
        <ele>371</ele>
        <time>2021-01-18T10:32:24.000Z</time>
      </trkpt>
      <trkpt lat="43.74806" lon="5.8889">
        <ele>372</ele>
        <time>2021-01-18T10:32:28.000Z</time>
      </trkpt>
      <trkpt lat="43.74799" lon="5.8889">
        <ele>372.60000610352</ele>
        <time>2021-01-18T10:32:31.000Z</time>
      </trkpt>
      <trkpt lat="43.74795" lon="5.88892">
        <ele>373</ele>
        <time>2021-01-18T10:32:33.000Z</time>
      </trkpt>
      <trkpt lat="43.74785" lon="5.88893">
        <ele>374</ele>
        <time>2021-01-18T10:32:37.000Z</time>
      </trkpt>
      <trkpt lat="43.74783" lon="5.88892">
        <ele>374.39999389648</ele>
        <time>2021-01-18T10:32:38.000Z</time>
      </trkpt>
      <trkpt lat="43.74769" lon="5.88886">
        <ele>375.20001220703</ele>
        <time>2021-01-18T10:32:44.000Z</time>
      </trkpt>
      <trkpt lat="43.74767" lon="5.88885">
        <ele>375.39999389648</ele>
        <time>2021-01-18T10:32:45.000Z</time>
      </trkpt>
      <trkpt lat="43.74758" lon="5.88883">
        <ele>376.20001220703</ele>
        <time>2021-01-18T10:32:49.000Z</time>
      </trkpt>
      <trkpt lat="43.74749" lon="5.88883">
        <ele>377.60000610352</ele>
        <time>2021-01-18T10:32:53.000Z</time>
      </trkpt>
      <trkpt lat="43.74746" lon="5.88883">
        <ele>378</ele>
        <time>2021-01-18T10:32:54.000Z</time>
      </trkpt>
      <trkpt lat="43.74739" lon="5.88886">
        <ele>379</ele>
        <time>2021-01-18T10:32:57.000Z</time>
      </trkpt>
      <trkpt lat="43.74731" lon="5.88888">
        <ele>380.20001220703</ele>
        <time>2021-01-18T10:33:00.000Z</time>
      </trkpt>
      <trkpt lat="43.74726" lon="5.8889">
        <ele>380.79998779297</ele>
        <time>2021-01-18T10:33:02.000Z</time>
      </trkpt>
      <trkpt lat="43.74721" lon="5.88892">
        <ele>381.39999389648</ele>
        <time>2021-01-18T10:33:04.000Z</time>
      </trkpt>
      <trkpt lat="43.74705" lon="5.88898">
        <ele>382.79998779297</ele>
        <time>2021-01-18T10:33:10.000Z</time>
      </trkpt>
      <trkpt lat="43.74702" lon="5.88899">
        <ele>383</ele>
        <time>2021-01-18T10:33:11.000Z</time>
      </trkpt>
      <trkpt lat="43.74685" lon="5.88902">
        <ele>383.79998779297</ele>
        <time>2021-01-18T10:33:17.000Z</time>
      </trkpt>
      <trkpt lat="43.74671" lon="5.88902">
        <ele>384.79998779297</ele>
        <time>2021-01-18T10:33:22.000Z</time>
      </trkpt>
      <trkpt lat="43.74668" lon="5.88902">
        <ele>385</ele>
        <time>2021-01-18T10:33:23.000Z</time>
      </trkpt>
      <trkpt lat="43.74649" lon="5.88904">
        <ele>386</ele>
        <time>2021-01-18T10:33:30.000Z</time>
      </trkpt>
      <trkpt lat="43.74646" lon="5.88904">
        <ele>386.20001220703</ele>
        <time>2021-01-18T10:33:31.000Z</time>
      </trkpt>
      <trkpt lat="43.74636" lon="5.88905">
        <ele>387</ele>
        <time>2021-01-18T10:33:35.000Z</time>
      </trkpt>
      <trkpt lat="43.74623" lon="5.88907">
        <ele>388.20001220703</ele>
        <time>2021-01-18T10:33:40.000Z</time>
      </trkpt>
      <trkpt lat="43.74611" lon="5.88903">
        <ele>389.39999389648</ele>
        <time>2021-01-18T10:33:45.000Z</time>
      </trkpt>
      <trkpt lat="43.74609" lon="5.88902">
        <ele>389.60000610352</ele>
        <time>2021-01-18T10:33:46.000Z</time>
      </trkpt>
      <trkpt lat="43.74602" lon="5.88897">
        <ele>390.39999389648</ele>
        <time>2021-01-18T10:33:49.000Z</time>
      </trkpt>
      <trkpt lat="43.74595" lon="5.88889">
        <ele>391.39999389648</ele>
        <time>2021-01-18T10:33:53.000Z</time>
      </trkpt>
      <trkpt lat="43.74588" lon="5.88885">
        <ele>392.39999389648</ele>
        <time>2021-01-18T10:33:56.000Z</time>
      </trkpt>
      <trkpt lat="43.74586" lon="5.88886">
        <ele>393.39999389648</ele>
        <time>2021-01-18T10:33:57.000Z</time>
      </trkpt>
      <trkpt lat="43.74584" lon="5.88889">
        <ele>393.60000610352</ele>
        <time>2021-01-18T10:33:58.000Z</time>
      </trkpt>
      <trkpt lat="43.74577" lon="5.88896">
        <ele>395</ele>
        <time>2021-01-18T10:34:01.000Z</time>
      </trkpt>
      <trkpt lat="43.74571" lon="5.88903">
        <ele>396.20001220703</ele>
        <time>2021-01-18T10:34:04.000Z</time>
      </trkpt>
      <trkpt lat="43.74564" lon="5.88909">
        <ele>397</ele>
        <time>2021-01-18T10:34:07.000Z</time>
      </trkpt>
      <trkpt lat="43.74561" lon="5.88911">
        <ele>397.20001220703</ele>
        <time>2021-01-18T10:34:08.000Z</time>
      </trkpt>
      <trkpt lat="43.74549" lon="5.88921">
        <ele>398.20001220703</ele>
        <time>2021-01-18T10:34:13.000Z</time>
      </trkpt>
      <trkpt lat="43.74547" lon="5.88924">
        <ele>398.60000610352</ele>
        <time>2021-01-18T10:34:14.000Z</time>
      </trkpt>
      <trkpt lat="43.74542" lon="5.88931">
        <ele>399.39999389648</ele>
        <time>2021-01-18T10:34:17.000Z</time>
      </trkpt>
      <trkpt lat="43.74531" lon="5.88941">
        <ele>400.79998779297</ele>
        <time>2021-01-18T10:34:22.000Z</time>
      </trkpt>
      <trkpt lat="43.74529" lon="5.88942">
        <ele>401.20001220703</ele>
        <time>2021-01-18T10:34:23.000Z</time>
      </trkpt>
      <trkpt lat="43.74526" lon="5.88944">
        <ele>401.79998779297</ele>
        <time>2021-01-18T10:34:24.000Z</time>
      </trkpt>
      <trkpt lat="43.74522" lon="5.88947">
        <ele>403.39999389648</ele>
        <time>2021-01-18T10:34:26.000Z</time>
      </trkpt>
      <trkpt lat="43.74516" lon="5.88953">
        <ele>404.60000610352</ele>
        <time>2021-01-18T10:34:29.000Z</time>
      </trkpt>
      <trkpt lat="43.74513" lon="5.88958">
        <ele>405.39999389648</ele>
        <time>2021-01-18T10:34:31.000Z</time>
      </trkpt>
      <trkpt lat="43.74509" lon="5.88963">
        <ele>405.79998779297</ele>
        <time>2021-01-18T10:34:33.000Z</time>
      </trkpt>
      <trkpt lat="43.745" lon="5.88977">
        <ele>406.79998779297</ele>
        <time>2021-01-18T10:34:38.000Z</time>
      </trkpt>
      <trkpt lat="43.74498" lon="5.88979">
        <ele>407</ele>
        <time>2021-01-18T10:34:39.000Z</time>
      </trkpt>
      <trkpt lat="43.74483" lon="5.88992">
        <ele>408</ele>
        <time>2021-01-18T10:34:46.000Z</time>
      </trkpt>
      <trkpt lat="43.7448" lon="5.88994">
        <ele>408.20001220703</ele>
        <time>2021-01-18T10:34:47.000Z</time>
      </trkpt>
      <trkpt lat="43.74471" lon="5.89002">
        <ele>409.20001220703</ele>
        <time>2021-01-18T10:34:51.000Z</time>
      </trkpt>
      <trkpt lat="43.74466" lon="5.89009">
        <ele>409.79998779297</ele>
        <time>2021-01-18T10:34:54.000Z</time>
      </trkpt>
      <trkpt lat="43.74465" lon="5.89012">
        <ele>410.20001220703</ele>
        <time>2021-01-18T10:34:55.000Z</time>
      </trkpt>
      <trkpt lat="43.74457" lon="5.8902">
        <ele>411.39999389648</ele>
        <time>2021-01-18T10:34:59.000Z</time>
      </trkpt>
      <trkpt lat="43.74452" lon="5.89027">
        <ele>412</ele>
        <time>2021-01-18T10:35:02.000Z</time>
      </trkpt>
      <trkpt lat="43.7445" lon="5.89029">
        <ele>412.39999389648</ele>
        <time>2021-01-18T10:35:03.000Z</time>
      </trkpt>
      <trkpt lat="43.74442" lon="5.89038">
        <ele>413.39999389648</ele>
        <time>2021-01-18T10:35:07.000Z</time>
      </trkpt>
      <trkpt lat="43.74437" lon="5.89045">
        <ele>414.39999389648</ele>
        <time>2021-01-18T10:35:10.000Z</time>
      </trkpt>
      <trkpt lat="43.74431" lon="5.89056">
        <ele>415.79998779297</ele>
        <time>2021-01-18T10:35:14.000Z</time>
      </trkpt>
      <trkpt lat="43.74425" lon="5.89066">
        <ele>416.79998779297</ele>
        <time>2021-01-18T10:35:18.000Z</time>
      </trkpt>
      <trkpt lat="43.74424" lon="5.89069">
        <ele>417</ele>
        <time>2021-01-18T10:35:19.000Z</time>
      </trkpt>
      <trkpt lat="43.74418" lon="5.8908">
        <ele>418</ele>
        <time>2021-01-18T10:35:23.000Z</time>
      </trkpt>
      <trkpt lat="43.74415" lon="5.89085">
        <ele>419</ele>
        <time>2021-01-18T10:35:25.000Z</time>
      </trkpt>
      <trkpt lat="43.74412" lon="5.89091">
        <ele>419.60000610352</ele>
        <time>2021-01-18T10:35:27.000Z</time>
      </trkpt>
      <trkpt lat="43.74408" lon="5.89096">
        <ele>420.20001220703</ele>
        <time>2021-01-18T10:35:29.000Z</time>
      </trkpt>
      <trkpt lat="43.74402" lon="5.89106">
        <ele>421.39999389648</ele>
        <time>2021-01-18T10:35:33.000Z</time>
      </trkpt>
      <trkpt lat="43.74398" lon="5.89115">
        <ele>422.20001220703</ele>
        <time>2021-01-18T10:35:36.000Z</time>
      </trkpt>
      <trkpt lat="43.74396" lon="5.89121">
        <ele>422.79998779297</ele>
        <time>2021-01-18T10:35:38.000Z</time>
      </trkpt>
      <trkpt lat="43.74391" lon="5.89129">
        <ele>423.79998779297</ele>
        <time>2021-01-18T10:35:41.000Z</time>
      </trkpt>
      <trkpt lat="43.74387" lon="5.89133">
        <ele>424.60000610352</ele>
        <time>2021-01-18T10:35:43.000Z</time>
      </trkpt>
      <trkpt lat="43.74385" lon="5.89134">
        <ele>425</ele>
        <time>2021-01-18T10:35:44.000Z</time>
      </trkpt>
      <trkpt lat="43.74378" lon="5.89138">
        <ele>426.20001220703</ele>
        <time>2021-01-18T10:35:47.000Z</time>
      </trkpt>
      <trkpt lat="43.74373" lon="5.8914">
        <ele>426.79998779297</ele>
        <time>2021-01-18T10:35:49.000Z</time>
      </trkpt>
      <trkpt lat="43.7437" lon="5.89141">
        <ele>427.20001220703</ele>
        <time>2021-01-18T10:35:50.000Z</time>
      </trkpt>
      <trkpt lat="43.74363" lon="5.89146">
        <ele>428.20001220703</ele>
        <time>2021-01-18T10:35:53.000Z</time>
      </trkpt>
      <trkpt lat="43.74356" lon="5.8915">
        <ele>429</ele>
        <time>2021-01-18T10:35:56.000Z</time>
      </trkpt>
      <trkpt lat="43.74351" lon="5.89152">
        <ele>429.39999389648</ele>
        <time>2021-01-18T10:35:58.000Z</time>
      </trkpt>
      <trkpt lat="43.74344" lon="5.8915">
        <ele>430</ele>
        <time>2021-01-18T10:36:01.000Z</time>
      </trkpt>
      <trkpt lat="43.7434" lon="5.89147">
        <ele>430.39999389648</ele>
        <time>2021-01-18T10:36:03.000Z</time>
      </trkpt>
      <trkpt lat="43.74328" lon="5.89143">
        <ele>431.20001220703</ele>
        <time>2021-01-18T10:36:09.000Z</time>
      </trkpt>
      <trkpt lat="43.74321" lon="5.89141">
        <ele>431.60000610352</ele>
        <time>2021-01-18T10:36:12.000Z</time>
      </trkpt>
      <trkpt lat="43.74317" lon="5.89145">
        <ele>432.60000610352</ele>
        <time>2021-01-18T10:36:15.000Z</time>
      </trkpt>
      <trkpt lat="43.74316" lon="5.89147">
        <ele>432.79998779297</ele>
        <time>2021-01-18T10:36:16.000Z</time>
      </trkpt>
      <trkpt lat="43.74311" lon="5.8916">
        <ele>434</ele>
        <time>2021-01-18T10:36:22.000Z</time>
      </trkpt>
      <trkpt lat="43.7431" lon="5.89163">
        <ele>435.39999389648</ele>
        <time>2021-01-18T10:36:24.000Z</time>
      </trkpt>
      <trkpt lat="43.74308" lon="5.89172">
        <ele>436</ele>
        <time>2021-01-18T10:36:29.000Z</time>
      </trkpt>
      <trkpt lat="43.74305" lon="5.89176">
        <ele>436.39999389648</ele>
        <time>2021-01-18T10:36:35.000Z</time>
      </trkpt>
      <trkpt lat="43.74303" lon="5.89176">
        <ele>436.39999389648</ele>
        <time>2021-01-18T10:36:37.000Z</time>
      </trkpt>
      <trkpt lat="43.74303" lon="5.89176">
        <ele>436.39999389648</ele>
        <time>2021-01-18T10:36:38.000Z</time>
      </trkpt>
      <trkpt lat="43.74301" lon="5.89172">
        <ele>436.60000610352</ele>
        <time>2021-01-18T10:36:41.000Z</time>
      </trkpt>
      <trkpt lat="43.743" lon="5.89161">
        <ele>436.60000610352</ele>
        <time>2021-01-18T10:36:47.000Z</time>
      </trkpt>
      <trkpt lat="43.74292" lon="5.89158">
        <ele>436.20001220703</ele>
        <time>2021-01-18T10:36:51.000Z</time>
      </trkpt>
      <trkpt lat="43.7428" lon="5.89165">
        <ele>435.20001220703</ele>
        <time>2021-01-18T10:36:56.000Z</time>
      </trkpt>
      <trkpt lat="43.7427" lon="5.89177">
        <ele>434.79998779297</ele>
        <time>2021-01-18T10:37:00.000Z</time>
      </trkpt>
      <trkpt lat="43.74262" lon="5.89174">
        <ele>434.79998779297</ele>
        <time>2021-01-18T10:37:03.000Z</time>
      </trkpt>
      <trkpt lat="43.7426" lon="5.89174">
        <ele>434.79998779297</ele>
        <time>2021-01-18T10:37:04.000Z</time>
      </trkpt>
      <trkpt lat="43.74247" lon="5.89179">
        <ele>435.39999389648</ele>
        <time>2021-01-18T10:37:09.000Z</time>
      </trkpt>
      <trkpt lat="43.7424" lon="5.89183">
        <ele>435.39999389648</ele>
        <time>2021-01-18T10:37:11.000Z</time>
      </trkpt>
      <trkpt lat="43.74232" lon="5.89185">
        <ele>435.60000610352</ele>
        <time>2021-01-18T10:37:13.000Z</time>
      </trkpt>
      <trkpt lat="43.74224" lon="5.89182">
        <ele>435.79998779297</ele>
        <time>2021-01-18T10:37:16.000Z</time>
      </trkpt>
      <trkpt lat="43.74209" lon="5.89185">
        <ele>436</ele>
        <time>2021-01-18T10:37:21.000Z</time>
      </trkpt>
      <trkpt lat="43.74207" lon="5.89187">
        <ele>436.60000610352</ele>
        <time>2021-01-18T10:37:22.000Z</time>
      </trkpt>
      <trkpt lat="43.74196" lon="5.89201">
        <ele>437.20001220703</ele>
        <time>2021-01-18T10:37:27.000Z</time>
      </trkpt>
      <trkpt lat="43.74181" lon="5.8922">
        <ele>437.60000610352</ele>
        <time>2021-01-18T10:37:33.000Z</time>
      </trkpt>
      <trkpt lat="43.74178" lon="5.89222">
        <ele>437.60000610352</ele>
        <time>2021-01-18T10:37:34.000Z</time>
      </trkpt>
      <trkpt lat="43.74171" lon="5.89225">
        <ele>437.79998779297</ele>
        <time>2021-01-18T10:37:36.000Z</time>
      </trkpt>
      <trkpt lat="43.74158" lon="5.89233">
        <ele>438.20001220703</ele>
        <time>2021-01-18T10:37:40.000Z</time>
      </trkpt>
      <trkpt lat="43.74147" lon="5.89237">
        <ele>438.79998779297</ele>
        <time>2021-01-18T10:37:43.000Z</time>
      </trkpt>
      <trkpt lat="43.74135" lon="5.89242">
        <ele>439</ele>
        <time>2021-01-18T10:37:46.000Z</time>
      </trkpt>
      <trkpt lat="43.74124" lon="5.89248">
        <ele>439.60000610352</ele>
        <time>2021-01-18T10:37:51.000Z</time>
      </trkpt>
      <trkpt lat="43.74122" lon="5.89255">
        <ele>439.79998779297</ele>
        <time>2021-01-18T10:37:54.000Z</time>
      </trkpt>
      <trkpt lat="43.74121" lon="5.89263">
        <ele>440.39999389648</ele>
        <time>2021-01-18T10:37:57.000Z</time>
      </trkpt>
      <trkpt lat="43.7412" lon="5.8927">
        <ele>441</ele>
        <time>2021-01-18T10:38:00.000Z</time>
      </trkpt>
      <trkpt lat="43.74119" lon="5.89279">
        <ele>441.39999389648</ele>
        <time>2021-01-18T10:38:04.000Z</time>
      </trkpt>
      <trkpt lat="43.74118" lon="5.89289">
        <ele>442</ele>
        <time>2021-01-18T10:38:08.000Z</time>
      </trkpt>
      <trkpt lat="43.74117" lon="5.89293">
        <ele>442.20001220703</ele>
        <time>2021-01-18T10:38:10.000Z</time>
      </trkpt>
      <trkpt lat="43.74116" lon="5.89295">
        <ele>442.39999389648</ele>
        <time>2021-01-18T10:38:11.000Z</time>
      </trkpt>
      <trkpt lat="43.74113" lon="5.89304">
        <ele>442.79998779297</ele>
        <time>2021-01-18T10:38:15.000Z</time>
      </trkpt>
      <trkpt lat="43.74112" lon="5.89307">
        <ele>443</ele>
        <time>2021-01-18T10:38:16.000Z</time>
      </trkpt>
      <trkpt lat="43.74109" lon="5.89322">
        <ele>444.79998779297</ele>
        <time>2021-01-18T10:38:21.000Z</time>
      </trkpt>
      <trkpt lat="43.74108" lon="5.89331">
        <ele>446.20001220703</ele>
        <time>2021-01-18T10:38:24.000Z</time>
      </trkpt>
      <trkpt lat="43.74107" lon="5.89334">
        <ele>446.60000610352</ele>
        <time>2021-01-18T10:38:25.000Z</time>
      </trkpt>
      <trkpt lat="43.74104" lon="5.89337">
        <ele>447.39999389648</ele>
        <time>2021-01-18T10:38:27.000Z</time>
      </trkpt>
      <trkpt lat="43.74098" lon="5.89339">
        <ele>448.39999389648</ele>
        <time>2021-01-18T10:38:30.000Z</time>
      </trkpt>
      <trkpt lat="43.74092" lon="5.89337">
        <ele>449.39999389648</ele>
        <time>2021-01-18T10:38:33.000Z</time>
      </trkpt>
      <trkpt lat="43.74088" lon="5.89332">
        <ele>450.60000610352</ele>
        <time>2021-01-18T10:38:36.000Z</time>
      </trkpt>
      <trkpt lat="43.74084" lon="5.89331">
        <ele>451.39999389648</ele>
        <time>2021-01-18T10:38:38.000Z</time>
      </trkpt>
      <trkpt lat="43.74082" lon="5.8933">
        <ele>451.79998779297</ele>
        <time>2021-01-18T10:38:39.000Z</time>
      </trkpt>
      <trkpt lat="43.74074" lon="5.89329">
        <ele>452.79998779297</ele>
        <time>2021-01-18T10:38:42.000Z</time>
      </trkpt>
      <trkpt lat="43.7407" lon="5.89331">
        <ele>453.60000610352</ele>
        <time>2021-01-18T10:38:44.000Z</time>
      </trkpt>
      <trkpt lat="43.74065" lon="5.89332">
        <ele>454</ele>
        <time>2021-01-18T10:38:46.000Z</time>
      </trkpt>
      <trkpt lat="43.74057" lon="5.89331">
        <ele>454.39999389648</ele>
        <time>2021-01-18T10:38:49.000Z</time>
      </trkpt>
      <trkpt lat="43.74052" lon="5.89331">
        <ele>455.20001220703</ele>
        <time>2021-01-18T10:38:51.000Z</time>
      </trkpt>
      <trkpt lat="43.74048" lon="5.89333">
        <ele>456</ele>
        <time>2021-01-18T10:38:53.000Z</time>
      </trkpt>
      <trkpt lat="43.74046" lon="5.89334">
        <ele>456.20001220703</ele>
        <time>2021-01-18T10:38:54.000Z</time>
      </trkpt>
      <trkpt lat="43.74035" lon="5.89336">
        <ele>457.20001220703</ele>
        <time>2021-01-18T10:38:58.000Z</time>
      </trkpt>
      <trkpt lat="43.74031" lon="5.89336">
        <ele>457.39999389648</ele>
        <time>2021-01-18T10:38:59.000Z</time>
      </trkpt>
      <trkpt lat="43.74019" lon="5.89338">
        <ele>458</ele>
        <time>2021-01-18T10:39:04.000Z</time>
      </trkpt>
      <trkpt lat="43.74013" lon="5.89338">
        <ele>458.60000610352</ele>
        <time>2021-01-18T10:39:08.000Z</time>
      </trkpt>
      <trkpt lat="43.7401" lon="5.89337">
        <ele>459</ele>
        <time>2021-01-18T10:39:10.000Z</time>
      </trkpt>
      <trkpt lat="43.74005" lon="5.89334">
        <ele>459.79998779297</ele>
        <time>2021-01-18T10:39:15.000Z</time>
      </trkpt>
      <trkpt lat="43.74003" lon="5.89333">
        <ele>459.79998779297</ele>
        <time>2021-01-18T10:39:16.000Z</time>
      </trkpt>
      <trkpt lat="43.73994" lon="5.89333">
        <ele>460.60000610352</ele>
        <time>2021-01-18T10:39:22.000Z</time>
      </trkpt>
      <trkpt lat="43.73992" lon="5.89334">
        <ele>460.79998779297</ele>
        <time>2021-01-18T10:39:23.000Z</time>
      </trkpt>
      <trkpt lat="43.73986" lon="5.89336">
        <ele>461.60000610352</ele>
        <time>2021-01-18T10:39:27.000Z</time>
      </trkpt>
      <trkpt lat="43.73983" lon="5.89337">
        <ele>461.79998779297</ele>
        <time>2021-01-18T10:39:28.000Z</time>
      </trkpt>
      <trkpt lat="43.73977" lon="5.89337">
        <ele>463.39999389648</ele>
        <time>2021-01-18T10:39:32.000Z</time>
      </trkpt>
      <trkpt lat="43.73973" lon="5.89338">
        <ele>464</ele>
        <time>2021-01-18T10:39:34.000Z</time>
      </trkpt>
      <trkpt lat="43.7397" lon="5.8934">
        <ele>464.60000610352</ele>
        <time>2021-01-18T10:39:36.000Z</time>
      </trkpt>
      <trkpt lat="43.73966" lon="5.89345">
        <ele>466</ele>
        <time>2021-01-18T10:39:39.000Z</time>
      </trkpt>
      <trkpt lat="43.73963" lon="5.89349">
        <ele>466.60000610352</ele>
        <time>2021-01-18T10:39:41.000Z</time>
      </trkpt>
      <trkpt lat="43.7396" lon="5.89357">
        <ele>467.20001220703</ele>
        <time>2021-01-18T10:39:44.000Z</time>
      </trkpt>
      <trkpt lat="43.73952" lon="5.89365">
        <ele>468.20001220703</ele>
        <time>2021-01-18T10:39:48.000Z</time>
      </trkpt>
      <trkpt lat="43.7395" lon="5.89367">
        <ele>468.39999389648</ele>
        <time>2021-01-18T10:39:49.000Z</time>
      </trkpt>
      <trkpt lat="43.73939" lon="5.89375">
        <ele>469</ele>
        <time>2021-01-18T10:39:54.000Z</time>
      </trkpt>
      <trkpt lat="43.73934" lon="5.89378">
        <ele>469.39999389648</ele>
        <time>2021-01-18T10:39:56.000Z</time>
      </trkpt>
      <trkpt lat="43.73926" lon="5.89381">
        <ele>470.20001220703</ele>
        <time>2021-01-18T10:39:59.000Z</time>
      </trkpt>
      <trkpt lat="43.73919" lon="5.89388">
        <ele>470.39999389648</ele>
        <time>2021-01-18T10:40:02.000Z</time>
      </trkpt>
      <trkpt lat="43.73914" lon="5.89391">
        <ele>471</ele>
        <time>2021-01-18T10:40:04.000Z</time>
      </trkpt>
      <trkpt lat="43.73906" lon="5.89394">
        <ele>471.79998779297</ele>
        <time>2021-01-18T10:40:07.000Z</time>
      </trkpt>
      <trkpt lat="43.73903" lon="5.89396">
        <ele>472.20001220703</ele>
        <time>2021-01-18T10:40:09.000Z</time>
      </trkpt>
      <trkpt lat="43.73899" lon="5.89397">
        <ele>473</ele>
        <time>2021-01-18T10:40:11.000Z</time>
      </trkpt>
      <trkpt lat="43.73894" lon="5.89401">
        <ele>474</ele>
        <time>2021-01-18T10:40:14.000Z</time>
      </trkpt>
      <trkpt lat="43.73889" lon="5.89403">
        <ele>475.20001220703</ele>
        <time>2021-01-18T10:40:17.000Z</time>
      </trkpt>
      <trkpt lat="43.73885" lon="5.89404">
        <ele>476.60000610352</ele>
        <time>2021-01-18T10:40:19.000Z</time>
      </trkpt>
      <trkpt lat="43.73881" lon="5.89404">
        <ele>477</ele>
        <time>2021-01-18T10:40:21.000Z</time>
      </trkpt>
      <trkpt lat="43.73879" lon="5.89404">
        <ele>477.60000610352</ele>
        <time>2021-01-18T10:40:22.000Z</time>
      </trkpt>
      <trkpt lat="43.73875" lon="5.89402">
        <ele>478.39999389648</ele>
        <time>2021-01-18T10:40:24.000Z</time>
      </trkpt>
      <trkpt lat="43.73874" lon="5.894">
        <ele>478.60000610352</ele>
        <time>2021-01-18T10:40:25.000Z</time>
      </trkpt>
      <trkpt lat="43.73872" lon="5.89396">
        <ele>479.20001220703</ele>
        <time>2021-01-18T10:40:27.000Z</time>
      </trkpt>
      <trkpt lat="43.73869" lon="5.89392">
        <ele>479.79998779297</ele>
        <time>2021-01-18T10:40:29.000Z</time>
      </trkpt>
      <trkpt lat="43.73867" lon="5.8939">
        <ele>480.20001220703</ele>
        <time>2021-01-18T10:40:30.000Z</time>
      </trkpt>
      <trkpt lat="43.73865" lon="5.89386">
        <ele>481.20001220703</ele>
        <time>2021-01-18T10:40:32.000Z</time>
      </trkpt>
      <trkpt lat="43.73863" lon="5.89384">
        <ele>482.39999389648</ele>
        <time>2021-01-18T10:40:34.000Z</time>
      </trkpt>
      <trkpt lat="43.73861" lon="5.89384">
        <ele>483</ele>
        <time>2021-01-18T10:40:35.000Z</time>
      </trkpt>
      <trkpt lat="43.73858" lon="5.89384">
        <ele>483.79998779297</ele>
        <time>2021-01-18T10:40:37.000Z</time>
      </trkpt>
      <trkpt lat="43.73855" lon="5.8938">
        <ele>485.20001220703</ele>
        <time>2021-01-18T10:40:40.000Z</time>
      </trkpt>
      <trkpt lat="43.73852" lon="5.89378">
        <ele>486.60000610352</ele>
        <time>2021-01-18T10:40:42.000Z</time>
      </trkpt>
      <trkpt lat="43.7385" lon="5.89376">
        <ele>487.39999389648</ele>
        <time>2021-01-18T10:40:44.000Z</time>
      </trkpt>
      <trkpt lat="43.73849" lon="5.89374">
        <ele>487.79998779297</ele>
        <time>2021-01-18T10:40:45.000Z</time>
      </trkpt>
      <trkpt lat="43.73847" lon="5.89372">
        <ele>488.79998779297</ele>
        <time>2021-01-18T10:40:47.000Z</time>
      </trkpt>
      <trkpt lat="43.73846" lon="5.89371">
        <ele>489.60000610352</ele>
        <time>2021-01-18T10:40:48.000Z</time>
      </trkpt>
      <trkpt lat="43.73844" lon="5.89367">
        <ele>490.79998779297</ele>
        <time>2021-01-18T10:40:51.000Z</time>
      </trkpt>
      <trkpt lat="43.73842" lon="5.89366">
        <ele>492</ele>
        <time>2021-01-18T10:40:54.000Z</time>
      </trkpt>
      <trkpt lat="43.73843" lon="5.89367">
        <ele>493</ele>
        <time>2021-01-18T10:40:57.000Z</time>
      </trkpt>
      <trkpt lat="43.73843" lon="5.89366">
        <ele>494.20001220703</ele>
        <time>2021-01-18T10:41:01.000Z</time>
      </trkpt>
      <trkpt lat="43.73843" lon="5.89366">
        <ele>494.39999389648</ele>
        <time>2021-01-18T10:41:04.000Z</time>
      </trkpt>
      <trkpt lat="43.73842" lon="5.89366">
        <ele>494.60000610352</ele>
        <time>2021-01-18T10:41:10.000Z</time>
      </trkpt>
      <trkpt lat="43.73842" lon="5.89365">
        <ele>494.60000610352</ele>
        <time>2021-01-18T10:41:18.000Z</time>
      </trkpt>
      <trkpt lat="43.73839" lon="5.89365">
        <ele>494.79998779297</ele>
        <time>2021-01-18T10:41:22.000Z</time>
      </trkpt>
      <trkpt lat="43.73837" lon="5.89363">
        <ele>494.79998779297</ele>
        <time>2021-01-18T10:41:25.000Z</time>
      </trkpt>
      <trkpt lat="43.73831" lon="5.89363">
        <ele>495.39999389648</ele>
        <time>2021-01-18T10:41:30.000Z</time>
      </trkpt>
      <trkpt lat="43.73828" lon="5.89362">
        <ele>496.60000610352</ele>
        <time>2021-01-18T10:41:34.000Z</time>
      </trkpt>
      <trkpt lat="43.73827" lon="5.89363">
        <ele>497.79998779297</ele>
        <time>2021-01-18T10:41:37.000Z</time>
      </trkpt>
      <trkpt lat="43.73826" lon="5.89362">
        <ele>499</ele>
        <time>2021-01-18T10:41:40.000Z</time>
      </trkpt>
      <trkpt lat="43.73825" lon="5.89362">
        <ele>499.20001220703</ele>
        <time>2021-01-18T10:41:41.000Z</time>
      </trkpt>
      <trkpt lat="43.73822" lon="5.89358">
        <ele>499.79998779297</ele>
        <time>2021-01-18T10:41:45.000Z</time>
      </trkpt>
      <trkpt lat="43.7382" lon="5.89356">
        <ele>500.20001220703</ele>
        <time>2021-01-18T10:41:47.000Z</time>
      </trkpt>
      <trkpt lat="43.73819" lon="5.89356">
        <ele>500.20001220703</ele>
        <time>2021-01-18T10:41:48.000Z</time>
      </trkpt>
      <trkpt lat="43.73813" lon="5.89357">
        <ele>501.20001220703</ele>
        <time>2021-01-18T10:41:52.000Z</time>
      </trkpt>
      <trkpt lat="43.73808" lon="5.89359">
        <ele>502.60000610352</ele>
        <time>2021-01-18T10:41:55.000Z</time>
      </trkpt>
      <trkpt lat="43.73807" lon="5.89359">
        <ele>503</ele>
        <time>2021-01-18T10:41:56.000Z</time>
      </trkpt>
      <trkpt lat="43.73804" lon="5.8936">
        <ele>503.79998779297</ele>
        <time>2021-01-18T10:41:58.000Z</time>
      </trkpt>
      <trkpt lat="43.73797" lon="5.89362">
        <ele>504.79998779297</ele>
        <time>2021-01-18T10:42:02.000Z</time>
      </trkpt>
      <trkpt lat="43.73795" lon="5.89362">
        <ele>505.20001220703</ele>
        <time>2021-01-18T10:42:03.000Z</time>
      </trkpt>
      <trkpt lat="43.73791" lon="5.89364">
        <ele>506.20001220703</ele>
        <time>2021-01-18T10:42:06.000Z</time>
      </trkpt>
      <trkpt lat="43.73788" lon="5.89367">
        <ele>507</ele>
        <time>2021-01-18T10:42:09.000Z</time>
      </trkpt>
      <trkpt lat="43.73787" lon="5.89367">
        <ele>507.20001220703</ele>
        <time>2021-01-18T10:42:10.000Z</time>
      </trkpt>
      <trkpt lat="43.73783" lon="5.89368">
        <ele>508.79998779297</ele>
        <time>2021-01-18T10:42:14.000Z</time>
      </trkpt>
      <trkpt lat="43.73782" lon="5.89369">
        <ele>509.20001220703</ele>
        <time>2021-01-18T10:42:15.000Z</time>
      </trkpt>
      <trkpt lat="43.73781" lon="5.89369">
        <ele>509.39999389648</ele>
        <time>2021-01-18T10:42:16.000Z</time>
      </trkpt>
      <trkpt lat="43.73781" lon="5.8937">
        <ele>510</ele>
        <time>2021-01-18T10:42:17.000Z</time>
      </trkpt>
      <trkpt lat="43.7378" lon="5.89371">
        <ele>510.20001220703</ele>
        <time>2021-01-18T10:42:18.000Z</time>
      </trkpt>
      <trkpt lat="43.73779" lon="5.89372">
        <ele>511</ele>
        <time>2021-01-18T10:42:21.000Z</time>
      </trkpt>
      <trkpt lat="43.73773" lon="5.89375">
        <ele>512.20001220703</ele>
        <time>2021-01-18T10:42:27.000Z</time>
      </trkpt>
      <trkpt lat="43.73771" lon="5.89377">
        <ele>512.40002441406</ele>
        <time>2021-01-18T10:42:29.000Z</time>
      </trkpt>
      <trkpt lat="43.73765" lon="5.89381">
        <ele>513</ele>
        <time>2021-01-18T10:42:34.000Z</time>
      </trkpt>
      <trkpt lat="43.73764" lon="5.89381">
        <ele>513.20001220703</ele>
        <time>2021-01-18T10:42:35.000Z</time>
      </trkpt>
      <trkpt lat="43.73763" lon="5.89382">
        <ele>513.59997558594</ele>
        <time>2021-01-18T10:42:37.000Z</time>
      </trkpt>
      <trkpt lat="43.73761" lon="5.89382">
        <ele>514.40002441406</ele>
        <time>2021-01-18T10:42:40.000Z</time>
      </trkpt>
      <trkpt lat="43.73758" lon="5.89384">
        <ele>515.59997558594</ele>
        <time>2021-01-18T10:42:44.000Z</time>
      </trkpt>
      <trkpt lat="43.73757" lon="5.89386">
        <ele>515.79998779297</ele>
        <time>2021-01-18T10:42:45.000Z</time>
      </trkpt>
      <trkpt lat="43.73755" lon="5.89387">
        <ele>516.20001220703</ele>
        <time>2021-01-18T10:42:46.000Z</time>
      </trkpt>
      <trkpt lat="43.73747" lon="5.89391">
        <ele>516.59997558594</ele>
        <time>2021-01-18T10:42:50.000Z</time>
      </trkpt>
      <trkpt lat="43.73744" lon="5.89392">
        <ele>517</ele>
        <time>2021-01-18T10:42:52.000Z</time>
      </trkpt>
      <trkpt lat="43.73735" lon="5.89395">
        <ele>517.40002441406</ele>
        <time>2021-01-18T10:42:58.000Z</time>
      </trkpt>
      <trkpt lat="43.73731" lon="5.89394">
        <ele>517.79998779297</ele>
        <time>2021-01-18T10:43:01.000Z</time>
      </trkpt>
      <trkpt lat="43.7373" lon="5.89394">
        <ele>518.40002441406</ele>
        <time>2021-01-18T10:43:03.000Z</time>
      </trkpt>
      <trkpt lat="43.73728" lon="5.89393">
        <ele>519</ele>
        <time>2021-01-18T10:43:06.000Z</time>
      </trkpt>
      <trkpt lat="43.73727" lon="5.89392">
        <ele>520.20001220703</ele>
        <time>2021-01-18T10:43:11.000Z</time>
      </trkpt>
      <trkpt lat="43.73726" lon="5.89391">
        <ele>520.59997558594</ele>
        <time>2021-01-18T10:43:13.000Z</time>
      </trkpt>
      <trkpt lat="43.73724" lon="5.89389">
        <ele>521.40002441406</ele>
        <time>2021-01-18T10:43:15.000Z</time>
      </trkpt>
      <trkpt lat="43.7372" lon="5.89389">
        <ele>522</ele>
        <time>2021-01-18T10:43:19.000Z</time>
      </trkpt>
      <trkpt lat="43.7372" lon="5.89389">
        <ele>522.40002441406</ele>
        <time>2021-01-18T10:43:24.000Z</time>
      </trkpt>
      <trkpt lat="43.7372" lon="5.89389">
        <ele>522.59997558594</ele>
        <time>2021-01-18T10:43:31.000Z</time>
      </trkpt>
      <trkpt lat="43.7372" lon="5.89389">
        <ele>522.79998779297</ele>
        <time>2021-01-18T10:43:49.000Z</time>
      </trkpt>
      <trkpt lat="43.7372" lon="5.89389">
        <ele>523.20001220703</ele>
        <time>2021-01-18T10:44:15.000Z</time>
      </trkpt>
      <trkpt lat="43.7372" lon="5.89389">
        <ele>523.20001220703</ele>
        <time>2021-01-18T10:44:39.000Z</time>
      </trkpt>
      <trkpt lat="43.7372" lon="5.89389">
        <ele>523</ele>
        <time>2021-01-18T10:45:05.000Z</time>
      </trkpt>
      <trkpt lat="43.73719" lon="5.89389">
        <ele>522.79998779297</ele>
        <time>2021-01-18T10:45:28.000Z</time>
      </trkpt>
      <trkpt lat="43.73719" lon="5.89388">
        <ele>522.79998779297</ele>
        <time>2021-01-18T10:45:50.000Z</time>
      </trkpt>
      <trkpt lat="43.73719" lon="5.89388">
        <ele>522.59997558594</ele>
        <time>2021-01-18T10:46:12.000Z</time>
      </trkpt>
      <trkpt lat="43.73719" lon="5.89388">
        <ele>522.59997558594</ele>
        <time>2021-01-18T10:46:16.000Z</time>
      </trkpt>
      <trkpt lat="43.73719" lon="5.89388">
        <ele>522.59997558594</ele>
        <time>2021-01-18T10:46:36.000Z</time>
      </trkpt>
      <trkpt lat="43.73717" lon="5.89391">
        <ele>522.59997558594</ele>
        <time>2021-01-18T10:46:43.000Z</time>
      </trkpt>
      <trkpt lat="43.73705" lon="5.89397">
        <ele>522.59997558594</ele>
        <time>2021-01-18T10:46:49.000Z</time>
      </trkpt>
      <trkpt lat="43.73683" lon="5.89403">
        <ele>522.59997558594</ele>
        <time>2021-01-18T10:46:59.000Z</time>
      </trkpt>
      <trkpt lat="43.73673" lon="5.89416">
        <ele>523</ele>
        <time>2021-01-18T10:47:05.000Z</time>
      </trkpt>
      <trkpt lat="43.73664" lon="5.8942">
        <ele>523.40002441406</ele>
        <time>2021-01-18T10:47:09.000Z</time>
      </trkpt>
      <trkpt lat="43.73655" lon="5.89418">
        <ele>524</ele>
        <time>2021-01-18T10:47:13.000Z</time>
      </trkpt>
      <trkpt lat="43.73651" lon="5.89421">
        <ele>524.40002441406</ele>
        <time>2021-01-18T10:47:15.000Z</time>
      </trkpt>
      <trkpt lat="43.73648" lon="5.89421">
        <ele>524.40002441406</ele>
        <time>2021-01-18T10:47:16.000Z</time>
      </trkpt>
      <trkpt lat="43.73641" lon="5.8942">
        <ele>524.79998779297</ele>
        <time>2021-01-18T10:47:19.000Z</time>
      </trkpt>
      <trkpt lat="43.73629" lon="5.89424">
        <ele>525.20001220703</ele>
        <time>2021-01-18T10:47:23.000Z</time>
      </trkpt>
      <trkpt lat="43.73615" lon="5.89428">
        <ele>525.20001220703</ele>
        <time>2021-01-18T10:47:28.000Z</time>
      </trkpt>
      <trkpt lat="43.73599" lon="5.89438">
        <ele>525.79998779297</ele>
        <time>2021-01-18T10:47:34.000Z</time>
      </trkpt>
      <trkpt lat="43.73585" lon="5.89454">
        <ele>526.40002441406</ele>
        <time>2021-01-18T10:47:40.000Z</time>
      </trkpt>
      <trkpt lat="43.73567" lon="5.89472">
        <ele>527.40002441406</ele>
        <time>2021-01-18T10:47:47.000Z</time>
      </trkpt>
      <trkpt lat="43.73562" lon="5.89476">
        <ele>527.59997558594</ele>
        <time>2021-01-18T10:47:49.000Z</time>
      </trkpt>
      <trkpt lat="43.73548" lon="5.89488">
        <ele>527.59997558594</ele>
        <time>2021-01-18T10:47:53.000Z</time>
      </trkpt>
      <trkpt lat="43.73523" lon="5.89514">
        <ele>527.40002441406</ele>
        <time>2021-01-18T10:48:00.000Z</time>
      </trkpt>
      <trkpt lat="43.73516" lon="5.89519">
        <ele>526.20001220703</ele>
        <time>2021-01-18T10:48:02.000Z</time>
      </trkpt>
      <trkpt lat="43.73512" lon="5.89522">
        <ele>525.59997558594</ele>
        <time>2021-01-18T10:48:03.000Z</time>
      </trkpt>
      <trkpt lat="43.73508" lon="5.89527">
        <ele>525</ele>
        <time>2021-01-18T10:48:04.000Z</time>
      </trkpt>
      <trkpt lat="43.73505" lon="5.89531">
        <ele>524.59997558594</ele>
        <time>2021-01-18T10:48:05.000Z</time>
      </trkpt>
      <trkpt lat="43.73501" lon="5.89534">
        <ele>524.40002441406</ele>
        <time>2021-01-18T10:48:06.000Z</time>
      </trkpt>
      <trkpt lat="43.73495" lon="5.89538">
        <ele>523.79998779297</ele>
        <time>2021-01-18T10:48:08.000Z</time>
      </trkpt>
      <trkpt lat="43.73492" lon="5.89539">
        <ele>523.59997558594</ele>
        <time>2021-01-18T10:48:09.000Z</time>
      </trkpt>
      <trkpt lat="43.7349" lon="5.8954">
        <ele>522.59997558594</ele>
        <time>2021-01-18T10:48:10.000Z</time>
      </trkpt>
      <trkpt lat="43.73484" lon="5.89549">
        <ele>521.79998779297</ele>
        <time>2021-01-18T10:48:14.000Z</time>
      </trkpt>
      <trkpt lat="43.73483" lon="5.89565">
        <ele>521.59997558594</ele>
        <time>2021-01-18T10:48:20.000Z</time>
      </trkpt>
      <trkpt lat="43.73482" lon="5.89567">
        <ele>521.59997558594</ele>
        <time>2021-01-18T10:48:21.000Z</time>
      </trkpt>
      <trkpt lat="43.73478" lon="5.89571">
        <ele>521.79998779297</ele>
        <time>2021-01-18T10:48:24.000Z</time>
      </trkpt>
      <trkpt lat="43.73472" lon="5.89581">
        <ele>522.20001220703</ele>
        <time>2021-01-18T10:48:28.000Z</time>
      </trkpt>
      <trkpt lat="43.7347" lon="5.89587">
        <ele>522.40002441406</ele>
        <time>2021-01-18T10:48:30.000Z</time>
      </trkpt>
      <trkpt lat="43.73466" lon="5.89595">
        <ele>522.79998779297</ele>
        <time>2021-01-18T10:48:33.000Z</time>
      </trkpt>
      <trkpt lat="43.73457" lon="5.89601">
        <ele>523.59997558594</ele>
        <time>2021-01-18T10:48:37.000Z</time>
      </trkpt>
      <trkpt lat="43.73457" lon="5.89604">
        <ele>523.59997558594</ele>
        <time>2021-01-18T10:48:38.000Z</time>
      </trkpt>
      <trkpt lat="43.7346" lon="5.89611">
        <ele>524.40002441406</ele>
        <time>2021-01-18T10:48:41.000Z</time>
      </trkpt>
      <trkpt lat="43.7346" lon="5.89617">
        <ele>524.79998779297</ele>
        <time>2021-01-18T10:48:43.000Z</time>
      </trkpt>
      <trkpt lat="43.7346" lon="5.89621">
        <ele>525.40002441406</ele>
        <time>2021-01-18T10:48:45.000Z</time>
      </trkpt>
      <trkpt lat="43.7346" lon="5.89622">
        <ele>525.40002441406</ele>
        <time>2021-01-18T10:48:46.000Z</time>
      </trkpt>
      <trkpt lat="43.73459" lon="5.89627">
        <ele>526</ele>
        <time>2021-01-18T10:48:48.000Z</time>
      </trkpt>
      <trkpt lat="43.73459" lon="5.89631">
        <ele>526.79998779297</ele>
        <time>2021-01-18T10:48:50.000Z</time>
      </trkpt>
      <trkpt lat="43.7346" lon="5.89632">
        <ele>527.20001220703</ele>
        <time>2021-01-18T10:48:51.000Z</time>
      </trkpt>
      <trkpt lat="43.73459" lon="5.89638">
        <ele>528</ele>
        <time>2021-01-18T10:48:54.000Z</time>
      </trkpt>
      <trkpt lat="43.7346" lon="5.89641">
        <ele>528.20001220703</ele>
        <time>2021-01-18T10:48:55.000Z</time>
      </trkpt>
      <trkpt lat="43.7346" lon="5.89643">
        <ele>528.40002441406</ele>
        <time>2021-01-18T10:48:56.000Z</time>
      </trkpt>
      <trkpt lat="43.73462" lon="5.89645">
        <ele>528.59997558594</ele>
        <time>2021-01-18T10:48:57.000Z</time>
      </trkpt>
      <trkpt lat="43.73468" lon="5.89649">
        <ele>529.20001220703</ele>
        <time>2021-01-18T10:49:00.000Z</time>
      </trkpt>
      <trkpt lat="43.73469" lon="5.8965">
        <ele>529.40002441406</ele>
        <time>2021-01-18T10:49:01.000Z</time>
      </trkpt>
      <trkpt lat="43.73471" lon="5.89655">
        <ele>530.40002441406</ele>
        <time>2021-01-18T10:49:06.000Z</time>
      </trkpt>
      <trkpt lat="43.73471" lon="5.89654">
        <ele>531.40002441406</ele>
        <time>2021-01-18T10:49:16.000Z</time>
      </trkpt>
      <trkpt lat="43.7347" lon="5.89656">
        <ele>531.40002441406</ele>
        <time>2021-01-18T10:49:19.000Z</time>
      </trkpt>
      <trkpt lat="43.73467" lon="5.89659">
        <ele>531.40002441406</ele>
        <time>2021-01-18T10:49:22.000Z</time>
      </trkpt>
      <trkpt lat="43.73465" lon="5.89661">
        <ele>531.40002441406</ele>
        <time>2021-01-18T10:49:24.000Z</time>
      </trkpt>
      <trkpt lat="43.73458" lon="5.89666">
        <ele>531.40002441406</ele>
        <time>2021-01-18T10:49:28.000Z</time>
      </trkpt>
      <trkpt lat="43.73455" lon="5.89669">
        <ele>531.59997558594</ele>
        <time>2021-01-18T10:49:30.000Z</time>
      </trkpt>
      <trkpt lat="43.73455" lon="5.89671">
        <ele>531.59997558594</ele>
        <time>2021-01-18T10:49:31.000Z</time>
      </trkpt>
      <trkpt lat="43.73455" lon="5.89673">
        <ele>531.79998779297</ele>
        <time>2021-01-18T10:49:32.000Z</time>
      </trkpt>
      <trkpt lat="43.7345" lon="5.8968">
        <ele>532.79998779297</ele>
        <time>2021-01-18T10:49:37.000Z</time>
      </trkpt>
      <trkpt lat="43.73445" lon="5.89685">
        <ele>534</ele>
        <time>2021-01-18T10:49:41.000Z</time>
      </trkpt>
      <trkpt lat="43.73441" lon="5.89688">
        <ele>534.59997558594</ele>
        <time>2021-01-18T10:49:43.000Z</time>
      </trkpt>
      <trkpt lat="43.7344" lon="5.89692">
        <ele>535</ele>
        <time>2021-01-18T10:49:45.000Z</time>
      </trkpt>
      <trkpt lat="43.7344" lon="5.89694">
        <ele>535.20001220703</ele>
        <time>2021-01-18T10:49:46.000Z</time>
      </trkpt>
      <trkpt lat="43.73439" lon="5.89695">
        <ele>535.40002441406</ele>
        <time>2021-01-18T10:49:47.000Z</time>
      </trkpt>
      <trkpt lat="43.73439" lon="5.89697">
        <ele>535.59997558594</ele>
        <time>2021-01-18T10:49:48.000Z</time>
      </trkpt>
      <trkpt lat="43.73439" lon="5.89703">
        <ele>536.20001220703</ele>
        <time>2021-01-18T10:49:52.000Z</time>
      </trkpt>
      <trkpt lat="43.73438" lon="5.89704">
        <ele>536.40002441406</ele>
        <time>2021-01-18T10:49:53.000Z</time>
      </trkpt>
      <trkpt lat="43.73438" lon="5.89705">
        <ele>536.59997558594</ele>
        <time>2021-01-18T10:49:54.000Z</time>
      </trkpt>
      <trkpt lat="43.73434" lon="5.89715">
        <ele>537.59997558594</ele>
        <time>2021-01-18T10:49:59.000Z</time>
      </trkpt>
      <trkpt lat="43.73432" lon="5.89727">
        <ele>538.40002441406</ele>
        <time>2021-01-18T10:50:04.000Z</time>
      </trkpt>
      <trkpt lat="43.73431" lon="5.89734">
        <ele>539</ele>
        <time>2021-01-18T10:50:07.000Z</time>
      </trkpt>
      <trkpt lat="43.73431" lon="5.8974">
        <ele>540</ele>
        <time>2021-01-18T10:50:10.000Z</time>
      </trkpt>
      <trkpt lat="43.73431" lon="5.89742">
        <ele>540.59997558594</ele>
        <time>2021-01-18T10:50:11.000Z</time>
      </trkpt>
      <trkpt lat="43.73429" lon="5.89748">
        <ele>541.59997558594</ele>
        <time>2021-01-18T10:50:14.000Z</time>
      </trkpt>
      <trkpt lat="43.73427" lon="5.89751">
        <ele>542.20001220703</ele>
        <time>2021-01-18T10:50:16.000Z</time>
      </trkpt>
      <trkpt lat="43.73426" lon="5.89752">
        <ele>542.59997558594</ele>
        <time>2021-01-18T10:50:17.000Z</time>
      </trkpt>
      <trkpt lat="43.73424" lon="5.89757">
        <ele>543.79998779297</ele>
        <time>2021-01-18T10:50:20.000Z</time>
      </trkpt>
      <trkpt lat="43.73421" lon="5.89765">
        <ele>545</ele>
        <time>2021-01-18T10:50:24.000Z</time>
      </trkpt>
      <trkpt lat="43.73419" lon="5.89771">
        <ele>546.20001220703</ele>
        <time>2021-01-18T10:50:27.000Z</time>
      </trkpt>
      <trkpt lat="43.73418" lon="5.89772">
        <ele>546.59997558594</ele>
        <time>2021-01-18T10:50:28.000Z</time>
      </trkpt>
      <trkpt lat="43.73418" lon="5.89776">
        <ele>547.40002441406</ele>
        <time>2021-01-18T10:50:30.000Z</time>
      </trkpt>
      <trkpt lat="43.73413" lon="5.89784">
        <ele>548.79998779297</ele>
        <time>2021-01-18T10:50:34.000Z</time>
      </trkpt>
      <trkpt lat="43.73413" lon="5.89787">
        <ele>549</ele>
        <time>2021-01-18T10:50:35.000Z</time>
      </trkpt>
      <trkpt lat="43.73413" lon="5.89793">
        <ele>550.20001220703</ele>
        <time>2021-01-18T10:50:37.000Z</time>
      </trkpt>
      <trkpt lat="43.73409" lon="5.898">
        <ele>551.40002441406</ele>
        <time>2021-01-18T10:50:41.000Z</time>
      </trkpt>
      <trkpt lat="43.73405" lon="5.89808">
        <ele>552.40002441406</ele>
        <time>2021-01-18T10:50:45.000Z</time>
      </trkpt>
      <trkpt lat="43.73405" lon="5.8981">
        <ele>552.59997558594</ele>
        <time>2021-01-18T10:50:46.000Z</time>
      </trkpt>
      <trkpt lat="43.73406" lon="5.89824">
        <ele>553.79998779297</ele>
        <time>2021-01-18T10:50:51.000Z</time>
      </trkpt>
      <trkpt lat="43.73404" lon="5.89829">
        <ele>554.20001220703</ele>
        <time>2021-01-18T10:50:53.000Z</time>
      </trkpt>
      <trkpt lat="43.73401" lon="5.89836">
        <ele>554.79998779297</ele>
        <time>2021-01-18T10:50:56.000Z</time>
      </trkpt>
      <trkpt lat="43.734" lon="5.89837">
        <ele>555</ele>
        <time>2021-01-18T10:50:57.000Z</time>
      </trkpt>
      <trkpt lat="43.73394" lon="5.89845">
        <ele>556.20001220703</ele>
        <time>2021-01-18T10:51:01.000Z</time>
      </trkpt>
      <trkpt lat="43.73392" lon="5.89849">
        <ele>556.79998779297</ele>
        <time>2021-01-18T10:51:03.000Z</time>
      </trkpt>
      <trkpt lat="43.73392" lon="5.89853">
        <ele>557.59997558594</ele>
        <time>2021-01-18T10:51:05.000Z</time>
      </trkpt>
      <trkpt lat="43.73391" lon="5.89862">
        <ele>558.59997558594</ele>
        <time>2021-01-18T10:51:08.000Z</time>
      </trkpt>
      <trkpt lat="43.7339" lon="5.89864">
        <ele>559</ele>
        <time>2021-01-18T10:51:09.000Z</time>
      </trkpt>
      <trkpt lat="43.73386" lon="5.8987">
        <ele>559.59997558594</ele>
        <time>2021-01-18T10:51:12.000Z</time>
      </trkpt>
      <trkpt lat="43.7338" lon="5.89879">
        <ele>560.79998779297</ele>
        <time>2021-01-18T10:51:17.000Z</time>
      </trkpt>
      <trkpt lat="43.73378" lon="5.89881">
        <ele>561</ele>
        <time>2021-01-18T10:51:18.000Z</time>
      </trkpt>
      <trkpt lat="43.73372" lon="5.89888">
        <ele>562</ele>
        <time>2021-01-18T10:51:22.000Z</time>
      </trkpt>
      <trkpt lat="43.7337" lon="5.89892">
        <ele>562.40002441406</ele>
        <time>2021-01-18T10:51:24.000Z</time>
      </trkpt>
      <trkpt lat="43.73368" lon="5.89897">
        <ele>563</ele>
        <time>2021-01-18T10:51:26.000Z</time>
      </trkpt>
      <trkpt lat="43.73364" lon="5.89911">
        <ele>564.20001220703</ele>
        <time>2021-01-18T10:51:31.000Z</time>
      </trkpt>
      <trkpt lat="43.73359" lon="5.89921">
        <ele>565.79998779297</ele>
        <time>2021-01-18T10:51:35.000Z</time>
      </trkpt>
      <trkpt lat="43.73358" lon="5.89927">
        <ele>566.20001220703</ele>
        <time>2021-01-18T10:51:37.000Z</time>
      </trkpt>
      <trkpt lat="43.73355" lon="5.89935">
        <ele>567</ele>
        <time>2021-01-18T10:51:40.000Z</time>
      </trkpt>
      <trkpt lat="43.7335" lon="5.89944">
        <ele>567.59997558594</ele>
        <time>2021-01-18T10:51:43.000Z</time>
      </trkpt>
      <trkpt lat="43.73347" lon="5.89955">
        <ele>568.40002441406</ele>
        <time>2021-01-18T10:51:46.000Z</time>
      </trkpt>
      <trkpt lat="43.73347" lon="5.89959">
        <ele>568.59997558594</ele>
        <time>2021-01-18T10:51:47.000Z</time>
      </trkpt>
      <trkpt lat="43.7335" lon="5.89973">
        <ele>569.59997558594</ele>
        <time>2021-01-18T10:51:50.000Z</time>
      </trkpt>
      <trkpt lat="43.7335" lon="5.89982">
        <ele>569.79998779297</ele>
        <time>2021-01-18T10:51:52.000Z</time>
      </trkpt>
      <trkpt lat="43.73345" lon="5.90004">
        <ele>570.59997558594</ele>
        <time>2021-01-18T10:51:57.000Z</time>
      </trkpt>
      <trkpt lat="43.73339" lon="5.90022">
        <ele>571</ele>
        <time>2021-01-18T10:52:02.000Z</time>
      </trkpt>
      <trkpt lat="43.73332" lon="5.90034">
        <ele>571.59997558594</ele>
        <time>2021-01-18T10:52:06.000Z</time>
      </trkpt>
      <trkpt lat="43.73331" lon="5.90037">
        <ele>571.79998779297</ele>
        <time>2021-01-18T10:52:07.000Z</time>
      </trkpt>
      <trkpt lat="43.73331" lon="5.9004">
        <ele>571.79998779297</ele>
        <time>2021-01-18T10:52:08.000Z</time>
      </trkpt>
      <trkpt lat="43.73328" lon="5.90053">
        <ele>572.40002441406</ele>
        <time>2021-01-18T10:52:12.000Z</time>
      </trkpt>
      <trkpt lat="43.73324" lon="5.90059">
        <ele>572.79998779297</ele>
        <time>2021-01-18T10:52:14.000Z</time>
      </trkpt>
      <trkpt lat="43.7332" lon="5.90067">
        <ele>573.20001220703</ele>
        <time>2021-01-18T10:52:17.000Z</time>
      </trkpt>
      <trkpt lat="43.73314" lon="5.90083">
        <ele>573.40002441406</ele>
        <time>2021-01-18T10:52:22.000Z</time>
      </trkpt>
      <trkpt lat="43.73309" lon="5.90094">
        <ele>573.79998779297</ele>
        <time>2021-01-18T10:52:25.000Z</time>
      </trkpt>
      <trkpt lat="43.73305" lon="5.90099">
        <ele>574</ele>
        <time>2021-01-18T10:52:27.000Z</time>
      </trkpt>
      <trkpt lat="43.73292" lon="5.90116">
        <ele>574.40002441406</ele>
        <time>2021-01-18T10:52:33.000Z</time>
      </trkpt>
      <trkpt lat="43.73282" lon="5.90132">
        <ele>575</ele>
        <time>2021-01-18T10:52:38.000Z</time>
      </trkpt>
      <trkpt lat="43.73271" lon="5.90158">
        <ele>575.79998779297</ele>
        <time>2021-01-18T10:52:44.000Z</time>
      </trkpt>
      <trkpt lat="43.73262" lon="5.90173">
        <ele>576.20001220703</ele>
        <time>2021-01-18T10:52:49.000Z</time>
      </trkpt>
      <trkpt lat="43.73254" lon="5.90191">
        <ele>576.20001220703</ele>
        <time>2021-01-18T10:52:55.000Z</time>
      </trkpt>
      <trkpt lat="43.7325" lon="5.90194">
        <ele>576.20001220703</ele>
        <time>2021-01-18T10:52:57.000Z</time>
      </trkpt>
      <trkpt lat="43.73245" lon="5.90203">
        <ele>576.20001220703</ele>
        <time>2021-01-18T10:53:00.000Z</time>
      </trkpt>
      <trkpt lat="43.73237" lon="5.90211">
        <ele>576</ele>
        <time>2021-01-18T10:53:04.000Z</time>
      </trkpt>
      <trkpt lat="43.73229" lon="5.90227">
        <ele>575.59997558594</ele>
        <time>2021-01-18T10:53:08.000Z</time>
      </trkpt>
      <trkpt lat="43.73224" lon="5.90237">
        <ele>575.40002441406</ele>
        <time>2021-01-18T10:53:10.000Z</time>
      </trkpt>
      <trkpt lat="43.73222" lon="5.90242">
        <ele>575.40002441406</ele>
        <time>2021-01-18T10:53:11.000Z</time>
      </trkpt>
      <trkpt lat="43.7322" lon="5.90247">
        <ele>575.20001220703</ele>
        <time>2021-01-18T10:53:12.000Z</time>
      </trkpt>
      <trkpt lat="43.73215" lon="5.90258">
        <ele>574.59997558594</ele>
        <time>2021-01-18T10:53:14.000Z</time>
      </trkpt>
      <trkpt lat="43.73212" lon="5.90263">
        <ele>574.40002441406</ele>
        <time>2021-01-18T10:53:15.000Z</time>
      </trkpt>
      <trkpt lat="43.73209" lon="5.90268">
        <ele>574</ele>
        <time>2021-01-18T10:53:16.000Z</time>
      </trkpt>
      <trkpt lat="43.73199" lon="5.90289">
        <ele>573.20001220703</ele>
        <time>2021-01-18T10:53:20.000Z</time>
      </trkpt>
      <trkpt lat="43.73191" lon="5.903">
        <ele>572.20001220703</ele>
        <time>2021-01-18T10:53:23.000Z</time>
      </trkpt>
      <trkpt lat="43.73191" lon="5.90306">
        <ele>572</ele>
        <time>2021-01-18T10:53:24.000Z</time>
      </trkpt>
      <trkpt lat="43.73185" lon="5.90326">
        <ele>570.79998779297</ele>
        <time>2021-01-18T10:53:28.000Z</time>
      </trkpt>
      <trkpt lat="43.73171" lon="5.90347">
        <ele>569.59997558594</ele>
        <time>2021-01-18T10:53:33.000Z</time>
      </trkpt>
      <trkpt lat="43.73169" lon="5.90351">
        <ele>568.79998779297</ele>
        <time>2021-01-18T10:53:34.000Z</time>
      </trkpt>
      <trkpt lat="43.73168" lon="5.90356">
        <ele>568.40002441406</ele>
        <time>2021-01-18T10:53:35.000Z</time>
      </trkpt>
      <trkpt lat="43.73165" lon="5.90364">
        <ele>567.59997558594</ele>
        <time>2021-01-18T10:53:37.000Z</time>
      </trkpt>
      <trkpt lat="43.73163" lon="5.90366">
        <ele>566.79998779297</ele>
        <time>2021-01-18T10:53:38.000Z</time>
      </trkpt>
      <trkpt lat="43.73152" lon="5.90371">
        <ele>565.40002441406</ele>
        <time>2021-01-18T10:53:41.000Z</time>
      </trkpt>
      <trkpt lat="43.73147" lon="5.90374">
        <ele>564.79998779297</ele>
        <time>2021-01-18T10:53:42.000Z</time>
      </trkpt>
      <trkpt lat="43.73143" lon="5.90378">
        <ele>564.20001220703</ele>
        <time>2021-01-18T10:53:43.000Z</time>
      </trkpt>
      <trkpt lat="43.73135" lon="5.90386">
        <ele>563.40002441406</ele>
        <time>2021-01-18T10:53:45.000Z</time>
      </trkpt>
      <trkpt lat="43.73131" lon="5.90389">
        <ele>563</ele>
        <time>2021-01-18T10:53:46.000Z</time>
      </trkpt>
      <trkpt lat="43.73128" lon="5.90391">
        <ele>562.59997558594</ele>
        <time>2021-01-18T10:53:47.000Z</time>
      </trkpt>
      <trkpt lat="43.73126" lon="5.90392">
        <ele>562.20001220703</ele>
        <time>2021-01-18T10:53:48.000Z</time>
      </trkpt>
      <trkpt lat="43.73125" lon="5.90392">
        <ele>561.59997558594</ele>
        <time>2021-01-18T10:53:50.000Z</time>
      </trkpt>
      <trkpt lat="43.73125" lon="5.90392">
        <ele>561</ele>
        <time>2021-01-18T10:53:51.000Z</time>
      </trkpt>
      <trkpt lat="43.73125" lon="5.90392">
        <ele>560</ele>
        <time>2021-01-18T10:53:57.000Z</time>
      </trkpt>
      <trkpt lat="43.73125" lon="5.90392">
        <ele>560</ele>
        <time>2021-01-18T10:54:02.000Z</time>
      </trkpt>
      <trkpt lat="43.73125" lon="5.90392">
        <ele>559.40002441406</ele>
        <time>2021-01-18T10:54:23.000Z</time>
      </trkpt>
      <trkpt lat="43.73125" lon="5.90392">
        <ele>559.79998779297</ele>
        <time>2021-01-18T10:54:49.000Z</time>
      </trkpt>
      <trkpt lat="43.73125" lon="5.90394">
        <ele>559.79998779297</ele>
        <time>2021-01-18T10:54:50.000Z</time>
      </trkpt>
      <trkpt lat="43.73122" lon="5.90402">
        <ele>559.79998779297</ele>
        <time>2021-01-18T10:54:53.000Z</time>
      </trkpt>
      <trkpt lat="43.73114" lon="5.9042">
        <ele>559.59997558594</ele>
        <time>2021-01-18T10:54:58.000Z</time>
      </trkpt>
      <trkpt lat="43.73112" lon="5.90425">
        <ele>559.59997558594</ele>
        <time>2021-01-18T10:54:59.000Z</time>
      </trkpt>
      <trkpt lat="43.73107" lon="5.90448">
        <ele>558.79998779297</ele>
        <time>2021-01-18T10:55:02.000Z</time>
      </trkpt>
      <trkpt lat="43.731" lon="5.90483">
        <ele>557.59997558594</ele>
        <time>2021-01-18T10:55:06.000Z</time>
      </trkpt>
      <trkpt lat="43.73099" lon="5.90492">
        <ele>557.20001220703</ele>
        <time>2021-01-18T10:55:07.000Z</time>
      </trkpt>
      <trkpt lat="43.73099" lon="5.90501">
        <ele>556.59997558594</ele>
        <time>2021-01-18T10:55:08.000Z</time>
      </trkpt>
      <trkpt lat="43.73098" lon="5.90509">
        <ele>555.59997558594</ele>
        <time>2021-01-18T10:55:09.000Z</time>
      </trkpt>
      <trkpt lat="43.73098" lon="5.90516">
        <ele>554.79998779297</ele>
        <time>2021-01-18T10:55:10.000Z</time>
      </trkpt>
      <trkpt lat="43.73098" lon="5.90523">
        <ele>553.79998779297</ele>
        <time>2021-01-18T10:55:11.000Z</time>
      </trkpt>
      <trkpt lat="43.73098" lon="5.9053">
        <ele>553.20001220703</ele>
        <time>2021-01-18T10:55:12.000Z</time>
      </trkpt>
      <trkpt lat="43.73093" lon="5.90551">
        <ele>551.79998779297</ele>
        <time>2021-01-18T10:55:15.000Z</time>
      </trkpt>
      <trkpt lat="43.73084" lon="5.90563">
        <ele>550.59997558594</ele>
        <time>2021-01-18T10:55:17.000Z</time>
      </trkpt>
      <trkpt lat="43.7308" lon="5.90568">
        <ele>550</ele>
        <time>2021-01-18T10:55:18.000Z</time>
      </trkpt>
      <trkpt lat="43.73076" lon="5.90581">
        <ele>549.20001220703</ele>
        <time>2021-01-18T10:55:20.000Z</time>
      </trkpt>
      <trkpt lat="43.73074" lon="5.90589">
        <ele>548.59997558594</ele>
        <time>2021-01-18T10:55:21.000Z</time>
      </trkpt>
      <trkpt lat="43.73071" lon="5.90597">
        <ele>547.79998779297</ele>
        <time>2021-01-18T10:55:22.000Z</time>
      </trkpt>
      <trkpt lat="43.73069" lon="5.90606">
        <ele>547.20001220703</ele>
        <time>2021-01-18T10:55:23.000Z</time>
      </trkpt>
      <trkpt lat="43.73068" lon="5.90614">
        <ele>546.79998779297</ele>
        <time>2021-01-18T10:55:24.000Z</time>
      </trkpt>
      <trkpt lat="43.73067" lon="5.90621">
        <ele>546.20001220703</ele>
        <time>2021-01-18T10:55:25.000Z</time>
      </trkpt>
      <trkpt lat="43.73067" lon="5.90628">
        <ele>545.79998779297</ele>
        <time>2021-01-18T10:55:27.000Z</time>
      </trkpt>
      <trkpt lat="43.73066" lon="5.90632">
        <ele>545</ele>
        <time>2021-01-18T10:55:29.000Z</time>
      </trkpt>
      <trkpt lat="43.73066" lon="5.90633">
        <ele>544.59997558594</ele>
        <time>2021-01-18T10:55:30.000Z</time>
      </trkpt>
      <trkpt lat="43.73067" lon="5.90634">
        <ele>543.40002441406</ele>
        <time>2021-01-18T10:55:32.000Z</time>
      </trkpt>
      <trkpt lat="43.73067" lon="5.90635">
        <ele>542.79998779297</ele>
        <time>2021-01-18T10:55:34.000Z</time>
      </trkpt>
      <trkpt lat="43.73068" lon="5.90635">
        <ele>542.40002441406</ele>
        <time>2021-01-18T10:55:36.000Z</time>
      </trkpt>
      <trkpt lat="43.73067" lon="5.90635">
        <ele>542</ele>
        <time>2021-01-18T10:55:41.000Z</time>
      </trkpt>
      <trkpt lat="43.73068" lon="5.90638">
        <ele>542</ele>
        <time>2021-01-18T10:55:53.000Z</time>
      </trkpt>
      <trkpt lat="43.73077" lon="5.90647">
        <ele>542</ele>
        <time>2021-01-18T10:55:59.000Z</time>
      </trkpt>
      <trkpt lat="43.73088" lon="5.9065">
        <ele>542</ele>
        <time>2021-01-18T10:56:03.000Z</time>
      </trkpt>
      <trkpt lat="43.73091" lon="5.90651">
        <ele>542</ele>
        <time>2021-01-18T10:56:04.000Z</time>
      </trkpt>
      <trkpt lat="43.73106" lon="5.90657">
        <ele>542</ele>
        <time>2021-01-18T10:56:09.000Z</time>
      </trkpt>
      <trkpt lat="43.73109" lon="5.90655">
        <ele>542</ele>
        <time>2021-01-18T10:56:10.000Z</time>
      </trkpt>
      <trkpt lat="43.73119" lon="5.90644">
        <ele>541.79998779297</ele>
        <time>2021-01-18T10:56:15.000Z</time>
      </trkpt>
      <trkpt lat="43.73121" lon="5.90649">
        <ele>541.20001220703</ele>
        <time>2021-01-18T10:56:19.000Z</time>
      </trkpt>
      <trkpt lat="43.73119" lon="5.90658">
        <ele>540.20001220703</ele>
        <time>2021-01-18T10:56:22.000Z</time>
      </trkpt>
      <trkpt lat="43.73118" lon="5.90661">
        <ele>539.79998779297</ele>
        <time>2021-01-18T10:56:23.000Z</time>
      </trkpt>
      <trkpt lat="43.73117" lon="5.90665">
        <ele>539.79998779297</ele>
        <time>2021-01-18T10:56:24.000Z</time>
      </trkpt>
      <trkpt lat="43.73114" lon="5.90683">
        <ele>539.40002441406</ele>
        <time>2021-01-18T10:56:29.000Z</time>
      </trkpt>
      <trkpt lat="43.73112" lon="5.90706">
        <ele>539.20001220703</ele>
        <time>2021-01-18T10:56:34.000Z</time>
      </trkpt>
      <trkpt lat="43.73113" lon="5.90739">
        <ele>539.40002441406</ele>
        <time>2021-01-18T10:56:41.000Z</time>
      </trkpt>
      <trkpt lat="43.73125" lon="5.90748">
        <ele>539.40002441406</ele>
        <time>2021-01-18T10:56:46.000Z</time>
      </trkpt>
      <trkpt lat="43.73141" lon="5.90747">
        <ele>539.40002441406</ele>
        <time>2021-01-18T10:56:51.000Z</time>
      </trkpt>
      <trkpt lat="43.73163" lon="5.90751">
        <ele>539.40002441406</ele>
        <time>2021-01-18T10:56:57.000Z</time>
      </trkpt>
      <trkpt lat="43.73184" lon="5.90757">
        <ele>540</ele>
        <time>2021-01-18T10:57:03.000Z</time>
      </trkpt>
      <trkpt lat="43.73193" lon="5.90756">
        <ele>540.79998779297</ele>
        <time>2021-01-18T10:57:06.000Z</time>
      </trkpt>
      <trkpt lat="43.73199" lon="5.90755">
        <ele>541.59997558594</ele>
        <time>2021-01-18T10:57:09.000Z</time>
      </trkpt>
      <trkpt lat="43.732" lon="5.90755">
        <ele>542</ele>
        <time>2021-01-18T10:57:10.000Z</time>
      </trkpt>
      <trkpt lat="43.73205" lon="5.90755">
        <ele>543.20001220703</ele>
        <time>2021-01-18T10:57:13.000Z</time>
      </trkpt>
      <trkpt lat="43.7321" lon="5.90753">
        <ele>544.20001220703</ele>
        <time>2021-01-18T10:57:16.000Z</time>
      </trkpt>
      <trkpt lat="43.73212" lon="5.90752">
        <ele>544.40002441406</ele>
        <time>2021-01-18T10:57:17.000Z</time>
      </trkpt>
      <trkpt lat="43.73219" lon="5.90748">
        <ele>545.40002441406</ele>
        <time>2021-01-18T10:57:22.000Z</time>
      </trkpt>
      <trkpt lat="43.73222" lon="5.90746">
        <ele>546.20001220703</ele>
        <time>2021-01-18T10:57:25.000Z</time>
      </trkpt>
      <trkpt lat="43.73225" lon="5.90744">
        <ele>546.59997558594</ele>
        <time>2021-01-18T10:57:27.000Z</time>
      </trkpt>
      <trkpt lat="43.73229" lon="5.90742">
        <ele>548</ele>
        <time>2021-01-18T10:57:30.000Z</time>
      </trkpt>
      <trkpt lat="43.73234" lon="5.90742">
        <ele>549</ele>
        <time>2021-01-18T10:57:33.000Z</time>
      </trkpt>
      <trkpt lat="43.73245" lon="5.90744">
        <ele>550.20001220703</ele>
        <time>2021-01-18T10:57:38.000Z</time>
      </trkpt>
      <trkpt lat="43.73248" lon="5.90745">
        <ele>550.40002441406</ele>
        <time>2021-01-18T10:57:39.000Z</time>
      </trkpt>
      <trkpt lat="43.73256" lon="5.90749">
        <ele>551.40002441406</ele>
        <time>2021-01-18T10:57:43.000Z</time>
      </trkpt>
      <trkpt lat="43.73258" lon="5.90751">
        <ele>551.79998779297</ele>
        <time>2021-01-18T10:57:44.000Z</time>
      </trkpt>
      <trkpt lat="43.7326" lon="5.90757">
        <ele>552.79998779297</ele>
        <time>2021-01-18T10:57:46.000Z</time>
      </trkpt>
      <trkpt lat="43.73263" lon="5.90767">
        <ele>554</ele>
        <time>2021-01-18T10:57:49.000Z</time>
      </trkpt>
      <trkpt lat="43.73264" lon="5.9077">
        <ele>554.20001220703</ele>
        <time>2021-01-18T10:57:50.000Z</time>
      </trkpt>
      <trkpt lat="43.73268" lon="5.90784">
        <ele>555.20001220703</ele>
        <time>2021-01-18T10:57:54.000Z</time>
      </trkpt>
      <trkpt lat="43.7327" lon="5.90795">
        <ele>556.40002441406</ele>
        <time>2021-01-18T10:57:57.000Z</time>
      </trkpt>
      <trkpt lat="43.7327" lon="5.90799">
        <ele>556.79998779297</ele>
        <time>2021-01-18T10:57:58.000Z</time>
      </trkpt>
      <trkpt lat="43.73271" lon="5.90803">
        <ele>557.59997558594</ele>
        <time>2021-01-18T10:57:59.000Z</time>
      </trkpt>
      <trkpt lat="43.73274" lon="5.90813">
        <ele>558.79998779297</ele>
        <time>2021-01-18T10:58:02.000Z</time>
      </trkpt>
      <trkpt lat="43.73278" lon="5.90817">
        <ele>559.59997558594</ele>
        <time>2021-01-18T10:58:04.000Z</time>
      </trkpt>
      <trkpt lat="43.73281" lon="5.90817">
        <ele>560</ele>
        <time>2021-01-18T10:58:05.000Z</time>
      </trkpt>
      <trkpt lat="43.73288" lon="5.9082">
        <ele>561.20001220703</ele>
        <time>2021-01-18T10:58:08.000Z</time>
      </trkpt>
      <trkpt lat="43.73293" lon="5.90824">
        <ele>562</ele>
        <time>2021-01-18T10:58:10.000Z</time>
      </trkpt>
      <trkpt lat="43.73295" lon="5.90826">
        <ele>562.20001220703</ele>
        <time>2021-01-18T10:58:11.000Z</time>
      </trkpt>
      <trkpt lat="43.73304" lon="5.90833">
        <ele>563.59997558594</ele>
        <time>2021-01-18T10:58:15.000Z</time>
      </trkpt>
      <trkpt lat="43.7331" lon="5.90837">
        <ele>564.40002441406</ele>
        <time>2021-01-18T10:58:18.000Z</time>
      </trkpt>
      <trkpt lat="43.73312" lon="5.90839">
        <ele>564.59997558594</ele>
        <time>2021-01-18T10:58:19.000Z</time>
      </trkpt>
      <trkpt lat="43.73321" lon="5.90847">
        <ele>565.79998779297</ele>
        <time>2021-01-18T10:58:23.000Z</time>
      </trkpt>
      <trkpt lat="43.73326" lon="5.90854">
        <ele>566.40002441406</ele>
        <time>2021-01-18T10:58:26.000Z</time>
      </trkpt>
      <trkpt lat="43.7333" lon="5.90859">
        <ele>566.79998779297</ele>
        <time>2021-01-18T10:58:28.000Z</time>
      </trkpt>
      <trkpt lat="43.73333" lon="5.9087">
        <ele>567.59997558594</ele>
        <time>2021-01-18T10:58:32.000Z</time>
      </trkpt>
      <trkpt lat="43.73336" lon="5.90875">
        <ele>568.20001220703</ele>
        <time>2021-01-18T10:58:34.000Z</time>
      </trkpt>
      <trkpt lat="43.7334" lon="5.90881">
        <ele>569.20001220703</ele>
        <time>2021-01-18T10:58:37.000Z</time>
      </trkpt>
      <trkpt lat="43.73342" lon="5.90882">
        <ele>569.40002441406</ele>
        <time>2021-01-18T10:58:38.000Z</time>
      </trkpt>
      <trkpt lat="43.73351" lon="5.90894">
        <ele>570.40002441406</ele>
        <time>2021-01-18T10:58:43.000Z</time>
      </trkpt>
      <trkpt lat="43.73355" lon="5.90902">
        <ele>570.79998779297</ele>
        <time>2021-01-18T10:58:46.000Z</time>
      </trkpt>
      <trkpt lat="43.73362" lon="5.90908">
        <ele>571.40002441406</ele>
        <time>2021-01-18T10:58:49.000Z</time>
      </trkpt>
      <trkpt lat="43.7337" lon="5.90915">
        <ele>572.20001220703</ele>
        <time>2021-01-18T10:58:53.000Z</time>
      </trkpt>
      <trkpt lat="43.73374" lon="5.90917">
        <ele>572.59997558594</ele>
        <time>2021-01-18T10:58:55.000Z</time>
      </trkpt>
      <trkpt lat="43.7338" lon="5.90921">
        <ele>574</ele>
        <time>2021-01-18T10:58:58.000Z</time>
      </trkpt>
      <trkpt lat="43.73385" lon="5.90926">
        <ele>574.79998779297</ele>
        <time>2021-01-18T10:59:01.000Z</time>
      </trkpt>
      <trkpt lat="43.73386" lon="5.90927">
        <ele>575</ele>
        <time>2021-01-18T10:59:02.000Z</time>
      </trkpt>
      <trkpt lat="43.73396" lon="5.90938">
        <ele>576.20001220703</ele>
        <time>2021-01-18T10:59:07.000Z</time>
      </trkpt>
      <trkpt lat="43.73398" lon="5.9094">
        <ele>576.40002441406</ele>
        <time>2021-01-18T10:59:08.000Z</time>
      </trkpt>
      <trkpt lat="43.73408" lon="5.90954">
        <ele>577.40002441406</ele>
        <time>2021-01-18T10:59:14.000Z</time>
      </trkpt>
      <trkpt lat="43.73412" lon="5.90958">
        <ele>577.59997558594</ele>
        <time>2021-01-18T10:59:16.000Z</time>
      </trkpt>
      <trkpt lat="43.73418" lon="5.90965">
        <ele>578.40002441406</ele>
        <time>2021-01-18T10:59:19.000Z</time>
      </trkpt>
      <trkpt lat="43.73428" lon="5.90975">
        <ele>579.59997558594</ele>
        <time>2021-01-18T10:59:24.000Z</time>
      </trkpt>
      <trkpt lat="43.7343" lon="5.90978">
        <ele>579.79998779297</ele>
        <time>2021-01-18T10:59:25.000Z</time>
      </trkpt>
      <trkpt lat="43.73437" lon="5.90984">
        <ele>580.79998779297</ele>
        <time>2021-01-18T10:59:28.000Z</time>
      </trkpt>
      <trkpt lat="43.73443" lon="5.90989">
        <ele>582</ele>
        <time>2021-01-18T10:59:31.000Z</time>
      </trkpt>
      <trkpt lat="43.73448" lon="5.90993">
        <ele>582.59997558594</ele>
        <time>2021-01-18T10:59:33.000Z</time>
      </trkpt>
      <trkpt lat="43.73454" lon="5.90999">
        <ele>583.20001220703</ele>
        <time>2021-01-18T10:59:36.000Z</time>
      </trkpt>
      <trkpt lat="43.73465" lon="5.91009">
        <ele>584.40002441406</ele>
        <time>2021-01-18T10:59:41.000Z</time>
      </trkpt>
      <trkpt lat="43.73478" lon="5.91018">
        <ele>585.40002441406</ele>
        <time>2021-01-18T10:59:46.000Z</time>
      </trkpt>
      <trkpt lat="43.73485" lon="5.91023">
        <ele>586.20001220703</ele>
        <time>2021-01-18T10:59:49.000Z</time>
      </trkpt>
      <trkpt lat="43.7349" lon="5.91028">
        <ele>586.59997558594</ele>
        <time>2021-01-18T10:59:51.000Z</time>
      </trkpt>
      <trkpt lat="43.73501" lon="5.91038">
        <ele>587.40002441406</ele>
        <time>2021-01-18T10:59:55.000Z</time>
      </trkpt>
      <trkpt lat="43.73504" lon="5.9104">
        <ele>588</ele>
        <time>2021-01-18T10:59:56.000Z</time>
      </trkpt>
      <trkpt lat="43.73521" lon="5.91054">
        <ele>588.79998779297</ele>
        <time>2021-01-18T11:00:03.000Z</time>
      </trkpt>
      <trkpt lat="43.73545" lon="5.91075">
        <ele>589.20001220703</ele>
        <time>2021-01-18T11:00:12.000Z</time>
      </trkpt>
      <trkpt lat="43.73548" lon="5.91077">
        <ele>589.40002441406</ele>
        <time>2021-01-18T11:00:13.000Z</time>
      </trkpt>
      <trkpt lat="43.73561" lon="5.91092">
        <ele>590.40002441406</ele>
        <time>2021-01-18T11:00:19.000Z</time>
      </trkpt>
      <trkpt lat="43.73565" lon="5.91097">
        <ele>590.59997558594</ele>
        <time>2021-01-18T11:00:21.000Z</time>
      </trkpt>
      <trkpt lat="43.73568" lon="5.91111">
        <ele>592</ele>
        <time>2021-01-18T11:00:25.000Z</time>
      </trkpt>
      <trkpt lat="43.73565" lon="5.91127">
        <ele>593.40002441406</ele>
        <time>2021-01-18T11:00:29.000Z</time>
      </trkpt>
      <trkpt lat="43.73563" lon="5.91139">
        <ele>594.20001220703</ele>
        <time>2021-01-18T11:00:32.000Z</time>
      </trkpt>
      <trkpt lat="43.73562" lon="5.91142">
        <ele>594.59997558594</ele>
        <time>2021-01-18T11:00:33.000Z</time>
      </trkpt>
      <trkpt lat="43.73553" lon="5.91163">
        <ele>595.79998779297</ele>
        <time>2021-01-18T11:00:39.000Z</time>
      </trkpt>
      <trkpt lat="43.73545" lon="5.91184">
        <ele>596.40002441406</ele>
        <time>2021-01-18T11:00:45.000Z</time>
      </trkpt>
      <trkpt lat="43.73543" lon="5.91199">
        <ele>596.79998779297</ele>
        <time>2021-01-18T11:00:49.000Z</time>
      </trkpt>
      <trkpt lat="43.73542" lon="5.91207">
        <ele>596.79998779297</ele>
        <time>2021-01-18T11:00:51.000Z</time>
      </trkpt>
      <trkpt lat="43.73538" lon="5.91226">
        <ele>597.79998779297</ele>
        <time>2021-01-18T11:00:56.000Z</time>
      </trkpt>
      <trkpt lat="43.73538" lon="5.91239">
        <ele>598.59997558594</ele>
        <time>2021-01-18T11:00:59.000Z</time>
      </trkpt>
      <trkpt lat="43.73537" lon="5.91244">
        <ele>599</ele>
        <time>2021-01-18T11:01:00.000Z</time>
      </trkpt>
      <trkpt lat="43.73532" lon="5.91259">
        <ele>600.20001220703</ele>
        <time>2021-01-18T11:01:04.000Z</time>
      </trkpt>
      <trkpt lat="43.73519" lon="5.91272">
        <ele>601</ele>
        <time>2021-01-18T11:01:10.000Z</time>
      </trkpt>
      <trkpt lat="43.73515" lon="5.91284">
        <ele>601.40002441406</ele>
        <time>2021-01-18T11:01:13.000Z</time>
      </trkpt>
      <trkpt lat="43.73509" lon="5.91294">
        <ele>601.79998779297</ele>
        <time>2021-01-18T11:01:16.000Z</time>
      </trkpt>
      <trkpt lat="43.735" lon="5.91312">
        <ele>602.40002441406</ele>
        <time>2021-01-18T11:01:21.000Z</time>
      </trkpt>
      <trkpt lat="43.73488" lon="5.91339">
        <ele>602.40002441406</ele>
        <time>2021-01-18T11:01:27.000Z</time>
      </trkpt>
      <trkpt lat="43.73484" lon="5.91348">
        <ele>602.40002441406</ele>
        <time>2021-01-18T11:01:29.000Z</time>
      </trkpt>
      <trkpt lat="43.7348" lon="5.91364">
        <ele>602.20001220703</ele>
        <time>2021-01-18T11:01:32.000Z</time>
      </trkpt>
      <trkpt lat="43.7347" lon="5.91391">
        <ele>601.79998779297</ele>
        <time>2021-01-18T11:01:38.000Z</time>
      </trkpt>
      <trkpt lat="43.73459" lon="5.91408">
        <ele>601.79998779297</ele>
        <time>2021-01-18T11:01:42.000Z</time>
      </trkpt>
      <trkpt lat="43.73452" lon="5.91415">
        <ele>601.59997558594</ele>
        <time>2021-01-18T11:01:44.000Z</time>
      </trkpt>
      <trkpt lat="43.73445" lon="5.91422">
        <ele>601.59997558594</ele>
        <time>2021-01-18T11:01:46.000Z</time>
      </trkpt>
      <trkpt lat="43.73435" lon="5.91438">
        <ele>601.40002441406</ele>
        <time>2021-01-18T11:01:50.000Z</time>
      </trkpt>
      <trkpt lat="43.73434" lon="5.91443">
        <ele>601.40002441406</ele>
        <time>2021-01-18T11:01:51.000Z</time>
      </trkpt>
      <trkpt lat="43.73426" lon="5.91474">
        <ele>601.20001220703</ele>
        <time>2021-01-18T11:01:57.000Z</time>
      </trkpt>
      <trkpt lat="43.73415" lon="5.91503">
        <ele>601.20001220703</ele>
        <time>2021-01-18T11:02:03.000Z</time>
      </trkpt>
      <trkpt lat="43.73399" lon="5.91539">
        <ele>601.79998779297</ele>
        <time>2021-01-18T11:02:11.000Z</time>
      </trkpt>
      <trkpt lat="43.73378" lon="5.91576">
        <ele>602.40002441406</ele>
        <time>2021-01-18T11:02:20.000Z</time>
      </trkpt>
      <trkpt lat="43.73364" lon="5.91596">
        <ele>603</ele>
        <time>2021-01-18T11:02:25.000Z</time>
      </trkpt>
      <trkpt lat="43.73362" lon="5.916">
        <ele>603</ele>
        <time>2021-01-18T11:02:26.000Z</time>
      </trkpt>
      <trkpt lat="43.73341" lon="5.91642">
        <ele>603.20001220703</ele>
        <time>2021-01-18T11:02:35.000Z</time>
      </trkpt>
      <trkpt lat="43.73326" lon="5.91671">
        <ele>603</ele>
        <time>2021-01-18T11:02:41.000Z</time>
      </trkpt>
      <trkpt lat="43.73309" lon="5.91706">
        <ele>602.79998779297</ele>
        <time>2021-01-18T11:02:48.000Z</time>
      </trkpt>
      <trkpt lat="43.73296" lon="5.91729">
        <ele>602</ele>
        <time>2021-01-18T11:02:53.000Z</time>
      </trkpt>
      <trkpt lat="43.73293" lon="5.91733">
        <ele>601.79998779297</ele>
        <time>2021-01-18T11:02:54.000Z</time>
      </trkpt>
      <trkpt lat="43.7329" lon="5.91737">
        <ele>601.79998779297</ele>
        <time>2021-01-18T11:02:55.000Z</time>
      </trkpt>
      <trkpt lat="43.7328" lon="5.91756">
        <ele>601.59997558594</ele>
        <time>2021-01-18T11:02:59.000Z</time>
      </trkpt>
      <trkpt lat="43.73272" lon="5.91765">
        <ele>601.40002441406</ele>
        <time>2021-01-18T11:03:01.000Z</time>
      </trkpt>
      <trkpt lat="43.73259" lon="5.91779">
        <ele>601.20001220703</ele>
        <time>2021-01-18T11:03:05.000Z</time>
      </trkpt>
      <trkpt lat="43.73251" lon="5.91784">
        <ele>601</ele>
        <time>2021-01-18T11:03:07.000Z</time>
      </trkpt>
      <trkpt lat="43.73221" lon="5.91806">
        <ele>601.20001220703</ele>
        <time>2021-01-18T11:03:15.000Z</time>
      </trkpt>
      <trkpt lat="43.732" lon="5.91828">
        <ele>601.20001220703</ele>
        <time>2021-01-18T11:03:22.000Z</time>
      </trkpt>
      <trkpt lat="43.73188" lon="5.91829">
        <ele>601.40002441406</ele>
        <time>2021-01-18T11:03:25.000Z</time>
      </trkpt>
      <trkpt lat="43.73184" lon="5.91827">
        <ele>601.40002441406</ele>
        <time>2021-01-18T11:03:26.000Z</time>
      </trkpt>
      <trkpt lat="43.73165" lon="5.91828">
        <ele>602</ele>
        <time>2021-01-18T11:03:31.000Z</time>
      </trkpt>
      <trkpt lat="43.73139" lon="5.91827">
        <ele>602.79998779297</ele>
        <time>2021-01-18T11:03:38.000Z</time>
      </trkpt>
      <trkpt lat="43.73117" lon="5.91828">
        <ele>603.20001220703</ele>
        <time>2021-01-18T11:03:44.000Z</time>
      </trkpt>
      <trkpt lat="43.7311" lon="5.91829">
        <ele>603.40002441406</ele>
        <time>2021-01-18T11:03:46.000Z</time>
      </trkpt>
      <trkpt lat="43.73094" lon="5.91824">
        <ele>604.20001220703</ele>
        <time>2021-01-18T11:03:51.000Z</time>
      </trkpt>
      <trkpt lat="43.73091" lon="5.91822">
        <ele>604.20001220703</ele>
        <time>2021-01-18T11:03:52.000Z</time>
      </trkpt>
      <trkpt lat="43.73078" lon="5.91818">
        <ele>604.59997558594</ele>
        <time>2021-01-18T11:03:55.000Z</time>
      </trkpt>
      <trkpt lat="43.73073" lon="5.91818">
        <ele>604.59997558594</ele>
        <time>2021-01-18T11:03:56.000Z</time>
      </trkpt>
      <trkpt lat="43.7306" lon="5.91819">
        <ele>605</ele>
        <time>2021-01-18T11:03:59.000Z</time>
      </trkpt>
      <trkpt lat="43.73053" lon="5.91822">
        <ele>605</ele>
        <time>2021-01-18T11:04:01.000Z</time>
      </trkpt>
      <trkpt lat="43.73043" lon="5.91831">
        <ele>605</ele>
        <time>2021-01-18T11:04:04.000Z</time>
      </trkpt>
      <trkpt lat="43.73037" lon="5.91838">
        <ele>605</ele>
        <time>2021-01-18T11:04:06.000Z</time>
      </trkpt>
      <trkpt lat="43.73028" lon="5.91852">
        <ele>605</ele>
        <time>2021-01-18T11:04:09.000Z</time>
      </trkpt>
      <trkpt lat="43.73018" lon="5.91866">
        <ele>605</ele>
        <time>2021-01-18T11:04:12.000Z</time>
      </trkpt>
      <trkpt lat="43.73013" lon="5.91877">
        <ele>605</ele>
        <time>2021-01-18T11:04:14.000Z</time>
      </trkpt>
      <trkpt lat="43.73011" lon="5.9189">
        <ele>605</ele>
        <time>2021-01-18T11:04:16.000Z</time>
      </trkpt>
      <trkpt lat="43.73018" lon="5.91907">
        <ele>604.59997558594</ele>
        <time>2021-01-18T11:04:19.000Z</time>
      </trkpt>
      <trkpt lat="43.73021" lon="5.91912">
        <ele>604.59997558594</ele>
        <time>2021-01-18T11:04:20.000Z</time>
      </trkpt>
      <trkpt lat="43.73024" lon="5.91916">
        <ele>604.40002441406</ele>
        <time>2021-01-18T11:04:21.000Z</time>
      </trkpt>
      <trkpt lat="43.7303" lon="5.91924">
        <ele>604</ele>
        <time>2021-01-18T11:04:23.000Z</time>
      </trkpt>
      <trkpt lat="43.73038" lon="5.9193">
        <ele>603.79998779297</ele>
        <time>2021-01-18T11:04:25.000Z</time>
      </trkpt>
      <trkpt lat="43.73057" lon="5.91944">
        <ele>603.40002441406</ele>
        <time>2021-01-18T11:04:30.000Z</time>
      </trkpt>
      <trkpt lat="43.73062" lon="5.91953">
        <ele>603.40002441406</ele>
        <time>2021-01-18T11:04:32.000Z</time>
      </trkpt>
      <trkpt lat="43.73062" lon="5.91981">
        <ele>603.20001220703</ele>
        <time>2021-01-18T11:04:36.000Z</time>
      </trkpt>
      <trkpt lat="43.73061" lon="5.91989">
        <ele>603.20001220703</ele>
        <time>2021-01-18T11:04:37.000Z</time>
      </trkpt>
      <trkpt lat="43.73055" lon="5.92012">
        <ele>602.79998779297</ele>
        <time>2021-01-18T11:04:40.000Z</time>
      </trkpt>
      <trkpt lat="43.73046" lon="5.92033">
        <ele>602.40002441406</ele>
        <time>2021-01-18T11:04:43.000Z</time>
      </trkpt>
      <trkpt lat="43.73044" lon="5.92047">
        <ele>601.59997558594</ele>
        <time>2021-01-18T11:04:45.000Z</time>
      </trkpt>
      <trkpt lat="43.73041" lon="5.92061">
        <ele>600.59997558594</ele>
        <time>2021-01-18T11:04:47.000Z</time>
      </trkpt>
      <trkpt lat="43.73038" lon="5.92081">
        <ele>600</ele>
        <time>2021-01-18T11:04:50.000Z</time>
      </trkpt>
      <trkpt lat="43.73039" lon="5.92087">
        <ele>600</ele>
        <time>2021-01-18T11:04:51.000Z</time>
      </trkpt>
      <trkpt lat="43.73039" lon="5.921">
        <ele>599.79998779297</ele>
        <time>2021-01-18T11:04:53.000Z</time>
      </trkpt>
      <trkpt lat="43.73036" lon="5.92112">
        <ele>599.59997558594</ele>
        <time>2021-01-18T11:04:55.000Z</time>
      </trkpt>
      <trkpt lat="43.73033" lon="5.92118">
        <ele>599.59997558594</ele>
        <time>2021-01-18T11:04:56.000Z</time>
      </trkpt>
      <trkpt lat="43.7303" lon="5.92123">
        <ele>599.59997558594</ele>
        <time>2021-01-18T11:04:57.000Z</time>
      </trkpt>
      <trkpt lat="43.73028" lon="5.9213">
        <ele>599.59997558594</ele>
        <time>2021-01-18T11:04:58.000Z</time>
      </trkpt>
      <trkpt lat="43.73023" lon="5.92143">
        <ele>599.59997558594</ele>
        <time>2021-01-18T11:05:00.000Z</time>
      </trkpt>
      <trkpt lat="43.73021" lon="5.9215">
        <ele>599.59997558594</ele>
        <time>2021-01-18T11:05:01.000Z</time>
      </trkpt>
      <trkpt lat="43.73021" lon="5.92165">
        <ele>599.40002441406</ele>
        <time>2021-01-18T11:05:03.000Z</time>
      </trkpt>
      <trkpt lat="43.73023" lon="5.92179">
        <ele>598.79998779297</ele>
        <time>2021-01-18T11:05:06.000Z</time>
      </trkpt>
      <trkpt lat="43.73022" lon="5.92183">
        <ele>598.59997558594</ele>
        <time>2021-01-18T11:05:07.000Z</time>
      </trkpt>
      <trkpt lat="43.73017" lon="5.92188">
        <ele>598</ele>
        <time>2021-01-18T11:05:09.000Z</time>
      </trkpt>
      <trkpt lat="43.73007" lon="5.92188">
        <ele>597.40002441406</ele>
        <time>2021-01-18T11:05:12.000Z</time>
      </trkpt>
      <trkpt lat="43.73003" lon="5.92186">
        <ele>597.40002441406</ele>
        <time>2021-01-18T11:05:13.000Z</time>
      </trkpt>
      <trkpt lat="43.72999" lon="5.92184">
        <ele>597.20001220703</ele>
        <time>2021-01-18T11:05:14.000Z</time>
      </trkpt>
      <trkpt lat="43.72987" lon="5.92184">
        <ele>596.79998779297</ele>
        <time>2021-01-18T11:05:17.000Z</time>
      </trkpt>
      <trkpt lat="43.72979" lon="5.92189">
        <ele>596.40002441406</ele>
        <time>2021-01-18T11:05:19.000Z</time>
      </trkpt>
      <trkpt lat="43.72973" lon="5.922">
        <ele>596.20001220703</ele>
        <time>2021-01-18T11:05:21.000Z</time>
      </trkpt>
      <trkpt lat="43.72962" lon="5.92216">
        <ele>595.59997558594</ele>
        <time>2021-01-18T11:05:24.000Z</time>
      </trkpt>
      <trkpt lat="43.72958" lon="5.92221">
        <ele>595.40002441406</ele>
        <time>2021-01-18T11:05:25.000Z</time>
      </trkpt>
      <trkpt lat="43.72953" lon="5.92225">
        <ele>595.20001220703</ele>
        <time>2021-01-18T11:05:26.000Z</time>
      </trkpt>
      <trkpt lat="43.72935" lon="5.92245">
        <ele>594.20001220703</ele>
        <time>2021-01-18T11:05:30.000Z</time>
      </trkpt>
      <trkpt lat="43.72917" lon="5.92265">
        <ele>593</ele>
        <time>2021-01-18T11:05:34.000Z</time>
      </trkpt>
      <trkpt lat="43.72895" lon="5.92293">
        <ele>592</ele>
        <time>2021-01-18T11:05:39.000Z</time>
      </trkpt>
      <trkpt lat="43.72883" lon="5.92309">
        <ele>591.40002441406</ele>
        <time>2021-01-18T11:05:42.000Z</time>
      </trkpt>
      <trkpt lat="43.72873" lon="5.92319">
        <ele>591</ele>
        <time>2021-01-18T11:05:44.000Z</time>
      </trkpt>
      <trkpt lat="43.72849" lon="5.92341">
        <ele>590</ele>
        <time>2021-01-18T11:05:49.000Z</time>
      </trkpt>
      <trkpt lat="43.72845" lon="5.92346">
        <ele>589.79998779297</ele>
        <time>2021-01-18T11:05:50.000Z</time>
      </trkpt>
      <trkpt lat="43.72829" lon="5.92366">
        <ele>589.20001220703</ele>
        <time>2021-01-18T11:05:54.000Z</time>
      </trkpt>
      <trkpt lat="43.72825" lon="5.92371">
        <ele>589</ele>
        <time>2021-01-18T11:05:55.000Z</time>
      </trkpt>
      <trkpt lat="43.72822" lon="5.92378">
        <ele>588.79998779297</ele>
        <time>2021-01-18T11:05:56.000Z</time>
      </trkpt>
      <trkpt lat="43.72807" lon="5.92411">
        <ele>587.79998779297</ele>
        <time>2021-01-18T11:06:01.000Z</time>
      </trkpt>
      <trkpt lat="43.72804" lon="5.92417">
        <ele>587.59997558594</ele>
        <time>2021-01-18T11:06:02.000Z</time>
      </trkpt>
      <trkpt lat="43.72787" lon="5.92447">
        <ele>586.59997558594</ele>
        <time>2021-01-18T11:06:07.000Z</time>
      </trkpt>
      <trkpt lat="43.72784" lon="5.92452">
        <ele>586.40002441406</ele>
        <time>2021-01-18T11:06:08.000Z</time>
      </trkpt>
      <trkpt lat="43.72774" lon="5.9247">
        <ele>585.79998779297</ele>
        <time>2021-01-18T11:06:11.000Z</time>
      </trkpt>
      <trkpt lat="43.72768" lon="5.92482">
        <ele>586</ele>
        <time>2021-01-18T11:06:13.000Z</time>
      </trkpt>
      <trkpt lat="43.72765" lon="5.92488">
        <ele>585.79998779297</ele>
        <time>2021-01-18T11:06:14.000Z</time>
      </trkpt>
      <trkpt lat="43.72761" lon="5.92501">
        <ele>585.79998779297</ele>
        <time>2021-01-18T11:06:16.000Z</time>
      </trkpt>
      <trkpt lat="43.72759" lon="5.92507">
        <ele>585.59997558594</ele>
        <time>2021-01-18T11:06:17.000Z</time>
      </trkpt>
      <trkpt lat="43.72745" lon="5.92556">
        <ele>585.59997558594</ele>
        <time>2021-01-18T11:06:25.000Z</time>
      </trkpt>
      <trkpt lat="43.72731" lon="5.92602">
        <ele>586</ele>
        <time>2021-01-18T11:06:33.000Z</time>
      </trkpt>
      <trkpt lat="43.72715" lon="5.92647">
        <ele>586.20001220703</ele>
        <time>2021-01-18T11:06:41.000Z</time>
      </trkpt>
      <trkpt lat="43.72705" lon="5.92682">
        <ele>586.20001220703</ele>
        <time>2021-01-18T11:06:47.000Z</time>
      </trkpt>
      <trkpt lat="43.72696" lon="5.92711">
        <ele>586</ele>
        <time>2021-01-18T11:06:52.000Z</time>
      </trkpt>
      <trkpt lat="43.72689" lon="5.92728">
        <ele>586</ele>
        <time>2021-01-18T11:06:55.000Z</time>
      </trkpt>
      <trkpt lat="43.72683" lon="5.92747">
        <ele>585.79998779297</ele>
        <time>2021-01-18T11:06:58.000Z</time>
      </trkpt>
      <trkpt lat="43.72676" lon="5.92764">
        <ele>585.59997558594</ele>
        <time>2021-01-18T11:07:01.000Z</time>
      </trkpt>
      <trkpt lat="43.72668" lon="5.9278">
        <ele>585.59997558594</ele>
        <time>2021-01-18T11:07:04.000Z</time>
      </trkpt>
      <trkpt lat="43.72661" lon="5.92789">
        <ele>585.40002441406</ele>
        <time>2021-01-18T11:07:06.000Z</time>
      </trkpt>
      <trkpt lat="43.72639" lon="5.92822">
        <ele>585.20001220703</ele>
        <time>2021-01-18T11:07:13.000Z</time>
      </trkpt>
      <trkpt lat="43.72615" lon="5.92861">
        <ele>584.79998779297</ele>
        <time>2021-01-18T11:07:21.000Z</time>
      </trkpt>
      <trkpt lat="43.72612" lon="5.92865">
        <ele>584.79998779297</ele>
        <time>2021-01-18T11:07:22.000Z</time>
      </trkpt>
      <trkpt lat="43.72601" lon="5.92877">
        <ele>584.40002441406</ele>
        <time>2021-01-18T11:07:25.000Z</time>
      </trkpt>
      <trkpt lat="43.72592" lon="5.92883">
        <ele>584.20001220703</ele>
        <time>2021-01-18T11:07:27.000Z</time>
      </trkpt>
      <trkpt lat="43.72573" lon="5.92894">
        <ele>583.59997558594</ele>
        <time>2021-01-18T11:07:31.000Z</time>
      </trkpt>
      <trkpt lat="43.72563" lon="5.92899">
        <ele>583.59997558594</ele>
        <time>2021-01-18T11:07:33.000Z</time>
      </trkpt>
      <trkpt lat="43.72532" lon="5.92917">
        <ele>583.20001220703</ele>
        <time>2021-01-18T11:07:40.000Z</time>
      </trkpt>
      <trkpt lat="43.72502" lon="5.92935">
        <ele>583.20001220703</ele>
        <time>2021-01-18T11:07:48.000Z</time>
      </trkpt>
      <trkpt lat="43.72472" lon="5.92953">
        <ele>584.20001220703</ele>
        <time>2021-01-18T11:07:56.000Z</time>
      </trkpt>
      <trkpt lat="43.72449" lon="5.9297">
        <ele>584.59997558594</ele>
        <time>2021-01-18T11:08:03.000Z</time>
      </trkpt>
      <trkpt lat="43.72441" lon="5.92976">
        <ele>585</ele>
        <time>2021-01-18T11:08:06.000Z</time>
      </trkpt>
      <trkpt lat="43.72434" lon="5.92977">
        <ele>585.20001220703</ele>
        <time>2021-01-18T11:08:08.000Z</time>
      </trkpt>
      <trkpt lat="43.72424" lon="5.92982">
        <ele>585.40002441406</ele>
        <time>2021-01-18T11:08:13.000Z</time>
      </trkpt>
      <trkpt lat="43.72424" lon="5.92982">
        <ele>585.40002441406</ele>
        <time>2021-01-18T11:08:18.000Z</time>
      </trkpt>
      <trkpt lat="43.72424" lon="5.92982">
        <ele>585.40002441406</ele>
        <time>2021-01-18T11:08:38.000Z</time>
      </trkpt>
      <trkpt lat="43.72424" lon="5.92982">
        <ele>585.40002441406</ele>
        <time>2021-01-18T11:08:47.000Z</time>
      </trkpt>
      <trkpt lat="43.72424" lon="5.92984">
        <ele>585.40002441406</ele>
        <time>2021-01-18T11:09:05.000Z</time>
      </trkpt>
      <trkpt lat="43.72423" lon="5.92996">
        <ele>585.40002441406</ele>
        <time>2021-01-18T11:09:09.000Z</time>
      </trkpt>
      <trkpt lat="43.7243" lon="5.93001">
        <ele>585.40002441406</ele>
        <time>2021-01-18T11:09:12.000Z</time>
      </trkpt>
      <trkpt lat="43.72442" lon="5.93009">
        <ele>585.20001220703</ele>
        <time>2021-01-18T11:09:15.000Z</time>
      </trkpt>
      <trkpt lat="43.72448" lon="5.9302">
        <ele>585</ele>
        <time>2021-01-18T11:09:17.000Z</time>
      </trkpt>
      <trkpt lat="43.72448" lon="5.93036">
        <ele>584.59997558594</ele>
        <time>2021-01-18T11:09:20.000Z</time>
      </trkpt>
      <trkpt lat="43.72442" lon="5.93043">
        <ele>584</ele>
        <time>2021-01-18T11:09:22.000Z</time>
      </trkpt>
      <trkpt lat="43.72435" lon="5.93048">
        <ele>583.40002441406</ele>
        <time>2021-01-18T11:09:24.000Z</time>
      </trkpt>
      <trkpt lat="43.72429" lon="5.93046">
        <ele>582.20001220703</ele>
        <time>2021-01-18T11:09:26.000Z</time>
      </trkpt>
      <trkpt lat="43.72421" lon="5.93042">
        <ele>581.59997558594</ele>
        <time>2021-01-18T11:09:28.000Z</time>
      </trkpt>
      <trkpt lat="43.72413" lon="5.93043">
        <ele>581</ele>
        <time>2021-01-18T11:09:30.000Z</time>
      </trkpt>
      <trkpt lat="43.7241" lon="5.93043">
        <ele>580.59997558594</ele>
        <time>2021-01-18T11:09:31.000Z</time>
      </trkpt>
      <trkpt lat="43.72399" lon="5.93043">
        <ele>580</ele>
        <time>2021-01-18T11:09:33.000Z</time>
      </trkpt>
      <trkpt lat="43.72393" lon="5.93044">
        <ele>579.59997558594</ele>
        <time>2021-01-18T11:09:34.000Z</time>
      </trkpt>
      <trkpt lat="43.72378" lon="5.93055">
        <ele>578.79998779297</ele>
        <time>2021-01-18T11:09:37.000Z</time>
      </trkpt>
      <trkpt lat="43.72361" lon="5.9307">
        <ele>577.79998779297</ele>
        <time>2021-01-18T11:09:40.000Z</time>
      </trkpt>
      <trkpt lat="43.72356" lon="5.93078">
        <ele>577</ele>
        <time>2021-01-18T11:09:41.000Z</time>
      </trkpt>
      <trkpt lat="43.72352" lon="5.93086">
        <ele>576.20001220703</ele>
        <time>2021-01-18T11:09:42.000Z</time>
      </trkpt>
      <trkpt lat="43.72344" lon="5.93103">
        <ele>575</ele>
        <time>2021-01-18T11:09:44.000Z</time>
      </trkpt>
      <trkpt lat="43.72342" lon="5.93112">
        <ele>574.40002441406</ele>
        <time>2021-01-18T11:09:45.000Z</time>
      </trkpt>
      <trkpt lat="43.72339" lon="5.9312">
        <ele>573.20001220703</ele>
        <time>2021-01-18T11:09:46.000Z</time>
      </trkpt>
      <trkpt lat="43.72337" lon="5.93134">
        <ele>572</ele>
        <time>2021-01-18T11:09:48.000Z</time>
      </trkpt>
      <trkpt lat="43.72337" lon="5.93153">
        <ele>570.59997558594</ele>
        <time>2021-01-18T11:09:51.000Z</time>
      </trkpt>
      <trkpt lat="43.72338" lon="5.93159">
        <ele>570</ele>
        <time>2021-01-18T11:09:52.000Z</time>
      </trkpt>
      <trkpt lat="43.72338" lon="5.93165">
        <ele>569.40002441406</ele>
        <time>2021-01-18T11:09:53.000Z</time>
      </trkpt>
      <trkpt lat="43.72338" lon="5.93171">
        <ele>567.79998779297</ele>
        <time>2021-01-18T11:09:54.000Z</time>
      </trkpt>
      <trkpt lat="43.72335" lon="5.93181">
        <ele>566.40002441406</ele>
        <time>2021-01-18T11:09:56.000Z</time>
      </trkpt>
      <trkpt lat="43.72333" lon="5.93185">
        <ele>565.40002441406</ele>
        <time>2021-01-18T11:09:57.000Z</time>
      </trkpt>
      <trkpt lat="43.72325" lon="5.9319">
        <ele>563.59997558594</ele>
        <time>2021-01-18T11:09:59.000Z</time>
      </trkpt>
      <trkpt lat="43.72319" lon="5.93193">
        <ele>562.40002441406</ele>
        <time>2021-01-18T11:10:00.000Z</time>
      </trkpt>
      <trkpt lat="43.72314" lon="5.93196">
        <ele>561.40002441406</ele>
        <time>2021-01-18T11:10:01.000Z</time>
      </trkpt>
      <trkpt lat="43.7231" lon="5.93197">
        <ele>560.20001220703</ele>
        <time>2021-01-18T11:10:02.000Z</time>
      </trkpt>
      <trkpt lat="43.72307" lon="5.93198">
        <ele>559.20001220703</ele>
        <time>2021-01-18T11:10:03.000Z</time>
      </trkpt>
      <trkpt lat="43.72305" lon="5.93199">
        <ele>558.59997558594</ele>
        <time>2021-01-18T11:10:04.000Z</time>
      </trkpt>
      <trkpt lat="43.72304" lon="5.93201">
        <ele>557.79998779297</ele>
        <time>2021-01-18T11:10:05.000Z</time>
      </trkpt>
      <trkpt lat="43.72305" lon="5.93203">
        <ele>557.20001220703</ele>
        <time>2021-01-18T11:10:06.000Z</time>
      </trkpt>
      <trkpt lat="43.72312" lon="5.93207">
        <ele>555</ele>
        <time>2021-01-18T11:10:08.000Z</time>
      </trkpt>
      <trkpt lat="43.72316" lon="5.9321">
        <ele>553.79998779297</ele>
        <time>2021-01-18T11:10:09.000Z</time>
      </trkpt>
      <trkpt lat="43.72321" lon="5.93215">
        <ele>552.40002441406</ele>
        <time>2021-01-18T11:10:11.000Z</time>
      </trkpt>
      <trkpt lat="43.72322" lon="5.93218">
        <ele>552</ele>
        <time>2021-01-18T11:10:12.000Z</time>
      </trkpt>
      <trkpt lat="43.72316" lon="5.93221">
        <ele>551.20001220703</ele>
        <time>2021-01-18T11:10:14.000Z</time>
      </trkpt>
      <trkpt lat="43.72314" lon="5.93223">
        <ele>550.59997558594</ele>
        <time>2021-01-18T11:10:15.000Z</time>
      </trkpt>
      <trkpt lat="43.72314" lon="5.93225">
        <ele>550</ele>
        <time>2021-01-18T11:10:16.000Z</time>
      </trkpt>
      <trkpt lat="43.72318" lon="5.93232">
        <ele>548.79998779297</ele>
        <time>2021-01-18T11:10:18.000Z</time>
      </trkpt>
      <trkpt lat="43.72328" lon="5.93235">
        <ele>547.40002441406</ele>
        <time>2021-01-18T11:10:21.000Z</time>
      </trkpt>
      <trkpt lat="43.72333" lon="5.93235">
        <ele>546</ele>
        <time>2021-01-18T11:10:22.000Z</time>
      </trkpt>
      <trkpt lat="43.72339" lon="5.93234">
        <ele>545.40002441406</ele>
        <time>2021-01-18T11:10:23.000Z</time>
      </trkpt>
      <trkpt lat="43.72344" lon="5.93234">
        <ele>544.79998779297</ele>
        <time>2021-01-18T11:10:24.000Z</time>
      </trkpt>
      <trkpt lat="43.72349" lon="5.93235">
        <ele>544.20001220703</ele>
        <time>2021-01-18T11:10:25.000Z</time>
      </trkpt>
      <trkpt lat="43.72353" lon="5.93236">
        <ele>543.40002441406</ele>
        <time>2021-01-18T11:10:26.000Z</time>
      </trkpt>
      <trkpt lat="43.72362" lon="5.93236">
        <ele>542.40002441406</ele>
        <time>2021-01-18T11:10:28.000Z</time>
      </trkpt>
      <trkpt lat="43.7237" lon="5.93233">
        <ele>541</ele>
        <time>2021-01-18T11:10:30.000Z</time>
      </trkpt>
      <trkpt lat="43.72382" lon="5.93231">
        <ele>539.40002441406</ele>
        <time>2021-01-18T11:10:33.000Z</time>
      </trkpt>
      <trkpt lat="43.72387" lon="5.93232">
        <ele>538.59997558594</ele>
        <time>2021-01-18T11:10:34.000Z</time>
      </trkpt>
      <trkpt lat="43.72391" lon="5.93233">
        <ele>537.59997558594</ele>
        <time>2021-01-18T11:10:35.000Z</time>
      </trkpt>
      <trkpt lat="43.72397" lon="5.93236">
        <ele>536.40002441406</ele>
        <time>2021-01-18T11:10:37.000Z</time>
      </trkpt>
      <trkpt lat="43.724" lon="5.93238">
        <ele>536</ele>
        <time>2021-01-18T11:10:38.000Z</time>
      </trkpt>
      <trkpt lat="43.72404" lon="5.93242">
        <ele>535</ele>
        <time>2021-01-18T11:10:40.000Z</time>
      </trkpt>
      <trkpt lat="43.72406" lon="5.93246">
        <ele>534.59997558594</ele>
        <time>2021-01-18T11:10:41.000Z</time>
      </trkpt>
      <trkpt lat="43.7241" lon="5.93254">
        <ele>533.59997558594</ele>
        <time>2021-01-18T11:10:43.000Z</time>
      </trkpt>
      <trkpt lat="43.72415" lon="5.93258">
        <ele>532.79998779297</ele>
        <time>2021-01-18T11:10:45.000Z</time>
      </trkpt>
      <trkpt lat="43.72423" lon="5.93261">
        <ele>532.20001220703</ele>
        <time>2021-01-18T11:10:47.000Z</time>
      </trkpt>
      <trkpt lat="43.72433" lon="5.93267">
        <ele>531.40002441406</ele>
        <time>2021-01-18T11:10:50.000Z</time>
      </trkpt>
      <trkpt lat="43.72436" lon="5.9327">
        <ele>531.40002441406</ele>
        <time>2021-01-18T11:10:51.000Z</time>
      </trkpt>
      <trkpt lat="43.72441" lon="5.93273">
        <ele>531.20001220703</ele>
        <time>2021-01-18T11:10:52.000Z</time>
      </trkpt>
      <trkpt lat="43.72446" lon="5.93276">
        <ele>531</ele>
        <time>2021-01-18T11:10:53.000Z</time>
      </trkpt>
      <trkpt lat="43.72453" lon="5.93287">
        <ele>530</ele>
        <time>2021-01-18T11:10:55.000Z</time>
      </trkpt>
      <trkpt lat="43.72456" lon="5.93291">
        <ele>529.20001220703</ele>
        <time>2021-01-18T11:10:56.000Z</time>
      </trkpt>
      <trkpt lat="43.7246" lon="5.93294">
        <ele>528.40002441406</ele>
        <time>2021-01-18T11:10:57.000Z</time>
      </trkpt>
      <trkpt lat="43.72464" lon="5.93297">
        <ele>527.59997558594</ele>
        <time>2021-01-18T11:10:58.000Z</time>
      </trkpt>
      <trkpt lat="43.72469" lon="5.933">
        <ele>526.59997558594</ele>
        <time>2021-01-18T11:10:59.000Z</time>
      </trkpt>
      <trkpt lat="43.72473" lon="5.93303">
        <ele>525.59997558594</ele>
        <time>2021-01-18T11:11:00.000Z</time>
      </trkpt>
      <trkpt lat="43.72477" lon="5.93307">
        <ele>524.59997558594</ele>
        <time>2021-01-18T11:11:01.000Z</time>
      </trkpt>
      <trkpt lat="43.7248" lon="5.9331">
        <ele>523.79998779297</ele>
        <time>2021-01-18T11:11:02.000Z</time>
      </trkpt>
      <trkpt lat="43.72483" lon="5.93316">
        <ele>523.40002441406</ele>
        <time>2021-01-18T11:11:03.000Z</time>
      </trkpt>
      <trkpt lat="43.72484" lon="5.93322">
        <ele>523</ele>
        <time>2021-01-18T11:11:04.000Z</time>
      </trkpt>
      <trkpt lat="43.72488" lon="5.93335">
        <ele>522</ele>
        <time>2021-01-18T11:11:06.000Z</time>
      </trkpt>
      <trkpt lat="43.72493" lon="5.93346">
        <ele>520.79998779297</ele>
        <time>2021-01-18T11:11:08.000Z</time>
      </trkpt>
      <trkpt lat="43.72497" lon="5.9335">
        <ele>520.59997558594</ele>
        <time>2021-01-18T11:11:09.000Z</time>
      </trkpt>
      <trkpt lat="43.72506" lon="5.93357">
        <ele>519.20001220703</ele>
        <time>2021-01-18T11:11:11.000Z</time>
      </trkpt>
      <trkpt lat="43.72512" lon="5.93359">
        <ele>518</ele>
        <time>2021-01-18T11:11:12.000Z</time>
      </trkpt>
      <trkpt lat="43.72525" lon="5.9336">
        <ele>516.79998779297</ele>
        <time>2021-01-18T11:11:14.000Z</time>
      </trkpt>
      <trkpt lat="43.72537" lon="5.93359">
        <ele>516.40002441406</ele>
        <time>2021-01-18T11:11:16.000Z</time>
      </trkpt>
      <trkpt lat="43.72542" lon="5.93359">
        <ele>516</ele>
        <time>2021-01-18T11:11:17.000Z</time>
      </trkpt>
      <trkpt lat="43.72546" lon="5.93359">
        <ele>515.59997558594</ele>
        <time>2021-01-18T11:11:18.000Z</time>
      </trkpt>
      <trkpt lat="43.72551" lon="5.93358">
        <ele>515.40002441406</ele>
        <time>2021-01-18T11:11:19.000Z</time>
      </trkpt>
      <trkpt lat="43.72562" lon="5.93357">
        <ele>514.20001220703</ele>
        <time>2021-01-18T11:11:21.000Z</time>
      </trkpt>
      <trkpt lat="43.72575" lon="5.93353">
        <ele>513.20001220703</ele>
        <time>2021-01-18T11:11:23.000Z</time>
      </trkpt>
      <trkpt lat="43.72581" lon="5.93352">
        <ele>513</ele>
        <time>2021-01-18T11:11:24.000Z</time>
      </trkpt>
      <trkpt lat="43.72598" lon="5.93349">
        <ele>512.40002441406</ele>
        <time>2021-01-18T11:11:27.000Z</time>
      </trkpt>
      <trkpt lat="43.72604" lon="5.93346">
        <ele>511.60000610352</ele>
        <time>2021-01-18T11:11:28.000Z</time>
      </trkpt>
      <trkpt lat="43.72621" lon="5.93336">
        <ele>510.20001220703</ele>
        <time>2021-01-18T11:11:31.000Z</time>
      </trkpt>
      <trkpt lat="43.72631" lon="5.93333">
        <ele>509.39999389648</ele>
        <time>2021-01-18T11:11:33.000Z</time>
      </trkpt>
      <trkpt lat="43.72634" lon="5.93334">
        <ele>509.20001220703</ele>
        <time>2021-01-18T11:11:34.000Z</time>
      </trkpt>
      <trkpt lat="43.72638" lon="5.93334">
        <ele>508.39999389648</ele>
        <time>2021-01-18T11:11:36.000Z</time>
      </trkpt>
      <trkpt lat="43.72641" lon="5.93334">
        <ele>507.79998779297</ele>
        <time>2021-01-18T11:11:37.000Z</time>
      </trkpt>
      <trkpt lat="43.72645" lon="5.93334">
        <ele>507.60000610352</ele>
        <time>2021-01-18T11:11:38.000Z</time>
      </trkpt>
      <trkpt lat="43.7265" lon="5.93334">
        <ele>507.39999389648</ele>
        <time>2021-01-18T11:11:39.000Z</time>
      </trkpt>
      <trkpt lat="43.72666" lon="5.93338">
        <ele>507</ele>
        <time>2021-01-18T11:11:42.000Z</time>
      </trkpt>
      <trkpt lat="43.72671" lon="5.9334">
        <ele>507</ele>
        <time>2021-01-18T11:11:43.000Z</time>
      </trkpt>
      <trkpt lat="43.72677" lon="5.93341">
        <ele>506.79998779297</ele>
        <time>2021-01-18T11:11:44.000Z</time>
      </trkpt>
      <trkpt lat="43.72688" lon="5.93344">
        <ele>506.39999389648</ele>
        <time>2021-01-18T11:11:46.000Z</time>
      </trkpt>
      <trkpt lat="43.72699" lon="5.93348">
        <ele>505.79998779297</ele>
        <time>2021-01-18T11:11:48.000Z</time>
      </trkpt>
      <trkpt lat="43.72711" lon="5.9335">
        <ele>505.20001220703</ele>
        <time>2021-01-18T11:11:50.000Z</time>
      </trkpt>
      <trkpt lat="43.72724" lon="5.9335">
        <ele>504.39999389648</ele>
        <time>2021-01-18T11:11:52.000Z</time>
      </trkpt>
      <trkpt lat="43.72731" lon="5.9335">
        <ele>504.20001220703</ele>
        <time>2021-01-18T11:11:53.000Z</time>
      </trkpt>
      <trkpt lat="43.72744" lon="5.93349">
        <ele>503.79998779297</ele>
        <time>2021-01-18T11:11:55.000Z</time>
      </trkpt>
      <trkpt lat="43.72755" lon="5.93351">
        <ele>503</ele>
        <time>2021-01-18T11:11:57.000Z</time>
      </trkpt>
      <trkpt lat="43.72761" lon="5.93352">
        <ele>502.39999389648</ele>
        <time>2021-01-18T11:11:58.000Z</time>
      </trkpt>
      <trkpt lat="43.72766" lon="5.93355">
        <ele>501.79998779297</ele>
        <time>2021-01-18T11:11:59.000Z</time>
      </trkpt>
      <trkpt lat="43.72776" lon="5.93362">
        <ele>500.79998779297</ele>
        <time>2021-01-18T11:12:01.000Z</time>
      </trkpt>
      <trkpt lat="43.72789" lon="5.93379">
        <ele>499.79998779297</ele>
        <time>2021-01-18T11:12:04.000Z</time>
      </trkpt>
      <trkpt lat="43.72799" lon="5.93389">
        <ele>498.60000610352</ele>
        <time>2021-01-18T11:12:06.000Z</time>
      </trkpt>
      <trkpt lat="43.72809" lon="5.93401">
        <ele>497.20001220703</ele>
        <time>2021-01-18T11:12:08.000Z</time>
      </trkpt>
      <trkpt lat="43.72815" lon="5.93414">
        <ele>496.20001220703</ele>
        <time>2021-01-18T11:12:10.000Z</time>
      </trkpt>
      <trkpt lat="43.72821" lon="5.93426">
        <ele>495.60000610352</ele>
        <time>2021-01-18T11:12:12.000Z</time>
      </trkpt>
      <trkpt lat="43.72824" lon="5.9343">
        <ele>494.60000610352</ele>
        <time>2021-01-18T11:12:13.000Z</time>
      </trkpt>
      <trkpt lat="43.72827" lon="5.93434">
        <ele>494.20001220703</ele>
        <time>2021-01-18T11:12:14.000Z</time>
      </trkpt>
      <trkpt lat="43.72832" lon="5.93443">
        <ele>493.39999389648</ele>
        <time>2021-01-18T11:12:16.000Z</time>
      </trkpt>
      <trkpt lat="43.72838" lon="5.93447">
        <ele>492.39999389648</ele>
        <time>2021-01-18T11:12:18.000Z</time>
      </trkpt>
      <trkpt lat="43.72843" lon="5.93449">
        <ele>492.20001220703</ele>
        <time>2021-01-18T11:12:19.000Z</time>
      </trkpt>
      <trkpt lat="43.72848" lon="5.9345">
        <ele>492</ele>
        <time>2021-01-18T11:12:20.000Z</time>
      </trkpt>
      <trkpt lat="43.72854" lon="5.93451">
        <ele>491.79998779297</ele>
        <time>2021-01-18T11:12:21.000Z</time>
      </trkpt>
      <trkpt lat="43.7287" lon="5.93452">
        <ele>491</ele>
        <time>2021-01-18T11:12:25.000Z</time>
      </trkpt>
      <trkpt lat="43.72873" lon="5.93452">
        <ele>490.79998779297</ele>
        <time>2021-01-18T11:12:27.000Z</time>
      </trkpt>
      <trkpt lat="43.72873" lon="5.93451">
        <ele>490.39999389648</ele>
        <time>2021-01-18T11:12:29.000Z</time>
      </trkpt>
      <trkpt lat="43.72873" lon="5.93451">
        <ele>489.60000610352</ele>
        <time>2021-01-18T11:12:34.000Z</time>
      </trkpt>
      <trkpt lat="43.72873" lon="5.93451">
        <ele>489.39999389648</ele>
        <time>2021-01-18T11:12:45.000Z</time>
      </trkpt>
      <trkpt lat="43.72873" lon="5.93451">
        <ele>489.60000610352</ele>
        <time>2021-01-18T11:13:03.000Z</time>
      </trkpt>
      <trkpt lat="43.72873" lon="5.9345">
        <ele>489.60000610352</ele>
        <time>2021-01-18T11:13:05.000Z</time>
      </trkpt>
      <trkpt lat="43.72875" lon="5.93444">
        <ele>489.60000610352</ele>
        <time>2021-01-18T11:13:07.000Z</time>
      </trkpt>
      <trkpt lat="43.72877" lon="5.93423">
        <ele>489.60000610352</ele>
        <time>2021-01-18T11:13:12.000Z</time>
      </trkpt>
      <trkpt lat="43.72879" lon="5.93406">
        <ele>489.39999389648</ele>
        <time>2021-01-18T11:13:17.000Z</time>
      </trkpt>
      <trkpt lat="43.72886" lon="5.93385">
        <ele>489.39999389648</ele>
        <time>2021-01-18T11:13:23.000Z</time>
      </trkpt>
      <trkpt lat="43.72895" lon="5.93367">
        <ele>489.79998779297</ele>
        <time>2021-01-18T11:13:28.000Z</time>
      </trkpt>
      <trkpt lat="43.72913" lon="5.93354">
        <ele>490.60000610352</ele>
        <time>2021-01-18T11:13:34.000Z</time>
      </trkpt>
      <trkpt lat="43.72916" lon="5.93353">
        <ele>491</ele>
        <time>2021-01-18T11:13:35.000Z</time>
      </trkpt>
      <trkpt lat="43.72932" lon="5.93356">
        <ele>491.79998779297</ele>
        <time>2021-01-18T11:13:39.000Z</time>
      </trkpt>
      <trkpt lat="43.72945" lon="5.93363">
        <ele>492</ele>
        <time>2021-01-18T11:13:44.000Z</time>
      </trkpt>
      <trkpt lat="43.72947" lon="5.93363">
        <ele>492</ele>
        <time>2021-01-18T11:13:45.000Z</time>
      </trkpt>
      <trkpt lat="43.72957" lon="5.93364">
        <ele>492.39999389648</ele>
        <time>2021-01-18T11:13:50.000Z</time>
      </trkpt>
      <trkpt lat="43.72964" lon="5.93366">
        <ele>493.20001220703</ele>
        <time>2021-01-18T11:13:53.000Z</time>
      </trkpt>
      <trkpt lat="43.72971" lon="5.93367">
        <ele>494.20001220703</ele>
        <time>2021-01-18T11:13:56.000Z</time>
      </trkpt>
      <trkpt lat="43.72978" lon="5.93366">
        <ele>495.79998779297</ele>
        <time>2021-01-18T11:13:59.000Z</time>
      </trkpt>
      <trkpt lat="43.72983" lon="5.93365">
        <ele>496.39999389648</ele>
        <time>2021-01-18T11:14:01.000Z</time>
      </trkpt>
      <trkpt lat="43.72985" lon="5.93363">
        <ele>496.79998779297</ele>
        <time>2021-01-18T11:14:02.000Z</time>
      </trkpt>
      <trkpt lat="43.72992" lon="5.93353">
        <ele>497.39999389648</ele>
        <time>2021-01-18T11:14:06.000Z</time>
      </trkpt>
      <trkpt lat="43.72994" lon="5.93352">
        <ele>497.60000610352</ele>
        <time>2021-01-18T11:14:07.000Z</time>
      </trkpt>
      <trkpt lat="43.73003" lon="5.9335">
        <ele>498</ele>
        <time>2021-01-18T11:14:10.000Z</time>
      </trkpt>
      <trkpt lat="43.73007" lon="5.93351">
        <ele>498.20001220703</ele>
        <time>2021-01-18T11:14:11.000Z</time>
      </trkpt>
      <trkpt lat="43.73012" lon="5.93351">
        <ele>498.39999389648</ele>
        <time>2021-01-18T11:14:12.000Z</time>
      </trkpt>
      <trkpt lat="43.73019" lon="5.93347">
        <ele>498.79998779297</ele>
        <time>2021-01-18T11:14:14.000Z</time>
      </trkpt>
      <trkpt lat="43.73037" lon="5.93327">
        <ele>498.79998779297</ele>
        <time>2021-01-18T11:14:20.000Z</time>
      </trkpt>
      <trkpt lat="43.73042" lon="5.9332">
        <ele>498.79998779297</ele>
        <time>2021-01-18T11:14:22.000Z</time>
      </trkpt>
      <trkpt lat="43.73044" lon="5.93312">
        <ele>498.79998779297</ele>
        <time>2021-01-18T11:14:24.000Z</time>
      </trkpt>
      <trkpt lat="43.73046" lon="5.93295">
        <ele>498.79998779297</ele>
        <time>2021-01-18T11:14:28.000Z</time>
      </trkpt>
      <trkpt lat="43.73045" lon="5.93278">
        <ele>499</ele>
        <time>2021-01-18T11:14:31.000Z</time>
      </trkpt>
      <trkpt lat="43.73044" lon="5.93272">
        <ele>499</ele>
        <time>2021-01-18T11:14:32.000Z</time>
      </trkpt>
      <trkpt lat="43.73041" lon="5.93256">
        <ele>499</ele>
        <time>2021-01-18T11:14:35.000Z</time>
      </trkpt>
      <trkpt lat="43.73041" lon="5.93249">
        <ele>499</ele>
        <time>2021-01-18T11:14:36.000Z</time>
      </trkpt>
      <trkpt lat="43.73041" lon="5.93218">
        <ele>499</ele>
        <time>2021-01-18T11:14:40.000Z</time>
      </trkpt>
      <trkpt lat="43.73041" lon="5.93208">
        <ele>499</ele>
        <time>2021-01-18T11:14:41.000Z</time>
      </trkpt>
      <trkpt lat="43.73043" lon="5.93184">
        <ele>497.79998779297</ele>
        <time>2021-01-18T11:14:44.000Z</time>
      </trkpt>
      <trkpt lat="43.73047" lon="5.93172">
        <ele>496.60000610352</ele>
        <time>2021-01-18T11:14:46.000Z</time>
      </trkpt>
      <trkpt lat="43.73053" lon="5.93166">
        <ele>495.20001220703</ele>
        <time>2021-01-18T11:14:48.000Z</time>
      </trkpt>
      <trkpt lat="43.73057" lon="5.93165">
        <ele>494.79998779297</ele>
        <time>2021-01-18T11:14:49.000Z</time>
      </trkpt>
      <trkpt lat="43.73062" lon="5.93162">
        <ele>494.60000610352</ele>
        <time>2021-01-18T11:14:50.000Z</time>
      </trkpt>
      <trkpt lat="43.7307" lon="5.93155">
        <ele>494.39999389648</ele>
        <time>2021-01-18T11:14:52.000Z</time>
      </trkpt>
      <trkpt lat="43.73079" lon="5.93139">
        <ele>494.20001220703</ele>
        <time>2021-01-18T11:14:55.000Z</time>
      </trkpt>
      <trkpt lat="43.73087" lon="5.93125">
        <ele>494.20001220703</ele>
        <time>2021-01-18T11:14:58.000Z</time>
      </trkpt>
      <trkpt lat="43.73093" lon="5.93113">
        <ele>494.60000610352</ele>
        <time>2021-01-18T11:15:01.000Z</time>
      </trkpt>
      <trkpt lat="43.73093" lon="5.93108">
        <ele>494.60000610352</ele>
        <time>2021-01-18T11:15:02.000Z</time>
      </trkpt>
      <trkpt lat="43.73088" lon="5.93083">
        <ele>495.20001220703</ele>
        <time>2021-01-18T11:15:06.000Z</time>
      </trkpt>
      <trkpt lat="43.73084" lon="5.93068">
        <ele>495.20001220703</ele>
        <time>2021-01-18T11:15:08.000Z</time>
      </trkpt>
      <trkpt lat="43.73082" lon="5.93062">
        <ele>495.39999389648</ele>
        <time>2021-01-18T11:15:09.000Z</time>
      </trkpt>
      <trkpt lat="43.7308" lon="5.93056">
        <ele>495.39999389648</ele>
        <time>2021-01-18T11:15:10.000Z</time>
      </trkpt>
      <trkpt lat="43.73074" lon="5.9304">
        <ele>495.79998779297</ele>
        <time>2021-01-18T11:15:13.000Z</time>
      </trkpt>
      <trkpt lat="43.73073" lon="5.93035">
        <ele>496</ele>
        <time>2021-01-18T11:15:14.000Z</time>
      </trkpt>
      <trkpt lat="43.73071" lon="5.93032">
        <ele>496.20001220703</ele>
        <time>2021-01-18T11:15:15.000Z</time>
      </trkpt>
      <trkpt lat="43.73061" lon="5.93011">
        <ele>496.60000610352</ele>
        <time>2021-01-18T11:15:21.000Z</time>
      </trkpt>
      <trkpt lat="43.73057" lon="5.92995">
        <ele>497.20001220703</ele>
        <time>2021-01-18T11:15:25.000Z</time>
      </trkpt>
      <trkpt lat="43.73052" lon="5.92981">
        <ele>498.20001220703</ele>
        <time>2021-01-18T11:15:29.000Z</time>
      </trkpt>
      <trkpt lat="43.73049" lon="5.92969">
        <ele>499</ele>
        <time>2021-01-18T11:15:32.000Z</time>
      </trkpt>
      <trkpt lat="43.73045" lon="5.92957">
        <ele>500.20001220703</ele>
        <time>2021-01-18T11:15:35.000Z</time>
      </trkpt>
      <trkpt lat="43.73044" lon="5.92938">
        <ele>501.39999389648</ele>
        <time>2021-01-18T11:15:40.000Z</time>
      </trkpt>
      <trkpt lat="43.73043" lon="5.92925">
        <ele>502.60000610352</ele>
        <time>2021-01-18T11:15:43.000Z</time>
      </trkpt>
      <trkpt lat="43.73041" lon="5.92919">
        <ele>503.39999389648</ele>
        <time>2021-01-18T11:15:45.000Z</time>
      </trkpt>
      <trkpt lat="43.73041" lon="5.92915">
        <ele>503.79998779297</ele>
        <time>2021-01-18T11:15:46.000Z</time>
      </trkpt>
      <trkpt lat="43.73042" lon="5.92905">
        <ele>504.39999389648</ele>
        <time>2021-01-18T11:15:49.000Z</time>
      </trkpt>
      <trkpt lat="43.73041" lon="5.92902">
        <ele>504.60000610352</ele>
        <time>2021-01-18T11:15:50.000Z</time>
      </trkpt>
      <trkpt lat="43.73035" lon="5.92888">
        <ele>505.39999389648</ele>
        <time>2021-01-18T11:15:54.000Z</time>
      </trkpt>
      <trkpt lat="43.73034" lon="5.92884">
        <ele>506</ele>
        <time>2021-01-18T11:15:55.000Z</time>
      </trkpt>
      <trkpt lat="43.73028" lon="5.92869">
        <ele>507.20001220703</ele>
        <time>2021-01-18T11:15:59.000Z</time>
      </trkpt>
      <trkpt lat="43.73026" lon="5.92866">
        <ele>507.39999389648</ele>
        <time>2021-01-18T11:16:00.000Z</time>
      </trkpt>
      <trkpt lat="43.73022" lon="5.9286">
        <ele>508.20001220703</ele>
        <time>2021-01-18T11:16:02.000Z</time>
      </trkpt>
      <trkpt lat="43.73016" lon="5.9285">
        <ele>509.39999389648</ele>
        <time>2021-01-18T11:16:06.000Z</time>
      </trkpt>
      <trkpt lat="43.73013" lon="5.9284">
        <ele>510.39999389648</ele>
        <time>2021-01-18T11:16:09.000Z</time>
      </trkpt>
      <trkpt lat="43.73012" lon="5.9283">
        <ele>511.20001220703</ele>
        <time>2021-01-18T11:16:12.000Z</time>
      </trkpt>
      <trkpt lat="43.73012" lon="5.92826">
        <ele>511.39999389648</ele>
        <time>2021-01-18T11:16:13.000Z</time>
      </trkpt>
      <trkpt lat="43.7301" lon="5.92816">
        <ele>512.40002441406</ele>
        <time>2021-01-18T11:16:16.000Z</time>
      </trkpt>
      <trkpt lat="43.73007" lon="5.92807">
        <ele>513.40002441406</ele>
        <time>2021-01-18T11:16:19.000Z</time>
      </trkpt>
      <trkpt lat="43.73004" lon="5.92797">
        <ele>514.79998779297</ele>
        <time>2021-01-18T11:16:22.000Z</time>
      </trkpt>
      <trkpt lat="43.73001" lon="5.92791">
        <ele>515.59997558594</ele>
        <time>2021-01-18T11:16:24.000Z</time>
      </trkpt>
      <trkpt lat="43.72999" lon="5.92784">
        <ele>516.40002441406</ele>
        <time>2021-01-18T11:16:26.000Z</time>
      </trkpt>
      <trkpt lat="43.72998" lon="5.92781">
        <ele>516.79998779297</ele>
        <time>2021-01-18T11:16:27.000Z</time>
      </trkpt>
      <trkpt lat="43.72995" lon="5.92772">
        <ele>518</ele>
        <time>2021-01-18T11:16:30.000Z</time>
      </trkpt>
      <trkpt lat="43.72992" lon="5.92762">
        <ele>519</ele>
        <time>2021-01-18T11:16:33.000Z</time>
      </trkpt>
      <trkpt lat="43.72988" lon="5.92753">
        <ele>520.40002441406</ele>
        <time>2021-01-18T11:16:36.000Z</time>
      </trkpt>
      <trkpt lat="43.72983" lon="5.92743">
        <ele>521.59997558594</ele>
        <time>2021-01-18T11:16:40.000Z</time>
      </trkpt>
      <trkpt lat="43.7298" lon="5.92735">
        <ele>522.59997558594</ele>
        <time>2021-01-18T11:16:43.000Z</time>
      </trkpt>
      <trkpt lat="43.72974" lon="5.92723">
        <ele>523.59997558594</ele>
        <time>2021-01-18T11:16:47.000Z</time>
      </trkpt>
      <trkpt lat="43.72972" lon="5.9272">
        <ele>524</ele>
        <time>2021-01-18T11:16:48.000Z</time>
      </trkpt>
      <trkpt lat="43.7297" lon="5.92714">
        <ele>524.79998779297</ele>
        <time>2021-01-18T11:16:50.000Z</time>
      </trkpt>
      <trkpt lat="43.72967" lon="5.92708">
        <ele>525.79998779297</ele>
        <time>2021-01-18T11:16:52.000Z</time>
      </trkpt>
      <trkpt lat="43.72964" lon="5.927">
        <ele>527</ele>
        <time>2021-01-18T11:16:55.000Z</time>
      </trkpt>
      <trkpt lat="43.72963" lon="5.92697">
        <ele>527.20001220703</ele>
        <time>2021-01-18T11:16:56.000Z</time>
      </trkpt>
      <trkpt lat="43.7296" lon="5.92686">
        <ele>528</ele>
        <time>2021-01-18T11:16:59.000Z</time>
      </trkpt>
      <trkpt lat="43.72959" lon="5.92675">
        <ele>528.79998779297</ele>
        <time>2021-01-18T11:17:02.000Z</time>
      </trkpt>
      <trkpt lat="43.72959" lon="5.92672">
        <ele>529.20001220703</ele>
        <time>2021-01-18T11:17:03.000Z</time>
      </trkpt>
      <trkpt lat="43.72959" lon="5.92657">
        <ele>530.20001220703</ele>
        <time>2021-01-18T11:17:07.000Z</time>
      </trkpt>
      <trkpt lat="43.72961" lon="5.92648">
        <ele>531</ele>
        <time>2021-01-18T11:17:10.000Z</time>
      </trkpt>
      <trkpt lat="43.72963" lon="5.92646">
        <ele>531.40002441406</ele>
        <time>2021-01-18T11:17:11.000Z</time>
      </trkpt>
      <trkpt lat="43.72968" lon="5.92635">
        <ele>532.40002441406</ele>
        <time>2021-01-18T11:17:15.000Z</time>
      </trkpt>
      <trkpt lat="43.72971" lon="5.92627">
        <ele>533.20001220703</ele>
        <time>2021-01-18T11:17:18.000Z</time>
      </trkpt>
      <trkpt lat="43.72973" lon="5.92624">
        <ele>534</ele>
        <time>2021-01-18T11:17:19.000Z</time>
      </trkpt>
      <trkpt lat="43.72975" lon="5.92615">
        <ele>534.79998779297</ele>
        <time>2021-01-18T11:17:22.000Z</time>
      </trkpt>
      <trkpt lat="43.72976" lon="5.92608">
        <ele>535.40002441406</ele>
        <time>2021-01-18T11:17:24.000Z</time>
      </trkpt>
      <trkpt lat="43.72976" lon="5.92605">
        <ele>535.79998779297</ele>
        <time>2021-01-18T11:17:25.000Z</time>
      </trkpt>
      <trkpt lat="43.72977" lon="5.92596">
        <ele>537.20001220703</ele>
        <time>2021-01-18T11:17:28.000Z</time>
      </trkpt>
      <trkpt lat="43.72978" lon="5.9259">
        <ele>538</ele>
        <time>2021-01-18T11:17:30.000Z</time>
      </trkpt>
      <trkpt lat="43.72978" lon="5.92587">
        <ele>538.40002441406</ele>
        <time>2021-01-18T11:17:31.000Z</time>
      </trkpt>
      <trkpt lat="43.7298" lon="5.92579">
        <ele>540</ele>
        <time>2021-01-18T11:17:34.000Z</time>
      </trkpt>
      <trkpt lat="43.72983" lon="5.9257">
        <ele>541.40002441406</ele>
        <time>2021-01-18T11:17:37.000Z</time>
      </trkpt>
      <trkpt lat="43.72987" lon="5.9256">
        <ele>542.59997558594</ele>
        <time>2021-01-18T11:17:40.000Z</time>
      </trkpt>
      <trkpt lat="43.72991" lon="5.92551">
        <ele>544</ele>
        <time>2021-01-18T11:17:43.000Z</time>
      </trkpt>
      <trkpt lat="43.72993" lon="5.92548">
        <ele>544.40002441406</ele>
        <time>2021-01-18T11:17:44.000Z</time>
      </trkpt>
      <trkpt lat="43.72995" lon="5.92543">
        <ele>545.20001220703</ele>
        <time>2021-01-18T11:17:46.000Z</time>
      </trkpt>
      <trkpt lat="43.72999" lon="5.92535">
        <ele>546.40002441406</ele>
        <time>2021-01-18T11:17:49.000Z</time>
      </trkpt>
      <trkpt lat="43.73001" lon="5.92532">
        <ele>546.59997558594</ele>
        <time>2021-01-18T11:17:50.000Z</time>
      </trkpt>
      <trkpt lat="43.73004" lon="5.92524">
        <ele>547.20001220703</ele>
        <time>2021-01-18T11:17:53.000Z</time>
      </trkpt>
      <trkpt lat="43.73004" lon="5.92521">
        <ele>547.59997558594</ele>
        <time>2021-01-18T11:17:54.000Z</time>
      </trkpt>
      <trkpt lat="43.73003" lon="5.92518">
        <ele>548</ele>
        <time>2021-01-18T11:17:55.000Z</time>
      </trkpt>
      <trkpt lat="43.73002" lon="5.92512">
        <ele>549</ele>
        <time>2021-01-18T11:17:58.000Z</time>
      </trkpt>
      <trkpt lat="43.73001" lon="5.92506">
        <ele>549.59997558594</ele>
        <time>2021-01-18T11:18:01.000Z</time>
      </trkpt>
      <trkpt lat="43.73002" lon="5.92501">
        <ele>550.20001220703</ele>
        <time>2021-01-18T11:18:03.000Z</time>
      </trkpt>
      <trkpt lat="43.73005" lon="5.92494">
        <ele>551.59997558594</ele>
        <time>2021-01-18T11:18:06.000Z</time>
      </trkpt>
      <trkpt lat="43.73006" lon="5.92493">
        <ele>551.79998779297</ele>
        <time>2021-01-18T11:18:07.000Z</time>
      </trkpt>
      <trkpt lat="43.73009" lon="5.92495">
        <ele>552.20001220703</ele>
        <time>2021-01-18T11:18:11.000Z</time>
      </trkpt>
      <trkpt lat="43.73009" lon="5.92495">
        <ele>552.20001220703</ele>
        <time>2021-01-18T11:18:21.000Z</time>
      </trkpt>
      <trkpt lat="43.73009" lon="5.92495">
        <ele>552.20001220703</ele>
        <time>2021-01-18T11:18:36.000Z</time>
      </trkpt>
      <trkpt lat="43.73009" lon="5.92496">
        <ele>552.20001220703</ele>
        <time>2021-01-18T11:18:40.000Z</time>
      </trkpt>
      <trkpt lat="43.73012" lon="5.92497">
        <ele>552.20001220703</ele>
        <time>2021-01-18T11:18:42.000Z</time>
      </trkpt>
      <trkpt lat="43.73013" lon="5.92498">
        <ele>552.20001220703</ele>
        <time>2021-01-18T11:18:43.000Z</time>
      </trkpt>
      <trkpt lat="43.73016" lon="5.92503">
        <ele>552.20001220703</ele>
        <time>2021-01-18T11:18:49.000Z</time>
      </trkpt>
      <trkpt lat="43.73018" lon="5.92503">
        <ele>552.20001220703</ele>
        <time>2021-01-18T11:18:50.000Z</time>
      </trkpt>
      <trkpt lat="43.73022" lon="5.92508">
        <ele>552.79998779297</ele>
        <time>2021-01-18T11:18:53.000Z</time>
      </trkpt>
      <trkpt lat="43.73022" lon="5.9251">
        <ele>553</ele>
        <time>2021-01-18T11:18:54.000Z</time>
      </trkpt>
      <trkpt lat="43.73023" lon="5.92513">
        <ele>553</ele>
        <time>2021-01-18T11:18:55.000Z</time>
      </trkpt>
      <trkpt lat="43.73028" lon="5.92527">
        <ele>553.40002441406</ele>
        <time>2021-01-18T11:18:59.000Z</time>
      </trkpt>
      <trkpt lat="43.73028" lon="5.92531">
        <ele>553.79998779297</ele>
        <time>2021-01-18T11:19:00.000Z</time>
      </trkpt>
      <trkpt lat="43.73033" lon="5.92545">
        <ele>555</ele>
        <time>2021-01-18T11:19:05.000Z</time>
      </trkpt>
      <trkpt lat="43.73035" lon="5.92555">
        <ele>556.20001220703</ele>
        <time>2021-01-18T11:19:08.000Z</time>
      </trkpt>
      <trkpt lat="43.73038" lon="5.92565">
        <ele>557.40002441406</ele>
        <time>2021-01-18T11:19:11.000Z</time>
      </trkpt>
      <trkpt lat="43.73041" lon="5.92581">
        <ele>558.79998779297</ele>
        <time>2021-01-18T11:19:16.000Z</time>
      </trkpt>
      <trkpt lat="43.73043" lon="5.92591">
        <ele>559.20001220703</ele>
        <time>2021-01-18T11:19:19.000Z</time>
      </trkpt>
      <trkpt lat="43.73045" lon="5.92598">
        <ele>560</ele>
        <time>2021-01-18T11:19:21.000Z</time>
      </trkpt>
      <trkpt lat="43.73049" lon="5.92612">
        <ele>561</ele>
        <time>2021-01-18T11:19:26.000Z</time>
      </trkpt>
      <trkpt lat="43.7305" lon="5.92615">
        <ele>562.20001220703</ele>
        <time>2021-01-18T11:19:30.000Z</time>
      </trkpt>
      <trkpt lat="43.7305" lon="5.92615">
        <ele>563.20001220703</ele>
        <time>2021-01-18T11:19:35.000Z</time>
      </trkpt>
      <trkpt lat="43.7305" lon="5.92615">
        <ele>563.79998779297</ele>
        <time>2021-01-18T11:19:40.000Z</time>
      </trkpt>
      <trkpt lat="43.7305" lon="5.92616">
        <ele>563.59997558594</ele>
        <time>2021-01-18T11:19:56.000Z</time>
      </trkpt>
      <trkpt lat="43.73054" lon="5.92628">
        <ele>563.59997558594</ele>
        <time>2021-01-18T11:20:02.000Z</time>
      </trkpt>
      <trkpt lat="43.73058" lon="5.92642">
        <ele>563.59997558594</ele>
        <time>2021-01-18T11:20:07.000Z</time>
      </trkpt>
      <trkpt lat="43.7306" lon="5.92643">
        <ele>563.59997558594</ele>
        <time>2021-01-18T11:20:08.000Z</time>
      </trkpt>
      <trkpt lat="43.73069" lon="5.92656">
        <ele>563.59997558594</ele>
        <time>2021-01-18T11:20:13.000Z</time>
      </trkpt>
      <trkpt lat="43.73084" lon="5.92675">
        <ele>563.79998779297</ele>
        <time>2021-01-18T11:20:20.000Z</time>
      </trkpt>
      <trkpt lat="43.73087" lon="5.92678">
        <ele>563.79998779297</ele>
        <time>2021-01-18T11:20:21.000Z</time>
      </trkpt>
      <trkpt lat="43.73095" lon="5.92687">
        <ele>563.79998779297</ele>
        <time>2021-01-18T11:20:25.000Z</time>
      </trkpt>
      <trkpt lat="43.73103" lon="5.92702">
        <ele>563.79998779297</ele>
        <time>2021-01-18T11:20:29.000Z</time>
      </trkpt>
      <trkpt lat="43.73114" lon="5.92716">
        <ele>563.59997558594</ele>
        <time>2021-01-18T11:20:34.000Z</time>
      </trkpt>
      <trkpt lat="43.7312" lon="5.92732">
        <ele>563.59997558594</ele>
        <time>2021-01-18T11:20:38.000Z</time>
      </trkpt>
      <trkpt lat="43.73132" lon="5.92755">
        <ele>563.59997558594</ele>
        <time>2021-01-18T11:20:43.000Z</time>
      </trkpt>
      <trkpt lat="43.73142" lon="5.92772">
        <ele>564.20001220703</ele>
        <time>2021-01-18T11:20:48.000Z</time>
      </trkpt>
      <trkpt lat="43.73145" lon="5.9278">
        <ele>564.40002441406</ele>
        <time>2021-01-18T11:20:50.000Z</time>
      </trkpt>
      <trkpt lat="43.73152" lon="5.92795">
        <ele>564.79998779297</ele>
        <time>2021-01-18T11:20:53.000Z</time>
      </trkpt>
      <trkpt lat="43.73158" lon="5.92804">
        <ele>565</ele>
        <time>2021-01-18T11:20:55.000Z</time>
      </trkpt>
      <trkpt lat="43.73165" lon="5.92809">
        <ele>565.20001220703</ele>
        <time>2021-01-18T11:20:57.000Z</time>
      </trkpt>
      <trkpt lat="43.73175" lon="5.92822">
        <ele>565.20001220703</ele>
        <time>2021-01-18T11:21:01.000Z</time>
      </trkpt>
      <trkpt lat="43.73186" lon="5.92835">
        <ele>565.20001220703</ele>
        <time>2021-01-18T11:21:05.000Z</time>
      </trkpt>
      <trkpt lat="43.73194" lon="5.92837">
        <ele>565.20001220703</ele>
        <time>2021-01-18T11:21:08.000Z</time>
      </trkpt>
      <trkpt lat="43.73199" lon="5.92837">
        <ele>565.20001220703</ele>
        <time>2021-01-18T11:21:10.000Z</time>
      </trkpt>
      <trkpt lat="43.73206" lon="5.92839">
        <ele>564.79998779297</ele>
        <time>2021-01-18T11:21:13.000Z</time>
      </trkpt>
      <trkpt lat="43.73208" lon="5.9285">
        <ele>563.79998779297</ele>
        <time>2021-01-18T11:21:16.000Z</time>
      </trkpt>
      <trkpt lat="43.73209" lon="5.92855">
        <ele>563.59997558594</ele>
        <time>2021-01-18T11:21:17.000Z</time>
      </trkpt>
      <trkpt lat="43.73212" lon="5.92874">
        <ele>562.40002441406</ele>
        <time>2021-01-18T11:21:20.000Z</time>
      </trkpt>
      <trkpt lat="43.73213" lon="5.92886">
        <ele>561.40002441406</ele>
        <time>2021-01-18T11:21:22.000Z</time>
      </trkpt>
      <trkpt lat="43.73212" lon="5.9289">
        <ele>560.79998779297</ele>
        <time>2021-01-18T11:21:23.000Z</time>
      </trkpt>
      <trkpt lat="43.73211" lon="5.92894">
        <ele>560.20001220703</ele>
        <time>2021-01-18T11:21:24.000Z</time>
      </trkpt>
      <trkpt lat="43.73214" lon="5.92901">
        <ele>559.20001220703</ele>
        <time>2021-01-18T11:21:26.000Z</time>
      </trkpt>
      <trkpt lat="43.73218" lon="5.92903">
        <ele>558.59997558594</ele>
        <time>2021-01-18T11:21:27.000Z</time>
      </trkpt>
      <trkpt lat="43.73226" lon="5.92905">
        <ele>557.20001220703</ele>
        <time>2021-01-18T11:21:29.000Z</time>
      </trkpt>
      <trkpt lat="43.7323" lon="5.92906">
        <ele>555.59997558594</ele>
        <time>2021-01-18T11:21:30.000Z</time>
      </trkpt>
      <trkpt lat="43.73236" lon="5.92911">
        <ele>554.20001220703</ele>
        <time>2021-01-18T11:21:32.000Z</time>
      </trkpt>
      <trkpt lat="43.73242" lon="5.92917">
        <ele>552.79998779297</ele>
        <time>2021-01-18T11:21:34.000Z</time>
      </trkpt>
      <trkpt lat="43.73246" lon="5.9292">
        <ele>551.79998779297</ele>
        <time>2021-01-18T11:21:35.000Z</time>
      </trkpt>
      <trkpt lat="43.7325" lon="5.92923">
        <ele>550.79998779297</ele>
        <time>2021-01-18T11:21:36.000Z</time>
      </trkpt>
      <trkpt lat="43.73252" lon="5.92929">
        <ele>549.59997558594</ele>
        <time>2021-01-18T11:21:37.000Z</time>
      </trkpt>
      <trkpt lat="43.73255" lon="5.92935">
        <ele>548.79998779297</ele>
        <time>2021-01-18T11:21:38.000Z</time>
      </trkpt>
      <trkpt lat="43.73258" lon="5.92939">
        <ele>547.79998779297</ele>
        <time>2021-01-18T11:21:39.000Z</time>
      </trkpt>
      <trkpt lat="43.73261" lon="5.92942">
        <ele>546.79998779297</ele>
        <time>2021-01-18T11:21:40.000Z</time>
      </trkpt>
      <trkpt lat="43.73267" lon="5.92944">
        <ele>545.59997558594</ele>
        <time>2021-01-18T11:21:41.000Z</time>
      </trkpt>
      <trkpt lat="43.73273" lon="5.92946">
        <ele>544.20001220703</ele>
        <time>2021-01-18T11:21:42.000Z</time>
      </trkpt>
      <trkpt lat="43.7328" lon="5.92949">
        <ele>542.79998779297</ele>
        <time>2021-01-18T11:21:43.000Z</time>
      </trkpt>
      <trkpt lat="43.73287" lon="5.92951">
        <ele>541.40002441406</ele>
        <time>2021-01-18T11:21:44.000Z</time>
      </trkpt>
      <trkpt lat="43.73294" lon="5.92954">
        <ele>540.20001220703</ele>
        <time>2021-01-18T11:21:45.000Z</time>
      </trkpt>
      <trkpt lat="43.733" lon="5.92957">
        <ele>539</ele>
        <time>2021-01-18T11:21:46.000Z</time>
      </trkpt>
      <trkpt lat="43.73304" lon="5.92959">
        <ele>538</ele>
        <time>2021-01-18T11:21:47.000Z</time>
      </trkpt>
      <trkpt lat="43.73309" lon="5.92962">
        <ele>536.20001220703</ele>
        <time>2021-01-18T11:21:49.000Z</time>
      </trkpt>
      <trkpt lat="43.73309" lon="5.92963">
        <ele>535.40002441406</ele>
        <time>2021-01-18T11:21:50.000Z</time>
      </trkpt>
      <trkpt lat="43.73309" lon="5.92965">
        <ele>534.20001220703</ele>
        <time>2021-01-18T11:21:51.000Z</time>
      </trkpt>
      <trkpt lat="43.7331" lon="5.92966">
        <ele>533.20001220703</ele>
        <time>2021-01-18T11:21:52.000Z</time>
      </trkpt>
      <trkpt lat="43.73309" lon="5.92967">
        <ele>531.79998779297</ele>
        <time>2021-01-18T11:21:54.000Z</time>
      </trkpt>
      <trkpt lat="43.73309" lon="5.92966">
        <ele>531.79998779297</ele>
        <time>2021-01-18T11:21:57.000Z</time>
      </trkpt>
      <trkpt lat="43.73309" lon="5.92969">
        <ele>531.59997558594</ele>
        <time>2021-01-18T11:22:10.000Z</time>
      </trkpt>
      <trkpt lat="43.7331" lon="5.92983">
        <ele>531.59997558594</ele>
        <time>2021-01-18T11:22:14.000Z</time>
      </trkpt>
      <trkpt lat="43.73312" lon="5.92987">
        <ele>531.59997558594</ele>
        <time>2021-01-18T11:22:15.000Z</time>
      </trkpt>
      <trkpt lat="43.73319" lon="5.92995">
        <ele>531.59997558594</ele>
        <time>2021-01-18T11:22:17.000Z</time>
      </trkpt>
      <trkpt lat="43.73339" lon="5.93015">
        <ele>531.20001220703</ele>
        <time>2021-01-18T11:22:21.000Z</time>
      </trkpt>
      <trkpt lat="43.73345" lon="5.93021">
        <ele>531</ele>
        <time>2021-01-18T11:22:22.000Z</time>
      </trkpt>
      <trkpt lat="43.7336" lon="5.93039">
        <ele>529.40002441406</ele>
        <time>2021-01-18T11:22:25.000Z</time>
      </trkpt>
      <trkpt lat="43.73364" lon="5.93045">
        <ele>528.79998779297</ele>
        <time>2021-01-18T11:22:26.000Z</time>
      </trkpt>
      <trkpt lat="43.73367" lon="5.9305">
        <ele>528.20001220703</ele>
        <time>2021-01-18T11:22:27.000Z</time>
      </trkpt>
      <trkpt lat="43.73373" lon="5.93061">
        <ele>526.59997558594</ele>
        <time>2021-01-18T11:22:29.000Z</time>
      </trkpt>
      <trkpt lat="43.73376" lon="5.9307">
        <ele>526</ele>
        <time>2021-01-18T11:22:31.000Z</time>
      </trkpt>
      <trkpt lat="43.73379" lon="5.93101">
        <ele>525.40002441406</ele>
        <time>2021-01-18T11:22:37.000Z</time>
      </trkpt>
      <trkpt lat="43.7338" lon="5.93106">
        <ele>525.40002441406</ele>
        <time>2021-01-18T11:22:38.000Z</time>
      </trkpt>
      <trkpt lat="43.73384" lon="5.93117">
        <ele>525.20001220703</ele>
        <time>2021-01-18T11:22:41.000Z</time>
      </trkpt>
      <trkpt lat="43.73385" lon="5.93121">
        <ele>525</ele>
        <time>2021-01-18T11:22:42.000Z</time>
      </trkpt>
      <trkpt lat="43.73387" lon="5.93125">
        <ele>525</ele>
        <time>2021-01-18T11:22:43.000Z</time>
      </trkpt>
      <trkpt lat="43.73391" lon="5.93129">
        <ele>525</ele>
        <time>2021-01-18T11:22:45.000Z</time>
      </trkpt>
      <trkpt lat="43.73403" lon="5.93144">
        <ele>524.79998779297</ele>
        <time>2021-01-18T11:22:48.000Z</time>
      </trkpt>
      <trkpt lat="43.73413" lon="5.93154">
        <ele>524.20001220703</ele>
        <time>2021-01-18T11:22:50.000Z</time>
      </trkpt>
      <trkpt lat="43.73424" lon="5.93162">
        <ele>523.59997558594</ele>
        <time>2021-01-18T11:22:52.000Z</time>
      </trkpt>
      <trkpt lat="43.7343" lon="5.93165">
        <ele>522.79998779297</ele>
        <time>2021-01-18T11:22:53.000Z</time>
      </trkpt>
      <trkpt lat="43.73441" lon="5.93165">
        <ele>521.40002441406</ele>
        <time>2021-01-18T11:22:55.000Z</time>
      </trkpt>
      <trkpt lat="43.73447" lon="5.93163">
        <ele>520.20001220703</ele>
        <time>2021-01-18T11:22:56.000Z</time>
      </trkpt>
      <trkpt lat="43.73451" lon="5.9316">
        <ele>519.20001220703</ele>
        <time>2021-01-18T11:22:57.000Z</time>
      </trkpt>
      <trkpt lat="43.73454" lon="5.93157">
        <ele>517.79998779297</ele>
        <time>2021-01-18T11:22:58.000Z</time>
      </trkpt>
      <trkpt lat="43.73455" lon="5.93156">
        <ele>516.20001220703</ele>
        <time>2021-01-18T11:22:59.000Z</time>
      </trkpt>
      <trkpt lat="43.73456" lon="5.93155">
        <ele>514.40002441406</ele>
        <time>2021-01-18T11:23:00.000Z</time>
      </trkpt>
      <trkpt lat="43.73457" lon="5.93155">
        <ele>512.79998779297</ele>
        <time>2021-01-18T11:23:01.000Z</time>
      </trkpt>
      <trkpt lat="43.73457" lon="5.93155">
        <ele>511</ele>
        <time>2021-01-18T11:23:02.000Z</time>
      </trkpt>
      <trkpt lat="43.73458" lon="5.93155">
        <ele>509.39999389648</ele>
        <time>2021-01-18T11:23:03.000Z</time>
      </trkpt>
      <trkpt lat="43.73458" lon="5.93155">
        <ele>508.20001220703</ele>
        <time>2021-01-18T11:23:04.000Z</time>
      </trkpt>
      <trkpt lat="43.73459" lon="5.93155">
        <ele>507</ele>
        <time>2021-01-18T11:23:06.000Z</time>
      </trkpt>
      <trkpt lat="43.7346" lon="5.93155">
        <ele>506.60000610352</ele>
        <time>2021-01-18T11:23:12.000Z</time>
      </trkpt>
      <trkpt lat="43.7346" lon="5.93154">
        <ele>506.60000610352</ele>
        <time>2021-01-18T11:23:23.000Z</time>
      </trkpt>
      <trkpt lat="43.73461" lon="5.93152">
        <ele>506.39999389648</ele>
        <time>2021-01-18T11:23:24.000Z</time>
      </trkpt>
      <trkpt lat="43.73463" lon="5.93144">
        <ele>506.39999389648</ele>
        <time>2021-01-18T11:23:28.000Z</time>
      </trkpt>
      <trkpt lat="43.73465" lon="5.93138">
        <ele>506.39999389648</ele>
        <time>2021-01-18T11:23:30.000Z</time>
      </trkpt>
      <trkpt lat="43.73469" lon="5.93136">
        <ele>506.60000610352</ele>
        <time>2021-01-18T11:23:32.000Z</time>
      </trkpt>
      <trkpt lat="43.73479" lon="5.93141">
        <ele>506.39999389648</ele>
        <time>2021-01-18T11:23:35.000Z</time>
      </trkpt>
      <trkpt lat="43.73492" lon="5.93142">
        <ele>506.20001220703</ele>
        <time>2021-01-18T11:23:39.000Z</time>
      </trkpt>
      <trkpt lat="43.73496" lon="5.93145">
        <ele>506</ele>
        <time>2021-01-18T11:23:41.000Z</time>
      </trkpt>
      <trkpt lat="43.73499" lon="5.93147">
        <ele>506</ele>
        <time>2021-01-18T11:23:42.000Z</time>
      </trkpt>
      <trkpt lat="43.73505" lon="5.93148">
        <ele>505.39999389648</ele>
        <time>2021-01-18T11:23:44.000Z</time>
      </trkpt>
      <trkpt lat="43.73509" lon="5.93148">
        <ele>504.79998779297</ele>
        <time>2021-01-18T11:23:45.000Z</time>
      </trkpt>
      <trkpt lat="43.73513" lon="5.93147">
        <ele>504</ele>
        <time>2021-01-18T11:23:46.000Z</time>
      </trkpt>
      <trkpt lat="43.73518" lon="5.93145">
        <ele>503.60000610352</ele>
        <time>2021-01-18T11:23:47.000Z</time>
      </trkpt>
      <trkpt lat="43.73522" lon="5.93143">
        <ele>503.39999389648</ele>
        <time>2021-01-18T11:23:48.000Z</time>
      </trkpt>
      <trkpt lat="43.73524" lon="5.93141">
        <ele>501.60000610352</ele>
        <time>2021-01-18T11:23:49.000Z</time>
      </trkpt>
      <trkpt lat="43.73526" lon="5.93139">
        <ele>500</ele>
        <time>2021-01-18T11:23:51.000Z</time>
      </trkpt>
      <trkpt lat="43.73526" lon="5.93139">
        <ele>498.60000610352</ele>
        <time>2021-01-18T11:23:53.000Z</time>
      </trkpt>
      <trkpt lat="43.73527" lon="5.93139">
        <ele>496.39999389648</ele>
        <time>2021-01-18T11:23:55.000Z</time>
      </trkpt>
      <trkpt lat="43.73527" lon="5.93138">
        <ele>495.60000610352</ele>
        <time>2021-01-18T11:23:57.000Z</time>
      </trkpt>
      <trkpt lat="43.73528" lon="5.93138">
        <ele>495.39999389648</ele>
        <time>2021-01-18T11:23:58.000Z</time>
      </trkpt>
      <trkpt lat="43.73528" lon="5.93138">
        <ele>495</ele>
        <time>2021-01-18T11:24:07.000Z</time>
      </trkpt>
      <trkpt lat="43.73528" lon="5.93138">
        <ele>495</ele>
        <time>2021-01-18T11:24:21.000Z</time>
      </trkpt>
      <trkpt lat="43.73528" lon="5.93138">
        <ele>495.20001220703</ele>
        <time>2021-01-18T11:24:30.000Z</time>
      </trkpt>
      <trkpt lat="43.73528" lon="5.93138">
        <ele>495</ele>
        <time>2021-01-18T11:24:57.000Z</time>
      </trkpt>
      <trkpt lat="43.73527" lon="5.93139">
        <ele>495</ele>
        <time>2021-01-18T11:25:27.000Z</time>
      </trkpt>
      <trkpt lat="43.73528" lon="5.93143">
        <ele>495.20001220703</ele>
        <time>2021-01-18T11:25:35.000Z</time>
      </trkpt>
      <trkpt lat="43.73529" lon="5.93146">
        <ele>495.20001220703</ele>
        <time>2021-01-18T11:25:36.000Z</time>
      </trkpt>
      <trkpt lat="43.73534" lon="5.93153">
        <ele>495.20001220703</ele>
        <time>2021-01-18T11:25:38.000Z</time>
      </trkpt>
      <trkpt lat="43.73546" lon="5.93164">
        <ele>495.20001220703</ele>
        <time>2021-01-18T11:25:41.000Z</time>
      </trkpt>
      <trkpt lat="43.73553" lon="5.93169">
        <ele>494.79998779297</ele>
        <time>2021-01-18T11:25:43.000Z</time>
      </trkpt>
      <trkpt lat="43.73556" lon="5.93172">
        <ele>494.39999389648</ele>
        <time>2021-01-18T11:25:44.000Z</time>
      </trkpt>
      <trkpt lat="43.73557" lon="5.93177">
        <ele>493.39999389648</ele>
        <time>2021-01-18T11:25:45.000Z</time>
      </trkpt>
      <trkpt lat="43.73558" lon="5.93183">
        <ele>492.20001220703</ele>
        <time>2021-01-18T11:25:46.000Z</time>
      </trkpt>
      <trkpt lat="43.73558" lon="5.93191">
        <ele>491</ele>
        <time>2021-01-18T11:25:47.000Z</time>
      </trkpt>
      <trkpt lat="43.73559" lon="5.93199">
        <ele>489.60000610352</ele>
        <time>2021-01-18T11:25:48.000Z</time>
      </trkpt>
      <trkpt lat="43.73561" lon="5.93207">
        <ele>488.20001220703</ele>
        <time>2021-01-18T11:25:49.000Z</time>
      </trkpt>
      <trkpt lat="43.73563" lon="5.93213">
        <ele>486.79998779297</ele>
        <time>2021-01-18T11:25:50.000Z</time>
      </trkpt>
      <trkpt lat="43.73566" lon="5.93218">
        <ele>485.39999389648</ele>
        <time>2021-01-18T11:25:51.000Z</time>
      </trkpt>
      <trkpt lat="43.73573" lon="5.93222">
        <ele>483.60000610352</ele>
        <time>2021-01-18T11:25:53.000Z</time>
      </trkpt>
      <trkpt lat="43.73577" lon="5.93224">
        <ele>482.39999389648</ele>
        <time>2021-01-18T11:25:54.000Z</time>
      </trkpt>
      <trkpt lat="43.7358" lon="5.93228">
        <ele>481.20001220703</ele>
        <time>2021-01-18T11:25:55.000Z</time>
      </trkpt>
      <trkpt lat="43.73583" lon="5.93232">
        <ele>479.60000610352</ele>
        <time>2021-01-18T11:25:56.000Z</time>
      </trkpt>
      <trkpt lat="43.73587" lon="5.93236">
        <ele>478.20001220703</ele>
        <time>2021-01-18T11:25:57.000Z</time>
      </trkpt>
      <trkpt lat="43.73592" lon="5.9324">
        <ele>477.39999389648</ele>
        <time>2021-01-18T11:25:58.000Z</time>
      </trkpt>
      <trkpt lat="43.73596" lon="5.93242">
        <ele>476</ele>
        <time>2021-01-18T11:25:59.000Z</time>
      </trkpt>
      <trkpt lat="43.73597" lon="5.93245">
        <ele>475.20001220703</ele>
        <time>2021-01-18T11:26:00.000Z</time>
      </trkpt>
      <trkpt lat="43.73597" lon="5.93249">
        <ele>473.60000610352</ele>
        <time>2021-01-18T11:26:02.000Z</time>
      </trkpt>
      <trkpt lat="43.73594" lon="5.93251">
        <ele>472</ele>
        <time>2021-01-18T11:26:04.000Z</time>
      </trkpt>
      <trkpt lat="43.73592" lon="5.93251">
        <ele>471</ele>
        <time>2021-01-18T11:26:05.000Z</time>
      </trkpt>
      <trkpt lat="43.7359" lon="5.93251">
        <ele>469.39999389648</ele>
        <time>2021-01-18T11:26:06.000Z</time>
      </trkpt>
      <trkpt lat="43.73585" lon="5.9325">
        <ele>468.39999389648</ele>
        <time>2021-01-18T11:26:10.000Z</time>
      </trkpt>
      <trkpt lat="43.73585" lon="5.9325">
        <ele>468.39999389648</ele>
        <time>2021-01-18T11:26:11.000Z</time>
      </trkpt>
      <trkpt lat="43.73584" lon="5.9325">
        <ele>467.79998779297</ele>
        <time>2021-01-18T11:26:18.000Z</time>
      </trkpt>
      <trkpt lat="43.73584" lon="5.93251">
        <ele>467.79998779297</ele>
        <time>2021-01-18T11:26:24.000Z</time>
      </trkpt>
      <trkpt lat="43.73584" lon="5.9325">
        <ele>467.79998779297</ele>
        <time>2021-01-18T11:26:36.000Z</time>
      </trkpt>
      <trkpt lat="43.73584" lon="5.93251">
        <ele>468.20001220703</ele>
        <time>2021-01-18T11:26:43.000Z</time>
      </trkpt>
      <trkpt lat="43.73584" lon="5.93251">
        <ele>468.20001220703</ele>
        <time>2021-01-18T11:27:00.000Z</time>
      </trkpt>
      <trkpt lat="43.73584" lon="5.93251">
        <ele>467.79998779297</ele>
        <time>2021-01-18T11:27:29.000Z</time>
      </trkpt>
      <trkpt lat="43.73584" lon="5.93251">
        <ele>467.79998779297</ele>
        <time>2021-01-18T11:27:47.000Z</time>
      </trkpt>
      <trkpt lat="43.73584" lon="5.93251">
        <ele>467.79998779297</ele>
        <time>2021-01-18T11:27:50.000Z</time>
      </trkpt>
      <trkpt lat="43.73584" lon="5.93251">
        <ele>467.60000610352</ele>
        <time>2021-01-18T11:28:01.000Z</time>
      </trkpt>
      <trkpt lat="43.73584" lon="5.93251">
        <ele>467.60000610352</ele>
        <time>2021-01-18T11:28:15.000Z</time>
      </trkpt>
      <trkpt lat="43.73583" lon="5.93251">
        <ele>467.60000610352</ele>
        <time>2021-01-18T11:28:20.000Z</time>
      </trkpt>
      <trkpt lat="43.73579" lon="5.93251">
        <ele>467.60000610352</ele>
        <time>2021-01-18T11:28:22.000Z</time>
      </trkpt>
      <trkpt lat="43.73568" lon="5.93254">
        <ele>467.39999389648</ele>
        <time>2021-01-18T11:28:25.000Z</time>
      </trkpt>
      <trkpt lat="43.73563" lon="5.93256">
        <ele>467.39999389648</ele>
        <time>2021-01-18T11:28:26.000Z</time>
      </trkpt>
      <trkpt lat="43.73557" lon="5.93257">
        <ele>467.39999389648</ele>
        <time>2021-01-18T11:28:27.000Z</time>
      </trkpt>
      <trkpt lat="43.73537" lon="5.93259">
        <ele>467</ele>
        <time>2021-01-18T11:28:30.000Z</time>
      </trkpt>
      <trkpt lat="43.73525" lon="5.9326">
        <ele>466.20001220703</ele>
        <time>2021-01-18T11:28:32.000Z</time>
      </trkpt>
      <trkpt lat="43.73519" lon="5.93261">
        <ele>465.79998779297</ele>
        <time>2021-01-18T11:28:33.000Z</time>
      </trkpt>
      <trkpt lat="43.73513" lon="5.93265">
        <ele>465.39999389648</ele>
        <time>2021-01-18T11:28:34.000Z</time>
      </trkpt>
      <trkpt lat="43.73509" lon="5.93271">
        <ele>464.79998779297</ele>
        <time>2021-01-18T11:28:35.000Z</time>
      </trkpt>
      <trkpt lat="43.73504" lon="5.93285">
        <ele>464</ele>
        <time>2021-01-18T11:28:37.000Z</time>
      </trkpt>
      <trkpt lat="43.73503" lon="5.93292">
        <ele>463.39999389648</ele>
        <time>2021-01-18T11:28:38.000Z</time>
      </trkpt>
      <trkpt lat="43.735" lon="5.93305">
        <ele>461.79998779297</ele>
        <time>2021-01-18T11:28:40.000Z</time>
      </trkpt>
      <trkpt lat="43.73497" lon="5.93317">
        <ele>460.60000610352</ele>
        <time>2021-01-18T11:28:42.000Z</time>
      </trkpt>
      <trkpt lat="43.73495" lon="5.93323">
        <ele>460</ele>
        <time>2021-01-18T11:28:43.000Z</time>
      </trkpt>
      <trkpt lat="43.73482" lon="5.93362">
        <ele>459.60000610352</ele>
        <time>2021-01-18T11:28:50.000Z</time>
      </trkpt>
      <trkpt lat="43.73464" lon="5.93402">
        <ele>459.39999389648</ele>
        <time>2021-01-18T11:28:56.000Z</time>
      </trkpt>
      <trkpt lat="43.73442" lon="5.93428">
        <ele>459.20001220703</ele>
        <time>2021-01-18T11:29:00.000Z</time>
      </trkpt>
      <trkpt lat="43.73433" lon="5.9344">
        <ele>458.60000610352</ele>
        <time>2021-01-18T11:29:02.000Z</time>
      </trkpt>
      <trkpt lat="43.7343" lon="5.93448">
        <ele>458.20001220703</ele>
        <time>2021-01-18T11:29:03.000Z</time>
      </trkpt>
      <trkpt lat="43.73428" lon="5.93456">
        <ele>457.60000610352</ele>
        <time>2021-01-18T11:29:04.000Z</time>
      </trkpt>
      <trkpt lat="43.73429" lon="5.93477">
        <ele>456.60000610352</ele>
        <time>2021-01-18T11:29:06.000Z</time>
      </trkpt>
      <trkpt lat="43.7343" lon="5.93489">
        <ele>455.79998779297</ele>
        <time>2021-01-18T11:29:07.000Z</time>
      </trkpt>
      <trkpt lat="43.73431" lon="5.935">
        <ele>455.20001220703</ele>
        <time>2021-01-18T11:29:08.000Z</time>
      </trkpt>
      <trkpt lat="43.73432" lon="5.93523">
        <ele>453.79998779297</ele>
        <time>2021-01-18T11:29:10.000Z</time>
      </trkpt>
      <trkpt lat="43.73434" lon="5.93545">
        <ele>452.79998779297</ele>
        <time>2021-01-18T11:29:12.000Z</time>
      </trkpt>
      <trkpt lat="43.73436" lon="5.93555">
        <ele>452</ele>
        <time>2021-01-18T11:29:13.000Z</time>
      </trkpt>
      <trkpt lat="43.73439" lon="5.93565">
        <ele>451.20001220703</ele>
        <time>2021-01-18T11:29:14.000Z</time>
      </trkpt>
      <trkpt lat="43.73448" lon="5.93584">
        <ele>449.39999389648</ele>
        <time>2021-01-18T11:29:16.000Z</time>
      </trkpt>
      <trkpt lat="43.73454" lon="5.93592">
        <ele>448.20001220703</ele>
        <time>2021-01-18T11:29:17.000Z</time>
      </trkpt>
      <trkpt lat="43.73461" lon="5.93599">
        <ele>447.20001220703</ele>
        <time>2021-01-18T11:29:18.000Z</time>
      </trkpt>
      <trkpt lat="43.73469" lon="5.93606">
        <ele>444.79998779297</ele>
        <time>2021-01-18T11:29:19.000Z</time>
      </trkpt>
      <trkpt lat="43.73485" lon="5.93618">
        <ele>442.79998779297</ele>
        <time>2021-01-18T11:29:21.000Z</time>
      </trkpt>
      <trkpt lat="43.735" lon="5.93631">
        <ele>441</ele>
        <time>2021-01-18T11:29:23.000Z</time>
      </trkpt>
      <trkpt lat="43.73506" lon="5.93638">
        <ele>440</ele>
        <time>2021-01-18T11:29:24.000Z</time>
      </trkpt>
      <trkpt lat="43.73513" lon="5.93647">
        <ele>439.20001220703</ele>
        <time>2021-01-18T11:29:25.000Z</time>
      </trkpt>
      <trkpt lat="43.73518" lon="5.93657">
        <ele>438</ele>
        <time>2021-01-18T11:29:26.000Z</time>
      </trkpt>
      <trkpt lat="43.73523" lon="5.93667">
        <ele>436.79998779297</ele>
        <time>2021-01-18T11:29:27.000Z</time>
      </trkpt>
      <trkpt lat="43.73528" lon="5.93676">
        <ele>435.60000610352</ele>
        <time>2021-01-18T11:29:28.000Z</time>
      </trkpt>
      <trkpt lat="43.73534" lon="5.93686">
        <ele>434.60000610352</ele>
        <time>2021-01-18T11:29:29.000Z</time>
      </trkpt>
      <trkpt lat="43.73539" lon="5.93695">
        <ele>433.39999389648</ele>
        <time>2021-01-18T11:29:30.000Z</time>
      </trkpt>
      <trkpt lat="43.73551" lon="5.93711">
        <ele>431.39999389648</ele>
        <time>2021-01-18T11:29:32.000Z</time>
      </trkpt>
      <trkpt lat="43.73556" lon="5.93719">
        <ele>430.39999389648</ele>
        <time>2021-01-18T11:29:33.000Z</time>
      </trkpt>
      <trkpt lat="43.73561" lon="5.93727">
        <ele>429.20001220703</ele>
        <time>2021-01-18T11:29:34.000Z</time>
      </trkpt>
      <trkpt lat="43.73565" lon="5.93736">
        <ele>428</ele>
        <time>2021-01-18T11:29:35.000Z</time>
      </trkpt>
      <trkpt lat="43.73568" lon="5.93745">
        <ele>426.79998779297</ele>
        <time>2021-01-18T11:29:36.000Z</time>
      </trkpt>
      <trkpt lat="43.73571" lon="5.93755">
        <ele>425.79998779297</ele>
        <time>2021-01-18T11:29:37.000Z</time>
      </trkpt>
      <trkpt lat="43.73572" lon="5.93764">
        <ele>424.60000610352</ele>
        <time>2021-01-18T11:29:38.000Z</time>
      </trkpt>
      <trkpt lat="43.73571" lon="5.93773">
        <ele>423.39999389648</ele>
        <time>2021-01-18T11:29:39.000Z</time>
      </trkpt>
      <trkpt lat="43.73569" lon="5.93782">
        <ele>422.39999389648</ele>
        <time>2021-01-18T11:29:40.000Z</time>
      </trkpt>
      <trkpt lat="43.7356" lon="5.93798">
        <ele>420.39999389648</ele>
        <time>2021-01-18T11:29:42.000Z</time>
      </trkpt>
      <trkpt lat="43.73554" lon="5.93804">
        <ele>419.20001220703</ele>
        <time>2021-01-18T11:29:43.000Z</time>
      </trkpt>
      <trkpt lat="43.73547" lon="5.9381">
        <ele>418.20001220703</ele>
        <time>2021-01-18T11:29:44.000Z</time>
      </trkpt>
      <trkpt lat="43.73532" lon="5.93816">
        <ele>416.39999389648</ele>
        <time>2021-01-18T11:29:46.000Z</time>
      </trkpt>
      <trkpt lat="43.73523" lon="5.93817">
        <ele>414.20001220703</ele>
        <time>2021-01-18T11:29:47.000Z</time>
      </trkpt>
      <trkpt lat="43.73514" lon="5.93816">
        <ele>413.20001220703</ele>
        <time>2021-01-18T11:29:48.000Z</time>
      </trkpt>
      <trkpt lat="43.73505" lon="5.93816">
        <ele>412</ele>
        <time>2021-01-18T11:29:49.000Z</time>
      </trkpt>
      <trkpt lat="43.73497" lon="5.93817">
        <ele>411</ele>
        <time>2021-01-18T11:29:50.000Z</time>
      </trkpt>
      <trkpt lat="43.7348" lon="5.93819">
        <ele>409.20001220703</ele>
        <time>2021-01-18T11:29:52.000Z</time>
      </trkpt>
      <trkpt lat="43.73472" lon="5.9382">
        <ele>408.20001220703</ele>
        <time>2021-01-18T11:29:53.000Z</time>
      </trkpt>
      <trkpt lat="43.73463" lon="5.9382">
        <ele>407.20001220703</ele>
        <time>2021-01-18T11:29:54.000Z</time>
      </trkpt>
      <trkpt lat="43.73454" lon="5.93818">
        <ele>406.20001220703</ele>
        <time>2021-01-18T11:29:55.000Z</time>
      </trkpt>
      <trkpt lat="43.73444" lon="5.93814">
        <ele>405.39999389648</ele>
        <time>2021-01-18T11:29:56.000Z</time>
      </trkpt>
      <trkpt lat="43.73434" lon="5.9381">
        <ele>404</ele>
        <time>2021-01-18T11:29:57.000Z</time>
      </trkpt>
      <trkpt lat="43.73424" lon="5.93807">
        <ele>402.79998779297</ele>
        <time>2021-01-18T11:29:58.000Z</time>
      </trkpt>
      <trkpt lat="43.73414" lon="5.93805">
        <ele>401.39999389648</ele>
        <time>2021-01-18T11:29:59.000Z</time>
      </trkpt>
      <trkpt lat="43.73403" lon="5.93803">
        <ele>400.20001220703</ele>
        <time>2021-01-18T11:30:00.000Z</time>
      </trkpt>
      <trkpt lat="43.73383" lon="5.938">
        <ele>398.39999389648</ele>
        <time>2021-01-18T11:30:02.000Z</time>
      </trkpt>
      <trkpt lat="43.73361" lon="5.93796">
        <ele>397</ele>
        <time>2021-01-18T11:30:04.000Z</time>
      </trkpt>
      <trkpt lat="43.73351" lon="5.93794">
        <ele>396.20001220703</ele>
        <time>2021-01-18T11:30:05.000Z</time>
      </trkpt>
      <trkpt lat="43.73341" lon="5.93793">
        <ele>395.20001220703</ele>
        <time>2021-01-18T11:30:06.000Z</time>
      </trkpt>
      <trkpt lat="43.73332" lon="5.93791">
        <ele>394</ele>
        <time>2021-01-18T11:30:07.000Z</time>
      </trkpt>
      <trkpt lat="43.73322" lon="5.93787">
        <ele>392.79998779297</ele>
        <time>2021-01-18T11:30:08.000Z</time>
      </trkpt>
      <trkpt lat="43.73311" lon="5.93782">
        <ele>391.79998779297</ele>
        <time>2021-01-18T11:30:09.000Z</time>
      </trkpt>
      <trkpt lat="43.73301" lon="5.93776">
        <ele>390.60000610352</ele>
        <time>2021-01-18T11:30:10.000Z</time>
      </trkpt>
      <trkpt lat="43.73292" lon="5.93769">
        <ele>389.20001220703</ele>
        <time>2021-01-18T11:30:11.000Z</time>
      </trkpt>
      <trkpt lat="43.73284" lon="5.93761">
        <ele>388</ele>
        <time>2021-01-18T11:30:12.000Z</time>
      </trkpt>
      <trkpt lat="43.73277" lon="5.93752">
        <ele>386.60000610352</ele>
        <time>2021-01-18T11:30:13.000Z</time>
      </trkpt>
      <trkpt lat="43.73271" lon="5.93742">
        <ele>383.60000610352</ele>
        <time>2021-01-18T11:30:14.000Z</time>
      </trkpt>
      <trkpt lat="43.73267" lon="5.93733">
        <ele>382.39999389648</ele>
        <time>2021-01-18T11:30:15.000Z</time>
      </trkpt>
      <trkpt lat="43.73263" lon="5.93723">
        <ele>380.79998779297</ele>
        <time>2021-01-18T11:30:16.000Z</time>
      </trkpt>
      <trkpt lat="43.73261" lon="5.93716">
        <ele>379.39999389648</ele>
        <time>2021-01-18T11:30:17.000Z</time>
      </trkpt>
      <trkpt lat="43.73259" lon="5.93709">
        <ele>378</ele>
        <time>2021-01-18T11:30:18.000Z</time>
      </trkpt>
      <trkpt lat="43.73256" lon="5.93705">
        <ele>376.39999389648</ele>
        <time>2021-01-18T11:30:19.000Z</time>
      </trkpt>
      <trkpt lat="43.73253" lon="5.93703">
        <ele>375.20001220703</ele>
        <time>2021-01-18T11:30:20.000Z</time>
      </trkpt>
      <trkpt lat="43.7325" lon="5.93703">
        <ele>374.60000610352</ele>
        <time>2021-01-18T11:30:21.000Z</time>
      </trkpt>
      <trkpt lat="43.73246" lon="5.93712">
        <ele>374</ele>
        <time>2021-01-18T11:30:23.000Z</time>
      </trkpt>
      <trkpt lat="43.73245" lon="5.93719">
        <ele>373.79998779297</ele>
        <time>2021-01-18T11:30:24.000Z</time>
      </trkpt>
      <trkpt lat="43.73244" lon="5.93727">
        <ele>373.79998779297</ele>
        <time>2021-01-18T11:30:25.000Z</time>
      </trkpt>
      <trkpt lat="43.73243" lon="5.93734">
        <ele>373.60000610352</ele>
        <time>2021-01-18T11:30:26.000Z</time>
      </trkpt>
      <trkpt lat="43.73238" lon="5.93748">
        <ele>373.39999389648</ele>
        <time>2021-01-18T11:30:28.000Z</time>
      </trkpt>
      <trkpt lat="43.73233" lon="5.93765">
        <ele>372.79998779297</ele>
        <time>2021-01-18T11:30:31.000Z</time>
      </trkpt>
      <trkpt lat="43.73231" lon="5.93774">
        <ele>372</ele>
        <time>2021-01-18T11:30:33.000Z</time>
      </trkpt>
      <trkpt lat="43.7323" lon="5.93779">
        <ele>371.60000610352</ele>
        <time>2021-01-18T11:30:34.000Z</time>
      </trkpt>
      <trkpt lat="43.7323" lon="5.93792">
        <ele>371.39999389648</ele>
        <time>2021-01-18T11:30:38.000Z</time>
      </trkpt>
      <trkpt lat="43.73231" lon="5.93802">
        <ele>371.39999389648</ele>
        <time>2021-01-18T11:30:42.000Z</time>
      </trkpt>
      <trkpt lat="43.73233" lon="5.93811">
        <ele>371.39999389648</ele>
        <time>2021-01-18T11:30:44.000Z</time>
      </trkpt>
      <trkpt lat="43.73238" lon="5.93827">
        <ele>371.60000610352</ele>
        <time>2021-01-18T11:30:47.000Z</time>
      </trkpt>
      <trkpt lat="43.73245" lon="5.93839">
        <ele>372</ele>
        <time>2021-01-18T11:30:49.000Z</time>
      </trkpt>
      <trkpt lat="43.73251" lon="5.93851">
        <ele>372.79998779297</ele>
        <time>2021-01-18T11:30:51.000Z</time>
      </trkpt>
      <trkpt lat="43.73256" lon="5.93862">
        <ele>373</ele>
        <time>2021-01-18T11:30:53.000Z</time>
      </trkpt>
      <trkpt lat="43.73261" lon="5.93874">
        <ele>373</ele>
        <time>2021-01-18T11:30:55.000Z</time>
      </trkpt>
      <trkpt lat="43.73271" lon="5.93892">
        <ele>373.20001220703</ele>
        <time>2021-01-18T11:30:58.000Z</time>
      </trkpt>
      <trkpt lat="43.73279" lon="5.9391">
        <ele>373.20001220703</ele>
        <time>2021-01-18T11:31:01.000Z</time>
      </trkpt>
      <trkpt lat="43.73296" lon="5.93946">
        <ele>373.39999389648</ele>
        <time>2021-01-18T11:31:07.000Z</time>
      </trkpt>
      <trkpt lat="43.73314" lon="5.93982">
        <ele>373.39999389648</ele>
        <time>2021-01-18T11:31:13.000Z</time>
      </trkpt>
      <trkpt lat="43.73322" lon="5.94005">
        <ele>373.39999389648</ele>
        <time>2021-01-18T11:31:18.000Z</time>
      </trkpt>
      <trkpt lat="43.73325" lon="5.94018">
        <ele>373.39999389648</ele>
        <time>2021-01-18T11:31:22.000Z</time>
      </trkpt>
      <trkpt lat="43.73328" lon="5.94032">
        <ele>373.20001220703</ele>
        <time>2021-01-18T11:31:27.000Z</time>
      </trkpt>
      <trkpt lat="43.73331" lon="5.94057">
        <ele>373.20001220703</ele>
        <time>2021-01-18T11:31:32.000Z</time>
      </trkpt>
      <trkpt lat="43.73331" lon="5.9407">
        <ele>373.20001220703</ele>
        <time>2021-01-18T11:31:34.000Z</time>
      </trkpt>
      <trkpt lat="43.73329" lon="5.94083">
        <ele>373.20001220703</ele>
        <time>2021-01-18T11:31:36.000Z</time>
      </trkpt>
      <trkpt lat="43.73328" lon="5.94089">
        <ele>373.20001220703</ele>
        <time>2021-01-18T11:31:37.000Z</time>
      </trkpt>
      <trkpt lat="43.73327" lon="5.94096">
        <ele>373.20001220703</ele>
        <time>2021-01-18T11:31:38.000Z</time>
      </trkpt>
      <trkpt lat="43.7332" lon="5.94125">
        <ele>373</ele>
        <time>2021-01-18T11:31:42.000Z</time>
      </trkpt>
      <trkpt lat="43.73312" lon="5.94155">
        <ele>373</ele>
        <time>2021-01-18T11:31:47.000Z</time>
      </trkpt>
      <trkpt lat="43.73301" lon="5.9419">
        <ele>372.79998779297</ele>
        <time>2021-01-18T11:31:54.000Z</time>
      </trkpt>
      <trkpt lat="43.7329" lon="5.94213">
        <ele>372.79998779297</ele>
        <time>2021-01-18T11:31:59.000Z</time>
      </trkpt>
      <trkpt lat="43.73276" lon="5.94233">
        <ele>372.79998779297</ele>
        <time>2021-01-18T11:32:04.000Z</time>
      </trkpt>
      <trkpt lat="43.73261" lon="5.94252">
        <ele>373</ele>
        <time>2021-01-18T11:32:09.000Z</time>
      </trkpt>
      <trkpt lat="43.73258" lon="5.94256">
        <ele>373</ele>
        <time>2021-01-18T11:32:10.000Z</time>
      </trkpt>
      <trkpt lat="43.73252" lon="5.94267">
        <ele>373</ele>
        <time>2021-01-18T11:32:12.000Z</time>
      </trkpt>
      <trkpt lat="43.73248" lon="5.9428">
        <ele>373</ele>
        <time>2021-01-18T11:32:14.000Z</time>
      </trkpt>
      <trkpt lat="43.73247" lon="5.94293">
        <ele>373</ele>
        <time>2021-01-18T11:32:16.000Z</time>
      </trkpt>
      <trkpt lat="43.73245" lon="5.94309">
        <ele>372.79998779297</ele>
        <time>2021-01-18T11:32:19.000Z</time>
      </trkpt>
      <trkpt lat="43.73238" lon="5.94327">
        <ele>372.79998779297</ele>
        <time>2021-01-18T11:32:23.000Z</time>
      </trkpt>
      <trkpt lat="43.73228" lon="5.94343">
        <ele>372.79998779297</ele>
        <time>2021-01-18T11:32:28.000Z</time>
      </trkpt>
      <trkpt lat="43.73217" lon="5.94363">
        <ele>372.79998779297</ele>
        <time>2021-01-18T11:32:33.000Z</time>
      </trkpt>
      <trkpt lat="43.73216" lon="5.94368">
        <ele>373</ele>
        <time>2021-01-18T11:32:34.000Z</time>
      </trkpt>
      <trkpt lat="43.73218" lon="5.9438">
        <ele>373</ele>
        <time>2021-01-18T11:32:36.000Z</time>
      </trkpt>
      <trkpt lat="43.73222" lon="5.9439">
        <ele>373</ele>
        <time>2021-01-18T11:32:38.000Z</time>
      </trkpt>
      <trkpt lat="43.73228" lon="5.94403">
        <ele>373</ele>
        <time>2021-01-18T11:32:41.000Z</time>
      </trkpt>
      <trkpt lat="43.73235" lon="5.94417">
        <ele>373</ele>
        <time>2021-01-18T11:32:44.000Z</time>
      </trkpt>
      <trkpt lat="43.73238" lon="5.94432">
        <ele>373</ele>
        <time>2021-01-18T11:32:46.000Z</time>
      </trkpt>
      <trkpt lat="43.7324" lon="5.94448">
        <ele>372.79998779297</ele>
        <time>2021-01-18T11:32:48.000Z</time>
      </trkpt>
      <trkpt lat="43.73242" lon="5.94474">
        <ele>372.79998779297</ele>
        <time>2021-01-18T11:32:51.000Z</time>
      </trkpt>
      <trkpt lat="43.73242" lon="5.94507">
        <ele>371.39999389648</ele>
        <time>2021-01-18T11:32:56.000Z</time>
      </trkpt>
      <trkpt lat="43.73243" lon="5.94513">
        <ele>371.20001220703</ele>
        <time>2021-01-18T11:32:57.000Z</time>
      </trkpt>
      <trkpt lat="43.73243" lon="5.94527">
        <ele>371</ele>
        <time>2021-01-18T11:33:00.000Z</time>
      </trkpt>
      <trkpt lat="43.73237" lon="5.94551">
        <ele>371</ele>
        <time>2021-01-18T11:33:05.000Z</time>
      </trkpt>
      <trkpt lat="43.73229" lon="5.94566">
        <ele>372.39999389648</ele>
        <time>2021-01-18T11:33:08.000Z</time>
      </trkpt>
      <trkpt lat="43.73224" lon="5.94573">
        <ele>373</ele>
        <time>2021-01-18T11:33:10.000Z</time>
      </trkpt>
      <trkpt lat="43.73221" lon="5.94576">
        <ele>373</ele>
        <time>2021-01-18T11:33:11.000Z</time>
      </trkpt>
      <trkpt lat="43.73211" lon="5.94589">
        <ele>373.20001220703</ele>
        <time>2021-01-18T11:33:15.000Z</time>
      </trkpt>
      <trkpt lat="43.73196" lon="5.946">
        <ele>373.20001220703</ele>
        <time>2021-01-18T11:33:20.000Z</time>
      </trkpt>
      <trkpt lat="43.73182" lon="5.94603">
        <ele>373.20001220703</ele>
        <time>2021-01-18T11:33:25.000Z</time>
      </trkpt>
      <trkpt lat="43.73161" lon="5.94604">
        <ele>373.20001220703</ele>
        <time>2021-01-18T11:33:30.000Z</time>
      </trkpt>
      <trkpt lat="43.73135" lon="5.94603">
        <ele>373.20001220703</ele>
        <time>2021-01-18T11:33:37.000Z</time>
      </trkpt>
      <trkpt lat="43.73107" lon="5.94602">
        <ele>373.20001220703</ele>
        <time>2021-01-18T11:33:44.000Z</time>
      </trkpt>
      <trkpt lat="43.73091" lon="5.94602">
        <ele>373.39999389648</ele>
        <time>2021-01-18T11:33:49.000Z</time>
      </trkpt>
      <trkpt lat="43.73066" lon="5.94604">
        <ele>373.39999389648</ele>
        <time>2021-01-18T11:33:55.000Z</time>
      </trkpt>
      <trkpt lat="43.73062" lon="5.94604">
        <ele>373.60000610352</ele>
        <time>2021-01-18T11:33:56.000Z</time>
      </trkpt>
      <trkpt lat="43.73042" lon="5.94609">
        <ele>373.60000610352</ele>
        <time>2021-01-18T11:34:01.000Z</time>
      </trkpt>
      <trkpt lat="43.73012" lon="5.94608">
        <ele>373.20001220703</ele>
        <time>2021-01-18T11:34:08.000Z</time>
      </trkpt>
      <trkpt lat="43.73008" lon="5.94607">
        <ele>373.20001220703</ele>
        <time>2021-01-18T11:34:09.000Z</time>
      </trkpt>
      <trkpt lat="43.72992" lon="5.94603">
        <ele>373.20001220703</ele>
        <time>2021-01-18T11:34:13.000Z</time>
      </trkpt>
      <trkpt lat="43.72985" lon="5.94605">
        <ele>373.20001220703</ele>
        <time>2021-01-18T11:34:17.000Z</time>
      </trkpt>
      <trkpt lat="43.72983" lon="5.94609">
        <ele>373.39999389648</ele>
        <time>2021-01-18T11:34:19.000Z</time>
      </trkpt>
      <trkpt lat="43.72981" lon="5.94615">
        <ele>373.39999389648</ele>
        <time>2021-01-18T11:34:21.000Z</time>
      </trkpt>
      <trkpt lat="43.7298" lon="5.9462">
        <ele>373.39999389648</ele>
        <time>2021-01-18T11:34:25.000Z</time>
      </trkpt>
      <trkpt lat="43.72979" lon="5.9463">
        <ele>373.39999389648</ele>
        <time>2021-01-18T11:34:31.000Z</time>
      </trkpt>
      <trkpt lat="43.72978" lon="5.94636">
        <ele>373.20001220703</ele>
        <time>2021-01-18T11:34:37.000Z</time>
      </trkpt>
      <trkpt lat="43.72978" lon="5.94636">
        <ele>373</ele>
        <time>2021-01-18T11:34:45.000Z</time>
      </trkpt>
      <trkpt lat="43.72979" lon="5.94637">
        <ele>373.20001220703</ele>
        <time>2021-01-18T11:35:01.000Z</time>
      </trkpt>
      <trkpt lat="43.72979" lon="5.94636">
        <ele>373.60000610352</ele>
        <time>2021-01-18T11:35:16.000Z</time>
      </trkpt>
      <trkpt lat="43.72979" lon="5.94636">
        <ele>373.60000610352</ele>
        <time>2021-01-18T11:35:31.000Z</time>
      </trkpt>
      <trkpt lat="43.72979" lon="5.94636">
        <ele>373.60000610352</ele>
        <time>2021-01-18T11:35:33.000Z</time>
      </trkpt>
      <trkpt lat="43.72979" lon="5.94637">
        <ele>373.39999389648</ele>
        <time>2021-01-18T11:35:50.000Z</time>
      </trkpt>
      <trkpt lat="43.72979" lon="5.94637">
        <ele>373.39999389648</ele>
        <time>2021-01-18T11:36:02.000Z</time>
      </trkpt>
      <trkpt lat="43.7298" lon="5.94639">
        <ele>373.39999389648</ele>
        <time>2021-01-18T11:36:26.000Z</time>
      </trkpt>
      <trkpt lat="43.7298" lon="5.9464">
        <ele>373.39999389648</ele>
        <time>2021-01-18T11:36:31.000Z</time>
      </trkpt>
      <trkpt lat="43.72979" lon="5.94641">
        <ele>373.39999389648</ele>
        <time>2021-01-18T11:36:32.000Z</time>
      </trkpt>
      <trkpt lat="43.72979" lon="5.94641">
        <ele>373.20001220703</ele>
        <time>2021-01-18T11:36:41.000Z</time>
      </trkpt>
      <trkpt lat="43.72979" lon="5.9464">
        <ele>373.20001220703</ele>
        <time>2021-01-18T11:36:54.000Z</time>
      </trkpt>
      <trkpt lat="43.72979" lon="5.9464">
        <ele>373</ele>
        <time>2021-01-18T11:37:30.000Z</time>
      </trkpt>
      <trkpt lat="43.72979" lon="5.9464">
        <ele>373</ele>
        <time>2021-01-18T11:37:40.000Z</time>
      </trkpt>
      <trkpt lat="43.72979" lon="5.9464">
        <ele>373.20001220703</ele>
        <time>2021-01-18T11:38:05.000Z</time>
      </trkpt>
      <trkpt lat="43.72979" lon="5.9464">
        <ele>373.60000610352</ele>
        <time>2021-01-18T11:38:40.000Z</time>
      </trkpt>
      <trkpt lat="43.72979" lon="5.9464">
        <ele>373.39999389648</ele>
        <time>2021-01-18T11:38:53.000Z</time>
      </trkpt>
      <trkpt lat="43.72979" lon="5.9464">
        <ele>373.39999389648</ele>
        <time>2021-01-18T11:40:19.000Z</time>
      </trkpt>
      <trkpt lat="43.72979" lon="5.9464">
        <ele>373.39999389648</ele>
        <time>2021-01-18T11:40:21.000Z</time>
      </trkpt>
      <trkpt lat="43.72979" lon="5.9464">
        <ele>373.39999389648</ele>
        <time>2021-01-18T11:40:24.000Z</time>
      </trkpt>
      <trkpt lat="43.72978" lon="5.9464">
        <ele>373.60000610352</ele>
        <time>2021-01-18T11:41:43.000Z</time>
      </trkpt>
      <trkpt lat="43.72978" lon="5.9464">
        <ele>374</ele>
        <time>2021-01-18T11:41:52.000Z</time>
      </trkpt>
      <trkpt lat="43.72979" lon="5.9464">
        <ele>374</ele>
        <time>2021-01-18T11:42:11.000Z</time>
      </trkpt>
      <trkpt lat="43.72979" lon="5.9464">
        <ele>374</ele>
        <time>2021-01-18T11:42:29.000Z</time>
      </trkpt>
      <trkpt lat="43.72975" lon="5.94643">
        <ele>374.39999389648</ele>
        <time>2021-01-18T11:42:36.000Z</time>
      </trkpt>
      <trkpt lat="43.72963" lon="5.9465">
        <ele>374.79998779297</ele>
        <time>2021-01-18T11:42:44.000Z</time>
      </trkpt>
      <trkpt lat="43.72951" lon="5.94651">
        <ele>376</ele>
        <time>2021-01-18T11:42:51.000Z</time>
      </trkpt>
      <trkpt lat="43.72949" lon="5.94652">
        <ele>376.39999389648</ele>
        <time>2021-01-18T11:42:52.000Z</time>
      </trkpt>
      <trkpt lat="43.72947" lon="5.94652">
        <ele>377.20001220703</ele>
        <time>2021-01-18T11:42:54.000Z</time>
      </trkpt>
      <trkpt lat="43.72943" lon="5.94654">
        <ele>378.39999389648</ele>
        <time>2021-01-18T11:42:57.000Z</time>
      </trkpt>
      <trkpt lat="43.72943" lon="5.94654">
        <ele>378.60000610352</ele>
        <time>2021-01-18T11:42:58.000Z</time>
      </trkpt>
      <trkpt lat="43.72941" lon="5.94654">
        <ele>379.79998779297</ele>
        <time>2021-01-18T11:43:01.000Z</time>
      </trkpt>
      <trkpt lat="43.72937" lon="5.94654">
        <ele>380.79998779297</ele>
        <time>2021-01-18T11:43:04.000Z</time>
      </trkpt>
      <trkpt lat="43.72936" lon="5.94654">
        <ele>381</ele>
        <time>2021-01-18T11:43:05.000Z</time>
      </trkpt>
      <trkpt lat="43.72928" lon="5.94655">
        <ele>382.20001220703</ele>
        <time>2021-01-18T11:43:10.000Z</time>
      </trkpt>
      <trkpt lat="43.72925" lon="5.94655">
        <ele>382.20001220703</ele>
        <time>2021-01-18T11:43:12.000Z</time>
      </trkpt>
      <trkpt lat="43.72922" lon="5.94655">
        <ele>383</ele>
        <time>2021-01-18T11:43:14.000Z</time>
      </trkpt>
      <trkpt lat="43.72915" lon="5.94656">
        <ele>384.20001220703</ele>
        <time>2021-01-18T11:43:18.000Z</time>
      </trkpt>
      <trkpt lat="43.72914" lon="5.94657">
        <ele>384.60000610352</ele>
        <time>2021-01-18T11:43:19.000Z</time>
      </trkpt>
      <trkpt lat="43.72908" lon="5.94657">
        <ele>385.60000610352</ele>
        <time>2021-01-18T11:43:22.000Z</time>
      </trkpt>
      <trkpt lat="43.72902" lon="5.94657">
        <ele>387</ele>
        <time>2021-01-18T11:43:25.000Z</time>
      </trkpt>
      <trkpt lat="43.72897" lon="5.94656">
        <ele>388.20001220703</ele>
        <time>2021-01-18T11:43:28.000Z</time>
      </trkpt>
      <trkpt lat="43.7289" lon="5.94655">
        <ele>389.39999389648</ele>
        <time>2021-01-18T11:43:32.000Z</time>
      </trkpt>
      <trkpt lat="43.72887" lon="5.94655">
        <ele>390.20001220703</ele>
        <time>2021-01-18T11:43:34.000Z</time>
      </trkpt>
      <trkpt lat="43.72883" lon="5.94655">
        <ele>390.60000610352</ele>
        <time>2021-01-18T11:43:36.000Z</time>
      </trkpt>
      <trkpt lat="43.72874" lon="5.94655">
        <ele>392.20001220703</ele>
        <time>2021-01-18T11:43:41.000Z</time>
      </trkpt>
      <trkpt lat="43.72872" lon="5.94655">
        <ele>392.60000610352</ele>
        <time>2021-01-18T11:43:42.000Z</time>
      </trkpt>
      <trkpt lat="43.72867" lon="5.94655">
        <ele>393.20001220703</ele>
        <time>2021-01-18T11:43:45.000Z</time>
      </trkpt>
      <trkpt lat="43.72859" lon="5.94656">
        <ele>394.20001220703</ele>
        <time>2021-01-18T11:43:49.000Z</time>
      </trkpt>
      <trkpt lat="43.72858" lon="5.94656">
        <ele>394.60000610352</ele>
        <time>2021-01-18T11:43:50.000Z</time>
      </trkpt>
      <trkpt lat="43.72852" lon="5.94657">
        <ele>395.20001220703</ele>
        <time>2021-01-18T11:43:53.000Z</time>
      </trkpt>
      <trkpt lat="43.72845" lon="5.9466">
        <ele>396.20001220703</ele>
        <time>2021-01-18T11:43:57.000Z</time>
      </trkpt>
      <trkpt lat="43.72844" lon="5.9466">
        <ele>396.60000610352</ele>
        <time>2021-01-18T11:43:58.000Z</time>
      </trkpt>
      <trkpt lat="43.72836" lon="5.94659">
        <ele>397.60000610352</ele>
        <time>2021-01-18T11:44:02.000Z</time>
      </trkpt>
      <trkpt lat="43.72834" lon="5.94659">
        <ele>398</ele>
        <time>2021-01-18T11:44:03.000Z</time>
      </trkpt>
      <trkpt lat="43.72829" lon="5.94658">
        <ele>398.60000610352</ele>
        <time>2021-01-18T11:44:05.000Z</time>
      </trkpt>
      <trkpt lat="43.72826" lon="5.94656">
        <ele>399.39999389648</ele>
        <time>2021-01-18T11:44:07.000Z</time>
      </trkpt>
      <trkpt lat="43.72824" lon="5.94655">
        <ele>399.79998779297</ele>
        <time>2021-01-18T11:44:08.000Z</time>
      </trkpt>
      <trkpt lat="43.72816" lon="5.94652">
        <ele>401</ele>
        <time>2021-01-18T11:44:12.000Z</time>
      </trkpt>
      <trkpt lat="43.72813" lon="5.94649">
        <ele>402</ele>
        <time>2021-01-18T11:44:14.000Z</time>
      </trkpt>
      <trkpt lat="43.72812" lon="5.94647">
        <ele>402.20001220703</ele>
        <time>2021-01-18T11:44:15.000Z</time>
      </trkpt>
      <trkpt lat="43.72805" lon="5.94644">
        <ele>403.79998779297</ele>
        <time>2021-01-18T11:44:19.000Z</time>
      </trkpt>
      <trkpt lat="43.72804" lon="5.94643">
        <ele>403.79998779297</ele>
        <time>2021-01-18T11:44:20.000Z</time>
      </trkpt>
      <trkpt lat="43.72799" lon="5.94642">
        <ele>404.79998779297</ele>
        <time>2021-01-18T11:44:23.000Z</time>
      </trkpt>
      <trkpt lat="43.72793" lon="5.94637">
        <ele>406</ele>
        <time>2021-01-18T11:44:27.000Z</time>
      </trkpt>
      <trkpt lat="43.72789" lon="5.94634">
        <ele>407.20001220703</ele>
        <time>2021-01-18T11:44:31.000Z</time>
      </trkpt>
      <trkpt lat="43.72786" lon="5.94633">
        <ele>408</ele>
        <time>2021-01-18T11:44:33.000Z</time>
      </trkpt>
      <trkpt lat="43.72785" lon="5.94631">
        <ele>408.20001220703</ele>
        <time>2021-01-18T11:44:34.000Z</time>
      </trkpt>
      <trkpt lat="43.72783" lon="5.94629">
        <ele>409.20001220703</ele>
        <time>2021-01-18T11:44:36.000Z</time>
      </trkpt>
      <trkpt lat="43.72779" lon="5.94626">
        <ele>410</ele>
        <time>2021-01-18T11:44:39.000Z</time>
      </trkpt>
      <trkpt lat="43.72778" lon="5.94625">
        <ele>410.39999389648</ele>
        <time>2021-01-18T11:44:40.000Z</time>
      </trkpt>
      <trkpt lat="43.72776" lon="5.94624">
        <ele>410.60000610352</ele>
        <time>2021-01-18T11:44:41.000Z</time>
      </trkpt>
      <trkpt lat="43.72773" lon="5.9462">
        <ele>411.20001220703</ele>
        <time>2021-01-18T11:44:44.000Z</time>
      </trkpt>
      <trkpt lat="43.72771" lon="5.9462">
        <ele>411.39999389648</ele>
        <time>2021-01-18T11:44:45.000Z</time>
      </trkpt>
      <trkpt lat="43.72766" lon="5.94619">
        <ele>412.39999389648</ele>
        <time>2021-01-18T11:44:48.000Z</time>
      </trkpt>
      <trkpt lat="43.72762" lon="5.94619">
        <ele>413.60000610352</ele>
        <time>2021-01-18T11:44:51.000Z</time>
      </trkpt>
      <trkpt lat="43.72761" lon="5.94623">
        <ele>414.79998779297</ele>
        <time>2021-01-18T11:44:55.000Z</time>
      </trkpt>
      <trkpt lat="43.72764" lon="5.94627">
        <ele>415.79998779297</ele>
        <time>2021-01-18T11:44:58.000Z</time>
      </trkpt>
      <trkpt lat="43.72767" lon="5.94632">
        <ele>417</ele>
        <time>2021-01-18T11:45:01.000Z</time>
      </trkpt>
      <trkpt lat="43.72768" lon="5.94635">
        <ele>417.60000610352</ele>
        <time>2021-01-18T11:45:03.000Z</time>
      </trkpt>
      <trkpt lat="43.72767" lon="5.94638">
        <ele>418</ele>
        <time>2021-01-18T11:45:05.000Z</time>
      </trkpt>
      <trkpt lat="43.72766" lon="5.94638">
        <ele>418.20001220703</ele>
        <time>2021-01-18T11:45:06.000Z</time>
      </trkpt>
      <trkpt lat="43.72764" lon="5.94638">
        <ele>418.60000610352</ele>
        <time>2021-01-18T11:45:07.000Z</time>
      </trkpt>
      <trkpt lat="43.72761" lon="5.94636">
        <ele>419</ele>
        <time>2021-01-18T11:45:09.000Z</time>
      </trkpt>
      <trkpt lat="43.7276" lon="5.94635">
        <ele>419.39999389648</ele>
        <time>2021-01-18T11:45:10.000Z</time>
      </trkpt>
      <trkpt lat="43.72756" lon="5.94632">
        <ele>419.79998779297</ele>
        <time>2021-01-18T11:45:12.000Z</time>
      </trkpt>
      <trkpt lat="43.72755" lon="5.94631">
        <ele>420.20001220703</ele>
        <time>2021-01-18T11:45:13.000Z</time>
      </trkpt>
      <trkpt lat="43.72748" lon="5.94629">
        <ele>421.39999389648</ele>
        <time>2021-01-18T11:45:17.000Z</time>
      </trkpt>
      <trkpt lat="43.72746" lon="5.94627">
        <ele>422</ele>
        <time>2021-01-18T11:45:19.000Z</time>
      </trkpt>
      <trkpt lat="43.72744" lon="5.94625">
        <ele>422.79998779297</ele>
        <time>2021-01-18T11:45:21.000Z</time>
      </trkpt>
      <trkpt lat="43.72739" lon="5.94624">
        <ele>423.79998779297</ele>
        <time>2021-01-18T11:45:25.000Z</time>
      </trkpt>
      <trkpt lat="43.72737" lon="5.94624">
        <ele>424</ele>
        <time>2021-01-18T11:45:26.000Z</time>
      </trkpt>
      <trkpt lat="43.72734" lon="5.94623">
        <ele>424.79998779297</ele>
        <time>2021-01-18T11:45:28.000Z</time>
      </trkpt>
      <trkpt lat="43.72729" lon="5.94621">
        <ele>426</ele>
        <time>2021-01-18T11:45:31.000Z</time>
      </trkpt>
      <trkpt lat="43.72726" lon="5.94621">
        <ele>427.20001220703</ele>
        <time>2021-01-18T11:45:33.000Z</time>
      </trkpt>
      <trkpt lat="43.72724" lon="5.9462">
        <ele>427.60000610352</ele>
        <time>2021-01-18T11:45:35.000Z</time>
      </trkpt>
      <trkpt lat="43.72721" lon="5.9462">
        <ele>428.39999389648</ele>
        <time>2021-01-18T11:45:37.000Z</time>
      </trkpt>
      <trkpt lat="43.72716" lon="5.94619">
        <ele>429.60000610352</ele>
        <time>2021-01-18T11:45:40.000Z</time>
      </trkpt>
      <trkpt lat="43.72714" lon="5.94618">
        <ele>430.39999389648</ele>
        <time>2021-01-18T11:45:42.000Z</time>
      </trkpt>
      <trkpt lat="43.72713" lon="5.94618">
        <ele>430.79998779297</ele>
        <time>2021-01-18T11:45:43.000Z</time>
      </trkpt>
      <trkpt lat="43.72709" lon="5.94617">
        <ele>432</ele>
        <time>2021-01-18T11:45:46.000Z</time>
      </trkpt>
      <trkpt lat="43.72706" lon="5.94615">
        <ele>432.60000610352</ele>
        <time>2021-01-18T11:45:48.000Z</time>
      </trkpt>
      <trkpt lat="43.72705" lon="5.94615">
        <ele>433</ele>
        <time>2021-01-18T11:45:49.000Z</time>
      </trkpt>
      <trkpt lat="43.72701" lon="5.94614">
        <ele>434.20001220703</ele>
        <time>2021-01-18T11:45:52.000Z</time>
      </trkpt>
      <trkpt lat="43.72698" lon="5.94612">
        <ele>435.20001220703</ele>
        <time>2021-01-18T11:45:55.000Z</time>
      </trkpt>
      <trkpt lat="43.72696" lon="5.94612">
        <ele>435.60000610352</ele>
        <time>2021-01-18T11:45:56.000Z</time>
      </trkpt>
      <trkpt lat="43.72692" lon="5.9461">
        <ele>436.79998779297</ele>
        <time>2021-01-18T11:45:59.000Z</time>
      </trkpt>
      <trkpt lat="43.72691" lon="5.94608">
        <ele>438</ele>
        <time>2021-01-18T11:46:01.000Z</time>
      </trkpt>
      <trkpt lat="43.72691" lon="5.94607">
        <ele>438.39999389648</ele>
        <time>2021-01-18T11:46:02.000Z</time>
      </trkpt>
      <trkpt lat="43.7269" lon="5.94605">
        <ele>439</ele>
        <time>2021-01-18T11:46:03.000Z</time>
      </trkpt>
      <trkpt lat="43.72687" lon="5.94601">
        <ele>440.20001220703</ele>
        <time>2021-01-18T11:46:05.000Z</time>
      </trkpt>
      <trkpt lat="43.72686" lon="5.94597">
        <ele>441</ele>
        <time>2021-01-18T11:46:07.000Z</time>
      </trkpt>
      <trkpt lat="43.72685" lon="5.94595">
        <ele>441.60000610352</ele>
        <time>2021-01-18T11:46:08.000Z</time>
      </trkpt>
      <trkpt lat="43.72684" lon="5.9459">
        <ele>442.60000610352</ele>
        <time>2021-01-18T11:46:10.000Z</time>
      </trkpt>
      <trkpt lat="43.72682" lon="5.94585">
        <ele>443.79998779297</ele>
        <time>2021-01-18T11:46:12.000Z</time>
      </trkpt>
      <trkpt lat="43.7268" lon="5.94581">
        <ele>444.39999389648</ele>
        <time>2021-01-18T11:46:14.000Z</time>
      </trkpt>
      <trkpt lat="43.72679" lon="5.94578">
        <ele>444.79998779297</ele>
        <time>2021-01-18T11:46:15.000Z</time>
      </trkpt>
      <trkpt lat="43.72674" lon="5.94569">
        <ele>446</ele>
        <time>2021-01-18T11:46:19.000Z</time>
      </trkpt>
      <trkpt lat="43.72673" lon="5.94566">
        <ele>446.39999389648</ele>
        <time>2021-01-18T11:46:20.000Z</time>
      </trkpt>
      <trkpt lat="43.72669" lon="5.94554">
        <ele>447.20001220703</ele>
        <time>2021-01-18T11:46:25.000Z</time>
      </trkpt>
      <trkpt lat="43.72668" lon="5.94551">
        <ele>447.60000610352</ele>
        <time>2021-01-18T11:46:26.000Z</time>
      </trkpt>
      <trkpt lat="43.72666" lon="5.94543">
        <ele>448.39999389648</ele>
        <time>2021-01-18T11:46:29.000Z</time>
      </trkpt>
      <trkpt lat="43.72665" lon="5.94534">
        <ele>448.79998779297</ele>
        <time>2021-01-18T11:46:32.000Z</time>
      </trkpt>
      <trkpt lat="43.7266" lon="5.94525">
        <ele>449.39999389648</ele>
        <time>2021-01-18T11:46:36.000Z</time>
      </trkpt>
      <trkpt lat="43.72656" lon="5.9452">
        <ele>449.79998779297</ele>
        <time>2021-01-18T11:46:38.000Z</time>
      </trkpt>
      <trkpt lat="43.72648" lon="5.94514">
        <ele>450.39999389648</ele>
        <time>2021-01-18T11:46:41.000Z</time>
      </trkpt>
      <trkpt lat="43.72641" lon="5.94511">
        <ele>450.79998779297</ele>
        <time>2021-01-18T11:46:43.000Z</time>
      </trkpt>
      <trkpt lat="43.72628" lon="5.94511">
        <ele>451.60000610352</ele>
        <time>2021-01-18T11:46:47.000Z</time>
      </trkpt>
      <trkpt lat="43.72625" lon="5.94511">
        <ele>451.60000610352</ele>
        <time>2021-01-18T11:46:48.000Z</time>
      </trkpt>
      <trkpt lat="43.72607" lon="5.94514">
        <ele>452.20001220703</ele>
        <time>2021-01-18T11:46:54.000Z</time>
      </trkpt>
      <trkpt lat="43.72601" lon="5.94514">
        <ele>453</ele>
        <time>2021-01-18T11:46:56.000Z</time>
      </trkpt>
      <trkpt lat="43.72587" lon="5.94519">
        <ele>454</ele>
        <time>2021-01-18T11:47:01.000Z</time>
      </trkpt>
      <trkpt lat="43.72573" lon="5.94526">
        <ele>454.79998779297</ele>
        <time>2021-01-18T11:47:06.000Z</time>
      </trkpt>
      <trkpt lat="43.72567" lon="5.94529">
        <ele>455</ele>
        <time>2021-01-18T11:47:08.000Z</time>
      </trkpt>
      <trkpt lat="43.72558" lon="5.9454">
        <ele>456</ele>
        <time>2021-01-18T11:47:12.000Z</time>
      </trkpt>
      <trkpt lat="43.72553" lon="5.94547">
        <ele>456.20001220703</ele>
        <time>2021-01-18T11:47:14.000Z</time>
      </trkpt>
      <trkpt lat="43.72542" lon="5.94558">
        <ele>457.20001220703</ele>
        <time>2021-01-18T11:47:18.000Z</time>
      </trkpt>
      <trkpt lat="43.7254" lon="5.9456">
        <ele>457.20001220703</ele>
        <time>2021-01-18T11:47:19.000Z</time>
      </trkpt>
      <trkpt lat="43.72533" lon="5.94567">
        <ele>458.39999389648</ele>
        <time>2021-01-18T11:47:22.000Z</time>
      </trkpt>
      <trkpt lat="43.72529" lon="5.94568">
        <ele>458.60000610352</ele>
        <time>2021-01-18T11:47:23.000Z</time>
      </trkpt>
      <trkpt lat="43.72516" lon="5.94571">
        <ele>459.39999389648</ele>
        <time>2021-01-18T11:47:26.000Z</time>
      </trkpt>
      <trkpt lat="43.72508" lon="5.94574">
        <ele>460</ele>
        <time>2021-01-18T11:47:28.000Z</time>
      </trkpt>
      <trkpt lat="43.72503" lon="5.94579">
        <ele>460.39999389648</ele>
        <time>2021-01-18T11:47:30.000Z</time>
      </trkpt>
      <trkpt lat="43.72498" lon="5.94588">
        <ele>460.79998779297</ele>
        <time>2021-01-18T11:47:32.000Z</time>
      </trkpt>
      <trkpt lat="43.72487" lon="5.9461">
        <ele>461.39999389648</ele>
        <time>2021-01-18T11:47:37.000Z</time>
      </trkpt>
      <trkpt lat="43.7248" lon="5.94617">
        <ele>462</ele>
        <time>2021-01-18T11:47:39.000Z</time>
      </trkpt>
      <trkpt lat="43.72476" lon="5.94618">
        <ele>462.20001220703</ele>
        <time>2021-01-18T11:47:40.000Z</time>
      </trkpt>
      <trkpt lat="43.72472" lon="5.94619">
        <ele>462.60000610352</ele>
        <time>2021-01-18T11:47:41.000Z</time>
      </trkpt>
      <trkpt lat="43.72468" lon="5.94619">
        <ele>463</ele>
        <time>2021-01-18T11:47:42.000Z</time>
      </trkpt>
      <trkpt lat="43.72464" lon="5.94619">
        <ele>463.60000610352</ele>
        <time>2021-01-18T11:47:44.000Z</time>
      </trkpt>
      <trkpt lat="43.72464" lon="5.94619">
        <ele>463.79998779297</ele>
        <time>2021-01-18T11:47:45.000Z</time>
      </trkpt>
      <trkpt lat="43.72461" lon="5.94621">
        <ele>464.79998779297</ele>
        <time>2021-01-18T11:47:48.000Z</time>
      </trkpt>
      <trkpt lat="43.72461" lon="5.94621">
        <ele>466.20001220703</ele>
        <time>2021-01-18T11:47:51.000Z</time>
      </trkpt>
      <trkpt lat="43.72461" lon="5.94621">
        <ele>467</ele>
        <time>2021-01-18T11:47:54.000Z</time>
      </trkpt>
      <trkpt lat="43.72461" lon="5.94622">
        <ele>467.20001220703</ele>
        <time>2021-01-18T11:48:03.000Z</time>
      </trkpt>
      <trkpt lat="43.72461" lon="5.94622">
        <ele>467</ele>
        <time>2021-01-18T11:48:11.000Z</time>
      </trkpt>
      <trkpt lat="43.72461" lon="5.94622">
        <ele>467</ele>
        <time>2021-01-18T11:48:29.000Z</time>
      </trkpt>
      <trkpt lat="43.7246" lon="5.94622">
        <ele>467</ele>
        <time>2021-01-18T11:48:50.000Z</time>
      </trkpt>
      <trkpt lat="43.7246" lon="5.94622">
        <ele>467</ele>
        <time>2021-01-18T11:49:10.000Z</time>
      </trkpt>
      <trkpt lat="43.72459" lon="5.94622">
        <ele>467</ele>
        <time>2021-01-18T11:49:38.000Z</time>
      </trkpt>
      <trkpt lat="43.72457" lon="5.94623">
        <ele>467</ele>
        <time>2021-01-18T11:49:40.000Z</time>
      </trkpt>
      <trkpt lat="43.72455" lon="5.94627">
        <ele>467</ele>
        <time>2021-01-18T11:49:43.000Z</time>
      </trkpt>
      <trkpt lat="43.7245" lon="5.94641">
        <ele>467.39999389648</ele>
        <time>2021-01-18T11:49:48.000Z</time>
      </trkpt>
      <trkpt lat="43.7245" lon="5.94644">
        <ele>467.60000610352</ele>
        <time>2021-01-18T11:49:49.000Z</time>
      </trkpt>
      <trkpt lat="43.72451" lon="5.94659">
        <ele>468.60000610352</ele>
        <time>2021-01-18T11:49:54.000Z</time>
      </trkpt>
      <trkpt lat="43.72454" lon="5.94665">
        <ele>469.60000610352</ele>
        <time>2021-01-18T11:49:56.000Z</time>
      </trkpt>
      <trkpt lat="43.72458" lon="5.9467">
        <ele>470.79998779297</ele>
        <time>2021-01-18T11:49:58.000Z</time>
      </trkpt>
      <trkpt lat="43.72463" lon="5.94676">
        <ele>471.79998779297</ele>
        <time>2021-01-18T11:50:00.000Z</time>
      </trkpt>
      <trkpt lat="43.72468" lon="5.94683">
        <ele>472.79998779297</ele>
        <time>2021-01-18T11:50:02.000Z</time>
      </trkpt>
      <trkpt lat="43.72477" lon="5.94689">
        <ele>474.20001220703</ele>
        <time>2021-01-18T11:50:05.000Z</time>
      </trkpt>
      <trkpt lat="43.72492" lon="5.94686">
        <ele>475</ele>
        <time>2021-01-18T11:50:10.000Z</time>
      </trkpt>
      <trkpt lat="43.72508" lon="5.94678">
        <ele>475.60000610352</ele>
        <time>2021-01-18T11:50:16.000Z</time>
      </trkpt>
      <trkpt lat="43.7252" lon="5.94667">
        <ele>476.39999389648</ele>
        <time>2021-01-18T11:50:21.000Z</time>
      </trkpt>
      <trkpt lat="43.72522" lon="5.94665">
        <ele>476.60000610352</ele>
        <time>2021-01-18T11:50:22.000Z</time>
      </trkpt>
      <trkpt lat="43.72526" lon="5.94659">
        <ele>477.39999389648</ele>
        <time>2021-01-18T11:50:24.000Z</time>
      </trkpt>
      <trkpt lat="43.72535" lon="5.94651">
        <ele>478</ele>
        <time>2021-01-18T11:50:28.000Z</time>
      </trkpt>
      <trkpt lat="43.72547" lon="5.94649">
        <ele>478.39999389648</ele>
        <time>2021-01-18T11:50:33.000Z</time>
      </trkpt>
      <trkpt lat="43.72553" lon="5.94647">
        <ele>478.79998779297</ele>
        <time>2021-01-18T11:50:35.000Z</time>
      </trkpt>
      <trkpt lat="43.72558" lon="5.94644">
        <ele>479.79998779297</ele>
        <time>2021-01-18T11:50:37.000Z</time>
      </trkpt>
      <trkpt lat="43.72568" lon="5.94643">
        <ele>481</ele>
        <time>2021-01-18T11:50:40.000Z</time>
      </trkpt>
      <trkpt lat="43.72571" lon="5.94643">
        <ele>481.20001220703</ele>
        <time>2021-01-18T11:50:41.000Z</time>
      </trkpt>
      <trkpt lat="43.72584" lon="5.94647">
        <ele>482.20001220703</ele>
        <time>2021-01-18T11:50:45.000Z</time>
      </trkpt>
      <trkpt lat="43.7259" lon="5.94651">
        <ele>482.39999389648</ele>
        <time>2021-01-18T11:50:47.000Z</time>
      </trkpt>
      <trkpt lat="43.72601" lon="5.94666">
        <ele>483</ele>
        <time>2021-01-18T11:50:52.000Z</time>
      </trkpt>
      <trkpt lat="43.72603" lon="5.94669">
        <ele>483.20001220703</ele>
        <time>2021-01-18T11:50:53.000Z</time>
      </trkpt>
      <trkpt lat="43.72603" lon="5.94685">
        <ele>483.60000610352</ele>
        <time>2021-01-18T11:50:57.000Z</time>
      </trkpt>
      <trkpt lat="43.726" lon="5.94696">
        <ele>484.39999389648</ele>
        <time>2021-01-18T11:51:00.000Z</time>
      </trkpt>
      <trkpt lat="43.72593" lon="5.94713">
        <ele>484.79998779297</ele>
        <time>2021-01-18T11:51:04.000Z</time>
      </trkpt>
      <trkpt lat="43.7259" lon="5.94721">
        <ele>485.60000610352</ele>
        <time>2021-01-18T11:51:06.000Z</time>
      </trkpt>
      <trkpt lat="43.72583" lon="5.94738">
        <ele>486.79998779297</ele>
        <time>2021-01-18T11:51:11.000Z</time>
      </trkpt>
      <trkpt lat="43.72576" lon="5.94751">
        <ele>488</ele>
        <time>2021-01-18T11:51:15.000Z</time>
      </trkpt>
      <trkpt lat="43.72571" lon="5.94757">
        <ele>488.79998779297</ele>
        <time>2021-01-18T11:51:17.000Z</time>
      </trkpt>
      <trkpt lat="43.72569" lon="5.94761">
        <ele>489</ele>
        <time>2021-01-18T11:51:18.000Z</time>
      </trkpt>
      <trkpt lat="43.72561" lon="5.94778">
        <ele>490.20001220703</ele>
        <time>2021-01-18T11:51:22.000Z</time>
      </trkpt>
      <trkpt lat="43.72559" lon="5.94794">
        <ele>490.60000610352</ele>
        <time>2021-01-18T11:51:26.000Z</time>
      </trkpt>
      <trkpt lat="43.72557" lon="5.94811">
        <ele>491</ele>
        <time>2021-01-18T11:51:31.000Z</time>
      </trkpt>
      <trkpt lat="43.72556" lon="5.94819">
        <ele>491.79998779297</ele>
        <time>2021-01-18T11:51:33.000Z</time>
      </trkpt>
      <trkpt lat="43.72556" lon="5.94828">
        <ele>492.79998779297</ele>
        <time>2021-01-18T11:51:35.000Z</time>
      </trkpt>
      <trkpt lat="43.72553" lon="5.94836">
        <ele>494</ele>
        <time>2021-01-18T11:51:37.000Z</time>
      </trkpt>
      <trkpt lat="43.72551" lon="5.94844">
        <ele>495</ele>
        <time>2021-01-18T11:51:39.000Z</time>
      </trkpt>
      <trkpt lat="43.72547" lon="5.94856">
        <ele>496.20001220703</ele>
        <time>2021-01-18T11:51:42.000Z</time>
      </trkpt>
      <trkpt lat="43.72545" lon="5.94868">
        <ele>497</ele>
        <time>2021-01-18T11:51:45.000Z</time>
      </trkpt>
      <trkpt lat="43.72544" lon="5.94872">
        <ele>497.20001220703</ele>
        <time>2021-01-18T11:51:46.000Z</time>
      </trkpt>
      <trkpt lat="43.72543" lon="5.94885">
        <ele>498.60000610352</ele>
        <time>2021-01-18T11:51:49.000Z</time>
      </trkpt>
      <trkpt lat="43.7254" lon="5.94895">
        <ele>499.20001220703</ele>
        <time>2021-01-18T11:51:51.000Z</time>
      </trkpt>
      <trkpt lat="43.72537" lon="5.94905">
        <ele>499.79998779297</ele>
        <time>2021-01-18T11:51:53.000Z</time>
      </trkpt>
      <trkpt lat="43.7253" lon="5.94922">
        <ele>500.20001220703</ele>
        <time>2021-01-18T11:51:57.000Z</time>
      </trkpt>
      <trkpt lat="43.72519" lon="5.94949">
        <ele>500.20001220703</ele>
        <time>2021-01-18T11:52:03.000Z</time>
      </trkpt>
      <trkpt lat="43.72516" lon="5.94952">
        <ele>500.20001220703</ele>
        <time>2021-01-18T11:52:04.000Z</time>
      </trkpt>
      <trkpt lat="43.72502" lon="5.94962">
        <ele>500.20001220703</ele>
        <time>2021-01-18T11:52:07.000Z</time>
      </trkpt>
      <trkpt lat="43.72487" lon="5.94967">
        <ele>499.39999389648</ele>
        <time>2021-01-18T11:52:10.000Z</time>
      </trkpt>
      <trkpt lat="43.72481" lon="5.94965">
        <ele>499</ele>
        <time>2021-01-18T11:52:11.000Z</time>
      </trkpt>
      <trkpt lat="43.72475" lon="5.94963">
        <ele>498.60000610352</ele>
        <time>2021-01-18T11:52:12.000Z</time>
      </trkpt>
      <trkpt lat="43.72464" lon="5.94957">
        <ele>497.79998779297</ele>
        <time>2021-01-18T11:52:14.000Z</time>
      </trkpt>
      <trkpt lat="43.72459" lon="5.94953">
        <ele>497.20001220703</ele>
        <time>2021-01-18T11:52:15.000Z</time>
      </trkpt>
      <trkpt lat="43.72448" lon="5.94948">
        <ele>496.20001220703</ele>
        <time>2021-01-18T11:52:17.000Z</time>
      </trkpt>
      <trkpt lat="43.72428" lon="5.94938">
        <ele>494.60000610352</ele>
        <time>2021-01-18T11:52:20.000Z</time>
      </trkpt>
      <trkpt lat="43.72416" lon="5.94931">
        <ele>493.39999389648</ele>
        <time>2021-01-18T11:52:22.000Z</time>
      </trkpt>
      <trkpt lat="43.72394" lon="5.94925">
        <ele>492.39999389648</ele>
        <time>2021-01-18T11:52:25.000Z</time>
      </trkpt>
      <trkpt lat="43.72387" lon="5.94926">
        <ele>491.79998779297</ele>
        <time>2021-01-18T11:52:26.000Z</time>
      </trkpt>
      <trkpt lat="43.72379" lon="5.94935">
        <ele>490.20001220703</ele>
        <time>2021-01-18T11:52:28.000Z</time>
      </trkpt>
      <trkpt lat="43.72378" lon="5.94942">
        <ele>489</ele>
        <time>2021-01-18T11:52:29.000Z</time>
      </trkpt>
      <trkpt lat="43.72379" lon="5.94954">
        <ele>487.39999389648</ele>
        <time>2021-01-18T11:52:31.000Z</time>
      </trkpt>
      <trkpt lat="43.7238" lon="5.9496">
        <ele>486.79998779297</ele>
        <time>2021-01-18T11:52:32.000Z</time>
      </trkpt>
      <trkpt lat="43.72383" lon="5.94974">
        <ele>486.20001220703</ele>
        <time>2021-01-18T11:52:34.000Z</time>
      </trkpt>
      <trkpt lat="43.72384" lon="5.94988">
        <ele>485.79998779297</ele>
        <time>2021-01-18T11:52:36.000Z</time>
      </trkpt>
      <trkpt lat="43.72389" lon="5.95016">
        <ele>485.79998779297</ele>
        <time>2021-01-18T11:52:40.000Z</time>
      </trkpt>
      <trkpt lat="43.72391" lon="5.9503">
        <ele>485.79998779297</ele>
        <time>2021-01-18T11:52:42.000Z</time>
      </trkpt>
      <trkpt lat="43.72392" lon="5.95043">
        <ele>485.79998779297</ele>
        <time>2021-01-18T11:52:44.000Z</time>
      </trkpt>
      <trkpt lat="43.72393" lon="5.95057">
        <ele>485.79998779297</ele>
        <time>2021-01-18T11:52:46.000Z</time>
      </trkpt>
      <trkpt lat="43.72395" lon="5.95063">
        <ele>485.79998779297</ele>
        <time>2021-01-18T11:52:47.000Z</time>
      </trkpt>
      <trkpt lat="43.72404" lon="5.9508">
        <ele>485.60000610352</ele>
        <time>2021-01-18T11:52:50.000Z</time>
      </trkpt>
      <trkpt lat="43.72407" lon="5.95085">
        <ele>485.60000610352</ele>
        <time>2021-01-18T11:52:51.000Z</time>
      </trkpt>
      <trkpt lat="43.7241" lon="5.9509">
        <ele>485.60000610352</ele>
        <time>2021-01-18T11:52:52.000Z</time>
      </trkpt>
      <trkpt lat="43.72424" lon="5.95107">
        <ele>485.79998779297</ele>
        <time>2021-01-18T11:52:56.000Z</time>
      </trkpt>
      <trkpt lat="43.7243" lon="5.95116">
        <ele>486.20001220703</ele>
        <time>2021-01-18T11:52:58.000Z</time>
      </trkpt>
      <trkpt lat="43.72442" lon="5.95133">
        <ele>486.20001220703</ele>
        <time>2021-01-18T11:53:02.000Z</time>
      </trkpt>
      <trkpt lat="43.72446" lon="5.95136">
        <ele>486.39999389648</ele>
        <time>2021-01-18T11:53:03.000Z</time>
      </trkpt>
      <trkpt lat="43.72454" lon="5.95144">
        <ele>487.20001220703</ele>
        <time>2021-01-18T11:53:05.000Z</time>
      </trkpt>
      <trkpt lat="43.72466" lon="5.95156">
        <ele>488</ele>
        <time>2021-01-18T11:53:08.000Z</time>
      </trkpt>
      <trkpt lat="43.72472" lon="5.95166">
        <ele>488.79998779297</ele>
        <time>2021-01-18T11:53:10.000Z</time>
      </trkpt>
      <trkpt lat="43.72483" lon="5.95185">
        <ele>489.79998779297</ele>
        <time>2021-01-18T11:53:14.000Z</time>
      </trkpt>
      <trkpt lat="43.72485" lon="5.95191">
        <ele>490</ele>
        <time>2021-01-18T11:53:15.000Z</time>
      </trkpt>
      <trkpt lat="43.72488" lon="5.95208">
        <ele>490.79998779297</ele>
        <time>2021-01-18T11:53:18.000Z</time>
      </trkpt>
      <trkpt lat="43.72488" lon="5.95214">
        <ele>491.20001220703</ele>
        <time>2021-01-18T11:53:19.000Z</time>
      </trkpt>
      <trkpt lat="43.72488" lon="5.95226">
        <ele>492</ele>
        <time>2021-01-18T11:53:21.000Z</time>
      </trkpt>
      <trkpt lat="43.7249" lon="5.95237">
        <ele>492.79998779297</ele>
        <time>2021-01-18T11:53:24.000Z</time>
      </trkpt>
      <trkpt lat="43.7249" lon="5.95238">
        <ele>493.20001220703</ele>
        <time>2021-01-18T11:53:25.000Z</time>
      </trkpt>
      <trkpt lat="43.72494" lon="5.95244">
        <ele>494.39999389648</ele>
        <time>2021-01-18T11:53:29.000Z</time>
      </trkpt>
      <trkpt lat="43.72498" lon="5.95248">
        <ele>495.39999389648</ele>
        <time>2021-01-18T11:53:32.000Z</time>
      </trkpt>
      <trkpt lat="43.72504" lon="5.95256">
        <ele>495.60000610352</ele>
        <time>2021-01-18T11:53:35.000Z</time>
      </trkpt>
      <trkpt lat="43.72517" lon="5.95279">
        <ele>495.60000610352</ele>
        <time>2021-01-18T11:53:40.000Z</time>
      </trkpt>
      <trkpt lat="43.72531" lon="5.95312">
        <ele>495.39999389648</ele>
        <time>2021-01-18T11:53:46.000Z</time>
      </trkpt>
      <trkpt lat="43.72532" lon="5.95318">
        <ele>495.20001220703</ele>
        <time>2021-01-18T11:53:47.000Z</time>
      </trkpt>
      <trkpt lat="43.72534" lon="5.95337">
        <ele>495</ele>
        <time>2021-01-18T11:53:50.000Z</time>
      </trkpt>
      <trkpt lat="43.72534" lon="5.95343">
        <ele>495</ele>
        <time>2021-01-18T11:53:51.000Z</time>
      </trkpt>
      <trkpt lat="43.72538" lon="5.95363">
        <ele>494.39999389648</ele>
        <time>2021-01-18T11:53:55.000Z</time>
      </trkpt>
      <trkpt lat="43.72547" lon="5.9537">
        <ele>494</ele>
        <time>2021-01-18T11:53:59.000Z</time>
      </trkpt>
      <trkpt lat="43.72564" lon="5.95376">
        <ele>493.79998779297</ele>
        <time>2021-01-18T11:54:04.000Z</time>
      </trkpt>
      <trkpt lat="43.72578" lon="5.95376">
        <ele>493.79998779297</ele>
        <time>2021-01-18T11:54:08.000Z</time>
      </trkpt>
      <trkpt lat="43.72589" lon="5.95382">
        <ele>493.79998779297</ele>
        <time>2021-01-18T11:54:11.000Z</time>
      </trkpt>
      <trkpt lat="43.72598" lon="5.95387">
        <ele>493.79998779297</ele>
        <time>2021-01-18T11:54:13.000Z</time>
      </trkpt>
      <trkpt lat="43.72618" lon="5.95397">
        <ele>494</ele>
        <time>2021-01-18T11:54:18.000Z</time>
      </trkpt>
      <trkpt lat="43.72633" lon="5.95399">
        <ele>494.20001220703</ele>
        <time>2021-01-18T11:54:23.000Z</time>
      </trkpt>
      <trkpt lat="43.72652" lon="5.95399">
        <ele>495</ele>
        <time>2021-01-18T11:54:28.000Z</time>
      </trkpt>
      <trkpt lat="43.72665" lon="5.95395">
        <ele>495.39999389648</ele>
        <time>2021-01-18T11:54:32.000Z</time>
      </trkpt>
      <trkpt lat="43.72672" lon="5.95395">
        <ele>495.79998779297</ele>
        <time>2021-01-18T11:54:34.000Z</time>
      </trkpt>
      <trkpt lat="43.72681" lon="5.95396">
        <ele>496.20001220703</ele>
        <time>2021-01-18T11:54:37.000Z</time>
      </trkpt>
      <trkpt lat="43.72695" lon="5.95392">
        <ele>496.60000610352</ele>
        <time>2021-01-18T11:54:41.000Z</time>
      </trkpt>
      <trkpt lat="43.72699" lon="5.95392">
        <ele>496.79998779297</ele>
        <time>2021-01-18T11:54:42.000Z</time>
      </trkpt>
      <trkpt lat="43.72714" lon="5.95394">
        <ele>497.79998779297</ele>
        <time>2021-01-18T11:54:46.000Z</time>
      </trkpt>
      <trkpt lat="43.72717" lon="5.95394">
        <ele>498</ele>
        <time>2021-01-18T11:54:47.000Z</time>
      </trkpt>
      <trkpt lat="43.72728" lon="5.95402">
        <ele>498.39999389648</ele>
        <time>2021-01-18T11:54:50.000Z</time>
      </trkpt>
      <trkpt lat="43.72731" lon="5.95406">
        <ele>498.39999389648</ele>
        <time>2021-01-18T11:54:51.000Z</time>
      </trkpt>
      <trkpt lat="43.72742" lon="5.95415">
        <ele>499</ele>
        <time>2021-01-18T11:54:55.000Z</time>
      </trkpt>
      <trkpt lat="43.72745" lon="5.95415">
        <ele>499.20001220703</ele>
        <time>2021-01-18T11:54:56.000Z</time>
      </trkpt>
      <trkpt lat="43.72757" lon="5.95421">
        <ele>499.39999389648</ele>
        <time>2021-01-18T11:55:00.000Z</time>
      </trkpt>
      <trkpt lat="43.72775" lon="5.95427">
        <ele>500.20001220703</ele>
        <time>2021-01-18T11:55:05.000Z</time>
      </trkpt>
      <trkpt lat="43.72803" lon="5.95436">
        <ele>500.39999389648</ele>
        <time>2021-01-18T11:55:11.000Z</time>
      </trkpt>
      <trkpt lat="43.72831" lon="5.9545">
        <ele>500</ele>
        <time>2021-01-18T11:55:16.000Z</time>
      </trkpt>
      <trkpt lat="43.72843" lon="5.95456">
        <ele>499</ele>
        <time>2021-01-18T11:55:18.000Z</time>
      </trkpt>
      <trkpt lat="43.72849" lon="5.95457">
        <ele>498.79998779297</ele>
        <time>2021-01-18T11:55:19.000Z</time>
      </trkpt>
      <trkpt lat="43.72854" lon="5.95459">
        <ele>498.60000610352</ele>
        <time>2021-01-18T11:55:20.000Z</time>
      </trkpt>
      <trkpt lat="43.72863" lon="5.95462">
        <ele>497.60000610352</ele>
        <time>2021-01-18T11:55:22.000Z</time>
      </trkpt>
      <trkpt lat="43.72873" lon="5.95465">
        <ele>495.60000610352</ele>
        <time>2021-01-18T11:55:24.000Z</time>
      </trkpt>
      <trkpt lat="43.72884" lon="5.95469">
        <ele>494.79998779297</ele>
        <time>2021-01-18T11:55:26.000Z</time>
      </trkpt>
      <trkpt lat="43.72888" lon="5.95471">
        <ele>494.20001220703</ele>
        <time>2021-01-18T11:55:27.000Z</time>
      </trkpt>
      <trkpt lat="43.72892" lon="5.95473">
        <ele>493.60000610352</ele>
        <time>2021-01-18T11:55:28.000Z</time>
      </trkpt>
      <trkpt lat="43.72895" lon="5.95473">
        <ele>493.20001220703</ele>
        <time>2021-01-18T11:55:29.000Z</time>
      </trkpt>
      <trkpt lat="43.72904" lon="5.95477">
        <ele>492.20001220703</ele>
        <time>2021-01-18T11:55:32.000Z</time>
      </trkpt>
      <trkpt lat="43.72912" lon="5.95481">
        <ele>491.60000610352</ele>
        <time>2021-01-18T11:55:34.000Z</time>
      </trkpt>
      <trkpt lat="43.7292" lon="5.95485">
        <ele>491.39999389648</ele>
        <time>2021-01-18T11:55:36.000Z</time>
      </trkpt>
      <trkpt lat="43.72926" lon="5.95485">
        <ele>491</ele>
        <time>2021-01-18T11:55:38.000Z</time>
      </trkpt>
      <trkpt lat="43.7293" lon="5.95487">
        <ele>490.60000610352</ele>
        <time>2021-01-18T11:55:39.000Z</time>
      </trkpt>
      <trkpt lat="43.72933" lon="5.95489">
        <ele>490.20001220703</ele>
        <time>2021-01-18T11:55:40.000Z</time>
      </trkpt>
      <trkpt lat="43.72936" lon="5.95491">
        <ele>489.60000610352</ele>
        <time>2021-01-18T11:55:41.000Z</time>
      </trkpt>
      <trkpt lat="43.72941" lon="5.95498">
        <ele>488.79998779297</ele>
        <time>2021-01-18T11:55:43.000Z</time>
      </trkpt>
      <trkpt lat="43.72944" lon="5.95499">
        <ele>488.39999389648</ele>
        <time>2021-01-18T11:55:44.000Z</time>
      </trkpt>
      <trkpt lat="43.72949" lon="5.95501">
        <ele>487.60000610352</ele>
        <time>2021-01-18T11:55:46.000Z</time>
      </trkpt>
      <trkpt lat="43.72951" lon="5.95502">
        <ele>487.20001220703</ele>
        <time>2021-01-18T11:55:47.000Z</time>
      </trkpt>
      <trkpt lat="43.7296" lon="5.95502">
        <ele>485.79998779297</ele>
        <time>2021-01-18T11:55:50.000Z</time>
      </trkpt>
      <trkpt lat="43.72964" lon="5.95503">
        <ele>485.39999389648</ele>
        <time>2021-01-18T11:55:51.000Z</time>
      </trkpt>
      <trkpt lat="43.72975" lon="5.95503">
        <ele>484.39999389648</ele>
        <time>2021-01-18T11:55:53.000Z</time>
      </trkpt>
      <trkpt lat="43.72979" lon="5.95504">
        <ele>484</ele>
        <time>2021-01-18T11:55:54.000Z</time>
      </trkpt>
      <trkpt lat="43.72986" lon="5.95503">
        <ele>483</ele>
        <time>2021-01-18T11:55:56.000Z</time>
      </trkpt>
      <trkpt lat="43.72988" lon="5.95502">
        <ele>482.20001220703</ele>
        <time>2021-01-18T11:55:57.000Z</time>
      </trkpt>
      <trkpt lat="43.7299" lon="5.95503">
        <ele>481.39999389648</ele>
        <time>2021-01-18T11:55:58.000Z</time>
      </trkpt>
      <trkpt lat="43.72992" lon="5.95505">
        <ele>480.20001220703</ele>
        <time>2021-01-18T11:55:59.000Z</time>
      </trkpt>
      <trkpt lat="43.72995" lon="5.95507">
        <ele>478.79998779297</ele>
        <time>2021-01-18T11:56:00.000Z</time>
      </trkpt>
      <trkpt lat="43.72998" lon="5.95508">
        <ele>477.39999389648</ele>
        <time>2021-01-18T11:56:01.000Z</time>
      </trkpt>
      <trkpt lat="43.73004" lon="5.9551">
        <ele>475.79998779297</ele>
        <time>2021-01-18T11:56:03.000Z</time>
      </trkpt>
      <trkpt lat="43.73008" lon="5.95509">
        <ele>475.39999389648</ele>
        <time>2021-01-18T11:56:04.000Z</time>
      </trkpt>
      <trkpt lat="43.73012" lon="5.95507">
        <ele>474.79998779297</ele>
        <time>2021-01-18T11:56:05.000Z</time>
      </trkpt>
      <trkpt lat="43.73019" lon="5.95505">
        <ele>473.60000610352</ele>
        <time>2021-01-18T11:56:07.000Z</time>
      </trkpt>
      <trkpt lat="43.73021" lon="5.95505">
        <ele>472.79998779297</ele>
        <time>2021-01-18T11:56:08.000Z</time>
      </trkpt>
      <trkpt lat="43.73023" lon="5.95505">
        <ele>472.20001220703</ele>
        <time>2021-01-18T11:56:09.000Z</time>
      </trkpt>
      <trkpt lat="43.73027" lon="5.95508">
        <ele>470.79998779297</ele>
        <time>2021-01-18T11:56:11.000Z</time>
      </trkpt>
      <trkpt lat="43.73029" lon="5.95508">
        <ele>470.20001220703</ele>
        <time>2021-01-18T11:56:12.000Z</time>
      </trkpt>
      <trkpt lat="43.73032" lon="5.95509">
        <ele>468.39999389648</ele>
        <time>2021-01-18T11:56:13.000Z</time>
      </trkpt>
      <trkpt lat="43.73039" lon="5.95513">
        <ele>467</ele>
        <time>2021-01-18T11:56:15.000Z</time>
      </trkpt>
      <trkpt lat="43.73046" lon="5.95517">
        <ele>466.39999389648</ele>
        <time>2021-01-18T11:56:17.000Z</time>
      </trkpt>
      <trkpt lat="43.73049" lon="5.9552">
        <ele>466</ele>
        <time>2021-01-18T11:56:19.000Z</time>
      </trkpt>
      <trkpt lat="43.7305" lon="5.95522">
        <ele>466</ele>
        <time>2021-01-18T11:56:20.000Z</time>
      </trkpt>
      <trkpt lat="43.73052" lon="5.95525">
        <ele>466</ele>
        <time>2021-01-18T11:56:21.000Z</time>
      </trkpt>
      <trkpt lat="43.73061" lon="5.95545">
        <ele>465.79998779297</ele>
        <time>2021-01-18T11:56:26.000Z</time>
      </trkpt>
      <trkpt lat="43.73072" lon="5.95562">
        <ele>465.79998779297</ele>
        <time>2021-01-18T11:56:30.000Z</time>
      </trkpt>
      <trkpt lat="43.73074" lon="5.95568">
        <ele>465.79998779297</ele>
        <time>2021-01-18T11:56:31.000Z</time>
      </trkpt>
      <trkpt lat="43.7308" lon="5.95588">
        <ele>465.79998779297</ele>
        <time>2021-01-18T11:56:34.000Z</time>
      </trkpt>
      <trkpt lat="43.73086" lon="5.95615">
        <ele>465.79998779297</ele>
        <time>2021-01-18T11:56:39.000Z</time>
      </trkpt>
      <trkpt lat="43.73087" lon="5.95629">
        <ele>464.79998779297</ele>
        <time>2021-01-18T11:56:41.000Z</time>
      </trkpt>
      <trkpt lat="43.7309" lon="5.95642">
        <ele>464.20001220703</ele>
        <time>2021-01-18T11:56:43.000Z</time>
      </trkpt>
      <trkpt lat="43.73097" lon="5.95659">
        <ele>463.60000610352</ele>
        <time>2021-01-18T11:56:46.000Z</time>
      </trkpt>
      <trkpt lat="43.73099" lon="5.95663">
        <ele>463.20001220703</ele>
        <time>2021-01-18T11:56:47.000Z</time>
      </trkpt>
      <trkpt lat="43.73104" lon="5.95664">
        <ele>461.79998779297</ele>
        <time>2021-01-18T11:56:49.000Z</time>
      </trkpt>
      <trkpt lat="43.73106" lon="5.95666">
        <ele>461.20001220703</ele>
        <time>2021-01-18T11:56:50.000Z</time>
      </trkpt>
      <trkpt lat="43.73107" lon="5.95669">
        <ele>460.60000610352</ele>
        <time>2021-01-18T11:56:51.000Z</time>
      </trkpt>
      <trkpt lat="43.73112" lon="5.95677">
        <ele>458.60000610352</ele>
        <time>2021-01-18T11:56:53.000Z</time>
      </trkpt>
      <trkpt lat="43.73116" lon="5.95682">
        <ele>458</ele>
        <time>2021-01-18T11:56:54.000Z</time>
      </trkpt>
      <trkpt lat="43.73119" lon="5.95688">
        <ele>457.79998779297</ele>
        <time>2021-01-18T11:56:55.000Z</time>
      </trkpt>
      <trkpt lat="43.73121" lon="5.95693">
        <ele>457.60000610352</ele>
        <time>2021-01-18T11:56:56.000Z</time>
      </trkpt>
      <trkpt lat="43.73121" lon="5.95697">
        <ele>457.20001220703</ele>
        <time>2021-01-18T11:56:57.000Z</time>
      </trkpt>
      <trkpt lat="43.73125" lon="5.95707">
        <ele>455.60000610352</ele>
        <time>2021-01-18T11:56:59.000Z</time>
      </trkpt>
      <trkpt lat="43.73129" lon="5.95715">
        <ele>454.39999389648</ele>
        <time>2021-01-18T11:57:01.000Z</time>
      </trkpt>
      <trkpt lat="43.73134" lon="5.9572">
        <ele>452.39999389648</ele>
        <time>2021-01-18T11:57:03.000Z</time>
      </trkpt>
      <trkpt lat="43.73138" lon="5.9572">
        <ele>451</ele>
        <time>2021-01-18T11:57:05.000Z</time>
      </trkpt>
      <trkpt lat="43.73142" lon="5.95717">
        <ele>449.79998779297</ele>
        <time>2021-01-18T11:57:07.000Z</time>
      </trkpt>
      <trkpt lat="43.73145" lon="5.95715">
        <ele>448.60000610352</ele>
        <time>2021-01-18T11:57:08.000Z</time>
      </trkpt>
      <trkpt lat="43.73148" lon="5.95711">
        <ele>448</ele>
        <time>2021-01-18T11:57:09.000Z</time>
      </trkpt>
      <trkpt lat="43.73151" lon="5.95706">
        <ele>447.39999389648</ele>
        <time>2021-01-18T11:57:10.000Z</time>
      </trkpt>
      <trkpt lat="43.73153" lon="5.95697">
        <ele>446.20001220703</ele>
        <time>2021-01-18T11:57:12.000Z</time>
      </trkpt>
      <trkpt lat="43.73157" lon="5.9569">
        <ele>445</ele>
        <time>2021-01-18T11:57:16.000Z</time>
      </trkpt>
      <trkpt lat="43.73162" lon="5.95677">
        <ele>444.60000610352</ele>
        <time>2021-01-18T11:57:22.000Z</time>
      </trkpt>
      <trkpt lat="43.73167" lon="5.95661">
        <ele>444.60000610352</ele>
        <time>2021-01-18T11:57:27.000Z</time>
      </trkpt>
      <trkpt lat="43.73168" lon="5.95651">
        <ele>444.60000610352</ele>
        <time>2021-01-18T11:57:31.000Z</time>
      </trkpt>
      <trkpt lat="43.73173" lon="5.95636">
        <ele>444.60000610352</ele>
        <time>2021-01-18T11:57:36.000Z</time>
      </trkpt>
      <trkpt lat="43.73175" lon="5.95628">
        <ele>444.60000610352</ele>
        <time>2021-01-18T11:57:38.000Z</time>
      </trkpt>
      <trkpt lat="43.73178" lon="5.95615">
        <ele>444.39999389648</ele>
        <time>2021-01-18T11:57:41.000Z</time>
      </trkpt>
      <trkpt lat="43.73177" lon="5.95596">
        <ele>444.20001220703</ele>
        <time>2021-01-18T11:57:45.000Z</time>
      </trkpt>
      <trkpt lat="43.7318" lon="5.95582">
        <ele>443.60000610352</ele>
        <time>2021-01-18T11:57:48.000Z</time>
      </trkpt>
      <trkpt lat="43.7318" lon="5.95577">
        <ele>443.39999389648</ele>
        <time>2021-01-18T11:57:49.000Z</time>
      </trkpt>
      <trkpt lat="43.73177" lon="5.95548">
        <ele>443</ele>
        <time>2021-01-18T11:57:54.000Z</time>
      </trkpt>
      <trkpt lat="43.73172" lon="5.9553">
        <ele>443</ele>
        <time>2021-01-18T11:57:58.000Z</time>
      </trkpt>
      <trkpt lat="43.73173" lon="5.95517">
        <ele>443</ele>
        <time>2021-01-18T11:58:01.000Z</time>
      </trkpt>
      <trkpt lat="43.73182" lon="5.95502">
        <ele>443.20001220703</ele>
        <time>2021-01-18T11:58:05.000Z</time>
      </trkpt>
      <trkpt lat="43.73189" lon="5.95476">
        <ele>442.79998779297</ele>
        <time>2021-01-18T11:58:10.000Z</time>
      </trkpt>
      <trkpt lat="43.7319" lon="5.95471">
        <ele>442.60000610352</ele>
        <time>2021-01-18T11:58:11.000Z</time>
      </trkpt>
      <trkpt lat="43.73194" lon="5.95452">
        <ele>441.60000610352</ele>
        <time>2021-01-18T11:58:15.000Z</time>
      </trkpt>
      <trkpt lat="43.73194" lon="5.95449">
        <ele>441</ele>
        <time>2021-01-18T11:58:16.000Z</time>
      </trkpt>
      <trkpt lat="43.73195" lon="5.95442">
        <ele>440.20001220703</ele>
        <time>2021-01-18T11:58:18.000Z</time>
      </trkpt>
      <trkpt lat="43.73196" lon="5.95438">
        <ele>440</ele>
        <time>2021-01-18T11:58:19.000Z</time>
      </trkpt>
      <trkpt lat="43.73199" lon="5.95422">
        <ele>439.39999389648</ele>
        <time>2021-01-18T11:58:23.000Z</time>
      </trkpt>
      <trkpt lat="43.73196" lon="5.95411">
        <ele>439.20001220703</ele>
        <time>2021-01-18T11:58:26.000Z</time>
      </trkpt>
      <trkpt lat="43.73199" lon="5.954">
        <ele>438.20001220703</ele>
        <time>2021-01-18T11:58:29.000Z</time>
      </trkpt>
      <trkpt lat="43.732" lon="5.95393">
        <ele>436.39999389648</ele>
        <time>2021-01-18T11:58:31.000Z</time>
      </trkpt>
      <trkpt lat="43.73203" lon="5.9539">
        <ele>435.79998779297</ele>
        <time>2021-01-18T11:58:33.000Z</time>
      </trkpt>
      <trkpt lat="43.73207" lon="5.95388">
        <ele>435.20001220703</ele>
        <time>2021-01-18T11:58:35.000Z</time>
      </trkpt>
      <trkpt lat="43.73211" lon="5.95387">
        <ele>433.79998779297</ele>
        <time>2021-01-18T11:58:37.000Z</time>
      </trkpt>
      <trkpt lat="43.73215" lon="5.95385">
        <ele>432.60000610352</ele>
        <time>2021-01-18T11:58:39.000Z</time>
      </trkpt>
      <trkpt lat="43.73221" lon="5.95388">
        <ele>431.39999389648</ele>
        <time>2021-01-18T11:58:42.000Z</time>
      </trkpt>
      <trkpt lat="43.73223" lon="5.9539">
        <ele>430.79998779297</ele>
        <time>2021-01-18T11:58:43.000Z</time>
      </trkpt>
      <trkpt lat="43.73228" lon="5.95394">
        <ele>430.20001220703</ele>
        <time>2021-01-18T11:58:45.000Z</time>
      </trkpt>
      <trkpt lat="43.7323" lon="5.95395">
        <ele>430</ele>
        <time>2021-01-18T11:58:46.000Z</time>
      </trkpt>
      <trkpt lat="43.73231" lon="5.95395">
        <ele>429.39999389648</ele>
        <time>2021-01-18T11:58:47.000Z</time>
      </trkpt>
      <trkpt lat="43.73233" lon="5.95394">
        <ele>428.79998779297</ele>
        <time>2021-01-18T11:58:48.000Z</time>
      </trkpt>
      <trkpt lat="43.73236" lon="5.95394">
        <ele>427.79998779297</ele>
        <time>2021-01-18T11:58:51.000Z</time>
      </trkpt>
      <trkpt lat="43.73236" lon="5.95394">
        <ele>427.39999389648</ele>
        <time>2021-01-18T11:58:52.000Z</time>
      </trkpt>
      <trkpt lat="43.73236" lon="5.95394">
        <ele>426.39999389648</ele>
        <time>2021-01-18T11:58:56.000Z</time>
      </trkpt>
      <trkpt lat="43.73236" lon="5.95394">
        <ele>425.20001220703</ele>
        <time>2021-01-18T11:58:59.000Z</time>
      </trkpt>
      <trkpt lat="43.73236" lon="5.95394">
        <ele>425</ele>
        <time>2021-01-18T11:59:10.000Z</time>
      </trkpt>
      <trkpt lat="43.73238" lon="5.95393">
        <ele>425</ele>
        <time>2021-01-18T11:59:30.000Z</time>
      </trkpt>
      <trkpt lat="43.73238" lon="5.95394">
        <ele>424.79998779297</ele>
        <time>2021-01-18T11:59:35.000Z</time>
      </trkpt>
      <trkpt lat="43.73239" lon="5.95394">
        <ele>424.39999389648</ele>
        <time>2021-01-18T11:59:40.000Z</time>
      </trkpt>
      <trkpt lat="43.73238" lon="5.95394">
        <ele>423.79998779297</ele>
        <time>2021-01-18T11:59:51.000Z</time>
      </trkpt>
      <trkpt lat="43.73238" lon="5.95394">
        <ele>423.79998779297</ele>
        <time>2021-01-18T12:00:35.000Z</time>
      </trkpt>
      <trkpt lat="43.73238" lon="5.95394">
        <ele>424</ele>
        <time>2021-01-18T12:00:40.000Z</time>
      </trkpt>
      <trkpt lat="43.73238" lon="5.95394">
        <ele>424.20001220703</ele>
        <time>2021-01-18T12:01:13.000Z</time>
      </trkpt>
      <trkpt lat="43.73238" lon="5.95394">
        <ele>424.20001220703</ele>
        <time>2021-01-18T12:01:46.000Z</time>
      </trkpt>
      <trkpt lat="43.73238" lon="5.95394">
        <ele>424</ele>
        <time>2021-01-18T12:01:55.000Z</time>
      </trkpt>
      <trkpt lat="43.73237" lon="5.95394">
        <ele>424</ele>
        <time>2021-01-18T12:02:05.000Z</time>
      </trkpt>
      <trkpt lat="43.73237" lon="5.95394">
        <ele>424.20001220703</ele>
        <time>2021-01-18T12:02:15.000Z</time>
      </trkpt>
      <trkpt lat="43.73237" lon="5.95394">
        <ele>424.39999389648</ele>
        <time>2021-01-18T12:02:48.000Z</time>
      </trkpt>
      <trkpt lat="43.73237" lon="5.95394">
        <ele>424.39999389648</ele>
        <time>2021-01-18T12:03:20.000Z</time>
      </trkpt>
      <trkpt lat="43.73237" lon="5.95394">
        <ele>424.39999389648</ele>
        <time>2021-01-18T12:03:54.000Z</time>
      </trkpt>
      <trkpt lat="43.73237" lon="5.95394">
        <ele>424.39999389648</ele>
        <time>2021-01-18T12:04:17.000Z</time>
      </trkpt>
      <trkpt lat="43.73237" lon="5.95394">
        <ele>424.20001220703</ele>
        <time>2021-01-18T12:04:30.000Z</time>
      </trkpt>
      <trkpt lat="43.73237" lon="5.95394">
        <ele>424.60000610352</ele>
        <time>2021-01-18T12:05:06.000Z</time>
      </trkpt>
      <trkpt lat="43.73237" lon="5.95394">
        <ele>424.20001220703</ele>
        <time>2021-01-18T12:05:46.000Z</time>
      </trkpt>
      <trkpt lat="43.73236" lon="5.95394">
        <ele>424.60000610352</ele>
        <time>2021-01-18T12:06:34.000Z</time>
      </trkpt>
      <trkpt lat="43.73236" lon="5.95395">
        <ele>424.20001220703</ele>
        <time>2021-01-18T12:07:28.000Z</time>
      </trkpt>
      <trkpt lat="43.73236" lon="5.95395">
        <ele>424.20001220703</ele>
        <time>2021-01-18T12:07:32.000Z</time>
      </trkpt>
      <trkpt lat="43.73236" lon="5.95395">
        <ele>424.60000610352</ele>
        <time>2021-01-18T12:08:31.000Z</time>
      </trkpt>
      <trkpt lat="43.73236" lon="5.95395">
        <ele>424.39999389648</ele>
        <time>2021-01-18T12:09:33.000Z</time>
      </trkpt>
      <trkpt lat="43.73236" lon="5.95395">
        <ele>425</ele>
        <time>2021-01-18T12:10:29.000Z</time>
      </trkpt>
      <trkpt lat="43.73236" lon="5.95395">
        <ele>425</ele>
        <time>2021-01-18T12:10:55.000Z</time>
      </trkpt>
      <trkpt lat="43.73236" lon="5.95395">
        <ele>425</ele>
        <time>2021-01-18T12:11:29.000Z</time>
      </trkpt>
      <trkpt lat="43.73236" lon="5.95395">
        <ele>424.79998779297</ele>
        <time>2021-01-18T12:13:32.000Z</time>
      </trkpt>
      <trkpt lat="43.73235" lon="5.95394">
        <ele>425.39999389648</ele>
        <time>2021-01-18T12:14:59.000Z</time>
      </trkpt>
      <trkpt lat="43.73235" lon="5.95394">
        <ele>425.39999389648</ele>
        <time>2021-01-18T12:16:07.000Z</time>
      </trkpt>
      <trkpt lat="43.73235" lon="5.95394">
        <ele>424.79998779297</ele>
        <time>2021-01-18T12:17:22.000Z</time>
      </trkpt>
      <trkpt lat="43.73236" lon="5.95394">
        <ele>425.39999389648</ele>
        <time>2021-01-18T12:19:19.000Z</time>
      </trkpt>
      <trkpt lat="43.73236" lon="5.95394">
        <ele>425.20001220703</ele>
        <time>2021-01-18T12:20:05.000Z</time>
      </trkpt>
      <trkpt lat="43.73236" lon="5.95394">
        <ele>425.39999389648</ele>
        <time>2021-01-18T12:20:23.000Z</time>
      </trkpt>
      <trkpt lat="43.73236" lon="5.95394">
        <ele>425.20001220703</ele>
        <time>2021-01-18T12:20:50.000Z</time>
      </trkpt>
      <trkpt lat="43.73236" lon="5.95394">
        <ele>425.20001220703</ele>
        <time>2021-01-18T12:21:59.000Z</time>
      </trkpt>
      <trkpt lat="43.73236" lon="5.95394">
        <ele>425.20001220703</ele>
        <time>2021-01-18T12:22:38.000Z</time>
      </trkpt>
      <trkpt lat="43.73236" lon="5.95394">
        <ele>425.79998779297</ele>
        <time>2021-01-18T12:22:56.000Z</time>
      </trkpt>
      <trkpt lat="43.73236" lon="5.95394">
        <ele>425.79998779297</ele>
        <time>2021-01-18T12:23:15.000Z</time>
      </trkpt>
      <trkpt lat="43.73236" lon="5.95395">
        <ele>425.39999389648</ele>
        <time>2021-01-18T12:23:38.000Z</time>
      </trkpt>
      <trkpt lat="43.73236" lon="5.95394">
        <ele>425.39999389648</ele>
        <time>2021-01-18T12:25:18.000Z</time>
      </trkpt>
      <trkpt lat="43.73236" lon="5.95395">
        <ele>425.60000610352</ele>
        <time>2021-01-18T12:25:58.000Z</time>
      </trkpt>
      <trkpt lat="43.73236" lon="5.95398">
        <ele>425.60000610352</ele>
        <time>2021-01-18T12:25:59.000Z</time>
      </trkpt>
      <trkpt lat="43.73239" lon="5.95408">
        <ele>425.60000610352</ele>
        <time>2021-01-18T12:26:01.000Z</time>
      </trkpt>
      <trkpt lat="43.73241" lon="5.95414">
        <ele>425.60000610352</ele>
        <time>2021-01-18T12:26:02.000Z</time>
      </trkpt>
      <trkpt lat="43.73245" lon="5.95432">
        <ele>425.39999389648</ele>
        <time>2021-01-18T12:26:05.000Z</time>
      </trkpt>
      <trkpt lat="43.73247" lon="5.95443">
        <ele>425.39999389648</ele>
        <time>2021-01-18T12:26:07.000Z</time>
      </trkpt>
      <trkpt lat="43.73252" lon="5.95455">
        <ele>425.39999389648</ele>
        <time>2021-01-18T12:26:09.000Z</time>
      </trkpt>
      <trkpt lat="43.73259" lon="5.95469">
        <ele>425</ele>
        <time>2021-01-18T12:26:11.000Z</time>
      </trkpt>
      <trkpt lat="43.73262" lon="5.95476">
        <ele>424.79998779297</ele>
        <time>2021-01-18T12:26:12.000Z</time>
      </trkpt>
      <trkpt lat="43.73266" lon="5.95492">
        <ele>424.39999389648</ele>
        <time>2021-01-18T12:26:14.000Z</time>
      </trkpt>
      <trkpt lat="43.73272" lon="5.95507">
        <ele>424</ele>
        <time>2021-01-18T12:26:16.000Z</time>
      </trkpt>
      <trkpt lat="43.73277" lon="5.95513">
        <ele>423.39999389648</ele>
        <time>2021-01-18T12:26:17.000Z</time>
      </trkpt>
      <trkpt lat="43.73281" lon="5.95519">
        <ele>422.79998779297</ele>
        <time>2021-01-18T12:26:18.000Z</time>
      </trkpt>
      <trkpt lat="43.73285" lon="5.95525">
        <ele>422</ele>
        <time>2021-01-18T12:26:19.000Z</time>
      </trkpt>
      <trkpt lat="43.73288" lon="5.95532">
        <ele>421.79998779297</ele>
        <time>2021-01-18T12:26:20.000Z</time>
      </trkpt>
      <trkpt lat="43.73291" lon="5.95538">
        <ele>421.39999389648</ele>
        <time>2021-01-18T12:26:21.000Z</time>
      </trkpt>
      <trkpt lat="43.73298" lon="5.95547">
        <ele>421.20001220703</ele>
        <time>2021-01-18T12:26:23.000Z</time>
      </trkpt>
      <trkpt lat="43.733" lon="5.95552">
        <ele>420.60000610352</ele>
        <time>2021-01-18T12:26:24.000Z</time>
      </trkpt>
      <trkpt lat="43.73301" lon="5.95557">
        <ele>420.20001220703</ele>
        <time>2021-01-18T12:26:25.000Z</time>
      </trkpt>
      <trkpt lat="43.73301" lon="5.95572">
        <ele>419.39999389648</ele>
        <time>2021-01-18T12:26:27.000Z</time>
      </trkpt>
      <trkpt lat="43.73301" lon="5.95589">
        <ele>418.79998779297</ele>
        <time>2021-01-18T12:26:29.000Z</time>
      </trkpt>
      <trkpt lat="43.733" lon="5.95598">
        <ele>418.60000610352</ele>
        <time>2021-01-18T12:26:30.000Z</time>
      </trkpt>
      <trkpt lat="43.73299" lon="5.95607">
        <ele>418.20001220703</ele>
        <time>2021-01-18T12:26:31.000Z</time>
      </trkpt>
      <trkpt lat="43.73299" lon="5.95616">
        <ele>417.79998779297</ele>
        <time>2021-01-18T12:26:32.000Z</time>
      </trkpt>
      <trkpt lat="43.73301" lon="5.95624">
        <ele>417.60000610352</ele>
        <time>2021-01-18T12:26:33.000Z</time>
      </trkpt>
      <trkpt lat="43.73303" lon="5.95631">
        <ele>417</ele>
        <time>2021-01-18T12:26:34.000Z</time>
      </trkpt>
      <trkpt lat="43.73309" lon="5.95643">
        <ele>416.39999389648</ele>
        <time>2021-01-18T12:26:36.000Z</time>
      </trkpt>
      <trkpt lat="43.73313" lon="5.95649">
        <ele>416</ele>
        <time>2021-01-18T12:26:37.000Z</time>
      </trkpt>
      <trkpt lat="43.73315" lon="5.95654">
        <ele>415.79998779297</ele>
        <time>2021-01-18T12:26:38.000Z</time>
      </trkpt>
      <trkpt lat="43.73319" lon="5.95667">
        <ele>415.39999389648</ele>
        <time>2021-01-18T12:26:40.000Z</time>
      </trkpt>
      <trkpt lat="43.7332" lon="5.95674">
        <ele>415.39999389648</ele>
        <time>2021-01-18T12:26:41.000Z</time>
      </trkpt>
      <trkpt lat="43.73322" lon="5.95681">
        <ele>415.20001220703</ele>
        <time>2021-01-18T12:26:42.000Z</time>
      </trkpt>
      <trkpt lat="43.73321" lon="5.95695">
        <ele>415.20001220703</ele>
        <time>2021-01-18T12:26:44.000Z</time>
      </trkpt>
      <trkpt lat="43.73319" lon="5.95701">
        <ele>415</ele>
        <time>2021-01-18T12:26:45.000Z</time>
      </trkpt>
      <trkpt lat="43.73316" lon="5.9572">
        <ele>414.79998779297</ele>
        <time>2021-01-18T12:26:48.000Z</time>
      </trkpt>
      <trkpt lat="43.73312" lon="5.95731">
        <ele>414.79998779297</ele>
        <time>2021-01-18T12:26:50.000Z</time>
      </trkpt>
      <trkpt lat="43.73311" lon="5.95737">
        <ele>414.79998779297</ele>
        <time>2021-01-18T12:26:51.000Z</time>
      </trkpt>
      <trkpt lat="43.73309" lon="5.95744">
        <ele>414.79998779297</ele>
        <time>2021-01-18T12:26:52.000Z</time>
      </trkpt>
      <trkpt lat="43.73313" lon="5.95757">
        <ele>414.60000610352</ele>
        <time>2021-01-18T12:26:55.000Z</time>
      </trkpt>
      <trkpt lat="43.73313" lon="5.95762">
        <ele>414.60000610352</ele>
        <time>2021-01-18T12:26:56.000Z</time>
      </trkpt>
      <trkpt lat="43.73312" lon="5.95773">
        <ele>414.39999389648</ele>
        <time>2021-01-18T12:26:58.000Z</time>
      </trkpt>
      <trkpt lat="43.73311" lon="5.9578">
        <ele>414.39999389648</ele>
        <time>2021-01-18T12:26:59.000Z</time>
      </trkpt>
      <trkpt lat="43.73308" lon="5.95785">
        <ele>414.39999389648</ele>
        <time>2021-01-18T12:27:00.000Z</time>
      </trkpt>
      <trkpt lat="43.73304" lon="5.95796">
        <ele>414.20001220703</ele>
        <time>2021-01-18T12:27:02.000Z</time>
      </trkpt>
      <trkpt lat="43.73302" lon="5.95802">
        <ele>414</ele>
        <time>2021-01-18T12:27:03.000Z</time>
      </trkpt>
      <trkpt lat="43.73301" lon="5.95822">
        <ele>413</ele>
        <time>2021-01-18T12:27:06.000Z</time>
      </trkpt>
      <trkpt lat="43.73299" lon="5.95827">
        <ele>412.79998779297</ele>
        <time>2021-01-18T12:27:07.000Z</time>
      </trkpt>
      <trkpt lat="43.73293" lon="5.95836">
        <ele>412.20001220703</ele>
        <time>2021-01-18T12:27:09.000Z</time>
      </trkpt>
      <trkpt lat="43.73291" lon="5.95841">
        <ele>412</ele>
        <time>2021-01-18T12:27:10.000Z</time>
      </trkpt>
      <trkpt lat="43.73289" lon="5.95847">
        <ele>411.20001220703</ele>
        <time>2021-01-18T12:27:11.000Z</time>
      </trkpt>
      <trkpt lat="43.73287" lon="5.95859">
        <ele>410</ele>
        <time>2021-01-18T12:27:13.000Z</time>
      </trkpt>
      <trkpt lat="43.7329" lon="5.95884">
        <ele>409.39999389648</ele>
        <time>2021-01-18T12:27:17.000Z</time>
      </trkpt>
      <trkpt lat="43.7329" lon="5.95896">
        <ele>409.20001220703</ele>
        <time>2021-01-18T12:27:19.000Z</time>
      </trkpt>
      <trkpt lat="43.73289" lon="5.95902">
        <ele>409</ele>
        <time>2021-01-18T12:27:20.000Z</time>
      </trkpt>
      <trkpt lat="43.73287" lon="5.95911">
        <ele>408.79998779297</ele>
        <time>2021-01-18T12:27:22.000Z</time>
      </trkpt>
      <trkpt lat="43.73282" lon="5.95923">
        <ele>408</ele>
        <time>2021-01-18T12:27:25.000Z</time>
      </trkpt>
      <trkpt lat="43.7328" lon="5.95929">
        <ele>408</ele>
        <time>2021-01-18T12:27:26.000Z</time>
      </trkpt>
      <trkpt lat="43.73276" lon="5.95948">
        <ele>407.60000610352</ele>
        <time>2021-01-18T12:27:29.000Z</time>
      </trkpt>
      <trkpt lat="43.73275" lon="5.95977">
        <ele>406.79998779297</ele>
        <time>2021-01-18T12:27:33.000Z</time>
      </trkpt>
      <trkpt lat="43.73275" lon="5.95988">
        <ele>405.60000610352</ele>
        <time>2021-01-18T12:27:35.000Z</time>
      </trkpt>
      <trkpt lat="43.73276" lon="5.95999">
        <ele>404.39999389648</ele>
        <time>2021-01-18T12:27:37.000Z</time>
      </trkpt>
      <trkpt lat="43.73276" lon="5.96009">
        <ele>404</ele>
        <time>2021-01-18T12:27:39.000Z</time>
      </trkpt>
      <trkpt lat="43.73277" lon="5.96014">
        <ele>404</ele>
        <time>2021-01-18T12:27:40.000Z</time>
      </trkpt>
      <trkpt lat="43.73279" lon="5.96026">
        <ele>403.79998779297</ele>
        <time>2021-01-18T12:27:42.000Z</time>
      </trkpt>
      <trkpt lat="43.73279" lon="5.96038">
        <ele>403.79998779297</ele>
        <time>2021-01-18T12:27:44.000Z</time>
      </trkpt>
      <trkpt lat="43.73279" lon="5.96062">
        <ele>403.79998779297</ele>
        <time>2021-01-18T12:27:48.000Z</time>
      </trkpt>
      <trkpt lat="43.73275" lon="5.96073">
        <ele>403.79998779297</ele>
        <time>2021-01-18T12:27:50.000Z</time>
      </trkpt>
      <trkpt lat="43.73268" lon="5.96082">
        <ele>403.79998779297</ele>
        <time>2021-01-18T12:27:52.000Z</time>
      </trkpt>
      <trkpt lat="43.73266" lon="5.96087">
        <ele>403.79998779297</ele>
        <time>2021-01-18T12:27:53.000Z</time>
      </trkpt>
      <trkpt lat="43.73264" lon="5.96093">
        <ele>403.79998779297</ele>
        <time>2021-01-18T12:27:54.000Z</time>
      </trkpt>
      <trkpt lat="43.73265" lon="5.96112">
        <ele>403.20001220703</ele>
        <time>2021-01-18T12:27:57.000Z</time>
      </trkpt>
      <trkpt lat="43.73265" lon="5.96117">
        <ele>402.39999389648</ele>
        <time>2021-01-18T12:28:00.000Z</time>
      </trkpt>
      <trkpt lat="43.73265" lon="5.96117">
        <ele>402.20001220703</ele>
        <time>2021-01-18T12:28:01.000Z</time>
      </trkpt>
      <trkpt lat="43.73265" lon="5.96115">
        <ele>401.60000610352</ele>
        <time>2021-01-18T12:28:11.000Z</time>
      </trkpt>
      <trkpt lat="43.73266" lon="5.96115">
        <ele>401.60000610352</ele>
        <time>2021-01-18T12:28:20.000Z</time>
      </trkpt>
      <trkpt lat="43.73265" lon="5.9612">
        <ele>401.60000610352</ele>
        <time>2021-01-18T12:28:28.000Z</time>
      </trkpt>
      <trkpt lat="43.73264" lon="5.96123">
        <ele>401.39999389648</ele>
        <time>2021-01-18T12:28:29.000Z</time>
      </trkpt>
      <trkpt lat="43.73255" lon="5.96131">
        <ele>401.39999389648</ele>
        <time>2021-01-18T12:28:32.000Z</time>
      </trkpt>
      <trkpt lat="43.73251" lon="5.96132">
        <ele>401.39999389648</ele>
        <time>2021-01-18T12:28:36.000Z</time>
      </trkpt>
      <trkpt lat="43.7325" lon="5.96132">
        <ele>400.39999389648</ele>
        <time>2021-01-18T12:28:39.000Z</time>
      </trkpt>
      <trkpt lat="43.73249" lon="5.96133">
        <ele>400.20001220703</ele>
        <time>2021-01-18T12:28:41.000Z</time>
      </trkpt>
      <trkpt lat="43.73246" lon="5.96136">
        <ele>400.20001220703</ele>
        <time>2021-01-18T12:28:43.000Z</time>
      </trkpt>
      <trkpt lat="43.73237" lon="5.96144">
        <ele>400.20001220703</ele>
        <time>2021-01-18T12:28:46.000Z</time>
      </trkpt>
      <trkpt lat="43.73234" lon="5.96147">
        <ele>400.20001220703</ele>
        <time>2021-01-18T12:28:47.000Z</time>
      </trkpt>
      <trkpt lat="43.73219" lon="5.96154">
        <ele>400</ele>
        <time>2021-01-18T12:28:51.000Z</time>
      </trkpt>
      <trkpt lat="43.73213" lon="5.96151">
        <ele>399.20001220703</ele>
        <time>2021-01-18T12:28:54.000Z</time>
      </trkpt>
      <trkpt lat="43.73209" lon="5.9615">
        <ele>398.60000610352</ele>
        <time>2021-01-18T12:28:56.000Z</time>
      </trkpt>
      <trkpt lat="43.73206" lon="5.9615">
        <ele>398.39999389648</ele>
        <time>2021-01-18T12:28:58.000Z</time>
      </trkpt>
      <trkpt lat="43.73197" lon="5.96149">
        <ele>398.39999389648</ele>
        <time>2021-01-18T12:29:02.000Z</time>
      </trkpt>
      <trkpt lat="43.73181" lon="5.96142">
        <ele>398.60000610352</ele>
        <time>2021-01-18T12:29:09.000Z</time>
      </trkpt>
      <trkpt lat="43.73166" lon="5.96136">
        <ele>400.60000610352</ele>
        <time>2021-01-18T12:29:16.000Z</time>
      </trkpt>
      <trkpt lat="43.73159" lon="5.96133">
        <ele>401.39999389648</ele>
        <time>2021-01-18T12:29:19.000Z</time>
      </trkpt>
      <trkpt lat="43.73157" lon="5.96132">
        <ele>401.79998779297</ele>
        <time>2021-01-18T12:29:20.000Z</time>
      </trkpt>
      <trkpt lat="43.73155" lon="5.96131">
        <ele>402.20001220703</ele>
        <time>2021-01-18T12:29:21.000Z</time>
      </trkpt>
      <trkpt lat="43.73148" lon="5.96129">
        <ele>403</ele>
        <time>2021-01-18T12:29:24.000Z</time>
      </trkpt>
      <trkpt lat="43.7314" lon="5.96125">
        <ele>404.20001220703</ele>
        <time>2021-01-18T12:29:28.000Z</time>
      </trkpt>
      <trkpt lat="43.73138" lon="5.96124">
        <ele>404.60000610352</ele>
        <time>2021-01-18T12:29:29.000Z</time>
      </trkpt>
      <trkpt lat="43.73135" lon="5.96123">
        <ele>405.39999389648</ele>
        <time>2021-01-18T12:29:31.000Z</time>
      </trkpt>
      <trkpt lat="43.73133" lon="5.96122">
        <ele>406.39999389648</ele>
        <time>2021-01-18T12:29:33.000Z</time>
      </trkpt>
      <trkpt lat="43.7313" lon="5.96121">
        <ele>407.20001220703</ele>
        <time>2021-01-18T12:29:35.000Z</time>
      </trkpt>
      <trkpt lat="43.73128" lon="5.9612">
        <ele>407.60000610352</ele>
        <time>2021-01-18T12:29:36.000Z</time>
      </trkpt>
      <trkpt lat="43.73119" lon="5.96117">
        <ele>408.79998779297</ele>
        <time>2021-01-18T12:29:40.000Z</time>
      </trkpt>
      <trkpt lat="43.73105" lon="5.96112">
        <ele>410</ele>
        <time>2021-01-18T12:29:45.000Z</time>
      </trkpt>
      <trkpt lat="43.73093" lon="5.96109">
        <ele>410.79998779297</ele>
        <time>2021-01-18T12:29:50.000Z</time>
      </trkpt>
      <trkpt lat="43.7309" lon="5.96109">
        <ele>411</ele>
        <time>2021-01-18T12:29:52.000Z</time>
      </trkpt>
      <trkpt lat="43.73083" lon="5.96109">
        <ele>411.79998779297</ele>
        <time>2021-01-18T12:29:56.000Z</time>
      </trkpt>
      <trkpt lat="43.7308" lon="5.96109">
        <ele>412.20001220703</ele>
        <time>2021-01-18T12:29:58.000Z</time>
      </trkpt>
      <trkpt lat="43.73077" lon="5.96113">
        <ele>412.60000610352</ele>
        <time>2021-01-18T12:30:00.000Z</time>
      </trkpt>
      <trkpt lat="43.73074" lon="5.96115">
        <ele>412.79998779297</ele>
        <time>2021-01-18T12:30:01.000Z</time>
      </trkpt>
      <trkpt lat="43.73069" lon="5.96117">
        <ele>413</ele>
        <time>2021-01-18T12:30:03.000Z</time>
      </trkpt>
      <trkpt lat="43.73066" lon="5.96119">
        <ele>413.39999389648</ele>
        <time>2021-01-18T12:30:04.000Z</time>
      </trkpt>
      <trkpt lat="43.73063" lon="5.9612">
        <ele>413.60000610352</ele>
        <time>2021-01-18T12:30:05.000Z</time>
      </trkpt>
      <trkpt lat="43.73051" lon="5.96117">
        <ele>414.39999389648</ele>
        <time>2021-01-18T12:30:10.000Z</time>
      </trkpt>
      <trkpt lat="43.73035" lon="5.96112">
        <ele>415.60000610352</ele>
        <time>2021-01-18T12:30:16.000Z</time>
      </trkpt>
      <trkpt lat="43.73032" lon="5.9611">
        <ele>416</ele>
        <time>2021-01-18T12:30:17.000Z</time>
      </trkpt>
      <trkpt lat="43.73027" lon="5.96107">
        <ele>416.79998779297</ele>
        <time>2021-01-18T12:30:19.000Z</time>
      </trkpt>
      <trkpt lat="43.73017" lon="5.96101">
        <ele>418</ele>
        <time>2021-01-18T12:30:23.000Z</time>
      </trkpt>
      <trkpt lat="43.73012" lon="5.96097">
        <ele>418.39999389648</ele>
        <time>2021-01-18T12:30:25.000Z</time>
      </trkpt>
      <trkpt lat="43.73004" lon="5.96093">
        <ele>419.60000610352</ele>
        <time>2021-01-18T12:30:28.000Z</time>
      </trkpt>
      <trkpt lat="43.7299" lon="5.96088">
        <ele>420.60000610352</ele>
        <time>2021-01-18T12:30:33.000Z</time>
      </trkpt>
      <trkpt lat="43.72964" lon="5.9608">
        <ele>421.79998779297</ele>
        <time>2021-01-18T12:30:41.000Z</time>
      </trkpt>
      <trkpt lat="43.72945" lon="5.96074">
        <ele>422.60000610352</ele>
        <time>2021-01-18T12:30:48.000Z</time>
      </trkpt>
      <trkpt lat="43.7294" lon="5.96072">
        <ele>423</ele>
        <time>2021-01-18T12:30:50.000Z</time>
      </trkpt>
      <trkpt lat="43.72926" lon="5.96067">
        <ele>424.39999389648</ele>
        <time>2021-01-18T12:30:55.000Z</time>
      </trkpt>
      <trkpt lat="43.72924" lon="5.96066">
        <ele>424.60000610352</ele>
        <time>2021-01-18T12:30:56.000Z</time>
      </trkpt>
      <trkpt lat="43.72911" lon="5.96061">
        <ele>425.39999389648</ele>
        <time>2021-01-18T12:31:01.000Z</time>
      </trkpt>
      <trkpt lat="43.72905" lon="5.9606">
        <ele>425.60000610352</ele>
        <time>2021-01-18T12:31:03.000Z</time>
      </trkpt>
      <trkpt lat="43.72888" lon="5.96054">
        <ele>426.60000610352</ele>
        <time>2021-01-18T12:31:10.000Z</time>
      </trkpt>
      <trkpt lat="43.72872" lon="5.96049">
        <ele>427.60000610352</ele>
        <time>2021-01-18T12:31:16.000Z</time>
      </trkpt>
      <trkpt lat="43.72865" lon="5.96046">
        <ele>428.20001220703</ele>
        <time>2021-01-18T12:31:19.000Z</time>
      </trkpt>
      <trkpt lat="43.7286" lon="5.96044">
        <ele>428.79998779297</ele>
        <time>2021-01-18T12:31:21.000Z</time>
      </trkpt>
      <trkpt lat="43.72855" lon="5.96042">
        <ele>429.60000610352</ele>
        <time>2021-01-18T12:31:25.000Z</time>
      </trkpt>
      <trkpt lat="43.72854" lon="5.96042">
        <ele>429.79998779297</ele>
        <time>2021-01-18T12:31:26.000Z</time>
      </trkpt>
      <trkpt lat="43.72844" lon="5.96038">
        <ele>430.79998779297</ele>
        <time>2021-01-18T12:31:32.000Z</time>
      </trkpt>
      <trkpt lat="43.72842" lon="5.96038">
        <ele>431</ele>
        <time>2021-01-18T12:31:33.000Z</time>
      </trkpt>
      <trkpt lat="43.72832" lon="5.96032">
        <ele>431.79998779297</ele>
        <time>2021-01-18T12:31:40.000Z</time>
      </trkpt>
      <trkpt lat="43.72825" lon="5.96029">
        <ele>432.79998779297</ele>
        <time>2021-01-18T12:31:47.000Z</time>
      </trkpt>
      <trkpt lat="43.72825" lon="5.96029">
        <ele>432.79998779297</ele>
        <time>2021-01-18T12:31:48.000Z</time>
      </trkpt>
      <trkpt lat="43.7282" lon="5.96026">
        <ele>433.39999389648</ele>
        <time>2021-01-18T12:31:53.000Z</time>
      </trkpt>
      <trkpt lat="43.7282" lon="5.96024">
        <ele>433.60000610352</ele>
        <time>2021-01-18T12:31:54.000Z</time>
      </trkpt>
      <trkpt lat="43.72819" lon="5.96015">
        <ele>433.79998779297</ele>
        <time>2021-01-18T12:31:58.000Z</time>
      </trkpt>
      <trkpt lat="43.72819" lon="5.96013">
        <ele>433.79998779297</ele>
        <time>2021-01-18T12:31:59.000Z</time>
      </trkpt>
      <trkpt lat="43.72818" lon="5.96011">
        <ele>433.79998779297</ele>
        <time>2021-01-18T12:32:00.000Z</time>
      </trkpt>
      <trkpt lat="43.72818" lon="5.96007">
        <ele>434</ele>
        <time>2021-01-18T12:32:02.000Z</time>
      </trkpt>
      <trkpt lat="43.72817" lon="5.96003">
        <ele>434.39999389648</ele>
        <time>2021-01-18T12:32:04.000Z</time>
      </trkpt>
      <trkpt lat="43.72816" lon="5.96">
        <ele>435</ele>
        <time>2021-01-18T12:32:05.000Z</time>
      </trkpt>
      <trkpt lat="43.72816" lon="5.95998">
        <ele>435.60000610352</ele>
        <time>2021-01-18T12:32:06.000Z</time>
      </trkpt>
      <trkpt lat="43.72815" lon="5.95997">
        <ele>436.20001220703</ele>
        <time>2021-01-18T12:32:07.000Z</time>
      </trkpt>
      <trkpt lat="43.72812" lon="5.95992">
        <ele>437</ele>
        <time>2021-01-18T12:32:10.000Z</time>
      </trkpt>
      <trkpt lat="43.72811" lon="5.95991">
        <ele>437.60000610352</ele>
        <time>2021-01-18T12:32:11.000Z</time>
      </trkpt>
      <trkpt lat="43.7281" lon="5.95989">
        <ele>438.20001220703</ele>
        <time>2021-01-18T12:32:12.000Z</time>
      </trkpt>
      <trkpt lat="43.72809" lon="5.95984">
        <ele>439.39999389648</ele>
        <time>2021-01-18T12:32:15.000Z</time>
      </trkpt>
      <trkpt lat="43.72809" lon="5.95981">
        <ele>440</ele>
        <time>2021-01-18T12:32:16.000Z</time>
      </trkpt>
      <trkpt lat="43.72808" lon="5.95979">
        <ele>440.60000610352</ele>
        <time>2021-01-18T12:32:17.000Z</time>
      </trkpt>
      <trkpt lat="43.72807" lon="5.95975">
        <ele>442</ele>
        <time>2021-01-18T12:32:19.000Z</time>
      </trkpt>
      <trkpt lat="43.72806" lon="5.95973">
        <ele>442.39999389648</ele>
        <time>2021-01-18T12:32:20.000Z</time>
      </trkpt>
      <trkpt lat="43.72805" lon="5.9597">
        <ele>443.39999389648</ele>
        <time>2021-01-18T12:32:22.000Z</time>
      </trkpt>
      <trkpt lat="43.72804" lon="5.95968">
        <ele>443.79998779297</ele>
        <time>2021-01-18T12:32:23.000Z</time>
      </trkpt>
      <trkpt lat="43.72804" lon="5.95963">
        <ele>444.79998779297</ele>
        <time>2021-01-18T12:32:25.000Z</time>
      </trkpt>
      <trkpt lat="43.72803" lon="5.95959">
        <ele>445.60000610352</ele>
        <time>2021-01-18T12:32:27.000Z</time>
      </trkpt>
      <trkpt lat="43.72801" lon="5.95958">
        <ele>446.20001220703</ele>
        <time>2021-01-18T12:32:28.000Z</time>
      </trkpt>
      <trkpt lat="43.72797" lon="5.95956">
        <ele>447.39999389648</ele>
        <time>2021-01-18T12:32:31.000Z</time>
      </trkpt>
      <trkpt lat="43.72797" lon="5.95955">
        <ele>448.79998779297</ele>
        <time>2021-01-18T12:32:35.000Z</time>
      </trkpt>
      <trkpt lat="43.72797" lon="5.95955">
        <ele>449.79998779297</ele>
        <time>2021-01-18T12:32:42.000Z</time>
      </trkpt>
      <trkpt lat="43.72797" lon="5.95955">
        <ele>449.79998779297</ele>
        <time>2021-01-18T12:32:43.000Z</time>
      </trkpt>
      <trkpt lat="43.72793" lon="5.95953">
        <ele>449.79998779297</ele>
        <time>2021-01-18T12:32:54.000Z</time>
      </trkpt>
      <trkpt lat="43.72791" lon="5.95952">
        <ele>449.79998779297</ele>
        <time>2021-01-18T12:33:01.000Z</time>
      </trkpt>
      <trkpt lat="43.72784" lon="5.9595">
        <ele>450</ele>
        <time>2021-01-18T12:33:06.000Z</time>
      </trkpt>
      <trkpt lat="43.72783" lon="5.95949">
        <ele>450</ele>
        <time>2021-01-18T12:33:07.000Z</time>
      </trkpt>
      <trkpt lat="43.72778" lon="5.95943">
        <ele>450</ele>
        <time>2021-01-18T12:33:13.000Z</time>
      </trkpt>
      <trkpt lat="43.72783" lon="5.95941">
        <ele>450.20001220703</ele>
        <time>2021-01-18T12:33:15.000Z</time>
      </trkpt>
      <trkpt lat="43.72796" lon="5.95934">
        <ele>450.79998779297</ele>
        <time>2021-01-18T12:33:19.000Z</time>
      </trkpt>
      <trkpt lat="43.728" lon="5.95932">
        <ele>450.79998779297</ele>
        <time>2021-01-18T12:33:20.000Z</time>
      </trkpt>
      <trkpt lat="43.72812" lon="5.95922">
        <ele>451.60000610352</ele>
        <time>2021-01-18T12:33:24.000Z</time>
      </trkpt>
      <trkpt lat="43.72834" lon="5.95911">
        <ele>452</ele>
        <time>2021-01-18T12:33:31.000Z</time>
      </trkpt>
      <trkpt lat="43.72851" lon="5.959">
        <ele>453</ele>
        <time>2021-01-18T12:33:37.000Z</time>
      </trkpt>
      <trkpt lat="43.72858" lon="5.95889">
        <ele>454.20001220703</ele>
        <time>2021-01-18T12:33:40.000Z</time>
      </trkpt>
      <trkpt lat="43.7286" lon="5.95885">
        <ele>454.60000610352</ele>
        <time>2021-01-18T12:33:41.000Z</time>
      </trkpt>
      <trkpt lat="43.72862" lon="5.95882">
        <ele>454.79998779297</ele>
        <time>2021-01-18T12:33:42.000Z</time>
      </trkpt>
      <trkpt lat="43.72866" lon="5.9587">
        <ele>455.20001220703</ele>
        <time>2021-01-18T12:33:45.000Z</time>
      </trkpt>
      <trkpt lat="43.72867" lon="5.95861">
        <ele>455.60000610352</ele>
        <time>2021-01-18T12:33:47.000Z</time>
      </trkpt>
      <trkpt lat="43.72867" lon="5.95852">
        <ele>456.20001220703</ele>
        <time>2021-01-18T12:33:49.000Z</time>
      </trkpt>
      <trkpt lat="43.72868" lon="5.95849">
        <ele>456.39999389648</ele>
        <time>2021-01-18T12:33:50.000Z</time>
      </trkpt>
      <trkpt lat="43.7287" lon="5.95845">
        <ele>456.60000610352</ele>
        <time>2021-01-18T12:33:51.000Z</time>
      </trkpt>
      <trkpt lat="43.72878" lon="5.95831">
        <ele>457.79998779297</ele>
        <time>2021-01-18T12:33:56.000Z</time>
      </trkpt>
      <trkpt lat="43.72881" lon="5.95829">
        <ele>458</ele>
        <time>2021-01-18T12:33:57.000Z</time>
      </trkpt>
      <trkpt lat="43.7289" lon="5.95819">
        <ele>458.79998779297</ele>
        <time>2021-01-18T12:34:01.000Z</time>
      </trkpt>
      <trkpt lat="43.72893" lon="5.95812">
        <ele>459.39999389648</ele>
        <time>2021-01-18T12:34:03.000Z</time>
      </trkpt>
      <trkpt lat="43.72897" lon="5.95801">
        <ele>460</ele>
        <time>2021-01-18T12:34:06.000Z</time>
      </trkpt>
      <trkpt lat="43.72903" lon="5.95793">
        <ele>461</ele>
        <time>2021-01-18T12:34:09.000Z</time>
      </trkpt>
      <trkpt lat="43.72905" lon="5.95791">
        <ele>461.20001220703</ele>
        <time>2021-01-18T12:34:10.000Z</time>
      </trkpt>
      <trkpt lat="43.72915" lon="5.95786">
        <ele>462.39999389648</ele>
        <time>2021-01-18T12:34:14.000Z</time>
      </trkpt>
      <trkpt lat="43.72917" lon="5.95785">
        <ele>462.60000610352</ele>
        <time>2021-01-18T12:34:15.000Z</time>
      </trkpt>
      <trkpt lat="43.72924" lon="5.9578">
        <ele>463.60000610352</ele>
        <time>2021-01-18T12:34:18.000Z</time>
      </trkpt>
      <trkpt lat="43.72932" lon="5.95772">
        <ele>464.60000610352</ele>
        <time>2021-01-18T12:34:22.000Z</time>
      </trkpt>
      <trkpt lat="43.72941" lon="5.9576">
        <ele>465.79998779297</ele>
        <time>2021-01-18T12:34:27.000Z</time>
      </trkpt>
      <trkpt lat="43.72944" lon="5.95757">
        <ele>466</ele>
        <time>2021-01-18T12:34:28.000Z</time>
      </trkpt>
      <trkpt lat="43.7295" lon="5.9575">
        <ele>467</ele>
        <time>2021-01-18T12:34:31.000Z</time>
      </trkpt>
      <trkpt lat="43.72954" lon="5.95743">
        <ele>468</ele>
        <time>2021-01-18T12:34:34.000Z</time>
      </trkpt>
      <trkpt lat="43.72956" lon="5.9574">
        <ele>468.39999389648</ele>
        <time>2021-01-18T12:34:35.000Z</time>
      </trkpt>
      <trkpt lat="43.72957" lon="5.95738">
        <ele>469.20001220703</ele>
        <time>2021-01-18T12:34:36.000Z</time>
      </trkpt>
      <trkpt lat="43.72957" lon="5.95734">
        <ele>469.39999389648</ele>
        <time>2021-01-18T12:34:37.000Z</time>
      </trkpt>
      <trkpt lat="43.72957" lon="5.95731">
        <ele>469.79998779297</ele>
        <time>2021-01-18T12:34:38.000Z</time>
      </trkpt>
      <trkpt lat="43.72956" lon="5.95724">
        <ele>470.60000610352</ele>
        <time>2021-01-18T12:34:40.000Z</time>
      </trkpt>
      <trkpt lat="43.72955" lon="5.95721">
        <ele>471</ele>
        <time>2021-01-18T12:34:41.000Z</time>
      </trkpt>
      <trkpt lat="43.72952" lon="5.95716">
        <ele>471.60000610352</ele>
        <time>2021-01-18T12:34:43.000Z</time>
      </trkpt>
      <trkpt lat="43.7295" lon="5.95714">
        <ele>472</ele>
        <time>2021-01-18T12:34:44.000Z</time>
      </trkpt>
      <trkpt lat="43.72947" lon="5.95712">
        <ele>473</ele>
        <time>2021-01-18T12:34:46.000Z</time>
      </trkpt>
      <trkpt lat="43.72941" lon="5.95708">
        <ele>474.39999389648</ele>
        <time>2021-01-18T12:34:49.000Z</time>
      </trkpt>
      <trkpt lat="43.72939" lon="5.95706">
        <ele>475</ele>
        <time>2021-01-18T12:34:50.000Z</time>
      </trkpt>
      <trkpt lat="43.72937" lon="5.95705">
        <ele>475.60000610352</ele>
        <time>2021-01-18T12:34:51.000Z</time>
      </trkpt>
      <trkpt lat="43.72932" lon="5.95702">
        <ele>476.60000610352</ele>
        <time>2021-01-18T12:34:53.000Z</time>
      </trkpt>
      <trkpt lat="43.72925" lon="5.95699">
        <ele>478</ele>
        <time>2021-01-18T12:34:56.000Z</time>
      </trkpt>
      <trkpt lat="43.72917" lon="5.95698">
        <ele>479</ele>
        <time>2021-01-18T12:34:59.000Z</time>
      </trkpt>
      <trkpt lat="43.72901" lon="5.95697">
        <ele>480.39999389648</ele>
        <time>2021-01-18T12:35:03.000Z</time>
      </trkpt>
      <trkpt lat="43.72877" lon="5.95692">
        <ele>481.39999389648</ele>
        <time>2021-01-18T12:35:09.000Z</time>
      </trkpt>
      <trkpt lat="43.72868" lon="5.95689">
        <ele>481.60000610352</ele>
        <time>2021-01-18T12:35:12.000Z</time>
      </trkpt>
      <trkpt lat="43.72861" lon="5.95688">
        <ele>481.60000610352</ele>
        <time>2021-01-18T12:35:15.000Z</time>
      </trkpt>
      <trkpt lat="43.72845" lon="5.95683">
        <ele>482.79998779297</ele>
        <time>2021-01-18T12:35:21.000Z</time>
      </trkpt>
      <trkpt lat="43.72843" lon="5.95682">
        <ele>482.79998779297</ele>
        <time>2021-01-18T12:35:22.000Z</time>
      </trkpt>
      <trkpt lat="43.72832" lon="5.9568">
        <ele>483.79998779297</ele>
        <time>2021-01-18T12:35:27.000Z</time>
      </trkpt>
      <trkpt lat="43.72824" lon="5.95677">
        <ele>484.39999389648</ele>
        <time>2021-01-18T12:35:30.000Z</time>
      </trkpt>
      <trkpt lat="43.72822" lon="5.95677">
        <ele>484.79998779297</ele>
        <time>2021-01-18T12:35:31.000Z</time>
      </trkpt>
      <trkpt lat="43.72804" lon="5.9567">
        <ele>485.60000610352</ele>
        <time>2021-01-18T12:35:38.000Z</time>
      </trkpt>
      <trkpt lat="43.72796" lon="5.95667">
        <ele>486</ele>
        <time>2021-01-18T12:35:41.000Z</time>
      </trkpt>
      <trkpt lat="43.72788" lon="5.95664">
        <ele>486.39999389648</ele>
        <time>2021-01-18T12:35:44.000Z</time>
      </trkpt>
      <trkpt lat="43.72779" lon="5.95662">
        <ele>486.79998779297</ele>
        <time>2021-01-18T12:35:47.000Z</time>
      </trkpt>
      <trkpt lat="43.72773" lon="5.95664">
        <ele>487</ele>
        <time>2021-01-18T12:35:49.000Z</time>
      </trkpt>
      <trkpt lat="43.72769" lon="5.95664">
        <ele>487</ele>
        <time>2021-01-18T12:35:50.000Z</time>
      </trkpt>
      <trkpt lat="43.72757" lon="5.95661">
        <ele>487</ele>
        <time>2021-01-18T12:35:54.000Z</time>
      </trkpt>
      <trkpt lat="43.72749" lon="5.9566">
        <ele>487</ele>
        <time>2021-01-18T12:35:57.000Z</time>
      </trkpt>
      <trkpt lat="43.72747" lon="5.9566">
        <ele>487</ele>
        <time>2021-01-18T12:35:58.000Z</time>
      </trkpt>
      <trkpt lat="43.72744" lon="5.9566">
        <ele>487</ele>
        <time>2021-01-18T12:35:59.000Z</time>
      </trkpt>
      <trkpt lat="43.72731" lon="5.95657">
        <ele>486.60000610352</ele>
        <time>2021-01-18T12:36:03.000Z</time>
      </trkpt>
      <trkpt lat="43.72726" lon="5.95657">
        <ele>486.60000610352</ele>
        <time>2021-01-18T12:36:04.000Z</time>
      </trkpt>
      <trkpt lat="43.72711" lon="5.95658">
        <ele>486.20001220703</ele>
        <time>2021-01-18T12:36:07.000Z</time>
      </trkpt>
      <trkpt lat="43.72706" lon="5.95657">
        <ele>486.20001220703</ele>
        <time>2021-01-18T12:36:08.000Z</time>
      </trkpt>
      <trkpt lat="43.72701" lon="5.95654">
        <ele>486</ele>
        <time>2021-01-18T12:36:09.000Z</time>
      </trkpt>
      <trkpt lat="43.72694" lon="5.95647">
        <ele>485.39999389648</ele>
        <time>2021-01-18T12:36:11.000Z</time>
      </trkpt>
      <trkpt lat="43.72689" lon="5.95643">
        <ele>485</ele>
        <time>2021-01-18T12:36:14.000Z</time>
      </trkpt>
      <trkpt lat="43.72686" lon="5.95642">
        <ele>484.79998779297</ele>
        <time>2021-01-18T12:36:15.000Z</time>
      </trkpt>
      <trkpt lat="43.72672" lon="5.95637">
        <ele>484.79998779297</ele>
        <time>2021-01-18T12:36:20.000Z</time>
      </trkpt>
      <trkpt lat="43.72653" lon="5.95631">
        <ele>486</ele>
        <time>2021-01-18T12:36:26.000Z</time>
      </trkpt>
      <trkpt lat="43.7265" lon="5.9563">
        <ele>486.39999389648</ele>
        <time>2021-01-18T12:36:27.000Z</time>
      </trkpt>
      <trkpt lat="43.72641" lon="5.9562">
        <ele>487.20001220703</ele>
        <time>2021-01-18T12:36:31.000Z</time>
      </trkpt>
      <trkpt lat="43.7264" lon="5.95617">
        <ele>487.20001220703</ele>
        <time>2021-01-18T12:36:32.000Z</time>
      </trkpt>
      <trkpt lat="43.72639" lon="5.95608">
        <ele>487.39999389648</ele>
        <time>2021-01-18T12:36:34.000Z</time>
      </trkpt>
      <trkpt lat="43.72638" lon="5.95604">
        <ele>487.60000610352</ele>
        <time>2021-01-18T12:36:35.000Z</time>
      </trkpt>
      <trkpt lat="43.72636" lon="5.95599">
        <ele>487.60000610352</ele>
        <time>2021-01-18T12:36:36.000Z</time>
      </trkpt>
      <trkpt lat="43.72623" lon="5.95571">
        <ele>488.79998779297</ele>
        <time>2021-01-18T12:36:42.000Z</time>
      </trkpt>
      <trkpt lat="43.72614" lon="5.9556">
        <ele>489</ele>
        <time>2021-01-18T12:36:45.000Z</time>
      </trkpt>
      <trkpt lat="43.72611" lon="5.95557">
        <ele>489.20001220703</ele>
        <time>2021-01-18T12:36:46.000Z</time>
      </trkpt>
      <trkpt lat="43.72603" lon="5.95547">
        <ele>489.79998779297</ele>
        <time>2021-01-18T12:36:49.000Z</time>
      </trkpt>
      <trkpt lat="43.72598" lon="5.95539">
        <ele>491</ele>
        <time>2021-01-18T12:36:51.000Z</time>
      </trkpt>
      <trkpt lat="43.72597" lon="5.95534">
        <ele>491.20001220703</ele>
        <time>2021-01-18T12:36:52.000Z</time>
      </trkpt>
      <trkpt lat="43.72597" lon="5.95523">
        <ele>491.79998779297</ele>
        <time>2021-01-18T12:36:54.000Z</time>
      </trkpt>
      <trkpt lat="43.72596" lon="5.95518">
        <ele>492</ele>
        <time>2021-01-18T12:36:55.000Z</time>
      </trkpt>
      <trkpt lat="43.72591" lon="5.95502">
        <ele>492.39999389648</ele>
        <time>2021-01-18T12:36:58.000Z</time>
      </trkpt>
      <trkpt lat="43.72585" lon="5.95489">
        <ele>493.39999389648</ele>
        <time>2021-01-18T12:37:01.000Z</time>
      </trkpt>
      <trkpt lat="43.72581" lon="5.95479">
        <ele>494</ele>
        <time>2021-01-18T12:37:03.000Z</time>
      </trkpt>
      <trkpt lat="43.72575" lon="5.95468">
        <ele>494.60000610352</ele>
        <time>2021-01-18T12:37:05.000Z</time>
      </trkpt>
      <trkpt lat="43.72573" lon="5.95463">
        <ele>494.79998779297</ele>
        <time>2021-01-18T12:37:06.000Z</time>
      </trkpt>
      <trkpt lat="43.72568" lon="5.95452">
        <ele>495</ele>
        <time>2021-01-18T12:37:08.000Z</time>
      </trkpt>
      <trkpt lat="43.72555" lon="5.95422">
        <ele>495</ele>
        <time>2021-01-18T12:37:13.000Z</time>
      </trkpt>
      <trkpt lat="43.72552" lon="5.95416">
        <ele>495</ele>
        <time>2021-01-18T12:37:14.000Z</time>
      </trkpt>
      <trkpt lat="43.72545" lon="5.95401">
        <ele>495</ele>
        <time>2021-01-18T12:37:17.000Z</time>
      </trkpt>
      <trkpt lat="43.72542" lon="5.95389">
        <ele>495</ele>
        <time>2021-01-18T12:37:19.000Z</time>
      </trkpt>
      <trkpt lat="43.7254" lon="5.95383">
        <ele>495</ele>
        <time>2021-01-18T12:37:20.000Z</time>
      </trkpt>
      <trkpt lat="43.72535" lon="5.95362">
        <ele>495.20001220703</ele>
        <time>2021-01-18T12:37:24.000Z</time>
      </trkpt>
      <trkpt lat="43.72535" lon="5.9536">
        <ele>495.39999389648</ele>
        <time>2021-01-18T12:37:27.000Z</time>
      </trkpt>
      <trkpt lat="43.72534" lon="5.95359">
        <ele>495.79998779297</ele>
        <time>2021-01-18T12:37:29.000Z</time>
      </trkpt>
      <trkpt lat="43.72535" lon="5.95359">
        <ele>497</ele>
        <time>2021-01-18T12:37:41.000Z</time>
      </trkpt>
      <trkpt lat="43.72535" lon="5.95359">
        <ele>497</ele>
        <time>2021-01-18T12:37:44.000Z</time>
      </trkpt>
      <trkpt lat="43.72535" lon="5.95359">
        <ele>497</ele>
        <time>2021-01-18T12:37:55.000Z</time>
      </trkpt>
      <trkpt lat="43.72535" lon="5.95359">
        <ele>497</ele>
        <time>2021-01-18T12:38:21.000Z</time>
      </trkpt>
      <trkpt lat="43.72535" lon="5.95359">
        <ele>496.79998779297</ele>
        <time>2021-01-18T12:38:39.000Z</time>
      </trkpt>
      <trkpt lat="43.72533" lon="5.95358">
        <ele>496.79998779297</ele>
        <time>2021-01-18T12:38:53.000Z</time>
      </trkpt>
      <trkpt lat="43.72531" lon="5.95358">
        <ele>496.79998779297</ele>
        <time>2021-01-18T12:38:54.000Z</time>
      </trkpt>
      <trkpt lat="43.72521" lon="5.95353">
        <ele>496.60000610352</ele>
        <time>2021-01-18T12:38:58.000Z</time>
      </trkpt>
      <trkpt lat="43.72519" lon="5.95351">
        <ele>496.60000610352</ele>
        <time>2021-01-18T12:38:59.000Z</time>
      </trkpt>
      <trkpt lat="43.72503" lon="5.9534">
        <ele>496.60000610352</ele>
        <time>2021-01-18T12:39:04.000Z</time>
      </trkpt>
      <trkpt lat="43.72485" lon="5.95324">
        <ele>496.79998779297</ele>
        <time>2021-01-18T12:39:10.000Z</time>
      </trkpt>
      <trkpt lat="43.72479" lon="5.9532">
        <ele>497</ele>
        <time>2021-01-18T12:39:12.000Z</time>
      </trkpt>
      <trkpt lat="43.72468" lon="5.95313">
        <ele>497.39999389648</ele>
        <time>2021-01-18T12:39:16.000Z</time>
      </trkpt>
      <trkpt lat="43.72458" lon="5.95313">
        <ele>498.20001220703</ele>
        <time>2021-01-18T12:39:19.000Z</time>
      </trkpt>
      <trkpt lat="43.72454" lon="5.95314">
        <ele>498.20001220703</ele>
        <time>2021-01-18T12:39:20.000Z</time>
      </trkpt>
      <trkpt lat="43.72438" lon="5.95314">
        <ele>499.39999389648</ele>
        <time>2021-01-18T12:39:24.000Z</time>
      </trkpt>
      <trkpt lat="43.72435" lon="5.95312">
        <ele>499.60000610352</ele>
        <time>2021-01-18T12:39:25.000Z</time>
      </trkpt>
      <trkpt lat="43.72433" lon="5.9531">
        <ele>499.79998779297</ele>
        <time>2021-01-18T12:39:26.000Z</time>
      </trkpt>
      <trkpt lat="43.72434" lon="5.95304">
        <ele>500</ele>
        <time>2021-01-18T12:39:28.000Z</time>
      </trkpt>
      <trkpt lat="43.72438" lon="5.95292">
        <ele>500.60000610352</ele>
        <time>2021-01-18T12:39:31.000Z</time>
      </trkpt>
      <trkpt lat="43.72441" lon="5.95288">
        <ele>501</ele>
        <time>2021-01-18T12:39:32.000Z</time>
      </trkpt>
      <trkpt lat="43.72447" lon="5.95274">
        <ele>501.79998779297</ele>
        <time>2021-01-18T12:39:35.000Z</time>
      </trkpt>
      <trkpt lat="43.72447" lon="5.9527">
        <ele>502</ele>
        <time>2021-01-18T12:39:36.000Z</time>
      </trkpt>
      <trkpt lat="43.72443" lon="5.95266">
        <ele>502.20001220703</ele>
        <time>2021-01-18T12:39:39.000Z</time>
      </trkpt>
      <trkpt lat="43.7244" lon="5.95267">
        <ele>502.39999389648</ele>
        <time>2021-01-18T12:39:40.000Z</time>
      </trkpt>
      <trkpt lat="43.72429" lon="5.95273">
        <ele>502.60000610352</ele>
        <time>2021-01-18T12:39:44.000Z</time>
      </trkpt>
      <trkpt lat="43.72426" lon="5.95274">
        <ele>502.79998779297</ele>
        <time>2021-01-18T12:39:45.000Z</time>
      </trkpt>
      <trkpt lat="43.72409" lon="5.95277">
        <ele>503.60000610352</ele>
        <time>2021-01-18T12:39:50.000Z</time>
      </trkpt>
      <trkpt lat="43.72406" lon="5.95277">
        <ele>504</ele>
        <time>2021-01-18T12:39:51.000Z</time>
      </trkpt>
      <trkpt lat="43.72393" lon="5.95274">
        <ele>505.20001220703</ele>
        <time>2021-01-18T12:39:55.000Z</time>
      </trkpt>
      <trkpt lat="43.72389" lon="5.95273">
        <ele>505.39999389648</ele>
        <time>2021-01-18T12:39:56.000Z</time>
      </trkpt>
      <trkpt lat="43.72379" lon="5.95272">
        <ele>506.39999389648</ele>
        <time>2021-01-18T12:40:00.000Z</time>
      </trkpt>
      <trkpt lat="43.72375" lon="5.95272">
        <ele>507</ele>
        <time>2021-01-18T12:40:02.000Z</time>
      </trkpt>
      <trkpt lat="43.7237" lon="5.95272">
        <ele>507.60000610352</ele>
        <time>2021-01-18T12:40:04.000Z</time>
      </trkpt>
      <trkpt lat="43.72368" lon="5.95271">
        <ele>508.20001220703</ele>
        <time>2021-01-18T12:40:05.000Z</time>
      </trkpt>
      <trkpt lat="43.72362" lon="5.9527">
        <ele>508.60000610352</ele>
        <time>2021-01-18T12:40:07.000Z</time>
      </trkpt>
      <trkpt lat="43.72359" lon="5.9527">
        <ele>508.79998779297</ele>
        <time>2021-01-18T12:40:08.000Z</time>
      </trkpt>
      <trkpt lat="43.72347" lon="5.95268">
        <ele>509.60000610352</ele>
        <time>2021-01-18T12:40:12.000Z</time>
      </trkpt>
      <trkpt lat="43.72334" lon="5.95265">
        <ele>510.60000610352</ele>
        <time>2021-01-18T12:40:16.000Z</time>
      </trkpt>
      <trkpt lat="43.72331" lon="5.95265">
        <ele>510.79998779297</ele>
        <time>2021-01-18T12:40:17.000Z</time>
      </trkpt>
      <trkpt lat="43.7232" lon="5.95256">
        <ele>511.79998779297</ele>
        <time>2021-01-18T12:40:22.000Z</time>
      </trkpt>
      <trkpt lat="43.72316" lon="5.95244">
        <ele>513.20001220703</ele>
        <time>2021-01-18T12:40:26.000Z</time>
      </trkpt>
      <trkpt lat="43.72315" lon="5.95237">
        <ele>513.79998779297</ele>
        <time>2021-01-18T12:40:28.000Z</time>
      </trkpt>
      <trkpt lat="43.72314" lon="5.95233">
        <ele>514.20001220703</ele>
        <time>2021-01-18T12:40:29.000Z</time>
      </trkpt>
      <trkpt lat="43.72311" lon="5.95218">
        <ele>515.20001220703</ele>
        <time>2021-01-18T12:40:33.000Z</time>
      </trkpt>
      <trkpt lat="43.7231" lon="5.95213">
        <ele>515.40002441406</ele>
        <time>2021-01-18T12:40:34.000Z</time>
      </trkpt>
      <trkpt lat="43.72298" lon="5.952">
        <ele>515.79998779297</ele>
        <time>2021-01-18T12:40:38.000Z</time>
      </trkpt>
      <trkpt lat="43.72275" lon="5.95189">
        <ele>516</ele>
        <time>2021-01-18T12:40:44.000Z</time>
      </trkpt>
      <trkpt lat="43.72255" lon="5.95184">
        <ele>516</ele>
        <time>2021-01-18T12:40:49.000Z</time>
      </trkpt>
      <trkpt lat="43.72235" lon="5.95191">
        <ele>516.20001220703</ele>
        <time>2021-01-18T12:40:55.000Z</time>
      </trkpt>
      <trkpt lat="43.72228" lon="5.95195">
        <ele>516.59997558594</ele>
        <time>2021-01-18T12:40:57.000Z</time>
      </trkpt>
      <trkpt lat="43.7221" lon="5.95206">
        <ele>517.59997558594</ele>
        <time>2021-01-18T12:41:02.000Z</time>
      </trkpt>
      <trkpt lat="43.72202" lon="5.9521">
        <ele>517.79998779297</ele>
        <time>2021-01-18T12:41:04.000Z</time>
      </trkpt>
      <trkpt lat="43.72184" lon="5.9522">
        <ele>518.79998779297</ele>
        <time>2021-01-18T12:41:09.000Z</time>
      </trkpt>
      <trkpt lat="43.72178" lon="5.95223">
        <ele>519.40002441406</ele>
        <time>2021-01-18T12:41:11.000Z</time>
      </trkpt>
      <trkpt lat="43.72171" lon="5.95226">
        <ele>520</ele>
        <time>2021-01-18T12:41:13.000Z</time>
      </trkpt>
      <trkpt lat="43.72153" lon="5.9524">
        <ele>520.20001220703</ele>
        <time>2021-01-18T12:41:19.000Z</time>
      </trkpt>
      <trkpt lat="43.72148" lon="5.95256">
        <ele>520.20001220703</ele>
        <time>2021-01-18T12:41:23.000Z</time>
      </trkpt>
      <trkpt lat="43.72152" lon="5.95276">
        <ele>520.20001220703</ele>
        <time>2021-01-18T12:41:27.000Z</time>
      </trkpt>
      <trkpt lat="43.72165" lon="5.95302">
        <ele>520.59997558594</ele>
        <time>2021-01-18T12:41:33.000Z</time>
      </trkpt>
      <trkpt lat="43.72167" lon="5.95306">
        <ele>521</ele>
        <time>2021-01-18T12:41:34.000Z</time>
      </trkpt>
      <trkpt lat="43.72181" lon="5.95325">
        <ele>522</ele>
        <time>2021-01-18T12:41:40.000Z</time>
      </trkpt>
      <trkpt lat="43.72194" lon="5.95345">
        <ele>523.40002441406</ele>
        <time>2021-01-18T12:41:47.000Z</time>
      </trkpt>
      <trkpt lat="43.72199" lon="5.95355">
        <ele>524.40002441406</ele>
        <time>2021-01-18T12:41:50.000Z</time>
      </trkpt>
      <trkpt lat="43.72201" lon="5.95366">
        <ele>525.40002441406</ele>
        <time>2021-01-18T12:41:53.000Z</time>
      </trkpt>
      <trkpt lat="43.72201" lon="5.9537">
        <ele>525.79998779297</ele>
        <time>2021-01-18T12:41:54.000Z</time>
      </trkpt>
      <trkpt lat="43.722" lon="5.95386">
        <ele>527</ele>
        <time>2021-01-18T12:41:59.000Z</time>
      </trkpt>
      <trkpt lat="43.72194" lon="5.95385">
        <ele>528.20001220703</ele>
        <time>2021-01-18T12:42:02.000Z</time>
      </trkpt>
      <trkpt lat="43.72191" lon="5.95379">
        <ele>529</ele>
        <time>2021-01-18T12:42:04.000Z</time>
      </trkpt>
      <trkpt lat="43.72189" lon="5.95377">
        <ele>529.40002441406</ele>
        <time>2021-01-18T12:42:05.000Z</time>
      </trkpt>
      <trkpt lat="43.72185" lon="5.95372">
        <ele>530.20001220703</ele>
        <time>2021-01-18T12:42:07.000Z</time>
      </trkpt>
      <trkpt lat="43.72181" lon="5.95369">
        <ele>530.59997558594</ele>
        <time>2021-01-18T12:42:09.000Z</time>
      </trkpt>
      <trkpt lat="43.72167" lon="5.95363">
        <ele>531.40002441406</ele>
        <time>2021-01-18T12:42:15.000Z</time>
      </trkpt>
      <trkpt lat="43.72161" lon="5.95361">
        <ele>532</ele>
        <time>2021-01-18T12:42:17.000Z</time>
      </trkpt>
      <trkpt lat="43.72149" lon="5.95357">
        <ele>533</ele>
        <time>2021-01-18T12:42:21.000Z</time>
      </trkpt>
      <trkpt lat="43.72143" lon="5.95356">
        <ele>533.59997558594</ele>
        <time>2021-01-18T12:42:23.000Z</time>
      </trkpt>
      <trkpt lat="43.72134" lon="5.95351">
        <ele>534.20001220703</ele>
        <time>2021-01-18T12:42:26.000Z</time>
      </trkpt>
      <trkpt lat="43.72129" lon="5.95346">
        <ele>534.59997558594</ele>
        <time>2021-01-18T12:42:28.000Z</time>
      </trkpt>
      <trkpt lat="43.72122" lon="5.95339">
        <ele>535.20001220703</ele>
        <time>2021-01-18T12:42:31.000Z</time>
      </trkpt>
      <trkpt lat="43.72114" lon="5.95332">
        <ele>535.79998779297</ele>
        <time>2021-01-18T12:42:35.000Z</time>
      </trkpt>
      <trkpt lat="43.72109" lon="5.95328">
        <ele>536.20001220703</ele>
        <time>2021-01-18T12:42:37.000Z</time>
      </trkpt>
      <trkpt lat="43.72102" lon="5.95315">
        <ele>537.20001220703</ele>
        <time>2021-01-18T12:42:41.000Z</time>
      </trkpt>
      <trkpt lat="43.72097" lon="5.95301">
        <ele>538.40002441406</ele>
        <time>2021-01-18T12:42:45.000Z</time>
      </trkpt>
      <trkpt lat="43.72094" lon="5.95294">
        <ele>539.20001220703</ele>
        <time>2021-01-18T12:42:47.000Z</time>
      </trkpt>
      <trkpt lat="43.72093" lon="5.95287">
        <ele>540.40002441406</ele>
        <time>2021-01-18T12:42:49.000Z</time>
      </trkpt>
      <trkpt lat="43.7209" lon="5.95274">
        <ele>541.59997558594</ele>
        <time>2021-01-18T12:42:53.000Z</time>
      </trkpt>
      <trkpt lat="43.72089" lon="5.9527">
        <ele>542</ele>
        <time>2021-01-18T12:42:54.000Z</time>
      </trkpt>
      <trkpt lat="43.72085" lon="5.9526">
        <ele>543</ele>
        <time>2021-01-18T12:42:57.000Z</time>
      </trkpt>
      <trkpt lat="43.72081" lon="5.95251">
        <ele>544.20001220703</ele>
        <time>2021-01-18T12:43:00.000Z</time>
      </trkpt>
      <trkpt lat="43.72076" lon="5.95237">
        <ele>545.20001220703</ele>
        <time>2021-01-18T12:43:04.000Z</time>
      </trkpt>
      <trkpt lat="43.72071" lon="5.95226">
        <ele>546.20001220703</ele>
        <time>2021-01-18T12:43:07.000Z</time>
      </trkpt>
      <trkpt lat="43.7207" lon="5.95223">
        <ele>546.59997558594</ele>
        <time>2021-01-18T12:43:08.000Z</time>
      </trkpt>
      <trkpt lat="43.72064" lon="5.95213">
        <ele>547.59997558594</ele>
        <time>2021-01-18T12:43:11.000Z</time>
      </trkpt>
      <trkpt lat="43.7206" lon="5.95208">
        <ele>548.20001220703</ele>
        <time>2021-01-18T12:43:13.000Z</time>
      </trkpt>
      <trkpt lat="43.72058" lon="5.95206">
        <ele>548.59997558594</ele>
        <time>2021-01-18T12:43:14.000Z</time>
      </trkpt>
      <trkpt lat="43.72052" lon="5.95197">
        <ele>550</ele>
        <time>2021-01-18T12:43:17.000Z</time>
      </trkpt>
      <trkpt lat="43.72044" lon="5.95188">
        <ele>551.20001220703</ele>
        <time>2021-01-18T12:43:20.000Z</time>
      </trkpt>
      <trkpt lat="43.72034" lon="5.95178">
        <ele>552.40002441406</ele>
        <time>2021-01-18T12:43:24.000Z</time>
      </trkpt>
      <trkpt lat="43.72027" lon="5.95173">
        <ele>553.40002441406</ele>
        <time>2021-01-18T12:43:27.000Z</time>
      </trkpt>
      <trkpt lat="43.72014" lon="5.9517">
        <ele>554.59997558594</ele>
        <time>2021-01-18T12:43:32.000Z</time>
      </trkpt>
      <trkpt lat="43.72012" lon="5.95171">
        <ele>554.79998779297</ele>
        <time>2021-01-18T12:43:33.000Z</time>
      </trkpt>
      <trkpt lat="43.72003" lon="5.95175">
        <ele>555.59997558594</ele>
        <time>2021-01-18T12:43:36.000Z</time>
      </trkpt>
      <trkpt lat="43.71994" lon="5.95176">
        <ele>556.40002441406</ele>
        <time>2021-01-18T12:43:39.000Z</time>
      </trkpt>
      <trkpt lat="43.71992" lon="5.95176">
        <ele>556.79998779297</ele>
        <time>2021-01-18T12:43:40.000Z</time>
      </trkpt>
      <trkpt lat="43.71982" lon="5.95168">
        <ele>557.59997558594</ele>
        <time>2021-01-18T12:43:44.000Z</time>
      </trkpt>
      <trkpt lat="43.7198" lon="5.95165">
        <ele>558</ele>
        <time>2021-01-18T12:43:45.000Z</time>
      </trkpt>
      <trkpt lat="43.71968" lon="5.95152">
        <ele>559</ele>
        <time>2021-01-18T12:43:50.000Z</time>
      </trkpt>
      <trkpt lat="43.71952" lon="5.95132">
        <ele>560</ele>
        <time>2021-01-18T12:43:56.000Z</time>
      </trkpt>
      <trkpt lat="43.71951" lon="5.95128">
        <ele>560.20001220703</ele>
        <time>2021-01-18T12:43:57.000Z</time>
      </trkpt>
      <trkpt lat="43.71941" lon="5.95114">
        <ele>560.59997558594</ele>
        <time>2021-01-18T12:44:01.000Z</time>
      </trkpt>
      <trkpt lat="43.71936" lon="5.95108">
        <ele>561.20001220703</ele>
        <time>2021-01-18T12:44:03.000Z</time>
      </trkpt>
      <trkpt lat="43.71928" lon="5.95098">
        <ele>561.79998779297</ele>
        <time>2021-01-18T12:44:06.000Z</time>
      </trkpt>
      <trkpt lat="43.71918" lon="5.95091">
        <ele>562.40002441406</ele>
        <time>2021-01-18T12:44:09.000Z</time>
      </trkpt>
      <trkpt lat="43.71913" lon="5.95086">
        <ele>563</ele>
        <time>2021-01-18T12:44:11.000Z</time>
      </trkpt>
      <trkpt lat="43.71901" lon="5.95076">
        <ele>563.40002441406</ele>
        <time>2021-01-18T12:44:15.000Z</time>
      </trkpt>
      <trkpt lat="43.71889" lon="5.95068">
        <ele>564.40002441406</ele>
        <time>2021-01-18T12:44:19.000Z</time>
      </trkpt>
      <trkpt lat="43.71887" lon="5.95065">
        <ele>564.40002441406</ele>
        <time>2021-01-18T12:44:20.000Z</time>
      </trkpt>
      <trkpt lat="43.71881" lon="5.95053">
        <ele>565</ele>
        <time>2021-01-18T12:44:23.000Z</time>
      </trkpt>
      <trkpt lat="43.71877" lon="5.95041">
        <ele>565.79998779297</ele>
        <time>2021-01-18T12:44:26.000Z</time>
      </trkpt>
      <trkpt lat="43.71874" lon="5.95027">
        <ele>566.40002441406</ele>
        <time>2021-01-18T12:44:29.000Z</time>
      </trkpt>
      <trkpt lat="43.71872" lon="5.95018">
        <ele>567</ele>
        <time>2021-01-18T12:44:31.000Z</time>
      </trkpt>
      <trkpt lat="43.71869" lon="5.95002">
        <ele>567.40002441406</ele>
        <time>2021-01-18T12:44:35.000Z</time>
      </trkpt>
      <trkpt lat="43.71865" lon="5.94986">
        <ele>568.59997558594</ele>
        <time>2021-01-18T12:44:39.000Z</time>
      </trkpt>
      <trkpt lat="43.71862" lon="5.94975">
        <ele>569.20001220703</ele>
        <time>2021-01-18T12:44:42.000Z</time>
      </trkpt>
      <trkpt lat="43.71857" lon="5.94963">
        <ele>569.59997558594</ele>
        <time>2021-01-18T12:44:45.000Z</time>
      </trkpt>
      <trkpt lat="43.71849" lon="5.94949">
        <ele>570.40002441406</ele>
        <time>2021-01-18T12:44:49.000Z</time>
      </trkpt>
      <trkpt lat="43.71847" lon="5.94945">
        <ele>570.79998779297</ele>
        <time>2021-01-18T12:44:50.000Z</time>
      </trkpt>
      <trkpt lat="43.71841" lon="5.94932">
        <ele>572</ele>
        <time>2021-01-18T12:44:54.000Z</time>
      </trkpt>
      <trkpt lat="43.7184" lon="5.94929">
        <ele>572.20001220703</ele>
        <time>2021-01-18T12:44:55.000Z</time>
      </trkpt>
      <trkpt lat="43.71838" lon="5.94912">
        <ele>573</ele>
        <time>2021-01-18T12:44:59.000Z</time>
      </trkpt>
      <trkpt lat="43.71837" lon="5.94901">
        <ele>573.59997558594</ele>
        <time>2021-01-18T12:45:02.000Z</time>
      </trkpt>
      <trkpt lat="43.71838" lon="5.9489">
        <ele>574</ele>
        <time>2021-01-18T12:45:05.000Z</time>
      </trkpt>
      <trkpt lat="43.71841" lon="5.94877">
        <ele>575.20001220703</ele>
        <time>2021-01-18T12:45:08.000Z</time>
      </trkpt>
      <trkpt lat="43.71842" lon="5.94873">
        <ele>575.40002441406</ele>
        <time>2021-01-18T12:45:09.000Z</time>
      </trkpt>
      <trkpt lat="43.71843" lon="5.9486">
        <ele>576.20001220703</ele>
        <time>2021-01-18T12:45:12.000Z</time>
      </trkpt>
      <trkpt lat="43.71843" lon="5.94844">
        <ele>577</ele>
        <time>2021-01-18T12:45:16.000Z</time>
      </trkpt>
      <trkpt lat="43.71844" lon="5.94837">
        <ele>577.40002441406</ele>
        <time>2021-01-18T12:45:18.000Z</time>
      </trkpt>
      <trkpt lat="43.71841" lon="5.94818">
        <ele>578.79998779297</ele>
        <time>2021-01-18T12:45:23.000Z</time>
      </trkpt>
      <trkpt lat="43.71828" lon="5.94797">
        <ele>579.79998779297</ele>
        <time>2021-01-18T12:45:30.000Z</time>
      </trkpt>
      <trkpt lat="43.71826" lon="5.94794">
        <ele>580</ele>
        <time>2021-01-18T12:45:31.000Z</time>
      </trkpt>
      <trkpt lat="43.71821" lon="5.94782">
        <ele>580.79998779297</ele>
        <time>2021-01-18T12:45:36.000Z</time>
      </trkpt>
      <trkpt lat="43.71817" lon="5.94777">
        <ele>581</ele>
        <time>2021-01-18T12:45:40.000Z</time>
      </trkpt>
      <trkpt lat="43.71816" lon="5.94776">
        <ele>581</ele>
        <time>2021-01-18T12:45:41.000Z</time>
      </trkpt>
      <trkpt lat="43.71814" lon="5.94774">
        <ele>581</ele>
        <time>2021-01-18T12:45:45.000Z</time>
      </trkpt>
      <trkpt lat="43.71814" lon="5.94773">
        <ele>580.59997558594</ele>
        <time>2021-01-18T12:45:57.000Z</time>
      </trkpt>
      <trkpt lat="43.71814" lon="5.94774">
        <ele>580.59997558594</ele>
        <time>2021-01-18T12:46:08.000Z</time>
      </trkpt>
      <trkpt lat="43.71814" lon="5.94774">
        <ele>580.59997558594</ele>
        <time>2021-01-18T12:46:37.000Z</time>
      </trkpt>
      <trkpt lat="43.71813" lon="5.94774">
        <ele>580.59997558594</ele>
        <time>2021-01-18T12:47:21.000Z</time>
      </trkpt>
      <trkpt lat="43.71813" lon="5.94774">
        <ele>581</ele>
        <time>2021-01-18T12:47:42.000Z</time>
      </trkpt>
      <trkpt lat="43.71813" lon="5.94774">
        <ele>581</ele>
        <time>2021-01-18T12:48:00.000Z</time>
      </trkpt>
      <trkpt lat="43.71813" lon="5.94773">
        <ele>580.79998779297</ele>
        <time>2021-01-18T12:48:28.000Z</time>
      </trkpt>
      <trkpt lat="43.71807" lon="5.94771">
        <ele>581</ele>
        <time>2021-01-18T12:48:49.000Z</time>
      </trkpt>
      <trkpt lat="43.71804" lon="5.9477">
        <ele>581</ele>
        <time>2021-01-18T12:48:50.000Z</time>
      </trkpt>
      <trkpt lat="43.71792" lon="5.9477">
        <ele>580.79998779297</ele>
        <time>2021-01-18T12:48:53.000Z</time>
      </trkpt>
      <trkpt lat="43.71787" lon="5.94769">
        <ele>580.79998779297</ele>
        <time>2021-01-18T12:48:54.000Z</time>
      </trkpt>
      <trkpt lat="43.71768" lon="5.94766">
        <ele>580.59997558594</ele>
        <time>2021-01-18T12:48:58.000Z</time>
      </trkpt>
      <trkpt lat="43.71765" lon="5.94764">
        <ele>580.20001220703</ele>
        <time>2021-01-18T12:48:59.000Z</time>
      </trkpt>
      <trkpt lat="43.7176" lon="5.94756">
        <ele>579.40002441406</ele>
        <time>2021-01-18T12:49:01.000Z</time>
      </trkpt>
      <trkpt lat="43.71758" lon="5.94751">
        <ele>579</ele>
        <time>2021-01-18T12:49:02.000Z</time>
      </trkpt>
      <trkpt lat="43.71751" lon="5.94741">
        <ele>578</ele>
        <time>2021-01-18T12:49:04.000Z</time>
      </trkpt>
      <trkpt lat="43.71743" lon="5.9473">
        <ele>577.20001220703</ele>
        <time>2021-01-18T12:49:06.000Z</time>
      </trkpt>
      <trkpt lat="43.71738" lon="5.94725">
        <ele>576.59997558594</ele>
        <time>2021-01-18T12:49:07.000Z</time>
      </trkpt>
      <trkpt lat="43.71725" lon="5.94715">
        <ele>575.40002441406</ele>
        <time>2021-01-18T12:49:10.000Z</time>
      </trkpt>
      <trkpt lat="43.71716" lon="5.94707">
        <ele>574.59997558594</ele>
        <time>2021-01-18T12:49:12.000Z</time>
      </trkpt>
      <trkpt lat="43.71711" lon="5.94704">
        <ele>574</ele>
        <time>2021-01-18T12:49:13.000Z</time>
      </trkpt>
      <trkpt lat="43.71706" lon="5.947">
        <ele>572.79998779297</ele>
        <time>2021-01-18T12:49:14.000Z</time>
      </trkpt>
      <trkpt lat="43.71698" lon="5.94693">
        <ele>571.79998779297</ele>
        <time>2021-01-18T12:49:16.000Z</time>
      </trkpt>
      <trkpt lat="43.71693" lon="5.94691">
        <ele>570.79998779297</ele>
        <time>2021-01-18T12:49:17.000Z</time>
      </trkpt>
      <trkpt lat="43.71688" lon="5.9469">
        <ele>570.40002441406</ele>
        <time>2021-01-18T12:49:18.000Z</time>
      </trkpt>
      <trkpt lat="43.71682" lon="5.94691">
        <ele>568.79998779297</ele>
        <time>2021-01-18T12:49:20.000Z</time>
      </trkpt>
      <trkpt lat="43.7168" lon="5.94691">
        <ele>568.40002441406</ele>
        <time>2021-01-18T12:49:21.000Z</time>
      </trkpt>
      <trkpt lat="43.71679" lon="5.9469">
        <ele>567.40002441406</ele>
        <time>2021-01-18T12:49:23.000Z</time>
      </trkpt>
      <trkpt lat="43.71679" lon="5.9469">
        <ele>565.59997558594</ele>
        <time>2021-01-18T12:49:25.000Z</time>
      </trkpt>
      <trkpt lat="43.71679" lon="5.9469">
        <ele>565</ele>
        <time>2021-01-18T12:49:26.000Z</time>
      </trkpt>
      <trkpt lat="43.71679" lon="5.9469">
        <ele>564.59997558594</ele>
        <time>2021-01-18T12:49:27.000Z</time>
      </trkpt>
      <trkpt lat="43.71677" lon="5.94689">
        <ele>563.40002441406</ele>
        <time>2021-01-18T12:49:31.000Z</time>
      </trkpt>
      <trkpt lat="43.71673" lon="5.94686">
        <ele>563.40002441406</ele>
        <time>2021-01-18T12:49:33.000Z</time>
      </trkpt>
      <trkpt lat="43.71661" lon="5.94674">
        <ele>563</ele>
        <time>2021-01-18T12:49:38.000Z</time>
      </trkpt>
      <trkpt lat="43.71654" lon="5.94665">
        <ele>562.59997558594</ele>
        <time>2021-01-18T12:49:41.000Z</time>
      </trkpt>
      <trkpt lat="43.71651" lon="5.94663">
        <ele>562.40002441406</ele>
        <time>2021-01-18T12:49:42.000Z</time>
      </trkpt>
      <trkpt lat="43.71643" lon="5.94663">
        <ele>561.40002441406</ele>
        <time>2021-01-18T12:49:45.000Z</time>
      </trkpt>
      <trkpt lat="43.7164" lon="5.94664">
        <ele>560.79998779297</ele>
        <time>2021-01-18T12:49:46.000Z</time>
      </trkpt>
      <trkpt lat="43.71634" lon="5.94666">
        <ele>560</ele>
        <time>2021-01-18T12:49:48.000Z</time>
      </trkpt>
      <trkpt lat="43.71621" lon="5.94663">
        <ele>558.59997558594</ele>
        <time>2021-01-18T12:49:52.000Z</time>
      </trkpt>
      <trkpt lat="43.71607" lon="5.94651">
        <ele>557.40002441406</ele>
        <time>2021-01-18T12:49:56.000Z</time>
      </trkpt>
      <trkpt lat="43.716" lon="5.94646">
        <ele>556.59997558594</ele>
        <time>2021-01-18T12:49:58.000Z</time>
      </trkpt>
      <trkpt lat="43.71596" lon="5.94644">
        <ele>556.20001220703</ele>
        <time>2021-01-18T12:49:59.000Z</time>
      </trkpt>
      <trkpt lat="43.71588" lon="5.94642">
        <ele>555.40002441406</ele>
        <time>2021-01-18T12:50:01.000Z</time>
      </trkpt>
      <trkpt lat="43.71583" lon="5.94642">
        <ele>555</ele>
        <time>2021-01-18T12:50:02.000Z</time>
      </trkpt>
      <trkpt lat="43.71578" lon="5.94642">
        <ele>555</ele>
        <time>2021-01-18T12:50:03.000Z</time>
      </trkpt>
      <trkpt lat="43.71554" lon="5.94643">
        <ele>554.59997558594</ele>
        <time>2021-01-18T12:50:08.000Z</time>
      </trkpt>
      <trkpt lat="43.71541" lon="5.94646">
        <ele>554.20001220703</ele>
        <time>2021-01-18T12:50:11.000Z</time>
      </trkpt>
      <trkpt lat="43.71536" lon="5.94647">
        <ele>553.79998779297</ele>
        <time>2021-01-18T12:50:12.000Z</time>
      </trkpt>
      <trkpt lat="43.71533" lon="5.94648">
        <ele>553.79998779297</ele>
        <time>2021-01-18T12:50:13.000Z</time>
      </trkpt>
      <trkpt lat="43.71505" lon="5.94651">
        <ele>553.79998779297</ele>
        <time>2021-01-18T12:50:20.000Z</time>
      </trkpt>
      <trkpt lat="43.71491" lon="5.9466">
        <ele>554</ele>
        <time>2021-01-18T12:50:24.000Z</time>
      </trkpt>
      <trkpt lat="43.71487" lon="5.94664">
        <ele>554.40002441406</ele>
        <time>2021-01-18T12:50:25.000Z</time>
      </trkpt>
      <trkpt lat="43.71473" lon="5.94685">
        <ele>555</ele>
        <time>2021-01-18T12:50:30.000Z</time>
      </trkpt>
      <trkpt lat="43.71466" lon="5.94693">
        <ele>555.40002441406</ele>
        <time>2021-01-18T12:50:32.000Z</time>
      </trkpt>
      <trkpt lat="43.71448" lon="5.94711">
        <ele>556</ele>
        <time>2021-01-18T12:50:37.000Z</time>
      </trkpt>
      <trkpt lat="43.71444" lon="5.94713">
        <ele>556</ele>
        <time>2021-01-18T12:50:38.000Z</time>
      </trkpt>
      <trkpt lat="43.71432" lon="5.94715">
        <ele>556.40002441406</ele>
        <time>2021-01-18T12:50:41.000Z</time>
      </trkpt>
      <trkpt lat="43.71425" lon="5.94715">
        <ele>556.79998779297</ele>
        <time>2021-01-18T12:50:43.000Z</time>
      </trkpt>
      <trkpt lat="43.71414" lon="5.94712">
        <ele>557</ele>
        <time>2021-01-18T12:50:46.000Z</time>
      </trkpt>
      <trkpt lat="43.71409" lon="5.94708">
        <ele>557.40002441406</ele>
        <time>2021-01-18T12:50:48.000Z</time>
      </trkpt>
      <trkpt lat="43.71411" lon="5.94701">
        <ele>558</ele>
        <time>2021-01-18T12:50:51.000Z</time>
      </trkpt>
      <trkpt lat="43.71412" lon="5.94698">
        <ele>558</ele>
        <time>2021-01-18T12:50:52.000Z</time>
      </trkpt>
      <trkpt lat="43.71417" lon="5.94695">
        <ele>558.40002441406</ele>
        <time>2021-01-18T12:50:54.000Z</time>
      </trkpt>
      <trkpt lat="43.71422" lon="5.9469">
        <ele>558.40002441406</ele>
        <time>2021-01-18T12:50:56.000Z</time>
      </trkpt>
      <trkpt lat="43.71435" lon="5.94686">
        <ele>559.20001220703</ele>
        <time>2021-01-18T12:51:00.000Z</time>
      </trkpt>
      <trkpt lat="43.71437" lon="5.94681">
        <ele>559.40002441406</ele>
        <time>2021-01-18T12:51:01.000Z</time>
      </trkpt>
      <trkpt lat="43.71442" lon="5.94668">
        <ele>559.79998779297</ele>
        <time>2021-01-18T12:51:04.000Z</time>
      </trkpt>
      <trkpt lat="43.7146" lon="5.94642">
        <ele>560.20001220703</ele>
        <time>2021-01-18T12:51:10.000Z</time>
      </trkpt>
      <trkpt lat="43.71482" lon="5.94609">
        <ele>560.20001220703</ele>
        <time>2021-01-18T12:51:17.000Z</time>
      </trkpt>
      <trkpt lat="43.715" lon="5.94587">
        <ele>560.40002441406</ele>
        <time>2021-01-18T12:51:23.000Z</time>
      </trkpt>
      <trkpt lat="43.71505" lon="5.94578">
        <ele>560.40002441406</ele>
        <time>2021-01-18T12:51:25.000Z</time>
      </trkpt>
      <trkpt lat="43.71514" lon="5.94563">
        <ele>560.40002441406</ele>
        <time>2021-01-18T12:51:28.000Z</time>
      </trkpt>
      <trkpt lat="43.71528" lon="5.9455">
        <ele>560.40002441406</ele>
        <time>2021-01-18T12:51:32.000Z</time>
      </trkpt>
      <trkpt lat="43.71543" lon="5.94541">
        <ele>560.59997558594</ele>
        <time>2021-01-18T12:51:36.000Z</time>
      </trkpt>
      <trkpt lat="43.71554" lon="5.94537">
        <ele>560.59997558594</ele>
        <time>2021-01-18T12:51:39.000Z</time>
      </trkpt>
      <trkpt lat="43.71559" lon="5.94534">
        <ele>560.79998779297</ele>
        <time>2021-01-18T12:51:41.000Z</time>
      </trkpt>
      <trkpt lat="43.7156" lon="5.94529">
        <ele>560.59997558594</ele>
        <time>2021-01-18T12:51:43.000Z</time>
      </trkpt>
      <trkpt lat="43.71554" lon="5.94524">
        <ele>561</ele>
        <time>2021-01-18T12:51:46.000Z</time>
      </trkpt>
      <trkpt lat="43.71548" lon="5.94523">
        <ele>561.59997558594</ele>
        <time>2021-01-18T12:51:48.000Z</time>
      </trkpt>
      <trkpt lat="43.71538" lon="5.94521">
        <ele>563</ele>
        <time>2021-01-18T12:51:51.000Z</time>
      </trkpt>
      <trkpt lat="43.71525" lon="5.94521">
        <ele>564</ele>
        <time>2021-01-18T12:51:55.000Z</time>
      </trkpt>
      <trkpt lat="43.71521" lon="5.94521">
        <ele>564.40002441406</ele>
        <time>2021-01-18T12:51:57.000Z</time>
      </trkpt>
      <trkpt lat="43.71519" lon="5.94521">
        <ele>565.20001220703</ele>
        <time>2021-01-18T12:52:02.000Z</time>
      </trkpt>
      <trkpt lat="43.71518" lon="5.94521">
        <ele>565.40002441406</ele>
        <time>2021-01-18T12:52:03.000Z</time>
      </trkpt>
      <trkpt lat="43.71514" lon="5.9452">
        <ele>566.20001220703</ele>
        <time>2021-01-18T12:52:09.000Z</time>
      </trkpt>
      <trkpt lat="43.71511" lon="5.94519">
        <ele>566.20001220703</ele>
        <time>2021-01-18T12:52:10.000Z</time>
      </trkpt>
      <trkpt lat="43.71501" lon="5.94514">
        <ele>566.40002441406</ele>
        <time>2021-01-18T12:52:13.000Z</time>
      </trkpt>
      <trkpt lat="43.71496" lon="5.94512">
        <ele>566.40002441406</ele>
        <time>2021-01-18T12:52:14.000Z</time>
      </trkpt>
      <trkpt lat="43.71483" lon="5.94504">
        <ele>566.59997558594</ele>
        <time>2021-01-18T12:52:18.000Z</time>
      </trkpt>
      <trkpt lat="43.71484" lon="5.94497">
        <ele>566.79998779297</ele>
        <time>2021-01-18T12:52:21.000Z</time>
      </trkpt>
      <trkpt lat="43.71492" lon="5.94495">
        <ele>567.20001220703</ele>
        <time>2021-01-18T12:52:24.000Z</time>
      </trkpt>
      <trkpt lat="43.71495" lon="5.94494">
        <ele>567.40002441406</ele>
        <time>2021-01-18T12:52:25.000Z</time>
      </trkpt>
      <trkpt lat="43.71501" lon="5.94491">
        <ele>568.40002441406</ele>
        <time>2021-01-18T12:52:27.000Z</time>
      </trkpt>
      <trkpt lat="43.71515" lon="5.94484">
        <ele>569.20001220703</ele>
        <time>2021-01-18T12:52:32.000Z</time>
      </trkpt>
      <trkpt lat="43.71517" lon="5.94483">
        <ele>569.40002441406</ele>
        <time>2021-01-18T12:52:33.000Z</time>
      </trkpt>
      <trkpt lat="43.71529" lon="5.94471">
        <ele>570.59997558594</ele>
        <time>2021-01-18T12:52:38.000Z</time>
      </trkpt>
      <trkpt lat="43.71543" lon="5.94454">
        <ele>571.79998779297</ele>
        <time>2021-01-18T12:52:44.000Z</time>
      </trkpt>
      <trkpt lat="43.71553" lon="5.9444">
        <ele>573.20001220703</ele>
        <time>2021-01-18T12:52:48.000Z</time>
      </trkpt>
      <trkpt lat="43.71557" lon="5.94433">
        <ele>573.59997558594</ele>
        <time>2021-01-18T12:52:50.000Z</time>
      </trkpt>
      <trkpt lat="43.71562" lon="5.94425">
        <ele>574.20001220703</ele>
        <time>2021-01-18T12:52:52.000Z</time>
      </trkpt>
      <trkpt lat="43.71572" lon="5.94408">
        <ele>575.40002441406</ele>
        <time>2021-01-18T12:52:56.000Z</time>
      </trkpt>
      <trkpt lat="43.7158" lon="5.94397">
        <ele>575.79998779297</ele>
        <time>2021-01-18T12:52:59.000Z</time>
      </trkpt>
      <trkpt lat="43.71594" lon="5.94372">
        <ele>576.40002441406</ele>
        <time>2021-01-18T12:53:05.000Z</time>
      </trkpt>
      <trkpt lat="43.716" lon="5.9436">
        <ele>576.59997558594</ele>
        <time>2021-01-18T12:53:08.000Z</time>
      </trkpt>
      <trkpt lat="43.7161" lon="5.94337">
        <ele>577.40002441406</ele>
        <time>2021-01-18T12:53:14.000Z</time>
      </trkpt>
      <trkpt lat="43.71614" lon="5.94329">
        <ele>578.20001220703</ele>
        <time>2021-01-18T12:53:16.000Z</time>
      </trkpt>
      <trkpt lat="43.7162" lon="5.94318">
        <ele>578.59997558594</ele>
        <time>2021-01-18T12:53:19.000Z</time>
      </trkpt>
      <trkpt lat="43.71628" lon="5.94304">
        <ele>579.79998779297</ele>
        <time>2021-01-18T12:53:23.000Z</time>
      </trkpt>
      <trkpt lat="43.71633" lon="5.94293">
        <ele>581</ele>
        <time>2021-01-18T12:53:26.000Z</time>
      </trkpt>
      <trkpt lat="43.71643" lon="5.94274">
        <ele>582.20001220703</ele>
        <time>2021-01-18T12:53:31.000Z</time>
      </trkpt>
      <trkpt lat="43.71646" lon="5.94267">
        <ele>583.20001220703</ele>
        <time>2021-01-18T12:53:33.000Z</time>
      </trkpt>
      <trkpt lat="43.71648" lon="5.94263">
        <ele>583.40002441406</ele>
        <time>2021-01-18T12:53:34.000Z</time>
      </trkpt>
      <trkpt lat="43.7165" lon="5.94259">
        <ele>583.79998779297</ele>
        <time>2021-01-18T12:53:35.000Z</time>
      </trkpt>
      <trkpt lat="43.71656" lon="5.94248">
        <ele>584.59997558594</ele>
        <time>2021-01-18T12:53:38.000Z</time>
      </trkpt>
      <trkpt lat="43.71663" lon="5.94233">
        <ele>585.59997558594</ele>
        <time>2021-01-18T12:53:42.000Z</time>
      </trkpt>
      <trkpt lat="43.71673" lon="5.94215">
        <ele>586.79998779297</ele>
        <time>2021-01-18T12:53:47.000Z</time>
      </trkpt>
      <trkpt lat="43.71679" lon="5.94204">
        <ele>588</ele>
        <time>2021-01-18T12:53:50.000Z</time>
      </trkpt>
      <trkpt lat="43.71682" lon="5.94197">
        <ele>588.40002441406</ele>
        <time>2021-01-18T12:53:52.000Z</time>
      </trkpt>
      <trkpt lat="43.71688" lon="5.94186">
        <ele>589.20001220703</ele>
        <time>2021-01-18T12:53:55.000Z</time>
      </trkpt>
      <trkpt lat="43.71693" lon="5.94175">
        <ele>590.20001220703</ele>
        <time>2021-01-18T12:53:58.000Z</time>
      </trkpt>
      <trkpt lat="43.71697" lon="5.94167">
        <ele>591</ele>
        <time>2021-01-18T12:54:00.000Z</time>
      </trkpt>
      <trkpt lat="43.717" lon="5.94159">
        <ele>591.40002441406</ele>
        <time>2021-01-18T12:54:02.000Z</time>
      </trkpt>
      <trkpt lat="43.71705" lon="5.94148">
        <ele>592.40002441406</ele>
        <time>2021-01-18T12:54:05.000Z</time>
      </trkpt>
      <trkpt lat="43.71712" lon="5.94134">
        <ele>593.40002441406</ele>
        <time>2021-01-18T12:54:09.000Z</time>
      </trkpt>
      <trkpt lat="43.71714" lon="5.94131">
        <ele>593.79998779297</ele>
        <time>2021-01-18T12:54:10.000Z</time>
      </trkpt>
      <trkpt lat="43.71718" lon="5.9412">
        <ele>594.79998779297</ele>
        <time>2021-01-18T12:54:13.000Z</time>
      </trkpt>
      <trkpt lat="43.71719" lon="5.94115">
        <ele>595.40002441406</ele>
        <time>2021-01-18T12:54:14.000Z</time>
      </trkpt>
      <trkpt lat="43.71722" lon="5.94108">
        <ele>596.20001220703</ele>
        <time>2021-01-18T12:54:16.000Z</time>
      </trkpt>
      <trkpt lat="43.71726" lon="5.94098">
        <ele>597.40002441406</ele>
        <time>2021-01-18T12:54:19.000Z</time>
      </trkpt>
      <trkpt lat="43.71731" lon="5.94089">
        <ele>597.79998779297</ele>
        <time>2021-01-18T12:54:22.000Z</time>
      </trkpt>
      <trkpt lat="43.71737" lon="5.94077">
        <ele>598.40002441406</ele>
        <time>2021-01-18T12:54:25.000Z</time>
      </trkpt>
      <trkpt lat="43.71744" lon="5.94064">
        <ele>599.20001220703</ele>
        <time>2021-01-18T12:54:28.000Z</time>
      </trkpt>
      <trkpt lat="43.71748" lon="5.94057">
        <ele>599.59997558594</ele>
        <time>2021-01-18T12:54:30.000Z</time>
      </trkpt>
      <trkpt lat="43.71752" lon="5.94047">
        <ele>600.79998779297</ele>
        <time>2021-01-18T12:54:34.000Z</time>
      </trkpt>
      <trkpt lat="43.71746" lon="5.94038">
        <ele>601.79998779297</ele>
        <time>2021-01-18T12:54:38.000Z</time>
      </trkpt>
      <trkpt lat="43.71745" lon="5.94027">
        <ele>602.59997558594</ele>
        <time>2021-01-18T12:54:42.000Z</time>
      </trkpt>
      <trkpt lat="43.71744" lon="5.94012">
        <ele>602.79998779297</ele>
        <time>2021-01-18T12:54:47.000Z</time>
      </trkpt>
      <trkpt lat="43.71742" lon="5.94009">
        <ele>602.79998779297</ele>
        <time>2021-01-18T12:54:48.000Z</time>
      </trkpt>
      <trkpt lat="43.71729" lon="5.93984">
        <ele>602.79998779297</ele>
        <time>2021-01-18T12:54:52.000Z</time>
      </trkpt>
      <trkpt lat="43.71722" lon="5.93958">
        <ele>602.40002441406</ele>
        <time>2021-01-18T12:54:56.000Z</time>
      </trkpt>
      <trkpt lat="43.71713" lon="5.93935">
        <ele>600.40002441406</ele>
        <time>2021-01-18T12:55:00.000Z</time>
      </trkpt>
      <trkpt lat="43.71711" lon="5.9393">
        <ele>600</ele>
        <time>2021-01-18T12:55:01.000Z</time>
      </trkpt>
      <trkpt lat="43.71708" lon="5.93925">
        <ele>599.40002441406</ele>
        <time>2021-01-18T12:55:02.000Z</time>
      </trkpt>
      <trkpt lat="43.71706" lon="5.9392">
        <ele>599</ele>
        <time>2021-01-18T12:55:03.000Z</time>
      </trkpt>
      <trkpt lat="43.7169" lon="5.93894">
        <ele>598.40002441406</ele>
        <time>2021-01-18T12:55:09.000Z</time>
      </trkpt>
      <trkpt lat="43.71677" lon="5.93886">
        <ele>598.79998779297</ele>
        <time>2021-01-18T12:55:13.000Z</time>
      </trkpt>
      <trkpt lat="43.71651" lon="5.93889">
        <ele>599.20001220703</ele>
        <time>2021-01-18T12:55:18.000Z</time>
      </trkpt>
      <trkpt lat="43.71609" lon="5.93893">
        <ele>598.20001220703</ele>
        <time>2021-01-18T12:55:24.000Z</time>
      </trkpt>
      <trkpt lat="43.71603" lon="5.93895">
        <ele>597.40002441406</ele>
        <time>2021-01-18T12:55:25.000Z</time>
      </trkpt>
      <trkpt lat="43.71594" lon="5.93898">
        <ele>596.40002441406</ele>
        <time>2021-01-18T12:55:27.000Z</time>
      </trkpt>
      <trkpt lat="43.71591" lon="5.93901">
        <ele>595.79998779297</ele>
        <time>2021-01-18T12:55:28.000Z</time>
      </trkpt>
      <trkpt lat="43.71589" lon="5.93904">
        <ele>595</ele>
        <time>2021-01-18T12:55:29.000Z</time>
      </trkpt>
      <trkpt lat="43.71587" lon="5.93908">
        <ele>594</ele>
        <time>2021-01-18T12:55:30.000Z</time>
      </trkpt>
      <trkpt lat="43.71585" lon="5.93911">
        <ele>593.20001220703</ele>
        <time>2021-01-18T12:55:31.000Z</time>
      </trkpt>
      <trkpt lat="43.71583" lon="5.93914">
        <ele>592.20001220703</ele>
        <time>2021-01-18T12:55:32.000Z</time>
      </trkpt>
      <trkpt lat="43.71582" lon="5.93917">
        <ele>591</ele>
        <time>2021-01-18T12:55:33.000Z</time>
      </trkpt>
      <trkpt lat="43.71575" lon="5.93927">
        <ele>589.79998779297</ele>
        <time>2021-01-18T12:55:36.000Z</time>
      </trkpt>
      <trkpt lat="43.7157" lon="5.93934">
        <ele>589.20001220703</ele>
        <time>2021-01-18T12:55:38.000Z</time>
      </trkpt>
      <trkpt lat="43.71567" lon="5.93939">
        <ele>588.59997558594</ele>
        <time>2021-01-18T12:55:39.000Z</time>
      </trkpt>
      <trkpt lat="43.71564" lon="5.93943">
        <ele>588.40002441406</ele>
        <time>2021-01-18T12:55:40.000Z</time>
      </trkpt>
      <trkpt lat="43.71554" lon="5.93954">
        <ele>587.59997558594</ele>
        <time>2021-01-18T12:55:43.000Z</time>
      </trkpt>
      <trkpt lat="43.71552" lon="5.93957">
        <ele>587.20001220703</ele>
        <time>2021-01-18T12:55:44.000Z</time>
      </trkpt>
      <trkpt lat="43.71549" lon="5.9396">
        <ele>587</ele>
        <time>2021-01-18T12:55:45.000Z</time>
      </trkpt>
      <trkpt lat="43.71545" lon="5.93967">
        <ele>586.40002441406</ele>
        <time>2021-01-18T12:55:47.000Z</time>
      </trkpt>
      <trkpt lat="43.71537" lon="5.93979">
        <ele>585.40002441406</ele>
        <time>2021-01-18T12:55:50.000Z</time>
      </trkpt>
      <trkpt lat="43.71526" lon="5.93981">
        <ele>584.79998779297</ele>
        <time>2021-01-18T12:55:53.000Z</time>
      </trkpt>
      <trkpt lat="43.71518" lon="5.93982">
        <ele>584.20001220703</ele>
        <time>2021-01-18T12:55:55.000Z</time>
      </trkpt>
      <trkpt lat="43.71516" lon="5.93982">
        <ele>584</ele>
        <time>2021-01-18T12:55:56.000Z</time>
      </trkpt>
      <trkpt lat="43.71514" lon="5.9398">
        <ele>584</ele>
        <time>2021-01-18T12:55:57.000Z</time>
      </trkpt>
      <trkpt lat="43.71506" lon="5.93971">
        <ele>583.20001220703</ele>
        <time>2021-01-18T12:56:00.000Z</time>
      </trkpt>
      <trkpt lat="43.71501" lon="5.93965">
        <ele>582.79998779297</ele>
        <time>2021-01-18T12:56:02.000Z</time>
      </trkpt>
      <trkpt lat="43.71484" lon="5.93959">
        <ele>581.59997558594</ele>
        <time>2021-01-18T12:56:06.000Z</time>
      </trkpt>
      <trkpt lat="43.71471" lon="5.93954">
        <ele>581</ele>
        <time>2021-01-18T12:56:09.000Z</time>
      </trkpt>
      <trkpt lat="43.71467" lon="5.93952">
        <ele>580.79998779297</ele>
        <time>2021-01-18T12:56:10.000Z</time>
      </trkpt>
      <trkpt lat="43.71462" lon="5.93951">
        <ele>580.20001220703</ele>
        <time>2021-01-18T12:56:11.000Z</time>
      </trkpt>
      <trkpt lat="43.71453" lon="5.9395">
        <ele>578.59997558594</ele>
        <time>2021-01-18T12:56:13.000Z</time>
      </trkpt>
      <trkpt lat="43.71449" lon="5.93951">
        <ele>577.79998779297</ele>
        <time>2021-01-18T12:56:14.000Z</time>
      </trkpt>
      <trkpt lat="43.71443" lon="5.93951">
        <ele>576.79998779297</ele>
        <time>2021-01-18T12:56:15.000Z</time>
      </trkpt>
      <trkpt lat="43.71434" lon="5.93952">
        <ele>574.59997558594</ele>
        <time>2021-01-18T12:56:17.000Z</time>
      </trkpt>
      <trkpt lat="43.7143" lon="5.93953">
        <ele>573.59997558594</ele>
        <time>2021-01-18T12:56:18.000Z</time>
      </trkpt>
      <trkpt lat="43.71425" lon="5.93953">
        <ele>572.79998779297</ele>
        <time>2021-01-18T12:56:19.000Z</time>
      </trkpt>
      <trkpt lat="43.71421" lon="5.93953">
        <ele>571.59997558594</ele>
        <time>2021-01-18T12:56:20.000Z</time>
      </trkpt>
      <trkpt lat="43.71413" lon="5.93954">
        <ele>569.59997558594</ele>
        <time>2021-01-18T12:56:22.000Z</time>
      </trkpt>
      <trkpt lat="43.71403" lon="5.93954">
        <ele>568</ele>
        <time>2021-01-18T12:56:24.000Z</time>
      </trkpt>
      <trkpt lat="43.71396" lon="5.93953">
        <ele>567</ele>
        <time>2021-01-18T12:56:26.000Z</time>
      </trkpt>
      <trkpt lat="43.71393" lon="5.93952">
        <ele>566.20001220703</ele>
        <time>2021-01-18T12:56:27.000Z</time>
      </trkpt>
      <trkpt lat="43.7139" lon="5.93953">
        <ele>565.40002441406</ele>
        <time>2021-01-18T12:56:28.000Z</time>
      </trkpt>
      <trkpt lat="43.71387" lon="5.93954">
        <ele>564.79998779297</ele>
        <time>2021-01-18T12:56:29.000Z</time>
      </trkpt>
      <trkpt lat="43.71385" lon="5.93955">
        <ele>564</ele>
        <time>2021-01-18T12:56:30.000Z</time>
      </trkpt>
      <trkpt lat="43.71383" lon="5.93954">
        <ele>563</ele>
        <time>2021-01-18T12:56:31.000Z</time>
      </trkpt>
      <trkpt lat="43.71381" lon="5.93952">
        <ele>561.79998779297</ele>
        <time>2021-01-18T12:56:32.000Z</time>
      </trkpt>
      <trkpt lat="43.71376" lon="5.93947">
        <ele>559.59997558594</ele>
        <time>2021-01-18T12:56:33.000Z</time>
      </trkpt>
      <trkpt lat="43.71365" lon="5.93941">
        <ele>558</ele>
        <time>2021-01-18T12:56:35.000Z</time>
      </trkpt>
      <trkpt lat="43.7136" lon="5.93941">
        <ele>557.20001220703</ele>
        <time>2021-01-18T12:56:36.000Z</time>
      </trkpt>
      <trkpt lat="43.71355" lon="5.93942">
        <ele>556.20001220703</ele>
        <time>2021-01-18T12:56:37.000Z</time>
      </trkpt>
      <trkpt lat="43.71344" lon="5.93947">
        <ele>554.79998779297</ele>
        <time>2021-01-18T12:56:39.000Z</time>
      </trkpt>
      <trkpt lat="43.71338" lon="5.93951">
        <ele>554</ele>
        <time>2021-01-18T12:56:40.000Z</time>
      </trkpt>
      <trkpt lat="43.71332" lon="5.93955">
        <ele>552.59997558594</ele>
        <time>2021-01-18T12:56:41.000Z</time>
      </trkpt>
      <trkpt lat="43.71324" lon="5.93957">
        <ele>551.40002441406</ele>
        <time>2021-01-18T12:56:42.000Z</time>
      </trkpt>
      <trkpt lat="43.71318" lon="5.93959">
        <ele>550.59997558594</ele>
        <time>2021-01-18T12:56:43.000Z</time>
      </trkpt>
      <trkpt lat="43.71312" lon="5.93961">
        <ele>549.79998779297</ele>
        <time>2021-01-18T12:56:44.000Z</time>
      </trkpt>
      <trkpt lat="43.71299" lon="5.93964">
        <ele>548.59997558594</ele>
        <time>2021-01-18T12:56:46.000Z</time>
      </trkpt>
      <trkpt lat="43.71293" lon="5.93967">
        <ele>548.20001220703</ele>
        <time>2021-01-18T12:56:47.000Z</time>
      </trkpt>
      <trkpt lat="43.71286" lon="5.9397">
        <ele>547.59997558594</ele>
        <time>2021-01-18T12:56:48.000Z</time>
      </trkpt>
      <trkpt lat="43.71272" lon="5.93976">
        <ele>545.79998779297</ele>
        <time>2021-01-18T12:56:50.000Z</time>
      </trkpt>
      <trkpt lat="43.71266" lon="5.93979">
        <ele>544.40002441406</ele>
        <time>2021-01-18T12:56:51.000Z</time>
      </trkpt>
      <trkpt lat="43.7126" lon="5.93983">
        <ele>543.79998779297</ele>
        <time>2021-01-18T12:56:52.000Z</time>
      </trkpt>
      <trkpt lat="43.71253" lon="5.93986">
        <ele>543.20001220703</ele>
        <time>2021-01-18T12:56:53.000Z</time>
      </trkpt>
      <trkpt lat="43.71242" lon="5.93995">
        <ele>541.40002441406</ele>
        <time>2021-01-18T12:56:55.000Z</time>
      </trkpt>
      <trkpt lat="43.71236" lon="5.94002">
        <ele>540.40002441406</ele>
        <time>2021-01-18T12:56:56.000Z</time>
      </trkpt>
      <trkpt lat="43.71231" lon="5.94009">
        <ele>539.20001220703</ele>
        <time>2021-01-18T12:56:57.000Z</time>
      </trkpt>
      <trkpt lat="43.71222" lon="5.94024">
        <ele>537.59997558594</ele>
        <time>2021-01-18T12:56:59.000Z</time>
      </trkpt>
      <trkpt lat="43.71212" lon="5.94037">
        <ele>536.40002441406</ele>
        <time>2021-01-18T12:57:01.000Z</time>
      </trkpt>
      <trkpt lat="43.71206" lon="5.94041">
        <ele>535.59997558594</ele>
        <time>2021-01-18T12:57:02.000Z</time>
      </trkpt>
      <trkpt lat="43.712" lon="5.94045">
        <ele>534.79998779297</ele>
        <time>2021-01-18T12:57:03.000Z</time>
      </trkpt>
      <trkpt lat="43.71188" lon="5.94054">
        <ele>533.20001220703</ele>
        <time>2021-01-18T12:57:05.000Z</time>
      </trkpt>
      <trkpt lat="43.71176" lon="5.94062">
        <ele>531.40002441406</ele>
        <time>2021-01-18T12:57:07.000Z</time>
      </trkpt>
      <trkpt lat="43.71171" lon="5.94068">
        <ele>531</ele>
        <time>2021-01-18T12:57:08.000Z</time>
      </trkpt>
      <trkpt lat="43.71167" lon="5.94076">
        <ele>530.40002441406</ele>
        <time>2021-01-18T12:57:09.000Z</time>
      </trkpt>
      <trkpt lat="43.71159" lon="5.94091">
        <ele>529.79998779297</ele>
        <time>2021-01-18T12:57:11.000Z</time>
      </trkpt>
      <trkpt lat="43.71153" lon="5.94098">
        <ele>529.20001220703</ele>
        <time>2021-01-18T12:57:12.000Z</time>
      </trkpt>
      <trkpt lat="43.71136" lon="5.94103">
        <ele>527.59997558594</ele>
        <time>2021-01-18T12:57:15.000Z</time>
      </trkpt>
      <trkpt lat="43.71126" lon="5.94097">
        <ele>526.40002441406</ele>
        <time>2021-01-18T12:57:17.000Z</time>
      </trkpt>
      <trkpt lat="43.71121" lon="5.94092">
        <ele>525.79998779297</ele>
        <time>2021-01-18T12:57:18.000Z</time>
      </trkpt>
      <trkpt lat="43.71108" lon="5.9408">
        <ele>525.20001220703</ele>
        <time>2021-01-18T12:57:20.000Z</time>
      </trkpt>
      <trkpt lat="43.71102" lon="5.94077">
        <ele>525</ele>
        <time>2021-01-18T12:57:21.000Z</time>
      </trkpt>
      <trkpt lat="43.71096" lon="5.94074">
        <ele>524.40002441406</ele>
        <time>2021-01-18T12:57:22.000Z</time>
      </trkpt>
      <trkpt lat="43.71093" lon="5.94072">
        <ele>523.79998779297</ele>
        <time>2021-01-18T12:57:23.000Z</time>
      </trkpt>
      <trkpt lat="43.71088" lon="5.94065">
        <ele>522.20001220703</ele>
        <time>2021-01-18T12:57:25.000Z</time>
      </trkpt>
      <trkpt lat="43.7108" lon="5.94047">
        <ele>521</ele>
        <time>2021-01-18T12:57:28.000Z</time>
      </trkpt>
      <trkpt lat="43.71078" lon="5.94041">
        <ele>521</ele>
        <time>2021-01-18T12:57:29.000Z</time>
      </trkpt>
      <trkpt lat="43.71075" lon="5.94036">
        <ele>521</ele>
        <time>2021-01-18T12:57:30.000Z</time>
      </trkpt>
      <trkpt lat="43.71069" lon="5.94027">
        <ele>520.79998779297</ele>
        <time>2021-01-18T12:57:32.000Z</time>
      </trkpt>
      <trkpt lat="43.71066" lon="5.94021">
        <ele>521</ele>
        <time>2021-01-18T12:57:35.000Z</time>
      </trkpt>
      <trkpt lat="43.71066" lon="5.9402">
        <ele>522.40002441406</ele>
        <time>2021-01-18T12:57:41.000Z</time>
      </trkpt>
      <trkpt lat="43.71066" lon="5.9402">
        <ele>523.20001220703</ele>
        <time>2021-01-18T12:57:43.000Z</time>
      </trkpt>
      <trkpt lat="43.71065" lon="5.94019">
        <ele>523.40002441406</ele>
        <time>2021-01-18T12:57:58.000Z</time>
      </trkpt>
      <trkpt lat="43.71065" lon="5.94017">
        <ele>523.59997558594</ele>
        <time>2021-01-18T12:58:04.000Z</time>
      </trkpt>
      <trkpt lat="43.71064" lon="5.94011">
        <ele>523.59997558594</ele>
        <time>2021-01-18T12:58:06.000Z</time>
      </trkpt>
      <trkpt lat="43.71058" lon="5.93983">
        <ele>523.59997558594</ele>
        <time>2021-01-18T12:58:11.000Z</time>
      </trkpt>
      <trkpt lat="43.7105" lon="5.93955">
        <ele>523.20001220703</ele>
        <time>2021-01-18T12:58:15.000Z</time>
      </trkpt>
      <trkpt lat="43.71032" lon="5.9391">
        <ele>522.59997558594</ele>
        <time>2021-01-18T12:58:21.000Z</time>
      </trkpt>
      <trkpt lat="43.71029" lon="5.93903">
        <ele>522.40002441406</ele>
        <time>2021-01-18T12:58:22.000Z</time>
      </trkpt>
      <trkpt lat="43.71018" lon="5.93871">
        <ele>521.40002441406</ele>
        <time>2021-01-18T12:58:26.000Z</time>
      </trkpt>
      <trkpt lat="43.71016" lon="5.93864">
        <ele>521</ele>
        <time>2021-01-18T12:58:27.000Z</time>
      </trkpt>
      <trkpt lat="43.71017" lon="5.93845">
        <ele>520</ele>
        <time>2021-01-18T12:58:30.000Z</time>
      </trkpt>
      <trkpt lat="43.7102" lon="5.93842">
        <ele>519.59997558594</ele>
        <time>2021-01-18T12:58:31.000Z</time>
      </trkpt>
      <trkpt lat="43.71029" lon="5.93837">
        <ele>519</ele>
        <time>2021-01-18T12:58:33.000Z</time>
      </trkpt>
      <trkpt lat="43.7104" lon="5.93835">
        <ele>518.79998779297</ele>
        <time>2021-01-18T12:58:35.000Z</time>
      </trkpt>
      <trkpt lat="43.71046" lon="5.93833">
        <ele>518.59997558594</ele>
        <time>2021-01-18T12:58:36.000Z</time>
      </trkpt>
      <trkpt lat="43.71051" lon="5.9383">
        <ele>518.40002441406</ele>
        <time>2021-01-18T12:58:37.000Z</time>
      </trkpt>
      <trkpt lat="43.71067" lon="5.93816">
        <ele>518.20001220703</ele>
        <time>2021-01-18T12:58:40.000Z</time>
      </trkpt>
      <trkpt lat="43.71069" lon="5.93808">
        <ele>517.79998779297</ele>
        <time>2021-01-18T12:58:41.000Z</time>
      </trkpt>
      <trkpt lat="43.71068" lon="5.938">
        <ele>516.79998779297</ele>
        <time>2021-01-18T12:58:42.000Z</time>
      </trkpt>
      <trkpt lat="43.71066" lon="5.93792">
        <ele>516</ele>
        <time>2021-01-18T12:58:43.000Z</time>
      </trkpt>
      <trkpt lat="43.71063" lon="5.93785">
        <ele>515.40002441406</ele>
        <time>2021-01-18T12:58:44.000Z</time>
      </trkpt>
      <trkpt lat="43.71061" lon="5.93772">
        <ele>513.59997558594</ele>
        <time>2021-01-18T12:58:46.000Z</time>
      </trkpt>
      <trkpt lat="43.71061" lon="5.93766">
        <ele>512.59997558594</ele>
        <time>2021-01-18T12:58:47.000Z</time>
      </trkpt>
      <trkpt lat="43.71061" lon="5.93759">
        <ele>511.79998779297</ele>
        <time>2021-01-18T12:58:48.000Z</time>
      </trkpt>
      <trkpt lat="43.71063" lon="5.93738">
        <ele>509.79998779297</ele>
        <time>2021-01-18T12:58:51.000Z</time>
      </trkpt>
      <trkpt lat="43.71065" lon="5.93731">
        <ele>509.39999389648</ele>
        <time>2021-01-18T12:58:52.000Z</time>
      </trkpt>
      <trkpt lat="43.71067" lon="5.93724">
        <ele>509.20001220703</ele>
        <time>2021-01-18T12:58:53.000Z</time>
      </trkpt>
      <trkpt lat="43.71077" lon="5.93694">
        <ele>508.60000610352</ele>
        <time>2021-01-18T12:58:57.000Z</time>
      </trkpt>
      <trkpt lat="43.71079" lon="5.93686">
        <ele>508.39999389648</ele>
        <time>2021-01-18T12:58:58.000Z</time>
      </trkpt>
      <trkpt lat="43.71078" lon="5.93668">
        <ele>507.20001220703</ele>
        <time>2021-01-18T12:59:00.000Z</time>
      </trkpt>
      <trkpt lat="43.71077" lon="5.9366">
        <ele>507</ele>
        <time>2021-01-18T12:59:01.000Z</time>
      </trkpt>
      <trkpt lat="43.71077" lon="5.93652">
        <ele>506.79998779297</ele>
        <time>2021-01-18T12:59:02.000Z</time>
      </trkpt>
      <trkpt lat="43.71077" lon="5.93626">
        <ele>506.60000610352</ele>
        <time>2021-01-18T12:59:05.000Z</time>
      </trkpt>
      <trkpt lat="43.71076" lon="5.93608">
        <ele>506.39999389648</ele>
        <time>2021-01-18T12:59:07.000Z</time>
      </trkpt>
      <trkpt lat="43.71074" lon="5.93591">
        <ele>506.20001220703</ele>
        <time>2021-01-18T12:59:09.000Z</time>
      </trkpt>
      <trkpt lat="43.71073" lon="5.93577">
        <ele>506</ele>
        <time>2021-01-18T12:59:11.000Z</time>
      </trkpt>
      <trkpt lat="43.71081" lon="5.93553">
        <ele>505</ele>
        <time>2021-01-18T12:59:15.000Z</time>
      </trkpt>
      <trkpt lat="43.71083" lon="5.93547">
        <ele>504.60000610352</ele>
        <time>2021-01-18T12:59:16.000Z</time>
      </trkpt>
      <trkpt lat="43.71089" lon="5.93525">
        <ele>503.79998779297</ele>
        <time>2021-01-18T12:59:19.000Z</time>
      </trkpt>
      <trkpt lat="43.71094" lon="5.9351">
        <ele>502.79998779297</ele>
        <time>2021-01-18T12:59:21.000Z</time>
      </trkpt>
      <trkpt lat="43.71097" lon="5.93504">
        <ele>502.39999389648</ele>
        <time>2021-01-18T12:59:22.000Z</time>
      </trkpt>
      <trkpt lat="43.71099" lon="5.93498">
        <ele>502.20001220703</ele>
        <time>2021-01-18T12:59:23.000Z</time>
      </trkpt>
      <trkpt lat="43.71105" lon="5.93479">
        <ele>501.39999389648</ele>
        <time>2021-01-18T12:59:26.000Z</time>
      </trkpt>
      <trkpt lat="43.71111" lon="5.93468">
        <ele>501.39999389648</ele>
        <time>2021-01-18T12:59:28.000Z</time>
      </trkpt>
      <trkpt lat="43.71119" lon="5.93461">
        <ele>501.39999389648</ele>
        <time>2021-01-18T12:59:30.000Z</time>
      </trkpt>
      <trkpt lat="43.71124" lon="5.93454">
        <ele>501.39999389648</ele>
        <time>2021-01-18T12:59:32.000Z</time>
      </trkpt>
      <trkpt lat="43.7113" lon="5.9344">
        <ele>501.39999389648</ele>
        <time>2021-01-18T12:59:35.000Z</time>
      </trkpt>
      <trkpt lat="43.71132" lon="5.93436">
        <ele>501.60000610352</ele>
        <time>2021-01-18T12:59:36.000Z</time>
      </trkpt>
      <trkpt lat="43.71139" lon="5.93428">
        <ele>502.39999389648</ele>
        <time>2021-01-18T12:59:38.000Z</time>
      </trkpt>
      <trkpt lat="43.71147" lon="5.93416">
        <ele>503.79998779297</ele>
        <time>2021-01-18T12:59:40.000Z</time>
      </trkpt>
      <trkpt lat="43.71162" lon="5.93388">
        <ele>504.79998779297</ele>
        <time>2021-01-18T12:59:44.000Z</time>
      </trkpt>
      <trkpt lat="43.71164" lon="5.9338">
        <ele>505</ele>
        <time>2021-01-18T12:59:45.000Z</time>
      </trkpt>
      <trkpt lat="43.71169" lon="5.93352">
        <ele>505.39999389648</ele>
        <time>2021-01-18T12:59:49.000Z</time>
      </trkpt>
      <trkpt lat="43.71169" lon="5.93346">
        <ele>505.39999389648</ele>
        <time>2021-01-18T12:59:50.000Z</time>
      </trkpt>
      <trkpt lat="43.71176" lon="5.9333">
        <ele>505.60000610352</ele>
        <time>2021-01-18T12:59:53.000Z</time>
      </trkpt>
      <trkpt lat="43.71183" lon="5.93312">
        <ele>506</ele>
        <time>2021-01-18T12:59:56.000Z</time>
      </trkpt>
      <trkpt lat="43.71187" lon="5.93301">
        <ele>506.39999389648</ele>
        <time>2021-01-18T12:59:58.000Z</time>
      </trkpt>
      <trkpt lat="43.71194" lon="5.93281">
        <ele>506.79998779297</ele>
        <time>2021-01-18T13:00:02.000Z</time>
      </trkpt>
      <trkpt lat="43.71194" lon="5.93277">
        <ele>507</ele>
        <time>2021-01-18T13:00:03.000Z</time>
      </trkpt>
      <trkpt lat="43.71194" lon="5.93255">
        <ele>507.79998779297</ele>
        <time>2021-01-18T13:00:07.000Z</time>
      </trkpt>
      <trkpt lat="43.71193" lon="5.93249">
        <ele>507.79998779297</ele>
        <time>2021-01-18T13:00:08.000Z</time>
      </trkpt>
      <trkpt lat="43.7118" lon="5.93226">
        <ele>507.79998779297</ele>
        <time>2021-01-18T13:00:12.000Z</time>
      </trkpt>
      <trkpt lat="43.71168" lon="5.93198">
        <ele>507.39999389648</ele>
        <time>2021-01-18T13:00:17.000Z</time>
      </trkpt>
      <trkpt lat="43.71165" lon="5.9319">
        <ele>507</ele>
        <time>2021-01-18T13:00:18.000Z</time>
      </trkpt>
      <trkpt lat="43.7115" lon="5.93167">
        <ele>506.39999389648</ele>
        <time>2021-01-18T13:00:21.000Z</time>
      </trkpt>
      <trkpt lat="43.71147" lon="5.93159">
        <ele>506.20001220703</ele>
        <time>2021-01-18T13:00:22.000Z</time>
      </trkpt>
      <trkpt lat="43.71144" lon="5.93151">
        <ele>506</ele>
        <time>2021-01-18T13:00:23.000Z</time>
      </trkpt>
      <trkpt lat="43.7114" lon="5.93141">
        <ele>505.60000610352</ele>
        <time>2021-01-18T13:00:24.000Z</time>
      </trkpt>
      <trkpt lat="43.71136" lon="5.93132">
        <ele>505.20001220703</ele>
        <time>2021-01-18T13:00:25.000Z</time>
      </trkpt>
      <trkpt lat="43.71132" lon="5.93124">
        <ele>504.79998779297</ele>
        <time>2021-01-18T13:00:26.000Z</time>
      </trkpt>
      <trkpt lat="43.71129" lon="5.93114">
        <ele>504.20001220703</ele>
        <time>2021-01-18T13:00:27.000Z</time>
      </trkpt>
      <trkpt lat="43.71128" lon="5.93104">
        <ele>503.60000610352</ele>
        <time>2021-01-18T13:00:28.000Z</time>
      </trkpt>
      <trkpt lat="43.71125" lon="5.93082">
        <ele>502.20001220703</ele>
        <time>2021-01-18T13:00:30.000Z</time>
      </trkpt>
      <trkpt lat="43.71123" lon="5.93071">
        <ele>501.20001220703</ele>
        <time>2021-01-18T13:00:31.000Z</time>
      </trkpt>
      <trkpt lat="43.71118" lon="5.93053">
        <ele>499.79998779297</ele>
        <time>2021-01-18T13:00:33.000Z</time>
      </trkpt>
      <trkpt lat="43.71109" lon="5.93038">
        <ele>498.79998779297</ele>
        <time>2021-01-18T13:00:36.000Z</time>
      </trkpt>
      <trkpt lat="43.71106" lon="5.93034">
        <ele>498.60000610352</ele>
        <time>2021-01-18T13:00:37.000Z</time>
      </trkpt>
      <trkpt lat="43.71101" lon="5.9302">
        <ele>497.60000610352</ele>
        <time>2021-01-18T13:00:39.000Z</time>
      </trkpt>
      <trkpt lat="43.71098" lon="5.93014">
        <ele>497.20001220703</ele>
        <time>2021-01-18T13:00:40.000Z</time>
      </trkpt>
      <trkpt lat="43.71095" lon="5.93009">
        <ele>496</ele>
        <time>2021-01-18T13:00:41.000Z</time>
      </trkpt>
      <trkpt lat="43.7109" lon="5.93007">
        <ele>495.60000610352</ele>
        <time>2021-01-18T13:00:42.000Z</time>
      </trkpt>
      <trkpt lat="43.71082" lon="5.93003">
        <ele>494.60000610352</ele>
        <time>2021-01-18T13:00:44.000Z</time>
      </trkpt>
      <trkpt lat="43.71076" lon="5.92994">
        <ele>493.39999389648</ele>
        <time>2021-01-18T13:00:46.000Z</time>
      </trkpt>
      <trkpt lat="43.71074" lon="5.92987">
        <ele>492.79998779297</ele>
        <time>2021-01-18T13:00:47.000Z</time>
      </trkpt>
      <trkpt lat="43.7107" lon="5.92981">
        <ele>491.79998779297</ele>
        <time>2021-01-18T13:00:48.000Z</time>
      </trkpt>
      <trkpt lat="43.71062" lon="5.9297">
        <ele>490.39999389648</ele>
        <time>2021-01-18T13:00:50.000Z</time>
      </trkpt>
      <trkpt lat="43.71057" lon="5.9296">
        <ele>489</ele>
        <time>2021-01-18T13:00:52.000Z</time>
      </trkpt>
      <trkpt lat="43.71055" lon="5.92954">
        <ele>488.39999389648</ele>
        <time>2021-01-18T13:00:53.000Z</time>
      </trkpt>
      <trkpt lat="43.71052" lon="5.92947">
        <ele>487.60000610352</ele>
        <time>2021-01-18T13:00:54.000Z</time>
      </trkpt>
      <trkpt lat="43.71047" lon="5.92938">
        <ele>486.39999389648</ele>
        <time>2021-01-18T13:00:56.000Z</time>
      </trkpt>
      <trkpt lat="43.71046" lon="5.92934">
        <ele>485.79998779297</ele>
        <time>2021-01-18T13:00:57.000Z</time>
      </trkpt>
      <trkpt lat="43.71046" lon="5.92929">
        <ele>485.20001220703</ele>
        <time>2021-01-18T13:00:58.000Z</time>
      </trkpt>
      <trkpt lat="43.71047" lon="5.92925">
        <ele>484.79998779297</ele>
        <time>2021-01-18T13:00:59.000Z</time>
      </trkpt>
      <trkpt lat="43.7105" lon="5.9292">
        <ele>484</ele>
        <time>2021-01-18T13:01:00.000Z</time>
      </trkpt>
      <trkpt lat="43.71053" lon="5.92915">
        <ele>483</ele>
        <time>2021-01-18T13:01:01.000Z</time>
      </trkpt>
      <trkpt lat="43.71055" lon="5.92911">
        <ele>482</ele>
        <time>2021-01-18T13:01:02.000Z</time>
      </trkpt>
      <trkpt lat="43.71055" lon="5.92907">
        <ele>481.60000610352</ele>
        <time>2021-01-18T13:01:03.000Z</time>
      </trkpt>
      <trkpt lat="43.71052" lon="5.92899">
        <ele>481</ele>
        <time>2021-01-18T13:01:05.000Z</time>
      </trkpt>
      <trkpt lat="43.7105" lon="5.92895">
        <ele>481</ele>
        <time>2021-01-18T13:01:06.000Z</time>
      </trkpt>
      <trkpt lat="43.71045" lon="5.92885">
        <ele>480.60000610352</ele>
        <time>2021-01-18T13:01:08.000Z</time>
      </trkpt>
      <trkpt lat="43.71041" lon="5.92881">
        <ele>480.20001220703</ele>
        <time>2021-01-18T13:01:09.000Z</time>
      </trkpt>
      <trkpt lat="43.71031" lon="5.92873">
        <ele>480</ele>
        <time>2021-01-18T13:01:12.000Z</time>
      </trkpt>
      <trkpt lat="43.71028" lon="5.92872">
        <ele>480</ele>
        <time>2021-01-18T13:01:13.000Z</time>
      </trkpt>
      <trkpt lat="43.71019" lon="5.92865">
        <ele>480</ele>
        <time>2021-01-18T13:01:18.000Z</time>
      </trkpt>
      <trkpt lat="43.71011" lon="5.9285">
        <ele>481.60000610352</ele>
        <time>2021-01-18T13:01:23.000Z</time>
      </trkpt>
      <trkpt lat="43.71009" lon="5.92841">
        <ele>482.79998779297</ele>
        <time>2021-01-18T13:01:25.000Z</time>
      </trkpt>
      <trkpt lat="43.71006" lon="5.92833">
        <ele>483.79998779297</ele>
        <time>2021-01-18T13:01:27.000Z</time>
      </trkpt>
      <trkpt lat="43.71" lon="5.92819">
        <ele>484.79998779297</ele>
        <time>2021-01-18T13:01:30.000Z</time>
      </trkpt>
      <trkpt lat="43.70992" lon="5.92806">
        <ele>486.20001220703</ele>
        <time>2021-01-18T13:01:33.000Z</time>
      </trkpt>
      <trkpt lat="43.70989" lon="5.928">
        <ele>486.79998779297</ele>
        <time>2021-01-18T13:01:35.000Z</time>
      </trkpt>
      <trkpt lat="43.70988" lon="5.92798">
        <ele>487.20001220703</ele>
        <time>2021-01-18T13:01:36.000Z</time>
      </trkpt>
      <trkpt lat="43.70984" lon="5.92789">
        <ele>487.60000610352</ele>
        <time>2021-01-18T13:01:40.000Z</time>
      </trkpt>
      <trkpt lat="43.70984" lon="5.92787">
        <ele>487.60000610352</ele>
        <time>2021-01-18T13:01:41.000Z</time>
      </trkpt>
      <trkpt lat="43.70982" lon="5.92775">
        <ele>487.79998779297</ele>
        <time>2021-01-18T13:01:44.000Z</time>
      </trkpt>
      <trkpt lat="43.70981" lon="5.92752">
        <ele>487.79998779297</ele>
        <time>2021-01-18T13:01:49.000Z</time>
      </trkpt>
      <trkpt lat="43.70984" lon="5.92723">
        <ele>487.79998779297</ele>
        <time>2021-01-18T13:01:55.000Z</time>
      </trkpt>
      <trkpt lat="43.7099" lon="5.92693">
        <ele>487.60000610352</ele>
        <time>2021-01-18T13:02:00.000Z</time>
      </trkpt>
      <trkpt lat="43.70989" lon="5.92687">
        <ele>487.39999389648</ele>
        <time>2021-01-18T13:02:01.000Z</time>
      </trkpt>
      <trkpt lat="43.70988" lon="5.92669">
        <ele>487</ele>
        <time>2021-01-18T13:02:04.000Z</time>
      </trkpt>
      <trkpt lat="43.70985" lon="5.92644">
        <ele>486.20001220703</ele>
        <time>2021-01-18T13:02:08.000Z</time>
      </trkpt>
      <trkpt lat="43.70983" lon="5.92632">
        <ele>485.79998779297</ele>
        <time>2021-01-18T13:02:10.000Z</time>
      </trkpt>
      <trkpt lat="43.70979" lon="5.92611">
        <ele>485.20001220703</ele>
        <time>2021-01-18T13:02:13.000Z</time>
      </trkpt>
      <trkpt lat="43.70977" lon="5.92604">
        <ele>485.20001220703</ele>
        <time>2021-01-18T13:02:14.000Z</time>
      </trkpt>
      <trkpt lat="43.70966" lon="5.92559">
        <ele>484</ele>
        <time>2021-01-18T13:02:20.000Z</time>
      </trkpt>
      <trkpt lat="43.70956" lon="5.92526">
        <ele>483</ele>
        <time>2021-01-18T13:02:24.000Z</time>
      </trkpt>
      <trkpt lat="43.70944" lon="5.92484">
        <ele>481.60000610352</ele>
        <time>2021-01-18T13:02:29.000Z</time>
      </trkpt>
      <trkpt lat="43.7094" lon="5.92468">
        <ele>480.79998779297</ele>
        <time>2021-01-18T13:02:31.000Z</time>
      </trkpt>
      <trkpt lat="43.70939" lon="5.9246">
        <ele>480.39999389648</ele>
        <time>2021-01-18T13:02:32.000Z</time>
      </trkpt>
      <trkpt lat="43.70938" lon="5.92452">
        <ele>479.79998779297</ele>
        <time>2021-01-18T13:02:33.000Z</time>
      </trkpt>
      <trkpt lat="43.70939" lon="5.92444">
        <ele>479.20001220703</ele>
        <time>2021-01-18T13:02:34.000Z</time>
      </trkpt>
      <trkpt lat="43.70944" lon="5.92429">
        <ele>478.20001220703</ele>
        <time>2021-01-18T13:02:36.000Z</time>
      </trkpt>
      <trkpt lat="43.70948" lon="5.92416">
        <ele>477.39999389648</ele>
        <time>2021-01-18T13:02:38.000Z</time>
      </trkpt>
      <trkpt lat="43.70951" lon="5.9241">
        <ele>477</ele>
        <time>2021-01-18T13:02:39.000Z</time>
      </trkpt>
      <trkpt lat="43.70958" lon="5.92388">
        <ele>476.39999389648</ele>
        <time>2021-01-18T13:02:42.000Z</time>
      </trkpt>
      <trkpt lat="43.70971" lon="5.92351">
        <ele>475.79998779297</ele>
        <time>2021-01-18T13:02:47.000Z</time>
      </trkpt>
      <trkpt lat="43.70974" lon="5.92343">
        <ele>475.60000610352</ele>
        <time>2021-01-18T13:02:48.000Z</time>
      </trkpt>
      <trkpt lat="43.70992" lon="5.92292">
        <ele>475</ele>
        <time>2021-01-18T13:02:55.000Z</time>
      </trkpt>
      <trkpt lat="43.70995" lon="5.92285">
        <ele>474.79998779297</ele>
        <time>2021-01-18T13:02:56.000Z</time>
      </trkpt>
      <trkpt lat="43.71011" lon="5.92238">
        <ele>474.39999389648</ele>
        <time>2021-01-18T13:03:02.000Z</time>
      </trkpt>
      <trkpt lat="43.71024" lon="5.92198">
        <ele>473.79998779297</ele>
        <time>2021-01-18T13:03:07.000Z</time>
      </trkpt>
      <trkpt lat="43.71032" lon="5.92173">
        <ele>473.20001220703</ele>
        <time>2021-01-18T13:03:10.000Z</time>
      </trkpt>
      <trkpt lat="43.71043" lon="5.9214">
        <ele>472.79998779297</ele>
        <time>2021-01-18T13:03:14.000Z</time>
      </trkpt>
      <trkpt lat="43.71048" lon="5.92125">
        <ele>472.60000610352</ele>
        <time>2021-01-18T13:03:16.000Z</time>
      </trkpt>
      <trkpt lat="43.71057" lon="5.92096">
        <ele>471.60000610352</ele>
        <time>2021-01-18T13:03:20.000Z</time>
      </trkpt>
      <trkpt lat="43.71064" lon="5.92077">
        <ele>471.39999389648</ele>
        <time>2021-01-18T13:03:23.000Z</time>
      </trkpt>
      <trkpt lat="43.71066" lon="5.92072">
        <ele>471.39999389648</ele>
        <time>2021-01-18T13:03:24.000Z</time>
      </trkpt>
      <trkpt lat="43.71068" lon="5.92067">
        <ele>471.39999389648</ele>
        <time>2021-01-18T13:03:25.000Z</time>
      </trkpt>
      <trkpt lat="43.7107" lon="5.9205">
        <ele>471</ele>
        <time>2021-01-18T13:03:28.000Z</time>
      </trkpt>
      <trkpt lat="43.71068" lon="5.92035">
        <ele>470.79998779297</ele>
        <time>2021-01-18T13:03:30.000Z</time>
      </trkpt>
      <trkpt lat="43.71068" lon="5.92026">
        <ele>470.60000610352</ele>
        <time>2021-01-18T13:03:31.000Z</time>
      </trkpt>
      <trkpt lat="43.71069" lon="5.92018">
        <ele>470.60000610352</ele>
        <time>2021-01-18T13:03:32.000Z</time>
      </trkpt>
      <trkpt lat="43.71076" lon="5.9198">
        <ele>470.20001220703</ele>
        <time>2021-01-18T13:03:37.000Z</time>
      </trkpt>
      <trkpt lat="43.71086" lon="5.91939">
        <ele>469.60000610352</ele>
        <time>2021-01-18T13:03:42.000Z</time>
      </trkpt>
      <trkpt lat="43.71088" lon="5.91931">
        <ele>469.39999389648</ele>
        <time>2021-01-18T13:03:43.000Z</time>
      </trkpt>
      <trkpt lat="43.71089" lon="5.91924">
        <ele>469.39999389648</ele>
        <time>2021-01-18T13:03:44.000Z</time>
      </trkpt>
      <trkpt lat="43.71093" lon="5.91905">
        <ele>469.39999389648</ele>
        <time>2021-01-18T13:03:47.000Z</time>
      </trkpt>
      <trkpt lat="43.71095" lon="5.91898">
        <ele>469.39999389648</ele>
        <time>2021-01-18T13:03:48.000Z</time>
      </trkpt>
      <trkpt lat="43.71107" lon="5.91872">
        <ele>469.20001220703</ele>
        <time>2021-01-18T13:03:52.000Z</time>
      </trkpt>
      <trkpt lat="43.71114" lon="5.91858">
        <ele>469.20001220703</ele>
        <time>2021-01-18T13:03:54.000Z</time>
      </trkpt>
      <trkpt lat="43.71122" lon="5.91832">
        <ele>469</ele>
        <time>2021-01-18T13:03:57.000Z</time>
      </trkpt>
      <trkpt lat="43.7113" lon="5.918">
        <ele>468.60000610352</ele>
        <time>2021-01-18T13:04:00.000Z</time>
      </trkpt>
      <trkpt lat="43.71132" lon="5.91787">
        <ele>468.20001220703</ele>
        <time>2021-01-18T13:04:01.000Z</time>
      </trkpt>
      <trkpt lat="43.71133" lon="5.91765">
        <ele>467.39999389648</ele>
        <time>2021-01-18T13:04:03.000Z</time>
      </trkpt>
      <trkpt lat="43.71133" lon="5.91757">
        <ele>466.79998779297</ele>
        <time>2021-01-18T13:04:04.000Z</time>
      </trkpt>
      <trkpt lat="43.71133" lon="5.9175">
        <ele>465.79998779297</ele>
        <time>2021-01-18T13:04:05.000Z</time>
      </trkpt>
      <trkpt lat="43.71133" lon="5.91742">
        <ele>464.60000610352</ele>
        <time>2021-01-18T13:04:06.000Z</time>
      </trkpt>
      <trkpt lat="43.71134" lon="5.91734">
        <ele>463.39999389648</ele>
        <time>2021-01-18T13:04:07.000Z</time>
      </trkpt>
      <trkpt lat="43.71135" lon="5.91725">
        <ele>462.39999389648</ele>
        <time>2021-01-18T13:04:08.000Z</time>
      </trkpt>
      <trkpt lat="43.71138" lon="5.91717">
        <ele>461</ele>
        <time>2021-01-18T13:04:09.000Z</time>
      </trkpt>
      <trkpt lat="43.71141" lon="5.91708">
        <ele>459.60000610352</ele>
        <time>2021-01-18T13:04:10.000Z</time>
      </trkpt>
      <trkpt lat="43.71149" lon="5.91692">
        <ele>458.39999389648</ele>
        <time>2021-01-18T13:04:12.000Z</time>
      </trkpt>
      <trkpt lat="43.7116" lon="5.91673">
        <ele>456.79998779297</ele>
        <time>2021-01-18T13:04:15.000Z</time>
      </trkpt>
      <trkpt lat="43.71163" lon="5.91667">
        <ele>456.20001220703</ele>
        <time>2021-01-18T13:04:16.000Z</time>
      </trkpt>
      <trkpt lat="43.71165" lon="5.91662">
        <ele>455.20001220703</ele>
        <time>2021-01-18T13:04:17.000Z</time>
      </trkpt>
      <trkpt lat="43.71169" lon="5.9165">
        <ele>454</ele>
        <time>2021-01-18T13:04:19.000Z</time>
      </trkpt>
      <trkpt lat="43.71175" lon="5.9163">
        <ele>453.39999389648</ele>
        <time>2021-01-18T13:04:22.000Z</time>
      </trkpt>
      <trkpt lat="43.71185" lon="5.91593">
        <ele>453.39999389648</ele>
        <time>2021-01-18T13:04:27.000Z</time>
      </trkpt>
      <trkpt lat="43.71185" lon="5.91585">
        <ele>453.60000610352</ele>
        <time>2021-01-18T13:04:28.000Z</time>
      </trkpt>
      <trkpt lat="43.71181" lon="5.91563">
        <ele>454</ele>
        <time>2021-01-18T13:04:31.000Z</time>
      </trkpt>
      <trkpt lat="43.71176" lon="5.91553">
        <ele>454.39999389648</ele>
        <time>2021-01-18T13:04:33.000Z</time>
      </trkpt>
      <trkpt lat="43.71173" lon="5.91549">
        <ele>454.39999389648</ele>
        <time>2021-01-18T13:04:34.000Z</time>
      </trkpt>
      <trkpt lat="43.71166" lon="5.9154">
        <ele>455</ele>
        <time>2021-01-18T13:04:36.000Z</time>
      </trkpt>
      <trkpt lat="43.71162" lon="5.91536">
        <ele>455.39999389648</ele>
        <time>2021-01-18T13:04:37.000Z</time>
      </trkpt>
      <trkpt lat="43.71155" lon="5.91527">
        <ele>456.20001220703</ele>
        <time>2021-01-18T13:04:39.000Z</time>
      </trkpt>
      <trkpt lat="43.71147" lon="5.9152">
        <ele>457.39999389648</ele>
        <time>2021-01-18T13:04:41.000Z</time>
      </trkpt>
      <trkpt lat="43.71143" lon="5.91517">
        <ele>458</ele>
        <time>2021-01-18T13:04:42.000Z</time>
      </trkpt>
      <trkpt lat="43.71134" lon="5.91512">
        <ele>458.39999389648</ele>
        <time>2021-01-18T13:04:44.000Z</time>
      </trkpt>
      <trkpt lat="43.71127" lon="5.91506">
        <ele>458.60000610352</ele>
        <time>2021-01-18T13:04:46.000Z</time>
      </trkpt>
      <trkpt lat="43.71124" lon="5.91502">
        <ele>458.60000610352</ele>
        <time>2021-01-18T13:04:47.000Z</time>
      </trkpt>
      <trkpt lat="43.7112" lon="5.91482">
        <ele>458.60000610352</ele>
        <time>2021-01-18T13:04:51.000Z</time>
      </trkpt>
      <trkpt lat="43.71124" lon="5.9147">
        <ele>458.60000610352</ele>
        <time>2021-01-18T13:04:53.000Z</time>
      </trkpt>
      <trkpt lat="43.71129" lon="5.91451">
        <ele>458.60000610352</ele>
        <time>2021-01-18T13:04:56.000Z</time>
      </trkpt>
      <trkpt lat="43.71142" lon="5.91403">
        <ele>458.39999389648</ele>
        <time>2021-01-18T13:05:04.000Z</time>
      </trkpt>
      <trkpt lat="43.71145" lon="5.91378">
        <ele>458.60000610352</ele>
        <time>2021-01-18T13:05:09.000Z</time>
      </trkpt>
      <trkpt lat="43.71137" lon="5.91369">
        <ele>459</ele>
        <time>2021-01-18T13:05:12.000Z</time>
      </trkpt>
      <trkpt lat="43.71133" lon="5.91367">
        <ele>459.20001220703</ele>
        <time>2021-01-18T13:05:13.000Z</time>
      </trkpt>
      <trkpt lat="43.71129" lon="5.91365">
        <ele>459.60000610352</ele>
        <time>2021-01-18T13:05:14.000Z</time>
      </trkpt>
      <trkpt lat="43.71118" lon="5.91358">
        <ele>460</ele>
        <time>2021-01-18T13:05:17.000Z</time>
      </trkpt>
      <trkpt lat="43.71109" lon="5.91355">
        <ele>460</ele>
        <time>2021-01-18T13:05:19.000Z</time>
      </trkpt>
      <trkpt lat="43.711" lon="5.91352">
        <ele>460.20001220703</ele>
        <time>2021-01-18T13:05:21.000Z</time>
      </trkpt>
      <trkpt lat="43.71086" lon="5.91355">
        <ele>460.39999389648</ele>
        <time>2021-01-18T13:05:24.000Z</time>
      </trkpt>
      <trkpt lat="43.71082" lon="5.91357">
        <ele>460.39999389648</ele>
        <time>2021-01-18T13:05:25.000Z</time>
      </trkpt>
      <trkpt lat="43.71057" lon="5.9137">
        <ele>460.39999389648</ele>
        <time>2021-01-18T13:05:31.000Z</time>
      </trkpt>
      <trkpt lat="43.71053" lon="5.91361">
        <ele>460.39999389648</ele>
        <time>2021-01-18T13:05:33.000Z</time>
      </trkpt>
      <trkpt lat="43.71058" lon="5.9135">
        <ele>460.20001220703</ele>
        <time>2021-01-18T13:05:35.000Z</time>
      </trkpt>
      <trkpt lat="43.71072" lon="5.91335">
        <ele>459.79998779297</ele>
        <time>2021-01-18T13:05:38.000Z</time>
      </trkpt>
      <trkpt lat="43.71077" lon="5.91331">
        <ele>459.60000610352</ele>
        <time>2021-01-18T13:05:39.000Z</time>
      </trkpt>
      <trkpt lat="43.71086" lon="5.91323">
        <ele>458.39999389648</ele>
        <time>2021-01-18T13:05:41.000Z</time>
      </trkpt>
      <trkpt lat="43.71094" lon="5.91314">
        <ele>457.20001220703</ele>
        <time>2021-01-18T13:05:43.000Z</time>
      </trkpt>
      <trkpt lat="43.71098" lon="5.9131">
        <ele>456.39999389648</ele>
        <time>2021-01-18T13:05:44.000Z</time>
      </trkpt>
      <trkpt lat="43.71102" lon="5.91304">
        <ele>456</ele>
        <time>2021-01-18T13:05:45.000Z</time>
      </trkpt>
      <trkpt lat="43.71116" lon="5.91286">
        <ele>455.60000610352</ele>
        <time>2021-01-18T13:05:48.000Z</time>
      </trkpt>
      <trkpt lat="43.71125" lon="5.91276">
        <ele>455.39999389648</ele>
        <time>2021-01-18T13:05:50.000Z</time>
      </trkpt>
      <trkpt lat="43.71141" lon="5.91258">
        <ele>455</ele>
        <time>2021-01-18T13:05:54.000Z</time>
      </trkpt>
      <trkpt lat="43.71148" lon="5.91247">
        <ele>454.79998779297</ele>
        <time>2021-01-18T13:05:56.000Z</time>
      </trkpt>
      <trkpt lat="43.71164" lon="5.91211">
        <ele>454</ele>
        <time>2021-01-18T13:06:01.000Z</time>
      </trkpt>
      <trkpt lat="43.71167" lon="5.91203">
        <ele>453.79998779297</ele>
        <time>2021-01-18T13:06:02.000Z</time>
      </trkpt>
      <trkpt lat="43.71179" lon="5.9118">
        <ele>453.60000610352</ele>
        <time>2021-01-18T13:06:05.000Z</time>
      </trkpt>
      <trkpt lat="43.71188" lon="5.91168">
        <ele>453.39999389648</ele>
        <time>2021-01-18T13:06:07.000Z</time>
      </trkpt>
      <trkpt lat="43.71194" lon="5.91155">
        <ele>452.79998779297</ele>
        <time>2021-01-18T13:06:09.000Z</time>
      </trkpt>
      <trkpt lat="43.71197" lon="5.9115">
        <ele>452.20001220703</ele>
        <time>2021-01-18T13:06:10.000Z</time>
      </trkpt>
      <trkpt lat="43.71205" lon="5.91142">
        <ele>451.39999389648</ele>
        <time>2021-01-18T13:06:12.000Z</time>
      </trkpt>
      <trkpt lat="43.71213" lon="5.91137">
        <ele>450.79998779297</ele>
        <time>2021-01-18T13:06:14.000Z</time>
      </trkpt>
      <trkpt lat="43.71217" lon="5.91134">
        <ele>450.60000610352</ele>
        <time>2021-01-18T13:06:15.000Z</time>
      </trkpt>
      <trkpt lat="43.71222" lon="5.91131">
        <ele>450.39999389648</ele>
        <time>2021-01-18T13:06:16.000Z</time>
      </trkpt>
      <trkpt lat="43.71227" lon="5.91126">
        <ele>450.20001220703</ele>
        <time>2021-01-18T13:06:17.000Z</time>
      </trkpt>
      <trkpt lat="43.71237" lon="5.91117">
        <ele>450</ele>
        <time>2021-01-18T13:06:19.000Z</time>
      </trkpt>
      <trkpt lat="43.71247" lon="5.91109">
        <ele>450</ele>
        <time>2021-01-18T13:06:21.000Z</time>
      </trkpt>
      <trkpt lat="43.71253" lon="5.91099">
        <ele>449.79998779297</ele>
        <time>2021-01-18T13:06:23.000Z</time>
      </trkpt>
      <trkpt lat="43.71268" lon="5.91094">
        <ele>449.79998779297</ele>
        <time>2021-01-18T13:06:26.000Z</time>
      </trkpt>
      <trkpt lat="43.71277" lon="5.91076">
        <ele>449.79998779297</ele>
        <time>2021-01-18T13:06:29.000Z</time>
      </trkpt>
      <trkpt lat="43.71284" lon="5.91046">
        <ele>449.60000610352</ele>
        <time>2021-01-18T13:06:33.000Z</time>
      </trkpt>
      <trkpt lat="43.71286" lon="5.91039">
        <ele>449.60000610352</ele>
        <time>2021-01-18T13:06:34.000Z</time>
      </trkpt>
      <trkpt lat="43.71292" lon="5.91026">
        <ele>449.79998779297</ele>
        <time>2021-01-18T13:06:36.000Z</time>
      </trkpt>
      <trkpt lat="43.71302" lon="5.91006">
        <ele>450.20001220703</ele>
        <time>2021-01-18T13:06:39.000Z</time>
      </trkpt>
      <trkpt lat="43.71316" lon="5.90977">
        <ele>450.60000610352</ele>
        <time>2021-01-18T13:06:44.000Z</time>
      </trkpt>
      <trkpt lat="43.71326" lon="5.90957">
        <ele>451</ele>
        <time>2021-01-18T13:06:48.000Z</time>
      </trkpt>
      <trkpt lat="43.71332" lon="5.90947">
        <ele>451.60000610352</ele>
        <time>2021-01-18T13:06:50.000Z</time>
      </trkpt>
      <trkpt lat="43.71335" lon="5.90942">
        <ele>452</ele>
        <time>2021-01-18T13:06:51.000Z</time>
      </trkpt>
      <trkpt lat="43.71339" lon="5.90931">
        <ele>452.79998779297</ele>
        <time>2021-01-18T13:06:53.000Z</time>
      </trkpt>
      <trkpt lat="43.71344" lon="5.90919">
        <ele>453.39999389648</ele>
        <time>2021-01-18T13:06:55.000Z</time>
      </trkpt>
      <trkpt lat="43.71346" lon="5.90913">
        <ele>454.20001220703</ele>
        <time>2021-01-18T13:06:56.000Z</time>
      </trkpt>
      <trkpt lat="43.71356" lon="5.90888">
        <ele>455.39999389648</ele>
        <time>2021-01-18T13:07:00.000Z</time>
      </trkpt>
      <trkpt lat="43.71361" lon="5.90877">
        <ele>456</ele>
        <time>2021-01-18T13:07:02.000Z</time>
      </trkpt>
      <trkpt lat="43.71364" lon="5.90872">
        <ele>456.60000610352</ele>
        <time>2021-01-18T13:07:03.000Z</time>
      </trkpt>
      <trkpt lat="43.71373" lon="5.90858">
        <ele>457.60000610352</ele>
        <time>2021-01-18T13:07:06.000Z</time>
      </trkpt>
      <trkpt lat="43.7138" lon="5.90848">
        <ele>457.60000610352</ele>
        <time>2021-01-18T13:07:08.000Z</time>
      </trkpt>
      <trkpt lat="43.71383" lon="5.90843">
        <ele>457.79998779297</ele>
        <time>2021-01-18T13:07:09.000Z</time>
      </trkpt>
      <trkpt lat="43.71399" lon="5.90825">
        <ele>457.79998779297</ele>
        <time>2021-01-18T13:07:13.000Z</time>
      </trkpt>
      <trkpt lat="43.71419" lon="5.9081">
        <ele>457.39999389648</ele>
        <time>2021-01-18T13:07:17.000Z</time>
      </trkpt>
      <trkpt lat="43.71424" lon="5.90806">
        <ele>457.39999389648</ele>
        <time>2021-01-18T13:07:18.000Z</time>
      </trkpt>
      <trkpt lat="43.71448" lon="5.90781">
        <ele>456.79998779297</ele>
        <time>2021-01-18T13:07:23.000Z</time>
      </trkpt>
      <trkpt lat="43.71463" lon="5.90768">
        <ele>456.79998779297</ele>
        <time>2021-01-18T13:07:26.000Z</time>
      </trkpt>
      <trkpt lat="43.71468" lon="5.90766">
        <ele>456.60000610352</ele>
        <time>2021-01-18T13:07:27.000Z</time>
      </trkpt>
      <trkpt lat="43.71498" lon="5.90754">
        <ele>456.60000610352</ele>
        <time>2021-01-18T13:07:33.000Z</time>
      </trkpt>
      <trkpt lat="43.71514" lon="5.90744">
        <ele>456.60000610352</ele>
        <time>2021-01-18T13:07:36.000Z</time>
      </trkpt>
      <trkpt lat="43.71523" lon="5.90735">
        <ele>456.60000610352</ele>
        <time>2021-01-18T13:07:38.000Z</time>
      </trkpt>
      <trkpt lat="43.7155" lon="5.90699">
        <ele>456.39999389648</ele>
        <time>2021-01-18T13:07:45.000Z</time>
      </trkpt>
      <trkpt lat="43.71563" lon="5.90684">
        <ele>456</ele>
        <time>2021-01-18T13:07:48.000Z</time>
      </trkpt>
      <trkpt lat="43.71574" lon="5.90677">
        <ele>455.79998779297</ele>
        <time>2021-01-18T13:07:50.000Z</time>
      </trkpt>
      <trkpt lat="43.7158" lon="5.90674">
        <ele>455.79998779297</ele>
        <time>2021-01-18T13:07:51.000Z</time>
      </trkpt>
      <trkpt lat="43.71586" lon="5.90669">
        <ele>455.39999389648</ele>
        <time>2021-01-18T13:07:52.000Z</time>
      </trkpt>
      <trkpt lat="43.71595" lon="5.90657">
        <ele>454.20001220703</ele>
        <time>2021-01-18T13:07:54.000Z</time>
      </trkpt>
      <trkpt lat="43.71605" lon="5.90644">
        <ele>453.20001220703</ele>
        <time>2021-01-18T13:07:56.000Z</time>
      </trkpt>
      <trkpt lat="43.71613" lon="5.90628">
        <ele>451.79998779297</ele>
        <time>2021-01-18T13:07:58.000Z</time>
      </trkpt>
      <trkpt lat="43.71616" lon="5.9062">
        <ele>451.20001220703</ele>
        <time>2021-01-18T13:07:59.000Z</time>
      </trkpt>
      <trkpt lat="43.7162" lon="5.90612">
        <ele>450.60000610352</ele>
        <time>2021-01-18T13:08:00.000Z</time>
      </trkpt>
      <trkpt lat="43.71627" lon="5.90596">
        <ele>449.60000610352</ele>
        <time>2021-01-18T13:08:02.000Z</time>
      </trkpt>
      <trkpt lat="43.7163" lon="5.90588">
        <ele>449</ele>
        <time>2021-01-18T13:08:03.000Z</time>
      </trkpt>
      <trkpt lat="43.71632" lon="5.9058">
        <ele>448.39999389648</ele>
        <time>2021-01-18T13:08:04.000Z</time>
      </trkpt>
      <trkpt lat="43.71635" lon="5.90573">
        <ele>447.60000610352</ele>
        <time>2021-01-18T13:08:05.000Z</time>
      </trkpt>
      <trkpt lat="43.71644" lon="5.90552">
        <ele>446.60000610352</ele>
        <time>2021-01-18T13:08:08.000Z</time>
      </trkpt>
      <trkpt lat="43.71647" lon="5.90545">
        <ele>446.20001220703</ele>
        <time>2021-01-18T13:08:09.000Z</time>
      </trkpt>
      <trkpt lat="43.7165" lon="5.90538">
        <ele>445.79998779297</ele>
        <time>2021-01-18T13:08:10.000Z</time>
      </trkpt>
      <trkpt lat="43.71658" lon="5.90525">
        <ele>445.39999389648</ele>
        <time>2021-01-18T13:08:12.000Z</time>
      </trkpt>
      <trkpt lat="43.71664" lon="5.9052">
        <ele>445</ele>
        <time>2021-01-18T13:08:13.000Z</time>
      </trkpt>
      <trkpt lat="43.71675" lon="5.90512">
        <ele>444.20001220703</ele>
        <time>2021-01-18T13:08:15.000Z</time>
      </trkpt>
      <trkpt lat="43.71687" lon="5.90504">
        <ele>443</ele>
        <time>2021-01-18T13:08:17.000Z</time>
      </trkpt>
      <trkpt lat="43.71692" lon="5.90499">
        <ele>442.79998779297</ele>
        <time>2021-01-18T13:08:18.000Z</time>
      </trkpt>
      <trkpt lat="43.71702" lon="5.90486">
        <ele>441.60000610352</ele>
        <time>2021-01-18T13:08:20.000Z</time>
      </trkpt>
      <trkpt lat="43.71706" lon="5.90479">
        <ele>441</ele>
        <time>2021-01-18T13:08:21.000Z</time>
      </trkpt>
      <trkpt lat="43.71712" lon="5.90472">
        <ele>440.39999389648</ele>
        <time>2021-01-18T13:08:22.000Z</time>
      </trkpt>
      <trkpt lat="43.71728" lon="5.90454">
        <ele>439</ele>
        <time>2021-01-18T13:08:25.000Z</time>
      </trkpt>
      <trkpt lat="43.71733" lon="5.90449">
        <ele>438.60000610352</ele>
        <time>2021-01-18T13:08:26.000Z</time>
      </trkpt>
      <trkpt lat="43.71738" lon="5.90443">
        <ele>437.79998779297</ele>
        <time>2021-01-18T13:08:27.000Z</time>
      </trkpt>
      <trkpt lat="43.71749" lon="5.90436">
        <ele>436.20001220703</ele>
        <time>2021-01-18T13:08:29.000Z</time>
      </trkpt>
      <trkpt lat="43.71755" lon="5.90432">
        <ele>435.39999389648</ele>
        <time>2021-01-18T13:08:30.000Z</time>
      </trkpt>
      <trkpt lat="43.71761" lon="5.90427">
        <ele>435</ele>
        <time>2021-01-18T13:08:31.000Z</time>
      </trkpt>
      <trkpt lat="43.71775" lon="5.90416">
        <ele>434.39999389648</ele>
        <time>2021-01-18T13:08:34.000Z</time>
      </trkpt>
      <trkpt lat="43.71796" lon="5.90404">
        <ele>433.60000610352</ele>
        <time>2021-01-18T13:08:38.000Z</time>
      </trkpt>
      <trkpt lat="43.71803" lon="5.90401">
        <ele>433.20001220703</ele>
        <time>2021-01-18T13:08:39.000Z</time>
      </trkpt>
      <trkpt lat="43.71818" lon="5.90396">
        <ele>432.60000610352</ele>
        <time>2021-01-18T13:08:41.000Z</time>
      </trkpt>
      <trkpt lat="43.71838" lon="5.90389">
        <ele>431.20001220703</ele>
        <time>2021-01-18T13:08:44.000Z</time>
      </trkpt>
      <trkpt lat="43.71845" lon="5.90386">
        <ele>430.60000610352</ele>
        <time>2021-01-18T13:08:45.000Z</time>
      </trkpt>
      <trkpt lat="43.71851" lon="5.90382">
        <ele>429.79998779297</ele>
        <time>2021-01-18T13:08:46.000Z</time>
      </trkpt>
      <trkpt lat="43.71858" lon="5.90378">
        <ele>428.60000610352</ele>
        <time>2021-01-18T13:08:47.000Z</time>
      </trkpt>
      <trkpt lat="43.71865" lon="5.90375">
        <ele>427.39999389648</ele>
        <time>2021-01-18T13:08:48.000Z</time>
      </trkpt>
      <trkpt lat="43.7187" lon="5.90372">
        <ele>426.20001220703</ele>
        <time>2021-01-18T13:08:49.000Z</time>
      </trkpt>
      <trkpt lat="43.71875" lon="5.90368">
        <ele>424.79998779297</ele>
        <time>2021-01-18T13:08:50.000Z</time>
      </trkpt>
      <trkpt lat="43.71878" lon="5.90361">
        <ele>424</ele>
        <time>2021-01-18T13:08:51.000Z</time>
      </trkpt>
      <trkpt lat="43.71881" lon="5.90353">
        <ele>422.60000610352</ele>
        <time>2021-01-18T13:08:52.000Z</time>
      </trkpt>
      <trkpt lat="43.71885" lon="5.90345">
        <ele>421.39999389648</ele>
        <time>2021-01-18T13:08:53.000Z</time>
      </trkpt>
      <trkpt lat="43.71888" lon="5.90336">
        <ele>419.60000610352</ele>
        <time>2021-01-18T13:08:54.000Z</time>
      </trkpt>
      <trkpt lat="43.71891" lon="5.90329">
        <ele>419</ele>
        <time>2021-01-18T13:08:55.000Z</time>
      </trkpt>
      <trkpt lat="43.71894" lon="5.90323">
        <ele>418.60000610352</ele>
        <time>2021-01-18T13:08:56.000Z</time>
      </trkpt>
      <trkpt lat="43.71896" lon="5.9032">
        <ele>418.20001220703</ele>
        <time>2021-01-18T13:08:57.000Z</time>
      </trkpt>
      <trkpt lat="43.71899" lon="5.90318">
        <ele>418</ele>
        <time>2021-01-18T13:08:58.000Z</time>
      </trkpt>
      <trkpt lat="43.71905" lon="5.90318">
        <ele>416.39999389648</ele>
        <time>2021-01-18T13:09:00.000Z</time>
      </trkpt>
      <trkpt lat="43.71912" lon="5.90319">
        <ele>415.20001220703</ele>
        <time>2021-01-18T13:09:02.000Z</time>
      </trkpt>
      <trkpt lat="43.71915" lon="5.90319">
        <ele>415</ele>
        <time>2021-01-18T13:09:03.000Z</time>
      </trkpt>
      <trkpt lat="43.71933" lon="5.90316">
        <ele>414.39999389648</ele>
        <time>2021-01-18T13:09:08.000Z</time>
      </trkpt>
      <trkpt lat="43.7195" lon="5.90306">
        <ele>414.39999389648</ele>
        <time>2021-01-18T13:09:14.000Z</time>
      </trkpt>
      <trkpt lat="43.71964" lon="5.90304">
        <ele>414.79998779297</ele>
        <time>2021-01-18T13:09:20.000Z</time>
      </trkpt>
      <trkpt lat="43.71979" lon="5.90302">
        <ele>416</ele>
        <time>2021-01-18T13:09:25.000Z</time>
      </trkpt>
      <trkpt lat="43.71982" lon="5.903">
        <ele>416.20001220703</ele>
        <time>2021-01-18T13:09:26.000Z</time>
      </trkpt>
      <trkpt lat="43.71995" lon="5.9029">
        <ele>417.39999389648</ele>
        <time>2021-01-18T13:09:31.000Z</time>
      </trkpt>
      <trkpt lat="43.72003" lon="5.90285">
        <ele>418.39999389648</ele>
        <time>2021-01-18T13:09:34.000Z</time>
      </trkpt>
      <trkpt lat="43.72013" lon="5.90279">
        <ele>419.39999389648</ele>
        <time>2021-01-18T13:09:38.000Z</time>
      </trkpt>
      <trkpt lat="43.72016" lon="5.90277">
        <ele>419.60000610352</ele>
        <time>2021-01-18T13:09:39.000Z</time>
      </trkpt>
      <trkpt lat="43.7202" lon="5.90264">
        <ele>420.79998779297</ele>
        <time>2021-01-18T13:09:43.000Z</time>
      </trkpt>
      <trkpt lat="43.72019" lon="5.9026">
        <ele>421.20001220703</ele>
        <time>2021-01-18T13:09:44.000Z</time>
      </trkpt>
      <trkpt lat="43.72012" lon="5.90253">
        <ele>421.79998779297</ele>
        <time>2021-01-18T13:09:47.000Z</time>
      </trkpt>
      <trkpt lat="43.72006" lon="5.90253">
        <ele>422.60000610352</ele>
        <time>2021-01-18T13:09:49.000Z</time>
      </trkpt>
      <trkpt lat="43.72003" lon="5.90254">
        <ele>422.79998779297</ele>
        <time>2021-01-18T13:09:50.000Z</time>
      </trkpt>
      <trkpt lat="43.71991" lon="5.90258">
        <ele>423.60000610352</ele>
        <time>2021-01-18T13:09:54.000Z</time>
      </trkpt>
      <trkpt lat="43.71988" lon="5.90259">
        <ele>423.79998779297</ele>
        <time>2021-01-18T13:09:55.000Z</time>
      </trkpt>
      <trkpt lat="43.7198" lon="5.90262">
        <ele>425</ele>
        <time>2021-01-18T13:09:58.000Z</time>
      </trkpt>
      <trkpt lat="43.71972" lon="5.90265">
        <ele>425.39999389648</ele>
        <time>2021-01-18T13:10:01.000Z</time>
      </trkpt>
      <trkpt lat="43.71962" lon="5.90266">
        <ele>426.20001220703</ele>
        <time>2021-01-18T13:10:04.000Z</time>
      </trkpt>
      <trkpt lat="43.71957" lon="5.90263">
        <ele>427</ele>
        <time>2021-01-18T13:10:06.000Z</time>
      </trkpt>
      <trkpt lat="43.71956" lon="5.9026">
        <ele>427.20001220703</ele>
        <time>2021-01-18T13:10:07.000Z</time>
      </trkpt>
      <trkpt lat="43.71956" lon="5.90255">
        <ele>427.39999389648</ele>
        <time>2021-01-18T13:10:08.000Z</time>
      </trkpt>
      <trkpt lat="43.7196" lon="5.90248">
        <ele>428</ele>
        <time>2021-01-18T13:10:10.000Z</time>
      </trkpt>
      <trkpt lat="43.71973" lon="5.90242">
        <ele>428.60000610352</ele>
        <time>2021-01-18T13:10:14.000Z</time>
      </trkpt>
      <trkpt lat="43.71976" lon="5.90241">
        <ele>428.60000610352</ele>
        <time>2021-01-18T13:10:15.000Z</time>
      </trkpt>
      <trkpt lat="43.71993" lon="5.90236">
        <ele>429.60000610352</ele>
        <time>2021-01-18T13:10:20.000Z</time>
      </trkpt>
      <trkpt lat="43.72001" lon="5.90234">
        <ele>429.79998779297</ele>
        <time>2021-01-18T13:10:22.000Z</time>
      </trkpt>
      <trkpt lat="43.72006" lon="5.90233">
        <ele>429.79998779297</ele>
        <time>2021-01-18T13:10:23.000Z</time>
      </trkpt>
      <trkpt lat="43.7201" lon="5.90232">
        <ele>429.79998779297</ele>
        <time>2021-01-18T13:10:24.000Z</time>
      </trkpt>
      <trkpt lat="43.72027" lon="5.9023">
        <ele>429.79998779297</ele>
        <time>2021-01-18T13:10:28.000Z</time>
      </trkpt>
      <trkpt lat="43.72049" lon="5.90239">
        <ele>429.60000610352</ele>
        <time>2021-01-18T13:10:34.000Z</time>
      </trkpt>
      <trkpt lat="43.7206" lon="5.90257">
        <ele>429.60000610352</ele>
        <time>2021-01-18T13:10:39.000Z</time>
      </trkpt>
      <trkpt lat="43.72075" lon="5.90269">
        <ele>430.39999389648</ele>
        <time>2021-01-18T13:10:44.000Z</time>
      </trkpt>
      <trkpt lat="43.72079" lon="5.9027">
        <ele>431.20001220703</ele>
        <time>2021-01-18T13:10:45.000Z</time>
      </trkpt>
      <trkpt lat="43.72093" lon="5.90266">
        <ele>432.20001220703</ele>
        <time>2021-01-18T13:10:49.000Z</time>
      </trkpt>
      <trkpt lat="43.72109" lon="5.90259">
        <ele>433.39999389648</ele>
        <time>2021-01-18T13:10:54.000Z</time>
      </trkpt>
      <trkpt lat="43.72116" lon="5.90258">
        <ele>433.79998779297</ele>
        <time>2021-01-18T13:10:56.000Z</time>
      </trkpt>
      <trkpt lat="43.7212" lon="5.90258">
        <ele>434.20001220703</ele>
        <time>2021-01-18T13:10:57.000Z</time>
      </trkpt>
      <trkpt lat="43.72124" lon="5.90259">
        <ele>434.60000610352</ele>
        <time>2021-01-18T13:10:58.000Z</time>
      </trkpt>
      <trkpt lat="43.72135" lon="5.90264">
        <ele>435.79998779297</ele>
        <time>2021-01-18T13:11:01.000Z</time>
      </trkpt>
      <trkpt lat="43.72148" lon="5.90267">
        <ele>436.79998779297</ele>
        <time>2021-01-18T13:11:05.000Z</time>
      </trkpt>
      <trkpt lat="43.72153" lon="5.90269">
        <ele>437</ele>
        <time>2021-01-18T13:11:07.000Z</time>
      </trkpt>
      <trkpt lat="43.72164" lon="5.90271">
        <ele>437.60000610352</ele>
        <time>2021-01-18T13:11:11.000Z</time>
      </trkpt>
      <trkpt lat="43.7217" lon="5.90273">
        <ele>439</ele>
        <time>2021-01-18T13:11:13.000Z</time>
      </trkpt>
      <trkpt lat="43.72179" lon="5.90275">
        <ele>439.79998779297</ele>
        <time>2021-01-18T13:11:16.000Z</time>
      </trkpt>
      <trkpt lat="43.72183" lon="5.90276">
        <ele>440</ele>
        <time>2021-01-18T13:11:17.000Z</time>
      </trkpt>
      <trkpt lat="43.72198" lon="5.90275">
        <ele>441.20001220703</ele>
        <time>2021-01-18T13:11:22.000Z</time>
      </trkpt>
      <trkpt lat="43.72201" lon="5.90273">
        <ele>441.60000610352</ele>
        <time>2021-01-18T13:11:23.000Z</time>
      </trkpt>
      <trkpt lat="43.72206" lon="5.9027">
        <ele>442.20001220703</ele>
        <time>2021-01-18T13:11:25.000Z</time>
      </trkpt>
      <trkpt lat="43.7222" lon="5.90259">
        <ele>443.60000610352</ele>
        <time>2021-01-18T13:11:30.000Z</time>
      </trkpt>
      <trkpt lat="43.72225" lon="5.90255">
        <ele>444.20001220703</ele>
        <time>2021-01-18T13:11:32.000Z</time>
      </trkpt>
      <trkpt lat="43.72228" lon="5.90253">
        <ele>444.60000610352</ele>
        <time>2021-01-18T13:11:33.000Z</time>
      </trkpt>
      <trkpt lat="43.72237" lon="5.90247">
        <ele>445.79998779297</ele>
        <time>2021-01-18T13:11:36.000Z</time>
      </trkpt>
      <trkpt lat="43.72243" lon="5.90238">
        <ele>447</ele>
        <time>2021-01-18T13:11:39.000Z</time>
      </trkpt>
      <trkpt lat="43.72249" lon="5.90213">
        <ele>448.20001220703</ele>
        <time>2021-01-18T13:11:44.000Z</time>
      </trkpt>
      <trkpt lat="43.7225" lon="5.90208">
        <ele>448.60000610352</ele>
        <time>2021-01-18T13:11:45.000Z</time>
      </trkpt>
      <trkpt lat="43.72258" lon="5.90198">
        <ele>449.20001220703</ele>
        <time>2021-01-18T13:11:48.000Z</time>
      </trkpt>
      <trkpt lat="43.7226" lon="5.90198">
        <ele>449.39999389648</ele>
        <time>2021-01-18T13:11:49.000Z</time>
      </trkpt>
      <trkpt lat="43.72263" lon="5.90198">
        <ele>449.39999389648</ele>
        <time>2021-01-18T13:11:50.000Z</time>
      </trkpt>
      <trkpt lat="43.7227" lon="5.902">
        <ele>449.39999389648</ele>
        <time>2021-01-18T13:11:52.000Z</time>
      </trkpt>
      <trkpt lat="43.72277" lon="5.90205">
        <ele>449.60000610352</ele>
        <time>2021-01-18T13:11:54.000Z</time>
      </trkpt>
      <trkpt lat="43.72282" lon="5.90216">
        <ele>449.39999389648</ele>
        <time>2021-01-18T13:11:56.000Z</time>
      </trkpt>
      <trkpt lat="43.72296" lon="5.90262">
        <ele>449.20001220703</ele>
        <time>2021-01-18T13:12:02.000Z</time>
      </trkpt>
      <trkpt lat="43.72299" lon="5.90269">
        <ele>449</ele>
        <time>2021-01-18T13:12:03.000Z</time>
      </trkpt>
      <trkpt lat="43.72308" lon="5.90283">
        <ele>447.79998779297</ele>
        <time>2021-01-18T13:12:05.000Z</time>
      </trkpt>
      <trkpt lat="43.72313" lon="5.90289">
        <ele>446.79998779297</ele>
        <time>2021-01-18T13:12:06.000Z</time>
      </trkpt>
      <trkpt lat="43.72321" lon="5.90298">
        <ele>446</ele>
        <time>2021-01-18T13:12:08.000Z</time>
      </trkpt>
      <trkpt lat="43.72325" lon="5.90302">
        <ele>445.79998779297</ele>
        <time>2021-01-18T13:12:09.000Z</time>
      </trkpt>
      <trkpt lat="43.7233" lon="5.90305">
        <ele>445.60000610352</ele>
        <time>2021-01-18T13:12:10.000Z</time>
      </trkpt>
      <trkpt lat="43.72351" lon="5.90318">
        <ele>445.39999389648</ele>
        <time>2021-01-18T13:12:14.000Z</time>
      </trkpt>
      <trkpt lat="43.72372" lon="5.90335">
        <ele>445.39999389648</ele>
        <time>2021-01-18T13:12:19.000Z</time>
      </trkpt>
      <trkpt lat="43.72375" lon="5.90338">
        <ele>445.39999389648</ele>
        <time>2021-01-18T13:12:20.000Z</time>
      </trkpt>
      <trkpt lat="43.72388" lon="5.90357">
        <ele>446.20001220703</ele>
        <time>2021-01-18T13:12:25.000Z</time>
      </trkpt>
      <trkpt lat="43.72393" lon="5.90361">
        <ele>446.60000610352</ele>
        <time>2021-01-18T13:12:27.000Z</time>
      </trkpt>
      <trkpt lat="43.72399" lon="5.90367">
        <ele>447.60000610352</ele>
        <time>2021-01-18T13:12:30.000Z</time>
      </trkpt>
      <trkpt lat="43.72399" lon="5.9037">
        <ele>447.79998779297</ele>
        <time>2021-01-18T13:12:31.000Z</time>
      </trkpt>
      <trkpt lat="43.72399" lon="5.90381">
        <ele>448.39999389648</ele>
        <time>2021-01-18T13:12:34.000Z</time>
      </trkpt>
      <trkpt lat="43.72405" lon="5.90397">
        <ele>448.60000610352</ele>
        <time>2021-01-18T13:12:38.000Z</time>
      </trkpt>
      <trkpt lat="43.72407" lon="5.90401">
        <ele>448.60000610352</ele>
        <time>2021-01-18T13:12:39.000Z</time>
      </trkpt>
      <trkpt lat="43.72409" lon="5.90404">
        <ele>448.79998779297</ele>
        <time>2021-01-18T13:12:40.000Z</time>
      </trkpt>
      <trkpt lat="43.72415" lon="5.90409">
        <ele>449.20001220703</ele>
        <time>2021-01-18T13:12:42.000Z</time>
      </trkpt>
      <trkpt lat="43.72423" lon="5.90413">
        <ele>449.39999389648</ele>
        <time>2021-01-18T13:12:45.000Z</time>
      </trkpt>
      <trkpt lat="43.72425" lon="5.90417">
        <ele>449.60000610352</ele>
        <time>2021-01-18T13:12:46.000Z</time>
      </trkpt>
      <trkpt lat="43.72428" lon="5.90421">
        <ele>449.60000610352</ele>
        <time>2021-01-18T13:12:47.000Z</time>
      </trkpt>
      <trkpt lat="43.72431" lon="5.90426">
        <ele>449.79998779297</ele>
        <time>2021-01-18T13:12:48.000Z</time>
      </trkpt>
      <trkpt lat="43.72438" lon="5.90436">
        <ele>450.20001220703</ele>
        <time>2021-01-18T13:12:50.000Z</time>
      </trkpt>
      <trkpt lat="43.72455" lon="5.90446">
        <ele>451</ele>
        <time>2021-01-18T13:12:54.000Z</time>
      </trkpt>
      <trkpt lat="43.7246" lon="5.90448">
        <ele>451</ele>
        <time>2021-01-18T13:12:55.000Z</time>
      </trkpt>
      <trkpt lat="43.72465" lon="5.90453">
        <ele>451.20001220703</ele>
        <time>2021-01-18T13:12:57.000Z</time>
      </trkpt>
      <trkpt lat="43.72465" lon="5.90467">
        <ele>451.60000610352</ele>
        <time>2021-01-18T13:13:00.000Z</time>
      </trkpt>
      <trkpt lat="43.72464" lon="5.90489">
        <ele>452.39999389648</ele>
        <time>2021-01-18T13:13:04.000Z</time>
      </trkpt>
      <trkpt lat="43.72465" lon="5.90498">
        <ele>453.60000610352</ele>
        <time>2021-01-18T13:13:06.000Z</time>
      </trkpt>
      <trkpt lat="43.72466" lon="5.905">
        <ele>453.79998779297</ele>
        <time>2021-01-18T13:13:07.000Z</time>
      </trkpt>
      <trkpt lat="43.72468" lon="5.90502">
        <ele>454</ele>
        <time>2021-01-18T13:13:08.000Z</time>
      </trkpt>
      <trkpt lat="43.72469" lon="5.90511">
        <ele>454.60000610352</ele>
        <time>2021-01-18T13:13:11.000Z</time>
      </trkpt>
      <trkpt lat="43.72469" lon="5.90515">
        <ele>454.79998779297</ele>
        <time>2021-01-18T13:13:12.000Z</time>
      </trkpt>
      <trkpt lat="43.72469" lon="5.90526">
        <ele>455.79998779297</ele>
        <time>2021-01-18T13:13:15.000Z</time>
      </trkpt>
      <trkpt lat="43.7247" lon="5.9053">
        <ele>456.39999389648</ele>
        <time>2021-01-18T13:13:16.000Z</time>
      </trkpt>
      <trkpt lat="43.72471" lon="5.90534">
        <ele>457</ele>
        <time>2021-01-18T13:13:17.000Z</time>
      </trkpt>
      <trkpt lat="43.72468" lon="5.90547">
        <ele>457.79998779297</ele>
        <time>2021-01-18T13:13:20.000Z</time>
      </trkpt>
      <trkpt lat="43.72466" lon="5.90551">
        <ele>458.20001220703</ele>
        <time>2021-01-18T13:13:21.000Z</time>
      </trkpt>
      <trkpt lat="43.72466" lon="5.90555">
        <ele>458.39999389648</ele>
        <time>2021-01-18T13:13:22.000Z</time>
      </trkpt>
      <trkpt lat="43.72467" lon="5.90564">
        <ele>459</ele>
        <time>2021-01-18T13:13:24.000Z</time>
      </trkpt>
      <trkpt lat="43.72469" lon="5.90569">
        <ele>459.20001220703</ele>
        <time>2021-01-18T13:13:25.000Z</time>
      </trkpt>
      <trkpt lat="43.72473" lon="5.90577">
        <ele>459.79998779297</ele>
        <time>2021-01-18T13:13:27.000Z</time>
      </trkpt>
      <trkpt lat="43.72475" lon="5.90581">
        <ele>460.20001220703</ele>
        <time>2021-01-18T13:13:28.000Z</time>
      </trkpt>
      <trkpt lat="43.72475" lon="5.90585">
        <ele>460.39999389648</ele>
        <time>2021-01-18T13:13:29.000Z</time>
      </trkpt>
      <trkpt lat="43.72476" lon="5.90597">
        <ele>461.79998779297</ele>
        <time>2021-01-18T13:13:32.000Z</time>
      </trkpt>
      <trkpt lat="43.72474" lon="5.90605">
        <ele>463</ele>
        <time>2021-01-18T13:13:34.000Z</time>
      </trkpt>
      <trkpt lat="43.72472" lon="5.90623">
        <ele>464.20001220703</ele>
        <time>2021-01-18T13:13:38.000Z</time>
      </trkpt>
      <trkpt lat="43.72473" lon="5.90628">
        <ele>464.39999389648</ele>
        <time>2021-01-18T13:13:39.000Z</time>
      </trkpt>
      <trkpt lat="43.72475" lon="5.90637">
        <ele>465.20001220703</ele>
        <time>2021-01-18T13:13:41.000Z</time>
      </trkpt>
      <trkpt lat="43.72476" lon="5.90646">
        <ele>466.20001220703</ele>
        <time>2021-01-18T13:13:43.000Z</time>
      </trkpt>
      <trkpt lat="43.72475" lon="5.90649">
        <ele>466.60000610352</ele>
        <time>2021-01-18T13:13:44.000Z</time>
      </trkpt>
      <trkpt lat="43.72471" lon="5.90655">
        <ele>467.79998779297</ele>
        <time>2021-01-18T13:13:47.000Z</time>
      </trkpt>
      <trkpt lat="43.72466" lon="5.90663">
        <ele>468.60000610352</ele>
        <time>2021-01-18T13:13:51.000Z</time>
      </trkpt>
      <trkpt lat="43.72465" lon="5.90665">
        <ele>469</ele>
        <time>2021-01-18T13:13:52.000Z</time>
      </trkpt>
      <trkpt lat="43.72466" lon="5.90668">
        <ele>469.39999389648</ele>
        <time>2021-01-18T13:13:53.000Z</time>
      </trkpt>
      <trkpt lat="43.72467" lon="5.90671">
        <ele>469.79998779297</ele>
        <time>2021-01-18T13:13:54.000Z</time>
      </trkpt>
      <trkpt lat="43.7247" lon="5.90675">
        <ele>470.79998779297</ele>
        <time>2021-01-18T13:13:56.000Z</time>
      </trkpt>
      <trkpt lat="43.72472" lon="5.90678">
        <ele>471.39999389648</ele>
        <time>2021-01-18T13:13:57.000Z</time>
      </trkpt>
      <trkpt lat="43.72473" lon="5.9068">
        <ele>472.60000610352</ele>
        <time>2021-01-18T13:13:58.000Z</time>
      </trkpt>
      <trkpt lat="43.72476" lon="5.90689">
        <ele>473.60000610352</ele>
        <time>2021-01-18T13:14:02.000Z</time>
      </trkpt>
      <trkpt lat="43.72478" lon="5.90692">
        <ele>474</ele>
        <time>2021-01-18T13:14:04.000Z</time>
      </trkpt>
      <trkpt lat="43.7248" lon="5.907">
        <ele>474.60000610352</ele>
        <time>2021-01-18T13:14:09.000Z</time>
      </trkpt>
      <trkpt lat="43.72481" lon="5.90701">
        <ele>474.79998779297</ele>
        <time>2021-01-18T13:14:10.000Z</time>
      </trkpt>
      <trkpt lat="43.72486" lon="5.90711">
        <ele>475.39999389648</ele>
        <time>2021-01-18T13:14:17.000Z</time>
      </trkpt>
      <trkpt lat="43.72488" lon="5.90714">
        <ele>475.60000610352</ele>
        <time>2021-01-18T13:14:19.000Z</time>
      </trkpt>
      <trkpt lat="43.72493" lon="5.90718">
        <ele>475.79998779297</ele>
        <time>2021-01-18T13:14:22.000Z</time>
      </trkpt>
      <trkpt lat="43.72495" lon="5.9072">
        <ele>476</ele>
        <time>2021-01-18T13:14:23.000Z</time>
      </trkpt>
      <trkpt lat="43.7251" lon="5.90728">
        <ele>476</ele>
        <time>2021-01-18T13:14:30.000Z</time>
      </trkpt>
      <trkpt lat="43.7252" lon="5.90738">
        <ele>476</ele>
        <time>2021-01-18T13:14:35.000Z</time>
      </trkpt>
      <trkpt lat="43.72531" lon="5.90756">
        <ele>476.39999389648</ele>
        <time>2021-01-18T13:14:42.000Z</time>
      </trkpt>
      <trkpt lat="43.72536" lon="5.90768">
        <ele>477</ele>
        <time>2021-01-18T13:14:46.000Z</time>
      </trkpt>
      <trkpt lat="43.72538" lon="5.90775">
        <ele>478</ele>
        <time>2021-01-18T13:14:49.000Z</time>
      </trkpt>
      <trkpt lat="43.72538" lon="5.90778">
        <ele>478.20001220703</ele>
        <time>2021-01-18T13:14:50.000Z</time>
      </trkpt>
      <trkpt lat="43.72543" lon="5.90791">
        <ele>479.39999389648</ele>
        <time>2021-01-18T13:14:55.000Z</time>
      </trkpt>
      <trkpt lat="43.72545" lon="5.90794">
        <ele>479.60000610352</ele>
        <time>2021-01-18T13:14:56.000Z</time>
      </trkpt>
      <trkpt lat="43.72553" lon="5.90806">
        <ele>480.39999389648</ele>
        <time>2021-01-18T13:15:00.000Z</time>
      </trkpt>
      <trkpt lat="43.72558" lon="5.90815">
        <ele>481</ele>
        <time>2021-01-18T13:15:03.000Z</time>
      </trkpt>
      <trkpt lat="43.72562" lon="5.90819">
        <ele>481.60000610352</ele>
        <time>2021-01-18T13:15:05.000Z</time>
      </trkpt>
      <trkpt lat="43.7257" lon="5.90828">
        <ele>482.79998779297</ele>
        <time>2021-01-18T13:15:09.000Z</time>
      </trkpt>
      <trkpt lat="43.72583" lon="5.9084">
        <ele>484</ele>
        <time>2021-01-18T13:15:15.000Z</time>
      </trkpt>
      <trkpt lat="43.72585" lon="5.90842">
        <ele>484.20001220703</ele>
        <time>2021-01-18T13:15:16.000Z</time>
      </trkpt>
      <trkpt lat="43.72592" lon="5.90846">
        <ele>485.20001220703</ele>
        <time>2021-01-18T13:15:19.000Z</time>
      </trkpt>
      <trkpt lat="43.726" lon="5.90849">
        <ele>486.20001220703</ele>
        <time>2021-01-18T13:15:22.000Z</time>
      </trkpt>
      <trkpt lat="43.72602" lon="5.9085">
        <ele>486.39999389648</ele>
        <time>2021-01-18T13:15:23.000Z</time>
      </trkpt>
      <trkpt lat="43.7261" lon="5.90855">
        <ele>487.39999389648</ele>
        <time>2021-01-18T13:15:26.000Z</time>
      </trkpt>
      <trkpt lat="43.72617" lon="5.90858">
        <ele>488</ele>
        <time>2021-01-18T13:15:29.000Z</time>
      </trkpt>
      <trkpt lat="43.72623" lon="5.9086">
        <ele>488.39999389648</ele>
        <time>2021-01-18T13:15:31.000Z</time>
      </trkpt>
      <trkpt lat="43.72632" lon="5.90864">
        <ele>489.39999389648</ele>
        <time>2021-01-18T13:15:34.000Z</time>
      </trkpt>
      <trkpt lat="43.72634" lon="5.90864">
        <ele>489.60000610352</ele>
        <time>2021-01-18T13:15:35.000Z</time>
      </trkpt>
      <trkpt lat="43.7265" lon="5.90864">
        <ele>490.39999389648</ele>
        <time>2021-01-18T13:15:40.000Z</time>
      </trkpt>
      <trkpt lat="43.72655" lon="5.90863">
        <ele>490.79998779297</ele>
        <time>2021-01-18T13:15:42.000Z</time>
      </trkpt>
      <trkpt lat="43.72666" lon="5.9086">
        <ele>491.39999389648</ele>
        <time>2021-01-18T13:15:46.000Z</time>
      </trkpt>
      <trkpt lat="43.72672" lon="5.90856">
        <ele>492</ele>
        <time>2021-01-18T13:15:49.000Z</time>
      </trkpt>
      <trkpt lat="43.7268" lon="5.90852">
        <ele>492.60000610352</ele>
        <time>2021-01-18T13:15:52.000Z</time>
      </trkpt>
      <trkpt lat="43.72683" lon="5.90848">
        <ele>493.20001220703</ele>
        <time>2021-01-18T13:15:54.000Z</time>
      </trkpt>
      <trkpt lat="43.7269" lon="5.90841">
        <ele>494.20001220703</ele>
        <time>2021-01-18T13:15:57.000Z</time>
      </trkpt>
      <trkpt lat="43.72693" lon="5.90838">
        <ele>494.60000610352</ele>
        <time>2021-01-18T13:15:58.000Z</time>
      </trkpt>
      <trkpt lat="43.72702" lon="5.90837">
        <ele>495.60000610352</ele>
        <time>2021-01-18T13:16:01.000Z</time>
      </trkpt>
      <trkpt lat="43.72705" lon="5.90837">
        <ele>495.79998779297</ele>
        <time>2021-01-18T13:16:02.000Z</time>
      </trkpt>
      <trkpt lat="43.72713" lon="5.90841">
        <ele>496.79998779297</ele>
        <time>2021-01-18T13:16:05.000Z</time>
      </trkpt>
      <trkpt lat="43.72719" lon="5.90844">
        <ele>497.20001220703</ele>
        <time>2021-01-18T13:16:07.000Z</time>
      </trkpt>
      <trkpt lat="43.72724" lon="5.90849">
        <ele>498.20001220703</ele>
        <time>2021-01-18T13:16:09.000Z</time>
      </trkpt>
      <trkpt lat="43.72734" lon="5.9086">
        <ele>499.39999389648</ele>
        <time>2021-01-18T13:16:13.000Z</time>
      </trkpt>
      <trkpt lat="43.72755" lon="5.9088">
        <ele>500.39999389648</ele>
        <time>2021-01-18T13:16:21.000Z</time>
      </trkpt>
      <trkpt lat="43.72758" lon="5.90882">
        <ele>500.39999389648</ele>
        <time>2021-01-18T13:16:22.000Z</time>
      </trkpt>
      <trkpt lat="43.72768" lon="5.90885">
        <ele>501.39999389648</ele>
        <time>2021-01-18T13:16:26.000Z</time>
      </trkpt>
      <trkpt lat="43.72784" lon="5.90881">
        <ele>502</ele>
        <time>2021-01-18T13:16:32.000Z</time>
      </trkpt>
      <trkpt lat="43.72801" lon="5.90879">
        <ele>502</ele>
        <time>2021-01-18T13:16:37.000Z</time>
      </trkpt>
      <trkpt lat="43.72821" lon="5.9088">
        <ele>502.20001220703</ele>
        <time>2021-01-18T13:16:43.000Z</time>
      </trkpt>
      <trkpt lat="43.72834" lon="5.90875">
        <ele>502.39999389648</ele>
        <time>2021-01-18T13:16:47.000Z</time>
      </trkpt>
      <trkpt lat="43.72846" lon="5.90866">
        <ele>503.20001220703</ele>
        <time>2021-01-18T13:16:51.000Z</time>
      </trkpt>
      <trkpt lat="43.7285" lon="5.90859">
        <ele>503.79998779297</ele>
        <time>2021-01-18T13:16:53.000Z</time>
      </trkpt>
      <trkpt lat="43.72854" lon="5.90847">
        <ele>504.60000610352</ele>
        <time>2021-01-18T13:16:56.000Z</time>
      </trkpt>
      <trkpt lat="43.72856" lon="5.90842">
        <ele>505</ele>
        <time>2021-01-18T13:16:57.000Z</time>
      </trkpt>
      <trkpt lat="43.72864" lon="5.90831">
        <ele>506.39999389648</ele>
        <time>2021-01-18T13:17:00.000Z</time>
      </trkpt>
      <trkpt lat="43.72871" lon="5.90824">
        <ele>507.39999389648</ele>
        <time>2021-01-18T13:17:02.000Z</time>
      </trkpt>
      <trkpt lat="43.7288" lon="5.90818">
        <ele>508.20001220703</ele>
        <time>2021-01-18T13:17:05.000Z</time>
      </trkpt>
      <trkpt lat="43.72891" lon="5.90799">
        <ele>509.60000610352</ele>
        <time>2021-01-18T13:17:10.000Z</time>
      </trkpt>
      <trkpt lat="43.72896" lon="5.90786">
        <ele>510.79998779297</ele>
        <time>2021-01-18T13:17:13.000Z</time>
      </trkpt>
      <trkpt lat="43.72899" lon="5.90778">
        <ele>512</ele>
        <time>2021-01-18T13:17:15.000Z</time>
      </trkpt>
      <trkpt lat="43.72901" lon="5.90769">
        <ele>512.59997558594</ele>
        <time>2021-01-18T13:17:17.000Z</time>
      </trkpt>
      <trkpt lat="43.72905" lon="5.90758">
        <ele>513.20001220703</ele>
        <time>2021-01-18T13:17:20.000Z</time>
      </trkpt>
      <trkpt lat="43.72911" lon="5.90748">
        <ele>514.20001220703</ele>
        <time>2021-01-18T13:17:23.000Z</time>
      </trkpt>
      <trkpt lat="43.72914" lon="5.90745">
        <ele>514.59997558594</ele>
        <time>2021-01-18T13:17:24.000Z</time>
      </trkpt>
      <trkpt lat="43.72921" lon="5.90732">
        <ele>515.79998779297</ele>
        <time>2021-01-18T13:17:28.000Z</time>
      </trkpt>
      <trkpt lat="43.72923" lon="5.90729">
        <ele>516</ele>
        <time>2021-01-18T13:17:29.000Z</time>
      </trkpt>
      <trkpt lat="43.72929" lon="5.90722">
        <ele>517.20001220703</ele>
        <time>2021-01-18T13:17:32.000Z</time>
      </trkpt>
      <trkpt lat="43.72933" lon="5.90718">
        <ele>518.20001220703</ele>
        <time>2021-01-18T13:17:34.000Z</time>
      </trkpt>
      <trkpt lat="43.72936" lon="5.90717">
        <ele>518.59997558594</ele>
        <time>2021-01-18T13:17:35.000Z</time>
      </trkpt>
      <trkpt lat="43.72942" lon="5.90714">
        <ele>519.40002441406</ele>
        <time>2021-01-18T13:17:37.000Z</time>
      </trkpt>
      <trkpt lat="43.72947" lon="5.90712">
        <ele>520.79998779297</ele>
        <time>2021-01-18T13:17:39.000Z</time>
      </trkpt>
      <trkpt lat="43.72955" lon="5.90708">
        <ele>521.59997558594</ele>
        <time>2021-01-18T13:17:42.000Z</time>
      </trkpt>
      <trkpt lat="43.72957" lon="5.90706">
        <ele>522</ele>
        <time>2021-01-18T13:17:43.000Z</time>
      </trkpt>
      <trkpt lat="43.72965" lon="5.90701">
        <ele>523</ele>
        <time>2021-01-18T13:17:46.000Z</time>
      </trkpt>
      <trkpt lat="43.7297" lon="5.90698">
        <ele>524</ele>
        <time>2021-01-18T13:17:48.000Z</time>
      </trkpt>
      <trkpt lat="43.72978" lon="5.90694">
        <ele>525.20001220703</ele>
        <time>2021-01-18T13:17:51.000Z</time>
      </trkpt>
      <trkpt lat="43.72985" lon="5.9069">
        <ele>526.40002441406</ele>
        <time>2021-01-18T13:17:54.000Z</time>
      </trkpt>
      <trkpt lat="43.72992" lon="5.90683">
        <ele>527.79998779297</ele>
        <time>2021-01-18T13:17:57.000Z</time>
      </trkpt>
      <trkpt lat="43.72998" lon="5.90676">
        <ele>529.20001220703</ele>
        <time>2021-01-18T13:18:00.000Z</time>
      </trkpt>
      <trkpt lat="43.73" lon="5.90674">
        <ele>529.59997558594</ele>
        <time>2021-01-18T13:18:01.000Z</time>
      </trkpt>
      <trkpt lat="43.73005" lon="5.90669">
        <ele>530.59997558594</ele>
        <time>2021-01-18T13:18:03.000Z</time>
      </trkpt>
      <trkpt lat="43.73011" lon="5.90662">
        <ele>532</ele>
        <time>2021-01-18T13:18:06.000Z</time>
      </trkpt>
      <trkpt lat="43.73015" lon="5.90657">
        <ele>532.40002441406</ele>
        <time>2021-01-18T13:18:08.000Z</time>
      </trkpt>
      <trkpt lat="43.73018" lon="5.9065">
        <ele>533.20001220703</ele>
        <time>2021-01-18T13:18:10.000Z</time>
      </trkpt>
      <trkpt lat="43.7302" lon="5.90643">
        <ele>534.40002441406</ele>
        <time>2021-01-18T13:18:12.000Z</time>
      </trkpt>
      <trkpt lat="43.73022" lon="5.90638">
        <ele>535.40002441406</ele>
        <time>2021-01-18T13:18:14.000Z</time>
      </trkpt>
      <trkpt lat="43.73024" lon="5.90636">
        <ele>536</ele>
        <time>2021-01-18T13:18:15.000Z</time>
      </trkpt>
      <trkpt lat="43.73026" lon="5.90634">
        <ele>536.40002441406</ele>
        <time>2021-01-18T13:18:16.000Z</time>
      </trkpt>
      <trkpt lat="43.73031" lon="5.90634">
        <ele>537</ele>
        <time>2021-01-18T13:18:18.000Z</time>
      </trkpt>
      <trkpt lat="43.73037" lon="5.90639">
        <ele>538.20001220703</ele>
        <time>2021-01-18T13:18:21.000Z</time>
      </trkpt>
      <trkpt lat="43.73037" lon="5.90641">
        <ele>538.59997558594</ele>
        <time>2021-01-18T13:18:22.000Z</time>
      </trkpt>
      <trkpt lat="43.73038" lon="5.90647">
        <ele>539.40002441406</ele>
        <time>2021-01-18T13:18:24.000Z</time>
      </trkpt>
      <trkpt lat="43.73035" lon="5.90653">
        <ele>540.20001220703</ele>
        <time>2021-01-18T13:18:26.000Z</time>
      </trkpt>
      <trkpt lat="43.73034" lon="5.90657">
        <ele>540.59997558594</ele>
        <time>2021-01-18T13:18:27.000Z</time>
      </trkpt>
      <trkpt lat="43.73033" lon="5.90668">
        <ele>541.59997558594</ele>
        <time>2021-01-18T13:18:30.000Z</time>
      </trkpt>
      <trkpt lat="43.73035" lon="5.90672">
        <ele>542.79998779297</ele>
        <time>2021-01-18T13:18:33.000Z</time>
      </trkpt>
      <trkpt lat="43.73036" lon="5.90673">
        <ele>543.20001220703</ele>
        <time>2021-01-18T13:18:34.000Z</time>
      </trkpt>
      <trkpt lat="43.73037" lon="5.90674">
        <ele>543.40002441406</ele>
        <time>2021-01-18T13:18:35.000Z</time>
      </trkpt>
      <trkpt lat="43.73039" lon="5.90675">
        <ele>543.79998779297</ele>
        <time>2021-01-18T13:18:37.000Z</time>
      </trkpt>
      <trkpt lat="43.7304" lon="5.90674">
        <ele>544.40002441406</ele>
        <time>2021-01-18T13:18:38.000Z</time>
      </trkpt>
      <trkpt lat="43.73041" lon="5.90674">
        <ele>544.59997558594</ele>
        <time>2021-01-18T13:18:40.000Z</time>
      </trkpt>
      <trkpt lat="43.73042" lon="5.90676">
        <ele>545.20001220703</ele>
        <time>2021-01-18T13:18:48.000Z</time>
      </trkpt>
      <trkpt lat="43.73044" lon="5.90675">
        <ele>545.20001220703</ele>
        <time>2021-01-18T13:18:50.000Z</time>
      </trkpt>
      <trkpt lat="43.73054" lon="5.90664">
        <ele>545.40002441406</ele>
        <time>2021-01-18T13:18:56.000Z</time>
      </trkpt>
      <trkpt lat="43.73061" lon="5.90652">
        <ele>546.20001220703</ele>
        <time>2021-01-18T13:19:01.000Z</time>
      </trkpt>
      <trkpt lat="43.73062" lon="5.90651">
        <ele>546.59997558594</ele>
        <time>2021-01-18T13:19:02.000Z</time>
      </trkpt>
      <trkpt lat="43.73065" lon="5.9065">
        <ele>547.20001220703</ele>
        <time>2021-01-18T13:19:05.000Z</time>
      </trkpt>
      <trkpt lat="43.73065" lon="5.90649">
        <ele>547.59997558594</ele>
        <time>2021-01-18T13:19:06.000Z</time>
      </trkpt>
      <trkpt lat="43.73065" lon="5.90648">
        <ele>548.59997558594</ele>
        <time>2021-01-18T13:19:12.000Z</time>
      </trkpt>
      <trkpt lat="43.73065" lon="5.90648">
        <ele>549</ele>
        <time>2021-01-18T13:19:24.000Z</time>
      </trkpt>
      <trkpt lat="43.73069" lon="5.9065">
        <ele>548.79998779297</ele>
        <time>2021-01-18T13:19:38.000Z</time>
      </trkpt>
      <trkpt lat="43.73079" lon="5.90654">
        <ele>548.79998779297</ele>
        <time>2021-01-18T13:19:43.000Z</time>
      </trkpt>
      <trkpt lat="43.73096" lon="5.9066">
        <ele>549</ele>
        <time>2021-01-18T13:19:50.000Z</time>
      </trkpt>
      <trkpt lat="43.73101" lon="5.90661">
        <ele>549</ele>
        <time>2021-01-18T13:19:52.000Z</time>
      </trkpt>
      <trkpt lat="43.73106" lon="5.90656">
        <ele>549</ele>
        <time>2021-01-18T13:19:54.000Z</time>
      </trkpt>
      <trkpt lat="43.73115" lon="5.90647">
        <ele>548.59997558594</ele>
        <time>2021-01-18T13:19:58.000Z</time>
      </trkpt>
      <trkpt lat="43.73121" lon="5.90641">
        <ele>548.20001220703</ele>
        <time>2021-01-18T13:20:01.000Z</time>
      </trkpt>
      <trkpt lat="43.73126" lon="5.90633">
        <ele>547</ele>
        <time>2021-01-18T13:20:03.000Z</time>
      </trkpt>
      <trkpt lat="43.73128" lon="5.90627">
        <ele>546.59997558594</ele>
        <time>2021-01-18T13:20:04.000Z</time>
      </trkpt>
      <trkpt lat="43.73134" lon="5.90618">
        <ele>546</ele>
        <time>2021-01-18T13:20:06.000Z</time>
      </trkpt>
      <trkpt lat="43.73145" lon="5.90603">
        <ele>544.59997558594</ele>
        <time>2021-01-18T13:20:10.000Z</time>
      </trkpt>
      <trkpt lat="43.73148" lon="5.90601">
        <ele>544.20001220703</ele>
        <time>2021-01-18T13:20:11.000Z</time>
      </trkpt>
      <trkpt lat="43.7316" lon="5.90593">
        <ele>543.20001220703</ele>
        <time>2021-01-18T13:20:14.000Z</time>
      </trkpt>
      <trkpt lat="43.73174" lon="5.9058">
        <ele>543</ele>
        <time>2021-01-18T13:20:17.000Z</time>
      </trkpt>
      <trkpt lat="43.73182" lon="5.9057">
        <ele>542.79998779297</ele>
        <time>2021-01-18T13:20:19.000Z</time>
      </trkpt>
      <trkpt lat="43.73189" lon="5.90564">
        <ele>542.20001220703</ele>
        <time>2021-01-18T13:20:21.000Z</time>
      </trkpt>
      <trkpt lat="43.73195" lon="5.90563">
        <ele>541.79998779297</ele>
        <time>2021-01-18T13:20:22.000Z</time>
      </trkpt>
      <trkpt lat="43.732" lon="5.90561">
        <ele>541.20001220703</ele>
        <time>2021-01-18T13:20:23.000Z</time>
      </trkpt>
      <trkpt lat="43.73216" lon="5.90554">
        <ele>540.20001220703</ele>
        <time>2021-01-18T13:20:26.000Z</time>
      </trkpt>
      <trkpt lat="43.7323" lon="5.9055">
        <ele>539.40002441406</ele>
        <time>2021-01-18T13:20:29.000Z</time>
      </trkpt>
      <trkpt lat="43.73234" lon="5.90547">
        <ele>538.59997558594</ele>
        <time>2021-01-18T13:20:30.000Z</time>
      </trkpt>
      <trkpt lat="43.73242" lon="5.90538">
        <ele>537.20001220703</ele>
        <time>2021-01-18T13:20:32.000Z</time>
      </trkpt>
      <trkpt lat="43.73244" lon="5.90533">
        <ele>536.59997558594</ele>
        <time>2021-01-18T13:20:33.000Z</time>
      </trkpt>
      <trkpt lat="43.73248" lon="5.90528">
        <ele>536.20001220703</ele>
        <time>2021-01-18T13:20:34.000Z</time>
      </trkpt>
      <trkpt lat="43.73252" lon="5.90525">
        <ele>536</ele>
        <time>2021-01-18T13:20:35.000Z</time>
      </trkpt>
      <trkpt lat="43.73264" lon="5.90519">
        <ele>534.79998779297</ele>
        <time>2021-01-18T13:20:38.000Z</time>
      </trkpt>
      <trkpt lat="43.73272" lon="5.90517">
        <ele>533.40002441406</ele>
        <time>2021-01-18T13:20:40.000Z</time>
      </trkpt>
      <trkpt lat="43.7328" lon="5.90517">
        <ele>532</ele>
        <time>2021-01-18T13:20:42.000Z</time>
      </trkpt>
      <trkpt lat="43.73285" lon="5.90518">
        <ele>531.20001220703</ele>
        <time>2021-01-18T13:20:43.000Z</time>
      </trkpt>
      <trkpt lat="43.73289" lon="5.90519">
        <ele>530.20001220703</ele>
        <time>2021-01-18T13:20:44.000Z</time>
      </trkpt>
      <trkpt lat="43.73297" lon="5.9052">
        <ele>529.20001220703</ele>
        <time>2021-01-18T13:20:46.000Z</time>
      </trkpt>
      <trkpt lat="43.73305" lon="5.90518">
        <ele>527.79998779297</ele>
        <time>2021-01-18T13:20:48.000Z</time>
      </trkpt>
      <trkpt lat="43.7331" lon="5.90516">
        <ele>527</ele>
        <time>2021-01-18T13:20:49.000Z</time>
      </trkpt>
      <trkpt lat="43.73314" lon="5.90513">
        <ele>525</ele>
        <time>2021-01-18T13:20:50.000Z</time>
      </trkpt>
      <trkpt lat="43.73322" lon="5.90501">
        <ele>523.40002441406</ele>
        <time>2021-01-18T13:20:52.000Z</time>
      </trkpt>
      <trkpt lat="43.7333" lon="5.90488">
        <ele>522.20001220703</ele>
        <time>2021-01-18T13:20:54.000Z</time>
      </trkpt>
      <trkpt lat="43.73334" lon="5.90474">
        <ele>520.79998779297</ele>
        <time>2021-01-18T13:20:56.000Z</time>
      </trkpt>
      <trkpt lat="43.73338" lon="5.90458">
        <ele>519.40002441406</ele>
        <time>2021-01-18T13:20:58.000Z</time>
      </trkpt>
      <trkpt lat="43.73347" lon="5.90444">
        <ele>518</ele>
        <time>2021-01-18T13:21:00.000Z</time>
      </trkpt>
      <trkpt lat="43.7335" lon="5.90438">
        <ele>517.20001220703</ele>
        <time>2021-01-18T13:21:01.000Z</time>
      </trkpt>
      <trkpt lat="43.73354" lon="5.90432">
        <ele>516.20001220703</ele>
        <time>2021-01-18T13:21:02.000Z</time>
      </trkpt>
      <trkpt lat="43.73363" lon="5.90424">
        <ele>514.20001220703</ele>
        <time>2021-01-18T13:21:04.000Z</time>
      </trkpt>
      <trkpt lat="43.73368" lon="5.90411">
        <ele>512.20001220703</ele>
        <time>2021-01-18T13:21:06.000Z</time>
      </trkpt>
      <trkpt lat="43.73371" lon="5.90404">
        <ele>511.20001220703</ele>
        <time>2021-01-18T13:21:07.000Z</time>
      </trkpt>
      <trkpt lat="43.73377" lon="5.90393">
        <ele>509.20001220703</ele>
        <time>2021-01-18T13:21:09.000Z</time>
      </trkpt>
      <trkpt lat="43.7338" lon="5.90387">
        <ele>508.39999389648</ele>
        <time>2021-01-18T13:21:10.000Z</time>
      </trkpt>
      <trkpt lat="43.73382" lon="5.90381">
        <ele>507.60000610352</ele>
        <time>2021-01-18T13:21:11.000Z</time>
      </trkpt>
      <trkpt lat="43.73384" lon="5.90372">
        <ele>506.20001220703</ele>
        <time>2021-01-18T13:21:13.000Z</time>
      </trkpt>
      <trkpt lat="43.73385" lon="5.90368">
        <ele>505.20001220703</ele>
        <time>2021-01-18T13:21:14.000Z</time>
      </trkpt>
      <trkpt lat="43.73388" lon="5.90365">
        <ele>504.60000610352</ele>
        <time>2021-01-18T13:21:15.000Z</time>
      </trkpt>
      <trkpt lat="43.73392" lon="5.90362">
        <ele>503.79998779297</ele>
        <time>2021-01-18T13:21:16.000Z</time>
      </trkpt>
      <trkpt lat="43.73397" lon="5.90359">
        <ele>503</ele>
        <time>2021-01-18T13:21:17.000Z</time>
      </trkpt>
      <trkpt lat="43.73402" lon="5.90356">
        <ele>501.79998779297</ele>
        <time>2021-01-18T13:21:18.000Z</time>
      </trkpt>
      <trkpt lat="43.73416" lon="5.90342">
        <ele>500.79998779297</ele>
        <time>2021-01-18T13:21:21.000Z</time>
      </trkpt>
      <trkpt lat="43.73419" lon="5.90337">
        <ele>500.60000610352</ele>
        <time>2021-01-18T13:21:22.000Z</time>
      </trkpt>
      <trkpt lat="43.73422" lon="5.9033">
        <ele>499.20001220703</ele>
        <time>2021-01-18T13:21:24.000Z</time>
      </trkpt>
      <trkpt lat="43.73422" lon="5.90329">
        <ele>498.20001220703</ele>
        <time>2021-01-18T13:21:25.000Z</time>
      </trkpt>
      <trkpt lat="43.73423" lon="5.90327">
        <ele>496.60000610352</ele>
        <time>2021-01-18T13:21:27.000Z</time>
      </trkpt>
      <trkpt lat="43.73423" lon="5.90326">
        <ele>495</ele>
        <time>2021-01-18T13:21:29.000Z</time>
      </trkpt>
      <trkpt lat="43.73424" lon="5.90323">
        <ele>493.79998779297</ele>
        <time>2021-01-18T13:21:33.000Z</time>
      </trkpt>
      <trkpt lat="43.73426" lon="5.90321">
        <ele>493.79998779297</ele>
        <time>2021-01-18T13:21:37.000Z</time>
      </trkpt>
      <trkpt lat="43.73428" lon="5.90316">
        <ele>493.60000610352</ele>
        <time>2021-01-18T13:21:47.000Z</time>
      </trkpt>
      <trkpt lat="43.73432" lon="5.90316">
        <ele>492.79998779297</ele>
        <time>2021-01-18T13:21:51.000Z</time>
      </trkpt>
      <trkpt lat="43.73433" lon="5.90317">
        <ele>492.60000610352</ele>
        <time>2021-01-18T13:21:52.000Z</time>
      </trkpt>
      <trkpt lat="43.73433" lon="5.90318">
        <ele>492.20001220703</ele>
        <time>2021-01-18T13:21:53.000Z</time>
      </trkpt>
      <trkpt lat="43.73439" lon="5.90321">
        <ele>491.60000610352</ele>
        <time>2021-01-18T13:21:57.000Z</time>
      </trkpt>
      <trkpt lat="43.73442" lon="5.90319">
        <ele>491.39999389648</ele>
        <time>2021-01-18T13:21:58.000Z</time>
      </trkpt>
      <trkpt lat="43.73451" lon="5.90313">
        <ele>489.79998779297</ele>
        <time>2021-01-18T13:22:01.000Z</time>
      </trkpt>
      <trkpt lat="43.73463" lon="5.9031">
        <ele>488.20001220703</ele>
        <time>2021-01-18T13:22:04.000Z</time>
      </trkpt>
      <trkpt lat="43.7347" lon="5.90303">
        <ele>486.79998779297</ele>
        <time>2021-01-18T13:22:06.000Z</time>
      </trkpt>
      <trkpt lat="43.73476" lon="5.90293">
        <ele>485.20001220703</ele>
        <time>2021-01-18T13:22:08.000Z</time>
      </trkpt>
      <trkpt lat="43.73482" lon="5.90279">
        <ele>484</ele>
        <time>2021-01-18T13:22:10.000Z</time>
      </trkpt>
      <trkpt lat="43.7349" lon="5.90266">
        <ele>482.60000610352</ele>
        <time>2021-01-18T13:22:12.000Z</time>
      </trkpt>
      <trkpt lat="43.73493" lon="5.90259">
        <ele>482.20001220703</ele>
        <time>2021-01-18T13:22:13.000Z</time>
      </trkpt>
      <trkpt lat="43.73499" lon="5.90247">
        <ele>481.39999389648</ele>
        <time>2021-01-18T13:22:15.000Z</time>
      </trkpt>
      <trkpt lat="43.73504" lon="5.90242">
        <ele>480.79998779297</ele>
        <time>2021-01-18T13:22:16.000Z</time>
      </trkpt>
      <trkpt lat="43.73509" lon="5.90238">
        <ele>480.20001220703</ele>
        <time>2021-01-18T13:22:17.000Z</time>
      </trkpt>
      <trkpt lat="43.73514" lon="5.90234">
        <ele>479</ele>
        <time>2021-01-18T13:22:18.000Z</time>
      </trkpt>
      <trkpt lat="43.73522" lon="5.90223">
        <ele>477.60000610352</ele>
        <time>2021-01-18T13:22:20.000Z</time>
      </trkpt>
      <trkpt lat="43.73529" lon="5.90213">
        <ele>476</ele>
        <time>2021-01-18T13:22:22.000Z</time>
      </trkpt>
      <trkpt lat="43.73532" lon="5.90211">
        <ele>475</ele>
        <time>2021-01-18T13:22:23.000Z</time>
      </trkpt>
      <trkpt lat="43.73536" lon="5.90211">
        <ele>474.20001220703</ele>
        <time>2021-01-18T13:22:24.000Z</time>
      </trkpt>
      <trkpt lat="43.73546" lon="5.9021">
        <ele>472.60000610352</ele>
        <time>2021-01-18T13:22:26.000Z</time>
      </trkpt>
      <trkpt lat="43.73555" lon="5.90203">
        <ele>470.60000610352</ele>
        <time>2021-01-18T13:22:28.000Z</time>
      </trkpt>
      <trkpt lat="43.7356" lon="5.90201">
        <ele>469.60000610352</ele>
        <time>2021-01-18T13:22:29.000Z</time>
      </trkpt>
      <trkpt lat="43.73563" lon="5.902">
        <ele>468.79998779297</ele>
        <time>2021-01-18T13:22:30.000Z</time>
      </trkpt>
      <trkpt lat="43.73567" lon="5.90201">
        <ele>468.39999389648</ele>
        <time>2021-01-18T13:22:31.000Z</time>
      </trkpt>
      <trkpt lat="43.73576" lon="5.90204">
        <ele>467.20001220703</ele>
        <time>2021-01-18T13:22:33.000Z</time>
      </trkpt>
      <trkpt lat="43.73581" lon="5.90206">
        <ele>466.39999389648</ele>
        <time>2021-01-18T13:22:34.000Z</time>
      </trkpt>
      <trkpt lat="43.73587" lon="5.90207">
        <ele>465.60000610352</ele>
        <time>2021-01-18T13:22:35.000Z</time>
      </trkpt>
      <trkpt lat="43.73592" lon="5.90208">
        <ele>464.60000610352</ele>
        <time>2021-01-18T13:22:36.000Z</time>
      </trkpt>
      <trkpt lat="43.73602" lon="5.90208">
        <ele>463.60000610352</ele>
        <time>2021-01-18T13:22:38.000Z</time>
      </trkpt>
      <trkpt lat="43.73606" lon="5.90208">
        <ele>463</ele>
        <time>2021-01-18T13:22:39.000Z</time>
      </trkpt>
      <trkpt lat="43.73616" lon="5.90206">
        <ele>462.60000610352</ele>
        <time>2021-01-18T13:22:41.000Z</time>
      </trkpt>
      <trkpt lat="43.73622" lon="5.90207">
        <ele>462.20001220703</ele>
        <time>2021-01-18T13:22:42.000Z</time>
      </trkpt>
      <trkpt lat="43.73628" lon="5.90207">
        <ele>461.79998779297</ele>
        <time>2021-01-18T13:22:43.000Z</time>
      </trkpt>
      <trkpt lat="43.73638" lon="5.90202">
        <ele>461.39999389648</ele>
        <time>2021-01-18T13:22:45.000Z</time>
      </trkpt>
      <trkpt lat="43.73649" lon="5.90198">
        <ele>461.20001220703</ele>
        <time>2021-01-18T13:22:47.000Z</time>
      </trkpt>
      <trkpt lat="43.73668" lon="5.90196">
        <ele>459.60000610352</ele>
        <time>2021-01-18T13:22:50.000Z</time>
      </trkpt>
      <trkpt lat="43.73675" lon="5.90191">
        <ele>458.60000610352</ele>
        <time>2021-01-18T13:22:51.000Z</time>
      </trkpt>
      <trkpt lat="43.73688" lon="5.90179">
        <ele>456.79998779297</ele>
        <time>2021-01-18T13:22:53.000Z</time>
      </trkpt>
      <trkpt lat="43.73694" lon="5.90174">
        <ele>455.60000610352</ele>
        <time>2021-01-18T13:22:54.000Z</time>
      </trkpt>
      <trkpt lat="43.737" lon="5.9017">
        <ele>454</ele>
        <time>2021-01-18T13:22:55.000Z</time>
      </trkpt>
      <trkpt lat="43.73707" lon="5.90166">
        <ele>452.79998779297</ele>
        <time>2021-01-18T13:22:56.000Z</time>
      </trkpt>
      <trkpt lat="43.7372" lon="5.90157">
        <ele>451</ele>
        <time>2021-01-18T13:22:58.000Z</time>
      </trkpt>
      <trkpt lat="43.73726" lon="5.90152">
        <ele>449.79998779297</ele>
        <time>2021-01-18T13:22:59.000Z</time>
      </trkpt>
      <trkpt lat="43.73731" lon="5.90148">
        <ele>448.39999389648</ele>
        <time>2021-01-18T13:23:00.000Z</time>
      </trkpt>
      <trkpt lat="43.73734" lon="5.90142">
        <ele>447</ele>
        <time>2021-01-18T13:23:01.000Z</time>
      </trkpt>
      <trkpt lat="43.73737" lon="5.90138">
        <ele>445.60000610352</ele>
        <time>2021-01-18T13:23:02.000Z</time>
      </trkpt>
      <trkpt lat="43.73741" lon="5.90134">
        <ele>444</ele>
        <time>2021-01-18T13:23:03.000Z</time>
      </trkpt>
      <trkpt lat="43.73746" lon="5.90131">
        <ele>442.60000610352</ele>
        <time>2021-01-18T13:23:04.000Z</time>
      </trkpt>
      <trkpt lat="43.73751" lon="5.90126">
        <ele>441.20001220703</ele>
        <time>2021-01-18T13:23:05.000Z</time>
      </trkpt>
      <trkpt lat="43.73756" lon="5.9012">
        <ele>439.60000610352</ele>
        <time>2021-01-18T13:23:06.000Z</time>
      </trkpt>
      <trkpt lat="43.73761" lon="5.90114">
        <ele>436.39999389648</ele>
        <time>2021-01-18T13:23:07.000Z</time>
      </trkpt>
      <trkpt lat="43.73766" lon="5.90108">
        <ele>435.39999389648</ele>
        <time>2021-01-18T13:23:08.000Z</time>
      </trkpt>
      <trkpt lat="43.73772" lon="5.90102">
        <ele>434.39999389648</ele>
        <time>2021-01-18T13:23:09.000Z</time>
      </trkpt>
      <trkpt lat="43.73778" lon="5.90096">
        <ele>433.20001220703</ele>
        <time>2021-01-18T13:23:10.000Z</time>
      </trkpt>
      <trkpt lat="43.73792" lon="5.90086">
        <ele>431.20001220703</ele>
        <time>2021-01-18T13:23:12.000Z</time>
      </trkpt>
      <trkpt lat="43.73799" lon="5.9008">
        <ele>430</ele>
        <time>2021-01-18T13:23:13.000Z</time>
      </trkpt>
      <trkpt lat="43.73806" lon="5.90074">
        <ele>428.79998779297</ele>
        <time>2021-01-18T13:23:14.000Z</time>
      </trkpt>
      <trkpt lat="43.73812" lon="5.90065">
        <ele>427.79998779297</ele>
        <time>2021-01-18T13:23:15.000Z</time>
      </trkpt>
      <trkpt lat="43.73818" lon="5.90057">
        <ele>426.79998779297</ele>
        <time>2021-01-18T13:23:16.000Z</time>
      </trkpt>
      <trkpt lat="43.73822" lon="5.90051">
        <ele>425.79998779297</ele>
        <time>2021-01-18T13:23:17.000Z</time>
      </trkpt>
      <trkpt lat="43.73826" lon="5.90045">
        <ele>424.79998779297</ele>
        <time>2021-01-18T13:23:18.000Z</time>
      </trkpt>
      <trkpt lat="43.73828" lon="5.90038">
        <ele>423.60000610352</ele>
        <time>2021-01-18T13:23:19.000Z</time>
      </trkpt>
      <trkpt lat="43.7383" lon="5.90031">
        <ele>422.39999389648</ele>
        <time>2021-01-18T13:23:20.000Z</time>
      </trkpt>
      <trkpt lat="43.73836" lon="5.90019">
        <ele>420.39999389648</ele>
        <time>2021-01-18T13:23:22.000Z</time>
      </trkpt>
      <trkpt lat="43.7384" lon="5.90013">
        <ele>419.39999389648</ele>
        <time>2021-01-18T13:23:23.000Z</time>
      </trkpt>
      <trkpt lat="43.73844" lon="5.90008">
        <ele>418.39999389648</ele>
        <time>2021-01-18T13:23:24.000Z</time>
      </trkpt>
      <trkpt lat="43.73848" lon="5.90002">
        <ele>417.20001220703</ele>
        <time>2021-01-18T13:23:25.000Z</time>
      </trkpt>
      <trkpt lat="43.73853" lon="5.89996">
        <ele>416.20001220703</ele>
        <time>2021-01-18T13:23:26.000Z</time>
      </trkpt>
      <trkpt lat="43.73858" lon="5.8999">
        <ele>415.39999389648</ele>
        <time>2021-01-18T13:23:27.000Z</time>
      </trkpt>
      <trkpt lat="43.73863" lon="5.89986">
        <ele>414.79998779297</ele>
        <time>2021-01-18T13:23:28.000Z</time>
      </trkpt>
      <trkpt lat="43.73869" lon="5.89985">
        <ele>414.20001220703</ele>
        <time>2021-01-18T13:23:29.000Z</time>
      </trkpt>
      <trkpt lat="43.73875" lon="5.89988">
        <ele>413.79998779297</ele>
        <time>2021-01-18T13:23:30.000Z</time>
      </trkpt>
      <trkpt lat="43.7388" lon="5.89993">
        <ele>413</ele>
        <time>2021-01-18T13:23:31.000Z</time>
      </trkpt>
      <trkpt lat="43.73891" lon="5.89998">
        <ele>412</ele>
        <time>2021-01-18T13:23:33.000Z</time>
      </trkpt>
      <trkpt lat="43.73899" lon="5.89993">
        <ele>410.20001220703</ele>
        <time>2021-01-18T13:23:35.000Z</time>
      </trkpt>
      <trkpt lat="43.73902" lon="5.89989">
        <ele>409.60000610352</ele>
        <time>2021-01-18T13:23:36.000Z</time>
      </trkpt>
      <trkpt lat="43.73906" lon="5.89986">
        <ele>409.20001220703</ele>
        <time>2021-01-18T13:23:37.000Z</time>
      </trkpt>
      <trkpt lat="43.7391" lon="5.89983">
        <ele>408.39999389648</ele>
        <time>2021-01-18T13:23:38.000Z</time>
      </trkpt>
      <trkpt lat="43.73917" lon="5.89976">
        <ele>408</ele>
        <time>2021-01-18T13:23:40.000Z</time>
      </trkpt>
      <trkpt lat="43.73921" lon="5.89972">
        <ele>407.79998779297</ele>
        <time>2021-01-18T13:23:41.000Z</time>
      </trkpt>
      <trkpt lat="43.7393" lon="5.89965">
        <ele>407.20001220703</ele>
        <time>2021-01-18T13:23:43.000Z</time>
      </trkpt>
      <trkpt lat="43.73935" lon="5.89962">
        <ele>406.60000610352</ele>
        <time>2021-01-18T13:23:44.000Z</time>
      </trkpt>
      <trkpt lat="43.73939" lon="5.89959">
        <ele>406.39999389648</ele>
        <time>2021-01-18T13:23:45.000Z</time>
      </trkpt>
      <trkpt lat="43.73942" lon="5.89955">
        <ele>405.79998779297</ele>
        <time>2021-01-18T13:23:46.000Z</time>
      </trkpt>
      <trkpt lat="43.73944" lon="5.8995">
        <ele>405.39999389648</ele>
        <time>2021-01-18T13:23:47.000Z</time>
      </trkpt>
      <trkpt lat="43.73944" lon="5.8994">
        <ele>404.79998779297</ele>
        <time>2021-01-18T13:23:49.000Z</time>
      </trkpt>
      <trkpt lat="43.73941" lon="5.89935">
        <ele>404.39999389648</ele>
        <time>2021-01-18T13:23:50.000Z</time>
      </trkpt>
      <trkpt lat="43.73933" lon="5.89928">
        <ele>404</ele>
        <time>2021-01-18T13:23:52.000Z</time>
      </trkpt>
      <trkpt lat="43.73928" lon="5.89926">
        <ele>403.79998779297</ele>
        <time>2021-01-18T13:23:53.000Z</time>
      </trkpt>
      <trkpt lat="43.73924" lon="5.89923">
        <ele>403.60000610352</ele>
        <time>2021-01-18T13:23:54.000Z</time>
      </trkpt>
      <trkpt lat="43.73922" lon="5.89919">
        <ele>402.79998779297</ele>
        <time>2021-01-18T13:23:55.000Z</time>
      </trkpt>
      <trkpt lat="43.73928" lon="5.89904">
        <ele>401.39999389648</ele>
        <time>2021-01-18T13:23:58.000Z</time>
      </trkpt>
      <trkpt lat="43.73931" lon="5.89898">
        <ele>400.79998779297</ele>
        <time>2021-01-18T13:23:59.000Z</time>
      </trkpt>
      <trkpt lat="43.73935" lon="5.89894">
        <ele>400.20001220703</ele>
        <time>2021-01-18T13:24:00.000Z</time>
      </trkpt>
      <trkpt lat="43.73939" lon="5.89892">
        <ele>399.60000610352</ele>
        <time>2021-01-18T13:24:01.000Z</time>
      </trkpt>
      <trkpt lat="43.73944" lon="5.8989">
        <ele>398.79998779297</ele>
        <time>2021-01-18T13:24:02.000Z</time>
      </trkpt>
      <trkpt lat="43.73959" lon="5.89894">
        <ele>398</ele>
        <time>2021-01-18T13:24:05.000Z</time>
      </trkpt>
      <trkpt lat="43.73964" lon="5.89899">
        <ele>397.60000610352</ele>
        <time>2021-01-18T13:24:06.000Z</time>
      </trkpt>
      <trkpt lat="43.73968" lon="5.89903">
        <ele>397.20001220703</ele>
        <time>2021-01-18T13:24:07.000Z</time>
      </trkpt>
      <trkpt lat="43.73973" lon="5.89908">
        <ele>396.79998779297</ele>
        <time>2021-01-18T13:24:08.000Z</time>
      </trkpt>
      <trkpt lat="43.73978" lon="5.89909">
        <ele>396.60000610352</ele>
        <time>2021-01-18T13:24:09.000Z</time>
      </trkpt>
      <trkpt lat="43.74" lon="5.89899">
        <ele>395</ele>
        <time>2021-01-18T13:24:13.000Z</time>
      </trkpt>
      <trkpt lat="43.74011" lon="5.8988">
        <ele>394.20001220703</ele>
        <time>2021-01-18T13:24:16.000Z</time>
      </trkpt>
      <trkpt lat="43.74014" lon="5.89873">
        <ele>394</ele>
        <time>2021-01-18T13:24:17.000Z</time>
      </trkpt>
      <trkpt lat="43.7402" lon="5.89861">
        <ele>393.20001220703</ele>
        <time>2021-01-18T13:24:19.000Z</time>
      </trkpt>
      <trkpt lat="43.74024" lon="5.89856">
        <ele>392.79998779297</ele>
        <time>2021-01-18T13:24:20.000Z</time>
      </trkpt>
      <trkpt lat="43.74028" lon="5.89854">
        <ele>392.20001220703</ele>
        <time>2021-01-18T13:24:21.000Z</time>
      </trkpt>
      <trkpt lat="43.74032" lon="5.89854">
        <ele>391.60000610352</ele>
        <time>2021-01-18T13:24:22.000Z</time>
      </trkpt>
      <trkpt lat="43.7404" lon="5.89853">
        <ele>390.60000610352</ele>
        <time>2021-01-18T13:24:24.000Z</time>
      </trkpt>
      <trkpt lat="43.74043" lon="5.89852">
        <ele>390</ele>
        <time>2021-01-18T13:24:25.000Z</time>
      </trkpt>
      <trkpt lat="43.74046" lon="5.8985">
        <ele>389.39999389648</ele>
        <time>2021-01-18T13:24:26.000Z</time>
      </trkpt>
      <trkpt lat="43.7405" lon="5.89847">
        <ele>389</ele>
        <time>2021-01-18T13:24:28.000Z</time>
      </trkpt>
      <trkpt lat="43.74051" lon="5.89844">
        <ele>388.79998779297</ele>
        <time>2021-01-18T13:24:29.000Z</time>
      </trkpt>
      <trkpt lat="43.74052" lon="5.89826">
        <ele>388.20001220703</ele>
        <time>2021-01-18T13:24:33.000Z</time>
      </trkpt>
      <trkpt lat="43.74053" lon="5.8982">
        <ele>388</ele>
        <time>2021-01-18T13:24:34.000Z</time>
      </trkpt>
      <trkpt lat="43.74056" lon="5.89803">
        <ele>387.60000610352</ele>
        <time>2021-01-18T13:24:37.000Z</time>
      </trkpt>
      <trkpt lat="43.74065" lon="5.89791">
        <ele>386.20001220703</ele>
        <time>2021-01-18T13:24:40.000Z</time>
      </trkpt>
      <trkpt lat="43.7407" lon="5.89789">
        <ele>386</ele>
        <time>2021-01-18T13:24:41.000Z</time>
      </trkpt>
      <trkpt lat="43.7408" lon="5.89783">
        <ele>385.39999389648</ele>
        <time>2021-01-18T13:24:43.000Z</time>
      </trkpt>
      <trkpt lat="43.74086" lon="5.8978">
        <ele>385.20001220703</ele>
        <time>2021-01-18T13:24:44.000Z</time>
      </trkpt>
      <trkpt lat="43.74092" lon="5.89776">
        <ele>385</ele>
        <time>2021-01-18T13:24:45.000Z</time>
      </trkpt>
      <trkpt lat="43.74104" lon="5.8977">
        <ele>384.60000610352</ele>
        <time>2021-01-18T13:24:47.000Z</time>
      </trkpt>
      <trkpt lat="43.74116" lon="5.89768">
        <ele>384.20001220703</ele>
        <time>2021-01-18T13:24:49.000Z</time>
      </trkpt>
      <trkpt lat="43.74122" lon="5.8977">
        <ele>384</ele>
        <time>2021-01-18T13:24:50.000Z</time>
      </trkpt>
      <trkpt lat="43.74132" lon="5.89772">
        <ele>383.20001220703</ele>
        <time>2021-01-18T13:24:52.000Z</time>
      </trkpt>
      <trkpt lat="43.74136" lon="5.89769">
        <ele>383</ele>
        <time>2021-01-18T13:24:53.000Z</time>
      </trkpt>
      <trkpt lat="43.74141" lon="5.89766">
        <ele>382.79998779297</ele>
        <time>2021-01-18T13:24:54.000Z</time>
      </trkpt>
      <trkpt lat="43.74146" lon="5.89762">
        <ele>382.60000610352</ele>
        <time>2021-01-18T13:24:55.000Z</time>
      </trkpt>
      <trkpt lat="43.74151" lon="5.89758">
        <ele>382.39999389648</ele>
        <time>2021-01-18T13:24:56.000Z</time>
      </trkpt>
      <trkpt lat="43.74165" lon="5.89739">
        <ele>381.79998779297</ele>
        <time>2021-01-18T13:24:59.000Z</time>
      </trkpt>
      <trkpt lat="43.74174" lon="5.89731">
        <ele>381.79998779297</ele>
        <time>2021-01-18T13:25:01.000Z</time>
      </trkpt>
      <trkpt lat="43.7418" lon="5.89731">
        <ele>381.60000610352</ele>
        <time>2021-01-18T13:25:02.000Z</time>
      </trkpt>
      <trkpt lat="43.74199" lon="5.89737">
        <ele>381.39999389648</ele>
        <time>2021-01-18T13:25:05.000Z</time>
      </trkpt>
      <trkpt lat="43.74218" lon="5.89733">
        <ele>380.60000610352</ele>
        <time>2021-01-18T13:25:08.000Z</time>
      </trkpt>
      <trkpt lat="43.74224" lon="5.89732">
        <ele>380.39999389648</ele>
        <time>2021-01-18T13:25:09.000Z</time>
      </trkpt>
      <trkpt lat="43.74229" lon="5.89732">
        <ele>380.20001220703</ele>
        <time>2021-01-18T13:25:10.000Z</time>
      </trkpt>
      <trkpt lat="43.74242" lon="5.89737">
        <ele>379.79998779297</ele>
        <time>2021-01-18T13:25:13.000Z</time>
      </trkpt>
      <trkpt lat="43.74255" lon="5.89752">
        <ele>379.60000610352</ele>
        <time>2021-01-18T13:25:16.000Z</time>
      </trkpt>
      <trkpt lat="43.7426" lon="5.89758">
        <ele>379.60000610352</ele>
        <time>2021-01-18T13:25:17.000Z</time>
      </trkpt>
      <trkpt lat="43.74266" lon="5.89767">
        <ele>379.39999389648</ele>
        <time>2021-01-18T13:25:18.000Z</time>
      </trkpt>
      <trkpt lat="43.74281" lon="5.89789">
        <ele>378.79998779297</ele>
        <time>2021-01-18T13:25:21.000Z</time>
      </trkpt>
      <trkpt lat="43.74295" lon="5.89795">
        <ele>378.39999389648</ele>
        <time>2021-01-18T13:25:23.000Z</time>
      </trkpt>
      <trkpt lat="43.74302" lon="5.89796">
        <ele>378.39999389648</ele>
        <time>2021-01-18T13:25:24.000Z</time>
      </trkpt>
      <trkpt lat="43.74319" lon="5.89793">
        <ele>376.79998779297</ele>
        <time>2021-01-18T13:25:26.000Z</time>
      </trkpt>
      <trkpt lat="43.74326" lon="5.89791">
        <ele>375.60000610352</ele>
        <time>2021-01-18T13:25:27.000Z</time>
      </trkpt>
      <trkpt lat="43.74333" lon="5.89788">
        <ele>374.79998779297</ele>
        <time>2021-01-18T13:25:28.000Z</time>
      </trkpt>
      <trkpt lat="43.7434" lon="5.89785">
        <ele>373.79998779297</ele>
        <time>2021-01-18T13:25:29.000Z</time>
      </trkpt>
      <trkpt lat="43.74346" lon="5.89783">
        <ele>372.39999389648</ele>
        <time>2021-01-18T13:25:30.000Z</time>
      </trkpt>
      <trkpt lat="43.74352" lon="5.89782">
        <ele>371.39999389648</ele>
        <time>2021-01-18T13:25:31.000Z</time>
      </trkpt>
      <trkpt lat="43.74358" lon="5.89782">
        <ele>370.39999389648</ele>
        <time>2021-01-18T13:25:32.000Z</time>
      </trkpt>
      <trkpt lat="43.74365" lon="5.89781">
        <ele>369.79998779297</ele>
        <time>2021-01-18T13:25:33.000Z</time>
      </trkpt>
      <trkpt lat="43.74371" lon="5.89781">
        <ele>369.39999389648</ele>
        <time>2021-01-18T13:25:34.000Z</time>
      </trkpt>
      <trkpt lat="43.74385" lon="5.89786">
        <ele>369</ele>
        <time>2021-01-18T13:25:36.000Z</time>
      </trkpt>
      <trkpt lat="43.74391" lon="5.89792">
        <ele>368.79998779297</ele>
        <time>2021-01-18T13:25:37.000Z</time>
      </trkpt>
      <trkpt lat="43.74404" lon="5.89808">
        <ele>368.60000610352</ele>
        <time>2021-01-18T13:25:39.000Z</time>
      </trkpt>
      <trkpt lat="43.7441" lon="5.89815">
        <ele>368.39999389648</ele>
        <time>2021-01-18T13:25:40.000Z</time>
      </trkpt>
      <trkpt lat="43.74426" lon="5.89824">
        <ele>368.20001220703</ele>
        <time>2021-01-18T13:25:42.000Z</time>
      </trkpt>
      <trkpt lat="43.74441" lon="5.89829">
        <ele>367.20001220703</ele>
        <time>2021-01-18T13:25:44.000Z</time>
      </trkpt>
      <trkpt lat="43.74449" lon="5.89832">
        <ele>366.39999389648</ele>
        <time>2021-01-18T13:25:45.000Z</time>
      </trkpt>
      <trkpt lat="43.74457" lon="5.89832">
        <ele>365.60000610352</ele>
        <time>2021-01-18T13:25:46.000Z</time>
      </trkpt>
      <trkpt lat="43.74464" lon="5.89829">
        <ele>364.20001220703</ele>
        <time>2021-01-18T13:25:47.000Z</time>
      </trkpt>
      <trkpt lat="43.74471" lon="5.89826">
        <ele>363.20001220703</ele>
        <time>2021-01-18T13:25:48.000Z</time>
      </trkpt>
      <trkpt lat="43.74477" lon="5.89822">
        <ele>362.39999389648</ele>
        <time>2021-01-18T13:25:49.000Z</time>
      </trkpt>
      <trkpt lat="43.74484" lon="5.89818">
        <ele>361.20001220703</ele>
        <time>2021-01-18T13:25:50.000Z</time>
      </trkpt>
      <trkpt lat="43.7449" lon="5.89814">
        <ele>360</ele>
        <time>2021-01-18T13:25:51.000Z</time>
      </trkpt>
      <trkpt lat="43.74502" lon="5.89806">
        <ele>358.39999389648</ele>
        <time>2021-01-18T13:25:53.000Z</time>
      </trkpt>
      <trkpt lat="43.74509" lon="5.89802">
        <ele>358</ele>
        <time>2021-01-18T13:25:54.000Z</time>
      </trkpt>
      <trkpt lat="43.74516" lon="5.898">
        <ele>357.79998779297</ele>
        <time>2021-01-18T13:25:55.000Z</time>
      </trkpt>
      <trkpt lat="43.74531" lon="5.89794">
        <ele>357.39999389648</ele>
        <time>2021-01-18T13:25:57.000Z</time>
      </trkpt>
      <trkpt lat="43.74549" lon="5.89787">
        <ele>356.20001220703</ele>
        <time>2021-01-18T13:26:00.000Z</time>
      </trkpt>
      <trkpt lat="43.7456" lon="5.89771">
        <ele>355.39999389648</ele>
        <time>2021-01-18T13:26:03.000Z</time>
      </trkpt>
      <trkpt lat="43.74563" lon="5.89765">
        <ele>354.79998779297</ele>
        <time>2021-01-18T13:26:04.000Z</time>
      </trkpt>
      <trkpt lat="43.74567" lon="5.8976">
        <ele>354.39999389648</ele>
        <time>2021-01-18T13:26:05.000Z</time>
      </trkpt>
      <trkpt lat="43.7457" lon="5.89756">
        <ele>353.60000610352</ele>
        <time>2021-01-18T13:26:06.000Z</time>
      </trkpt>
      <trkpt lat="43.74574" lon="5.89753">
        <ele>352.79998779297</ele>
        <time>2021-01-18T13:26:07.000Z</time>
      </trkpt>
      <trkpt lat="43.74578" lon="5.8975">
        <ele>352</ele>
        <time>2021-01-18T13:26:08.000Z</time>
      </trkpt>
      <trkpt lat="43.74586" lon="5.89742">
        <ele>350.60000610352</ele>
        <time>2021-01-18T13:26:10.000Z</time>
      </trkpt>
      <trkpt lat="43.74593" lon="5.89735">
        <ele>349.20001220703</ele>
        <time>2021-01-18T13:26:12.000Z</time>
      </trkpt>
      <trkpt lat="43.74601" lon="5.89733">
        <ele>348.79998779297</ele>
        <time>2021-01-18T13:26:15.000Z</time>
      </trkpt>
      <trkpt lat="43.74604" lon="5.89732">
        <ele>348.79998779297</ele>
        <time>2021-01-18T13:26:20.000Z</time>
      </trkpt>
      <trkpt lat="43.74604" lon="5.89732">
        <ele>350.39999389648</ele>
        <time>2021-01-18T13:26:24.000Z</time>
      </trkpt>
      <trkpt lat="43.74604" lon="5.89732">
        <ele>350.79998779297</ele>
        <time>2021-01-18T13:26:34.000Z</time>
      </trkpt>
      <trkpt lat="43.74604" lon="5.89732">
        <ele>351</ele>
        <time>2021-01-18T13:26:54.000Z</time>
      </trkpt>
      <trkpt lat="43.74604" lon="5.89732">
        <ele>351</ele>
        <time>2021-01-18T13:27:20.000Z</time>
      </trkpt>
      <trkpt lat="43.74605" lon="5.89731">
        <ele>350.79998779297</ele>
        <time>2021-01-18T13:27:36.000Z</time>
      </trkpt>
      <trkpt lat="43.74607" lon="5.8973">
        <ele>350.79998779297</ele>
        <time>2021-01-18T13:27:37.000Z</time>
      </trkpt>
      <trkpt lat="43.74618" lon="5.89721">
        <ele>350.79998779297</ele>
        <time>2021-01-18T13:27:42.000Z</time>
      </trkpt>
      <trkpt lat="43.74632" lon="5.89712">
        <ele>350.60000610352</ele>
        <time>2021-01-18T13:27:47.000Z</time>
      </trkpt>
      <trkpt lat="43.74651" lon="5.89708">
        <ele>349</ele>
        <time>2021-01-18T13:27:52.000Z</time>
      </trkpt>
      <trkpt lat="43.74655" lon="5.89707">
        <ele>348.39999389648</ele>
        <time>2021-01-18T13:27:53.000Z</time>
      </trkpt>
      <trkpt lat="43.74662" lon="5.89707">
        <ele>347.79998779297</ele>
        <time>2021-01-18T13:27:55.000Z</time>
      </trkpt>
      <trkpt lat="43.74672" lon="5.89705">
        <ele>347.60000610352</ele>
        <time>2021-01-18T13:27:58.000Z</time>
      </trkpt>
      <trkpt lat="43.74679" lon="5.89703">
        <ele>347.39999389648</ele>
        <time>2021-01-18T13:28:00.000Z</time>
      </trkpt>
      <trkpt lat="43.74687" lon="5.89699">
        <ele>347</ele>
        <time>2021-01-18T13:28:02.000Z</time>
      </trkpt>
      <trkpt lat="43.74691" lon="5.89696">
        <ele>347</ele>
        <time>2021-01-18T13:28:03.000Z</time>
      </trkpt>
      <trkpt lat="43.74695" lon="5.89691">
        <ele>346.79998779297</ele>
        <time>2021-01-18T13:28:04.000Z</time>
      </trkpt>
      <trkpt lat="43.74703" lon="5.89675">
        <ele>346</ele>
        <time>2021-01-18T13:28:07.000Z</time>
      </trkpt>
      <trkpt lat="43.74707" lon="5.89663">
        <ele>345.20001220703</ele>
        <time>2021-01-18T13:28:09.000Z</time>
      </trkpt>
      <trkpt lat="43.74711" lon="5.89652">
        <ele>344.60000610352</ele>
        <time>2021-01-18T13:28:11.000Z</time>
      </trkpt>
      <trkpt lat="43.74714" lon="5.89647">
        <ele>344.20001220703</ele>
        <time>2021-01-18T13:28:12.000Z</time>
      </trkpt>
      <trkpt lat="43.74719" lon="5.89637">
        <ele>343.60000610352</ele>
        <time>2021-01-18T13:28:14.000Z</time>
      </trkpt>
      <trkpt lat="43.74736" lon="5.89614">
        <ele>342.79998779297</ele>
        <time>2021-01-18T13:28:19.000Z</time>
      </trkpt>
      <trkpt lat="43.74746" lon="5.89601">
        <ele>342.39999389648</ele>
        <time>2021-01-18T13:28:22.000Z</time>
      </trkpt>
      <trkpt lat="43.74757" lon="5.89587">
        <ele>341.79998779297</ele>
        <time>2021-01-18T13:28:25.000Z</time>
      </trkpt>
      <trkpt lat="43.74768" lon="5.89571">
        <ele>341.20001220703</ele>
        <time>2021-01-18T13:28:28.000Z</time>
      </trkpt>
      <trkpt lat="43.74774" lon="5.89557">
        <ele>340.79998779297</ele>
        <time>2021-01-18T13:28:30.000Z</time>
      </trkpt>
      <trkpt lat="43.74777" lon="5.8955">
        <ele>340.79998779297</ele>
        <time>2021-01-18T13:28:31.000Z</time>
      </trkpt>
      <trkpt lat="43.74784" lon="5.89534">
        <ele>340.20001220703</ele>
        <time>2021-01-18T13:28:33.000Z</time>
      </trkpt>
      <trkpt lat="43.74787" lon="5.89526">
        <ele>339.60000610352</ele>
        <time>2021-01-18T13:28:34.000Z</time>
      </trkpt>
      <trkpt lat="43.74795" lon="5.895">
        <ele>338.39999389648</ele>
        <time>2021-01-18T13:28:37.000Z</time>
      </trkpt>
      <trkpt lat="43.74802" lon="5.89483">
        <ele>337.39999389648</ele>
        <time>2021-01-18T13:28:39.000Z</time>
      </trkpt>
      <trkpt lat="43.74805" lon="5.89474">
        <ele>337</ele>
        <time>2021-01-18T13:28:40.000Z</time>
      </trkpt>
      <trkpt lat="43.74818" lon="5.8944">
        <ele>335.79998779297</ele>
        <time>2021-01-18T13:28:44.000Z</time>
      </trkpt>
      <trkpt lat="43.74829" lon="5.89417">
        <ele>335.39999389648</ele>
        <time>2021-01-18T13:28:47.000Z</time>
      </trkpt>
      <trkpt lat="43.74848" lon="5.89393">
        <ele>334.79998779297</ele>
        <time>2021-01-18T13:28:51.000Z</time>
      </trkpt>
      <trkpt lat="43.74853" lon="5.89389">
        <ele>334.79998779297</ele>
        <time>2021-01-18T13:28:52.000Z</time>
      </trkpt>
      <trkpt lat="43.74885" lon="5.89364">
        <ele>333.79998779297</ele>
        <time>2021-01-18T13:28:58.000Z</time>
      </trkpt>
      <trkpt lat="43.7489" lon="5.8936">
        <ele>333.60000610352</ele>
        <time>2021-01-18T13:28:59.000Z</time>
      </trkpt>
      <trkpt lat="43.74916" lon="5.89343">
        <ele>333</ele>
        <time>2021-01-18T13:29:04.000Z</time>
      </trkpt>
      <trkpt lat="43.74921" lon="5.89339">
        <ele>332.60000610352</ele>
        <time>2021-01-18T13:29:05.000Z</time>
      </trkpt>
      <trkpt lat="43.7494" lon="5.89325">
        <ele>331.39999389648</ele>
        <time>2021-01-18T13:29:09.000Z</time>
      </trkpt>
      <trkpt lat="43.74954" lon="5.89315">
        <ele>331.20001220703</ele>
        <time>2021-01-18T13:29:12.000Z</time>
      </trkpt>
      <trkpt lat="43.74981" lon="5.89299">
        <ele>330.79998779297</ele>
        <time>2021-01-18T13:29:18.000Z</time>
      </trkpt>
      <trkpt lat="43.7499" lon="5.89293">
        <ele>330.39999389648</ele>
        <time>2021-01-18T13:29:20.000Z</time>
      </trkpt>
      <trkpt lat="43.75015" lon="5.89277">
        <ele>330</ele>
        <time>2021-01-18T13:29:25.000Z</time>
      </trkpt>
      <trkpt lat="43.7503" lon="5.89269">
        <ele>330</ele>
        <time>2021-01-18T13:29:28.000Z</time>
      </trkpt>
      <trkpt lat="43.75034" lon="5.89266">
        <ele>329.79998779297</ele>
        <time>2021-01-18T13:29:29.000Z</time>
      </trkpt>
      <trkpt lat="43.75039" lon="5.89263">
        <ele>329.79998779297</ele>
        <time>2021-01-18T13:29:30.000Z</time>
      </trkpt>
      <trkpt lat="43.75062" lon="5.89251">
        <ele>329.79998779297</ele>
        <time>2021-01-18T13:29:35.000Z</time>
      </trkpt>
      <trkpt lat="43.75067" lon="5.89251">
        <ele>329.60000610352</ele>
        <time>2021-01-18T13:29:36.000Z</time>
      </trkpt>
      <trkpt lat="43.75081" lon="5.89252">
        <ele>329.60000610352</ele>
        <time>2021-01-18T13:29:39.000Z</time>
      </trkpt>
      <trkpt lat="43.751" lon="5.89254">
        <ele>329.60000610352</ele>
        <time>2021-01-18T13:29:43.000Z</time>
      </trkpt>
      <trkpt lat="43.75125" lon="5.89255">
        <ele>330</ele>
        <time>2021-01-18T13:29:49.000Z</time>
      </trkpt>
      <trkpt lat="43.75153" lon="5.89255">
        <ele>330.60000610352</ele>
        <time>2021-01-18T13:29:56.000Z</time>
      </trkpt>
      <trkpt lat="43.75181" lon="5.8925">
        <ele>331</ele>
        <time>2021-01-18T13:30:02.000Z</time>
      </trkpt>
      <trkpt lat="43.75207" lon="5.89241">
        <ele>330.60000610352</ele>
        <time>2021-01-18T13:30:07.000Z</time>
      </trkpt>
      <trkpt lat="43.75226" lon="5.89221">
        <ele>329.60000610352</ele>
        <time>2021-01-18T13:30:11.000Z</time>
      </trkpt>
      <trkpt lat="43.7523" lon="5.89215">
        <ele>329</ele>
        <time>2021-01-18T13:30:12.000Z</time>
      </trkpt>
      <trkpt lat="43.75242" lon="5.89197">
        <ele>327.79998779297</ele>
        <time>2021-01-18T13:30:15.000Z</time>
      </trkpt>
      <trkpt lat="43.75254" lon="5.89181">
        <ele>326.60000610352</ele>
        <time>2021-01-18T13:30:18.000Z</time>
      </trkpt>
      <trkpt lat="43.75286" lon="5.8914">
        <ele>326</ele>
        <time>2021-01-18T13:30:26.000Z</time>
      </trkpt>
      <trkpt lat="43.75301" lon="5.89118">
        <ele>325.79998779297</ele>
        <time>2021-01-18T13:30:30.000Z</time>
      </trkpt>
      <trkpt lat="43.75305" lon="5.89111">
        <ele>325.79998779297</ele>
        <time>2021-01-18T13:30:31.000Z</time>
      </trkpt>
      <trkpt lat="43.75317" lon="5.89079">
        <ele>325.60000610352</ele>
        <time>2021-01-18T13:30:35.000Z</time>
      </trkpt>
      <trkpt lat="43.75322" lon="5.89063">
        <ele>324.79998779297</ele>
        <time>2021-01-18T13:30:37.000Z</time>
      </trkpt>
      <trkpt lat="43.75324" lon="5.89056">
        <ele>324.39999389648</ele>
        <time>2021-01-18T13:30:38.000Z</time>
      </trkpt>
      <trkpt lat="43.75328" lon="5.89037">
        <ele>323.20001220703</ele>
        <time>2021-01-18T13:30:41.000Z</time>
      </trkpt>
      <trkpt lat="43.75331" lon="5.89025">
        <ele>323</ele>
        <time>2021-01-18T13:30:43.000Z</time>
      </trkpt>
      <trkpt lat="43.7534" lon="5.89001">
        <ele>322.79998779297</ele>
        <time>2021-01-18T13:30:48.000Z</time>
      </trkpt>
      <trkpt lat="43.75347" lon="5.88998">
        <ele>322.79998779297</ele>
        <time>2021-01-18T13:30:50.000Z</time>
      </trkpt>
      <trkpt lat="43.75356" lon="5.88996">
        <ele>322.79998779297</ele>
        <time>2021-01-18T13:30:52.000Z</time>
      </trkpt>
      <trkpt lat="43.75366" lon="5.88995">
        <ele>323.20001220703</ele>
        <time>2021-01-18T13:30:54.000Z</time>
      </trkpt>
      <trkpt lat="43.75389" lon="5.88992">
        <ele>323.20001220703</ele>
        <time>2021-01-18T13:30:59.000Z</time>
      </trkpt>
      <trkpt lat="43.75404" lon="5.8899">
        <ele>323.20001220703</ele>
        <time>2021-01-18T13:31:02.000Z</time>
      </trkpt>
      <trkpt lat="43.75414" lon="5.8899">
        <ele>323.20001220703</ele>
        <time>2021-01-18T13:31:04.000Z</time>
      </trkpt>
      <trkpt lat="43.7543" lon="5.88984">
        <ele>323.20001220703</ele>
        <time>2021-01-18T13:31:07.000Z</time>
      </trkpt>
      <trkpt lat="43.75434" lon="5.88982">
        <ele>323.39999389648</ele>
        <time>2021-01-18T13:31:08.000Z</time>
      </trkpt>
      <trkpt lat="43.75442" lon="5.88986">
        <ele>323.60000610352</ele>
        <time>2021-01-18T13:31:11.000Z</time>
      </trkpt>
      <trkpt lat="43.75455" lon="5.88994">
        <ele>323.79998779297</ele>
        <time>2021-01-18T13:31:16.000Z</time>
      </trkpt>
      <trkpt lat="43.75458" lon="5.88995">
        <ele>324.60000610352</ele>
        <time>2021-01-18T13:31:17.000Z</time>
      </trkpt>
      <trkpt lat="43.75465" lon="5.88993">
        <ele>326</ele>
        <time>2021-01-18T13:31:19.000Z</time>
      </trkpt>
      <trkpt lat="43.75468" lon="5.8899">
        <ele>326.60000610352</ele>
        <time>2021-01-18T13:31:20.000Z</time>
      </trkpt>
      <trkpt lat="43.75471" lon="5.88987">
        <ele>327.39999389648</ele>
        <time>2021-01-18T13:31:21.000Z</time>
      </trkpt>
      <trkpt lat="43.75479" lon="5.88973">
        <ele>328.60000610352</ele>
        <time>2021-01-18T13:31:25.000Z</time>
      </trkpt>
      <trkpt lat="43.75481" lon="5.8897">
        <ele>329</ele>
        <time>2021-01-18T13:31:26.000Z</time>
      </trkpt>
      <trkpt lat="43.75485" lon="5.88963">
        <ele>329.79998779297</ele>
        <time>2021-01-18T13:31:28.000Z</time>
      </trkpt>
      <trkpt lat="43.75497" lon="5.88949">
        <ele>331</ele>
        <time>2021-01-18T13:31:33.000Z</time>
      </trkpt>
      <trkpt lat="43.75506" lon="5.88939">
        <ele>332.20001220703</ele>
        <time>2021-01-18T13:31:37.000Z</time>
      </trkpt>
      <trkpt lat="43.75513" lon="5.88931">
        <ele>333</ele>
        <time>2021-01-18T13:31:40.000Z</time>
      </trkpt>
      <trkpt lat="43.75515" lon="5.88928">
        <ele>333.20001220703</ele>
        <time>2021-01-18T13:31:41.000Z</time>
      </trkpt>
      <trkpt lat="43.75521" lon="5.8892">
        <ele>334.39999389648</ele>
        <time>2021-01-18T13:31:44.000Z</time>
      </trkpt>
      <trkpt lat="43.75527" lon="5.88911">
        <ele>335.39999389648</ele>
        <time>2021-01-18T13:31:47.000Z</time>
      </trkpt>
      <trkpt lat="43.7553" lon="5.88904">
        <ele>336.60000610352</ele>
        <time>2021-01-18T13:31:49.000Z</time>
      </trkpt>
      <trkpt lat="43.75535" lon="5.88889">
        <ele>337.60000610352</ele>
        <time>2021-01-18T13:31:53.000Z</time>
      </trkpt>
      <trkpt lat="43.75538" lon="5.88881">
        <ele>338.20001220703</ele>
        <time>2021-01-18T13:31:55.000Z</time>
      </trkpt>
      <trkpt lat="43.75543" lon="5.88868">
        <ele>338.79998779297</ele>
        <time>2021-01-18T13:31:58.000Z</time>
      </trkpt>
      <trkpt lat="43.75549" lon="5.88849">
        <ele>340.20001220703</ele>
        <time>2021-01-18T13:32:02.000Z</time>
      </trkpt>
      <trkpt lat="43.75551" lon="5.88846">
        <ele>340.60000610352</ele>
        <time>2021-01-18T13:32:03.000Z</time>
      </trkpt>
      <trkpt lat="43.75554" lon="5.88838">
        <ele>341.20001220703</ele>
        <time>2021-01-18T13:32:05.000Z</time>
      </trkpt>
      <trkpt lat="43.75564" lon="5.88811">
        <ele>342.39999389648</ele>
        <time>2021-01-18T13:32:11.000Z</time>
      </trkpt>
      <trkpt lat="43.75566" lon="5.88806">
        <ele>342.79998779297</ele>
        <time>2021-01-18T13:32:12.000Z</time>
      </trkpt>
      <trkpt lat="43.75572" lon="5.88792">
        <ele>343.60000610352</ele>
        <time>2021-01-18T13:32:15.000Z</time>
      </trkpt>
      <trkpt lat="43.75578" lon="5.88773">
        <ele>344.79998779297</ele>
        <time>2021-01-18T13:32:19.000Z</time>
      </trkpt>
      <trkpt lat="43.75584" lon="5.8876">
        <ele>345.79998779297</ele>
        <time>2021-01-18T13:32:22.000Z</time>
      </trkpt>
      <trkpt lat="43.75593" lon="5.88737">
        <ele>346.79998779297</ele>
        <time>2021-01-18T13:32:27.000Z</time>
      </trkpt>
      <trkpt lat="43.75599" lon="5.88724">
        <ele>347.39999389648</ele>
        <time>2021-01-18T13:32:30.000Z</time>
      </trkpt>
      <trkpt lat="43.75606" lon="5.88711">
        <ele>348</ele>
        <time>2021-01-18T13:32:33.000Z</time>
      </trkpt>
      <trkpt lat="43.75618" lon="5.88686">
        <ele>348.79998779297</ele>
        <time>2021-01-18T13:32:39.000Z</time>
      </trkpt>
      <trkpt lat="43.7562" lon="5.88683">
        <ele>349</ele>
        <time>2021-01-18T13:32:40.000Z</time>
      </trkpt>
      <trkpt lat="43.75631" lon="5.88665">
        <ele>350.20001220703</ele>
        <time>2021-01-18T13:32:45.000Z</time>
      </trkpt>
      <trkpt lat="43.75637" lon="5.88655">
        <ele>351.20001220703</ele>
        <time>2021-01-18T13:32:47.000Z</time>
      </trkpt>
      <trkpt lat="43.7564" lon="5.88651">
        <ele>351.79998779297</ele>
        <time>2021-01-18T13:32:48.000Z</time>
      </trkpt>
      <trkpt lat="43.75647" lon="5.88645">
        <ele>352.39999389648</ele>
        <time>2021-01-18T13:32:50.000Z</time>
      </trkpt>
      <trkpt lat="43.7565" lon="5.88643">
        <ele>352.79998779297</ele>
        <time>2021-01-18T13:32:51.000Z</time>
      </trkpt>
      <trkpt lat="43.75654" lon="5.88642">
        <ele>353</ele>
        <time>2021-01-18T13:32:52.000Z</time>
      </trkpt>
      <trkpt lat="43.75667" lon="5.88637">
        <ele>353.39999389648</ele>
        <time>2021-01-18T13:32:55.000Z</time>
      </trkpt>
      <trkpt lat="43.75682" lon="5.8863">
        <ele>353.79998779297</ele>
        <time>2021-01-18T13:32:59.000Z</time>
      </trkpt>
      <trkpt lat="43.75693" lon="5.88626">
        <ele>354</ele>
        <time>2021-01-18T13:33:03.000Z</time>
      </trkpt>
      <trkpt lat="43.75696" lon="5.88627">
        <ele>354.60000610352</ele>
        <time>2021-01-18T13:33:05.000Z</time>
      </trkpt>
      <trkpt lat="43.75702" lon="5.88628">
        <ele>355.39999389648</ele>
        <time>2021-01-18T13:33:10.000Z</time>
      </trkpt>
      <trkpt lat="43.75702" lon="5.88628">
        <ele>356.20001220703</ele>
        <time>2021-01-18T13:33:11.000Z</time>
      </trkpt>
      <trkpt lat="43.75701" lon="5.88628">
        <ele>357</ele>
        <time>2021-01-18T13:33:22.000Z</time>
      </trkpt>
      <trkpt lat="43.75701" lon="5.88628">
        <ele>357.20001220703</ele>
        <time>2021-01-18T13:33:25.000Z</time>
      </trkpt>
      <trkpt lat="43.75701" lon="5.88628">
        <ele>357.20001220703</ele>
        <time>2021-01-18T13:33:37.000Z</time>
      </trkpt>
      <trkpt lat="43.75701" lon="5.88628">
        <ele>357.20001220703</ele>
        <time>2021-01-18T13:33:42.000Z</time>
      </trkpt>
      <trkpt lat="43.75703" lon="5.88626">
        <ele>357</ele>
        <time>2021-01-18T13:33:48.000Z</time>
      </trkpt>
      <trkpt lat="43.75709" lon="5.88616">
        <ele>357</ele>
        <time>2021-01-18T13:33:52.000Z</time>
      </trkpt>
      <trkpt lat="43.75727" lon="5.88609">
        <ele>356.79998779297</ele>
        <time>2021-01-18T13:33:57.000Z</time>
      </trkpt>
      <trkpt lat="43.75731" lon="5.88607">
        <ele>356.79998779297</ele>
        <time>2021-01-18T13:33:58.000Z</time>
      </trkpt>
      <trkpt lat="43.75746" lon="5.88601">
        <ele>356.20001220703</ele>
        <time>2021-01-18T13:34:03.000Z</time>
      </trkpt>
      <trkpt lat="43.75751" lon="5.88598">
        <ele>355.79998779297</ele>
        <time>2021-01-18T13:34:05.000Z</time>
      </trkpt>
      <trkpt lat="43.75753" lon="5.88591">
        <ele>355.20001220703</ele>
        <time>2021-01-18T13:34:07.000Z</time>
      </trkpt>
      <trkpt lat="43.75755" lon="5.88583">
        <ele>355</ele>
        <time>2021-01-18T13:34:09.000Z</time>
      </trkpt>
      <trkpt lat="43.7576" lon="5.88576">
        <ele>355</ele>
        <time>2021-01-18T13:34:12.000Z</time>
      </trkpt>
      <trkpt lat="43.75765" lon="5.88577">
        <ele>355.20001220703</ele>
        <time>2021-01-18T13:34:17.000Z</time>
      </trkpt>
      <trkpt lat="43.75765" lon="5.88577">
        <ele>356.20001220703</ele>
        <time>2021-01-18T13:34:22.000Z</time>
      </trkpt>
      <trkpt lat="43.75765" lon="5.88576">
        <ele>356.79998779297</ele>
        <time>2021-01-18T13:34:35.000Z</time>
      </trkpt>
      <trkpt lat="43.75765" lon="5.88576">
        <ele>357</ele>
        <time>2021-01-18T13:34:53.000Z</time>
      </trkpt>
      <trkpt lat="43.75765" lon="5.88576">
        <ele>356.79998779297</ele>
        <time>2021-01-18T13:35:27.000Z</time>
      </trkpt>
      <trkpt lat="43.75765" lon="5.88576">
        <ele>356.79998779297</ele>
        <time>2021-01-18T13:36:01.000Z</time>
      </trkpt>
      <trkpt lat="43.75765" lon="5.88576">
        <ele>356.79998779297</ele>
        <time>2021-01-18T13:36:09.000Z</time>
      </trkpt>
      <trkpt lat="43.75765" lon="5.88576">
        <ele>356.60000610352</ele>
        <time>2021-01-18T13:36:29.000Z</time>
      </trkpt>
      <trkpt lat="43.75765" lon="5.88576">
        <ele>356.39999389648</ele>
        <time>2021-01-18T13:36:40.000Z</time>
      </trkpt>
      <trkpt lat="43.75765" lon="5.88576">
        <ele>356.60000610352</ele>
        <time>2021-01-18T13:37:17.000Z</time>
      </trkpt>
      <trkpt lat="43.75766" lon="5.88578">
        <ele>356.39999389648</ele>
        <time>2021-01-18T13:37:20.000Z</time>
      </trkpt>
      <trkpt lat="43.75768" lon="5.88581">
        <ele>356.39999389648</ele>
        <time>2021-01-18T13:37:22.000Z</time>
      </trkpt>
      <trkpt lat="43.75775" lon="5.88591">
        <ele>356.39999389648</ele>
        <time>2021-01-18T13:37:26.000Z</time>
      </trkpt>
      <trkpt lat="43.75787" lon="5.88595">
        <ele>356.20001220703</ele>
        <time>2021-01-18T13:37:29.000Z</time>
      </trkpt>
      <trkpt lat="43.75791" lon="5.88595">
        <ele>356.20001220703</ele>
        <time>2021-01-18T13:37:30.000Z</time>
      </trkpt>
      <trkpt lat="43.7581" lon="5.88605">
        <ele>355.39999389648</ele>
        <time>2021-01-18T13:37:35.000Z</time>
      </trkpt>
      <trkpt lat="43.75825" lon="5.88609">
        <ele>355</ele>
        <time>2021-01-18T13:37:39.000Z</time>
      </trkpt>
      <trkpt lat="43.75827" lon="5.88609">
        <ele>354.79998779297</ele>
        <time>2021-01-18T13:37:40.000Z</time>
      </trkpt>
      <trkpt lat="43.75831" lon="5.88616">
        <ele>354.79998779297</ele>
        <time>2021-01-18T13:37:42.000Z</time>
      </trkpt>
      <trkpt lat="43.7583" lon="5.88626">
        <ele>353.79998779297</ele>
        <time>2021-01-18T13:37:44.000Z</time>
      </trkpt>
      <trkpt lat="43.75829" lon="5.88632">
        <ele>352.79998779297</ele>
        <time>2021-01-18T13:37:45.000Z</time>
      </trkpt>
      <trkpt lat="43.75823" lon="5.88655">
        <ele>351.60000610352</ele>
        <time>2021-01-18T13:37:48.000Z</time>
      </trkpt>
      <trkpt lat="43.75818" lon="5.88672">
        <ele>350.60000610352</ele>
        <time>2021-01-18T13:37:50.000Z</time>
      </trkpt>
      <trkpt lat="43.75815" lon="5.88681">
        <ele>350.20001220703</ele>
        <time>2021-01-18T13:37:51.000Z</time>
      </trkpt>
      <trkpt lat="43.75808" lon="5.88708">
        <ele>349.20001220703</ele>
        <time>2021-01-18T13:37:54.000Z</time>
      </trkpt>
      <trkpt lat="43.75805" lon="5.88724">
        <ele>348</ele>
        <time>2021-01-18T13:37:56.000Z</time>
      </trkpt>
      <trkpt lat="43.75803" lon="5.88741">
        <ele>346.79998779297</ele>
        <time>2021-01-18T13:37:58.000Z</time>
      </trkpt>
      <trkpt lat="43.75804" lon="5.88758">
        <ele>345.79998779297</ele>
        <time>2021-01-18T13:38:00.000Z</time>
      </trkpt>
      <trkpt lat="43.75805" lon="5.88767">
        <ele>345.20001220703</ele>
        <time>2021-01-18T13:38:01.000Z</time>
      </trkpt>
      <trkpt lat="43.75809" lon="5.88793">
        <ele>344.20001220703</ele>
        <time>2021-01-18T13:38:04.000Z</time>
      </trkpt>
      <trkpt lat="43.75811" lon="5.8881">
        <ele>343.39999389648</ele>
        <time>2021-01-18T13:38:06.000Z</time>
      </trkpt>
      <trkpt lat="43.75812" lon="5.88817">
        <ele>342.79998779297</ele>
        <time>2021-01-18T13:38:07.000Z</time>
      </trkpt>
      <trkpt lat="43.75814" lon="5.88829">
        <ele>341.79998779297</ele>
        <time>2021-01-18T13:38:09.000Z</time>
      </trkpt>
      <trkpt lat="43.75817" lon="5.88846">
        <ele>341.39999389648</ele>
        <time>2021-01-18T13:38:12.000Z</time>
      </trkpt>
      <trkpt lat="43.75827" lon="5.88861">
        <ele>341.39999389648</ele>
        <time>2021-01-18T13:38:16.000Z</time>
      </trkpt>
      <trkpt lat="43.75839" lon="5.88866">
        <ele>341.60000610352</ele>
        <time>2021-01-18T13:38:19.000Z</time>
      </trkpt>
      <trkpt lat="43.75843" lon="5.88867">
        <ele>341.60000610352</ele>
        <time>2021-01-18T13:38:20.000Z</time>
      </trkpt>
      <trkpt lat="43.75871" lon="5.88868">
        <ele>342.39999389648</ele>
        <time>2021-01-18T13:38:26.000Z</time>
      </trkpt>
      <trkpt lat="43.759" lon="5.88871">
        <ele>342.60000610352</ele>
        <time>2021-01-18T13:38:32.000Z</time>
      </trkpt>
      <trkpt lat="43.75925" lon="5.88875">
        <ele>343</ele>
        <time>2021-01-18T13:38:37.000Z</time>
      </trkpt>
      <trkpt lat="43.75941" lon="5.88877">
        <ele>343.20001220703</ele>
        <time>2021-01-18T13:38:40.000Z</time>
      </trkpt>
      <trkpt lat="43.75979" lon="5.88883">
        <ele>343.39999389648</ele>
        <time>2021-01-18T13:38:48.000Z</time>
      </trkpt>
      <trkpt lat="43.7602" lon="5.8889">
        <ele>343.79998779297</ele>
        <time>2021-01-18T13:38:56.000Z</time>
      </trkpt>
      <trkpt lat="43.76048" lon="5.88894">
        <ele>344</ele>
        <time>2021-01-18T13:39:01.000Z</time>
      </trkpt>
      <trkpt lat="43.7607" lon="5.88897">
        <ele>344</ele>
        <time>2021-01-18T13:39:05.000Z</time>
      </trkpt>
      <trkpt lat="43.76105" lon="5.88903">
        <ele>343.60000610352</ele>
        <time>2021-01-18T13:39:12.000Z</time>
      </trkpt>
      <trkpt lat="43.76144" lon="5.88907">
        <ele>343.39999389648</ele>
        <time>2021-01-18T13:39:20.000Z</time>
      </trkpt>
      <trkpt lat="43.76184" lon="5.88908">
        <ele>343.60000610352</ele>
        <time>2021-01-18T13:39:28.000Z</time>
      </trkpt>
      <trkpt lat="43.76233" lon="5.88912">
        <ele>343.79998779297</ele>
        <time>2021-01-18T13:39:38.000Z</time>
      </trkpt>
      <trkpt lat="43.76263" lon="5.88917">
        <ele>344.20001220703</ele>
        <time>2021-01-18T13:39:45.000Z</time>
      </trkpt>
      <trkpt lat="43.76272" lon="5.88923">
        <ele>344.39999389648</ele>
        <time>2021-01-18T13:39:47.000Z</time>
      </trkpt>
      <trkpt lat="43.76276" lon="5.88925">
        <ele>344.39999389648</ele>
        <time>2021-01-18T13:39:48.000Z</time>
      </trkpt>
      <trkpt lat="43.76288" lon="5.88922">
        <ele>344.60000610352</ele>
        <time>2021-01-18T13:39:51.000Z</time>
      </trkpt>
      <trkpt lat="43.76289" lon="5.88913">
        <ele>345</ele>
        <time>2021-01-18T13:39:53.000Z</time>
      </trkpt>
      <trkpt lat="43.76289" lon="5.88906">
        <ele>345.20001220703</ele>
        <time>2021-01-18T13:39:54.000Z</time>
      </trkpt>
      <trkpt lat="43.76289" lon="5.88878">
        <ele>345.79998779297</ele>
        <time>2021-01-18T13:39:58.000Z</time>
      </trkpt>
      <trkpt lat="43.76289" lon="5.88866">
        <ele>346.20001220703</ele>
        <time>2021-01-18T13:40:00.000Z</time>
      </trkpt>
      <trkpt lat="43.76288" lon="5.88845">
        <ele>347</ele>
        <time>2021-01-18T13:40:04.000Z</time>
      </trkpt>
      <trkpt lat="43.76287" lon="5.88834">
        <ele>347.60000610352</ele>
        <time>2021-01-18T13:40:06.000Z</time>
      </trkpt>
      <trkpt lat="43.76286" lon="5.88823">
        <ele>348.60000610352</ele>
        <time>2021-01-18T13:40:08.000Z</time>
      </trkpt>
      <trkpt lat="43.76284" lon="5.88812">
        <ele>349.79998779297</ele>
        <time>2021-01-18T13:40:10.000Z</time>
      </trkpt>
      <trkpt lat="43.76284" lon="5.88801">
        <ele>350.60000610352</ele>
        <time>2021-01-18T13:40:12.000Z</time>
      </trkpt>
      <trkpt lat="43.76283" lon="5.88795">
        <ele>351</ele>
        <time>2021-01-18T13:40:13.000Z</time>
      </trkpt>
      <trkpt lat="43.76283" lon="5.88774">
        <ele>352</ele>
        <time>2021-01-18T13:40:17.000Z</time>
      </trkpt>
      <trkpt lat="43.76284" lon="5.8877">
        <ele>352.20001220703</ele>
        <time>2021-01-18T13:40:18.000Z</time>
      </trkpt>
      <trkpt lat="43.76289" lon="5.88741">
        <ele>353.20001220703</ele>
        <time>2021-01-18T13:40:23.000Z</time>
      </trkpt>
      <trkpt lat="43.7629" lon="5.88735">
        <ele>353.39999389648</ele>
        <time>2021-01-18T13:40:24.000Z</time>
      </trkpt>
      <trkpt lat="43.76293" lon="5.88718">
        <ele>354.20001220703</ele>
        <time>2021-01-18T13:40:27.000Z</time>
      </trkpt>
      <trkpt lat="43.76294" lon="5.88712">
        <ele>354.20001220703</ele>
        <time>2021-01-18T13:40:28.000Z</time>
      </trkpt>
      <trkpt lat="43.76297" lon="5.88701">
        <ele>354.39999389648</ele>
        <time>2021-01-18T13:40:30.000Z</time>
      </trkpt>
      <trkpt lat="43.763" lon="5.88673">
        <ele>354.60000610352</ele>
        <time>2021-01-18T13:40:36.000Z</time>
      </trkpt>
      <trkpt lat="43.76291" lon="5.88665">
        <ele>354.79998779297</ele>
        <time>2021-01-18T13:40:39.000Z</time>
      </trkpt>
      <trkpt lat="43.76286" lon="5.88664">
        <ele>354.79998779297</ele>
        <time>2021-01-18T13:40:40.000Z</time>
      </trkpt>
      <trkpt lat="43.76262" lon="5.88655">
        <ele>355</ele>
        <time>2021-01-18T13:40:45.000Z</time>
      </trkpt>
      <trkpt lat="43.76242" lon="5.88646">
        <ele>355</ele>
        <time>2021-01-18T13:40:49.000Z</time>
      </trkpt>
      <trkpt lat="43.76241" lon="5.88642">
        <ele>355</ele>
        <time>2021-01-18T13:40:50.000Z</time>
      </trkpt>
      <trkpt lat="43.76244" lon="5.88628">
        <ele>354.60000610352</ele>
        <time>2021-01-18T13:40:53.000Z</time>
      </trkpt>
      <trkpt lat="43.76245" lon="5.88623">
        <ele>354.60000610352</ele>
        <time>2021-01-18T13:40:54.000Z</time>
      </trkpt>
      <trkpt lat="43.76258" lon="5.88585">
        <ele>354.60000610352</ele>
        <time>2021-01-18T13:41:01.000Z</time>
      </trkpt>
      <trkpt lat="43.76275" lon="5.88556">
        <ele>355</ele>
        <time>2021-01-18T13:41:08.000Z</time>
      </trkpt>
      <trkpt lat="43.76278" lon="5.88553">
        <ele>355.20001220703</ele>
        <time>2021-01-18T13:41:09.000Z</time>
      </trkpt>
      <trkpt lat="43.76297" lon="5.88534">
        <ele>355.79998779297</ele>
        <time>2021-01-18T13:41:15.000Z</time>
      </trkpt>
      <trkpt lat="43.763" lon="5.8853">
        <ele>356</ele>
        <time>2021-01-18T13:41:16.000Z</time>
      </trkpt>
      <trkpt lat="43.76313" lon="5.88515">
        <ele>357.20001220703</ele>
        <time>2021-01-18T13:41:20.000Z</time>
      </trkpt>
      <trkpt lat="43.76318" lon="5.88508">
        <ele>357.20001220703</ele>
        <time>2021-01-18T13:41:22.000Z</time>
      </trkpt>
      <trkpt lat="43.76331" lon="5.88494">
        <ele>358.39999389648</ele>
        <time>2021-01-18T13:41:26.000Z</time>
      </trkpt>
      <trkpt lat="43.76343" lon="5.88482">
        <ele>359</ele>
        <time>2021-01-18T13:41:30.000Z</time>
      </trkpt>
      <trkpt lat="43.76353" lon="5.88474">
        <ele>359.60000610352</ele>
        <time>2021-01-18T13:41:33.000Z</time>
      </trkpt>
      <trkpt lat="43.76371" lon="5.88463">
        <ele>360.39999389648</ele>
        <time>2021-01-18T13:41:38.000Z</time>
      </trkpt>
      <trkpt lat="43.76378" lon="5.88458">
        <ele>360.60000610352</ele>
        <time>2021-01-18T13:41:40.000Z</time>
      </trkpt>
      <trkpt lat="43.764" lon="5.88444">
        <ele>361.79998779297</ele>
        <time>2021-01-18T13:41:46.000Z</time>
      </trkpt>
      <trkpt lat="43.76416" lon="5.88439">
        <ele>363</ele>
        <time>2021-01-18T13:41:50.000Z</time>
      </trkpt>
      <trkpt lat="43.76437" lon="5.88432">
        <ele>363.60000610352</ele>
        <time>2021-01-18T13:41:55.000Z</time>
      </trkpt>
      <trkpt lat="43.76445" lon="5.88432">
        <ele>364.20001220703</ele>
        <time>2021-01-18T13:41:57.000Z</time>
      </trkpt>
      <trkpt lat="43.76462" lon="5.88432">
        <ele>365.20001220703</ele>
        <time>2021-01-18T13:42:01.000Z</time>
      </trkpt>
      <trkpt lat="43.76466" lon="5.88433">
        <ele>365.39999389648</ele>
        <time>2021-01-18T13:42:02.000Z</time>
      </trkpt>
      <trkpt lat="43.76481" lon="5.88433">
        <ele>366.39999389648</ele>
        <time>2021-01-18T13:42:07.000Z</time>
      </trkpt>
      <trkpt lat="43.76486" lon="5.8843">
        <ele>367</ele>
        <time>2021-01-18T13:42:09.000Z</time>
      </trkpt>
      <trkpt lat="43.76491" lon="5.88429">
        <ele>367.39999389648</ele>
        <time>2021-01-18T13:42:11.000Z</time>
      </trkpt>
      <trkpt lat="43.76493" lon="5.88427">
        <ele>367.79998779297</ele>
        <time>2021-01-18T13:42:12.000Z</time>
      </trkpt>
      <trkpt lat="43.765" lon="5.88417">
        <ele>368.60000610352</ele>
        <time>2021-01-18T13:42:15.000Z</time>
      </trkpt>
      <trkpt lat="43.76503" lon="5.88414">
        <ele>368.79998779297</ele>
        <time>2021-01-18T13:42:16.000Z</time>
      </trkpt>
      <trkpt lat="43.76523" lon="5.88394">
        <ele>369.39999389648</ele>
        <time>2021-01-18T13:42:22.000Z</time>
      </trkpt>
      <trkpt lat="43.76526" lon="5.88391">
        <ele>369.60000610352</ele>
        <time>2021-01-18T13:42:23.000Z</time>
      </trkpt>
      <trkpt lat="43.76537" lon="5.88386">
        <ele>369.79998779297</ele>
        <time>2021-01-18T13:42:26.000Z</time>
      </trkpt>
      <trkpt lat="43.76554" lon="5.88386">
        <ele>370.60000610352</ele>
        <time>2021-01-18T13:42:31.000Z</time>
      </trkpt>
      <trkpt lat="43.76573" lon="5.88383">
        <ele>371.79998779297</ele>
        <time>2021-01-18T13:42:36.000Z</time>
      </trkpt>
      <trkpt lat="43.7658" lon="5.88381">
        <ele>372.20001220703</ele>
        <time>2021-01-18T13:42:38.000Z</time>
      </trkpt>
      <trkpt lat="43.76597" lon="5.88379">
        <ele>373</ele>
        <time>2021-01-18T13:42:43.000Z</time>
      </trkpt>
      <trkpt lat="43.76601" lon="5.88378">
        <ele>373.20001220703</ele>
        <time>2021-01-18T13:42:44.000Z</time>
      </trkpt>
      <trkpt lat="43.76616" lon="5.88382">
        <ele>374.39999389648</ele>
        <time>2021-01-18T13:42:48.000Z</time>
      </trkpt>
      <trkpt lat="43.76619" lon="5.88382">
        <ele>374.60000610352</ele>
        <time>2021-01-18T13:42:49.000Z</time>
      </trkpt>
      <trkpt lat="43.76638" lon="5.8838">
        <ele>375.20001220703</ele>
        <time>2021-01-18T13:42:54.000Z</time>
      </trkpt>
      <trkpt lat="43.76642" lon="5.88378">
        <ele>375.39999389648</ele>
        <time>2021-01-18T13:42:55.000Z</time>
      </trkpt>
      <trkpt lat="43.76654" lon="5.88365">
        <ele>376</ele>
        <time>2021-01-18T13:43:00.000Z</time>
      </trkpt>
      <trkpt lat="43.76656" lon="5.88362">
        <ele>376.20001220703</ele>
        <time>2021-01-18T13:43:01.000Z</time>
      </trkpt>
      <trkpt lat="43.76661" lon="5.88347">
        <ele>377.39999389648</ele>
        <time>2021-01-18T13:43:05.000Z</time>
      </trkpt>
      <trkpt lat="43.76666" lon="5.88335">
        <ele>378.39999389648</ele>
        <time>2021-01-18T13:43:08.000Z</time>
      </trkpt>
      <trkpt lat="43.76669" lon="5.88327">
        <ele>379</ele>
        <time>2021-01-18T13:43:10.000Z</time>
      </trkpt>
      <trkpt lat="43.76673" lon="5.88319">
        <ele>379.39999389648</ele>
        <time>2021-01-18T13:43:12.000Z</time>
      </trkpt>
      <trkpt lat="43.76675" lon="5.8831">
        <ele>381</ele>
        <time>2021-01-18T13:43:15.000Z</time>
      </trkpt>
      <trkpt lat="43.76677" lon="5.88304">
        <ele>381.79998779297</ele>
        <time>2021-01-18T13:43:17.000Z</time>
      </trkpt>
      <trkpt lat="43.76677" lon="5.88302">
        <ele>382.20001220703</ele>
        <time>2021-01-18T13:43:18.000Z</time>
      </trkpt>
      <trkpt lat="43.76678" lon="5.88294">
        <ele>383.39999389648</ele>
        <time>2021-01-18T13:43:21.000Z</time>
      </trkpt>
      <trkpt lat="43.76679" lon="5.88283">
        <ele>384.20001220703</ele>
        <time>2021-01-18T13:43:24.000Z</time>
      </trkpt>
      <trkpt lat="43.7668" lon="5.88279">
        <ele>384.79998779297</ele>
        <time>2021-01-18T13:43:25.000Z</time>
      </trkpt>
      <trkpt lat="43.76686" lon="5.88266">
        <ele>386</ele>
        <time>2021-01-18T13:43:28.000Z</time>
      </trkpt>
      <trkpt lat="43.76689" lon="5.88263">
        <ele>386.39999389648</ele>
        <time>2021-01-18T13:43:29.000Z</time>
      </trkpt>
      <trkpt lat="43.76694" lon="5.88259">
        <ele>387.20001220703</ele>
        <time>2021-01-18T13:43:31.000Z</time>
      </trkpt>
      <trkpt lat="43.76703" lon="5.88254">
        <ele>387.60000610352</ele>
        <time>2021-01-18T13:43:34.000Z</time>
      </trkpt>
      <trkpt lat="43.76726" lon="5.88249">
        <ele>388</ele>
        <time>2021-01-18T13:43:41.000Z</time>
      </trkpt>
      <trkpt lat="43.76733" lon="5.88248">
        <ele>388.20001220703</ele>
        <time>2021-01-18T13:43:43.000Z</time>
      </trkpt>
      <trkpt lat="43.76749" lon="5.88244">
        <ele>388.79998779297</ele>
        <time>2021-01-18T13:43:48.000Z</time>
      </trkpt>
      <trkpt lat="43.76755" lon="5.88243">
        <ele>389.39999389648</ele>
        <time>2021-01-18T13:43:50.000Z</time>
      </trkpt>
      <trkpt lat="43.76765" lon="5.88243">
        <ele>390.39999389648</ele>
        <time>2021-01-18T13:43:53.000Z</time>
      </trkpt>
      <trkpt lat="43.7679" lon="5.88242">
        <ele>391</ele>
        <time>2021-01-18T13:44:00.000Z</time>
      </trkpt>
      <trkpt lat="43.7681" lon="5.88243">
        <ele>391.20001220703</ele>
        <time>2021-01-18T13:44:05.000Z</time>
      </trkpt>
      <trkpt lat="43.76814" lon="5.88245">
        <ele>391.39999389648</ele>
        <time>2021-01-18T13:44:06.000Z</time>
      </trkpt>
      <trkpt lat="43.76827" lon="5.88253">
        <ele>392.20001220703</ele>
        <time>2021-01-18T13:44:10.000Z</time>
      </trkpt>
      <trkpt lat="43.7683" lon="5.88256">
        <ele>392.60000610352</ele>
        <time>2021-01-18T13:44:11.000Z</time>
      </trkpt>
      <trkpt lat="43.76852" lon="5.88271">
        <ele>393.60000610352</ele>
        <time>2021-01-18T13:44:17.000Z</time>
      </trkpt>
      <trkpt lat="43.76856" lon="5.88274">
        <ele>393.79998779297</ele>
        <time>2021-01-18T13:44:18.000Z</time>
      </trkpt>
      <trkpt lat="43.76886" lon="5.8829">
        <ele>394.20001220703</ele>
        <time>2021-01-18T13:44:26.000Z</time>
      </trkpt>
      <trkpt lat="43.76915" lon="5.883">
        <ele>394.79998779297</ele>
        <time>2021-01-18T13:44:34.000Z</time>
      </trkpt>
      <trkpt lat="43.7693" lon="5.88306">
        <ele>396</ele>
        <time>2021-01-18T13:44:38.000Z</time>
      </trkpt>
      <trkpt lat="43.76942" lon="5.88312">
        <ele>396.60000610352</ele>
        <time>2021-01-18T13:44:42.000Z</time>
      </trkpt>
      <trkpt lat="43.76945" lon="5.88314">
        <ele>396.79998779297</ele>
        <time>2021-01-18T13:44:43.000Z</time>
      </trkpt>
      <trkpt lat="43.7696" lon="5.8832">
        <ele>398</ele>
        <time>2021-01-18T13:44:47.000Z</time>
      </trkpt>
      <trkpt lat="43.76968" lon="5.88324">
        <ele>398.39999389648</ele>
        <time>2021-01-18T13:44:49.000Z</time>
      </trkpt>
      <trkpt lat="43.76984" lon="5.88331">
        <ele>399.20001220703</ele>
        <time>2021-01-18T13:44:53.000Z</time>
      </trkpt>
      <trkpt lat="43.76995" lon="5.88335">
        <ele>399.60000610352</ele>
        <time>2021-01-18T13:44:56.000Z</time>
      </trkpt>
      <trkpt lat="43.77014" lon="5.88332">
        <ele>400.20001220703</ele>
        <time>2021-01-18T13:45:01.000Z</time>
      </trkpt>
      <trkpt lat="43.77017" lon="5.88331">
        <ele>400.20001220703</ele>
        <time>2021-01-18T13:45:02.000Z</time>
      </trkpt>
      <trkpt lat="43.77039" lon="5.8832">
        <ele>401.20001220703</ele>
        <time>2021-01-18T13:45:09.000Z</time>
      </trkpt>
      <trkpt lat="43.77042" lon="5.88318">
        <ele>401.60000610352</ele>
        <time>2021-01-18T13:45:10.000Z</time>
      </trkpt>
      <trkpt lat="43.77059" lon="5.88308">
        <ele>402.20001220703</ele>
        <time>2021-01-18T13:45:15.000Z</time>
      </trkpt>
      <trkpt lat="43.77066" lon="5.88304">
        <ele>403</ele>
        <time>2021-01-18T13:45:17.000Z</time>
      </trkpt>
      <trkpt lat="43.77074" lon="5.88301">
        <ele>403.39999389648</ele>
        <time>2021-01-18T13:45:19.000Z</time>
      </trkpt>
      <trkpt lat="43.77086" lon="5.88295">
        <ele>404.60000610352</ele>
        <time>2021-01-18T13:45:23.000Z</time>
      </trkpt>
      <trkpt lat="43.77101" lon="5.88287">
        <ele>405.60000610352</ele>
        <time>2021-01-18T13:45:28.000Z</time>
      </trkpt>
      <trkpt lat="43.7711" lon="5.8828">
        <ele>406.39999389648</ele>
        <time>2021-01-18T13:45:31.000Z</time>
      </trkpt>
      <trkpt lat="43.77117" lon="5.88275">
        <ele>407.20001220703</ele>
        <time>2021-01-18T13:45:33.000Z</time>
      </trkpt>
      <trkpt lat="43.77129" lon="5.88274">
        <ele>407.79998779297</ele>
        <time>2021-01-18T13:45:36.000Z</time>
      </trkpt>
      <trkpt lat="43.7715" lon="5.88279">
        <ele>408.39999389648</ele>
        <time>2021-01-18T13:45:41.000Z</time>
      </trkpt>
      <trkpt lat="43.77163" lon="5.88279">
        <ele>408.79998779297</ele>
        <time>2021-01-18T13:45:44.000Z</time>
      </trkpt>
      <trkpt lat="43.77174" lon="5.88282">
        <ele>409.39999389648</ele>
        <time>2021-01-18T13:45:47.000Z</time>
      </trkpt>
      <trkpt lat="43.77186" lon="5.88287">
        <ele>410.20001220703</ele>
        <time>2021-01-18T13:45:50.000Z</time>
      </trkpt>
      <trkpt lat="43.77193" lon="5.88291">
        <ele>410.39999389648</ele>
        <time>2021-01-18T13:45:52.000Z</time>
      </trkpt>
      <trkpt lat="43.7721" lon="5.88303">
        <ele>411.60000610352</ele>
        <time>2021-01-18T13:45:57.000Z</time>
      </trkpt>
      <trkpt lat="43.77213" lon="5.88305">
        <ele>411.79998779297</ele>
        <time>2021-01-18T13:45:58.000Z</time>
      </trkpt>
      <trkpt lat="43.77224" lon="5.88311">
        <ele>412.60000610352</ele>
        <time>2021-01-18T13:46:01.000Z</time>
      </trkpt>
      <trkpt lat="43.77238" lon="5.88313">
        <ele>413.20001220703</ele>
        <time>2021-01-18T13:46:05.000Z</time>
      </trkpt>
      <trkpt lat="43.7725" lon="5.88313">
        <ele>413.60000610352</ele>
        <time>2021-01-18T13:46:08.000Z</time>
      </trkpt>
      <trkpt lat="43.7727" lon="5.8831">
        <ele>414.79998779297</ele>
        <time>2021-01-18T13:46:13.000Z</time>
      </trkpt>
      <trkpt lat="43.77293" lon="5.88306">
        <ele>416</ele>
        <time>2021-01-18T13:46:20.000Z</time>
      </trkpt>
      <trkpt lat="43.77303" lon="5.88304">
        <ele>417.20001220703</ele>
        <time>2021-01-18T13:46:23.000Z</time>
      </trkpt>
      <trkpt lat="43.77312" lon="5.88302">
        <ele>418.39999389648</ele>
        <time>2021-01-18T13:46:26.000Z</time>
      </trkpt>
      <trkpt lat="43.77325" lon="5.88299">
        <ele>419.60000610352</ele>
        <time>2021-01-18T13:46:30.000Z</time>
      </trkpt>
      <trkpt lat="43.77341" lon="5.88299">
        <ele>420.79998779297</ele>
        <time>2021-01-18T13:46:35.000Z</time>
      </trkpt>
      <trkpt lat="43.7735" lon="5.88301">
        <ele>421.39999389648</ele>
        <time>2021-01-18T13:46:38.000Z</time>
      </trkpt>
      <trkpt lat="43.77355" lon="5.88305">
        <ele>422</ele>
        <time>2021-01-18T13:46:40.000Z</time>
      </trkpt>
      <trkpt lat="43.77363" lon="5.88317">
        <ele>422.60000610352</ele>
        <time>2021-01-18T13:46:43.000Z</time>
      </trkpt>
      <trkpt lat="43.77375" lon="5.88334">
        <ele>422.79998779297</ele>
        <time>2021-01-18T13:46:48.000Z</time>
      </trkpt>
      <trkpt lat="43.77388" lon="5.8834">
        <ele>423</ele>
        <time>2021-01-18T13:46:52.000Z</time>
      </trkpt>
      <trkpt lat="43.774" lon="5.88348">
        <ele>424.39999389648</ele>
        <time>2021-01-18T13:46:56.000Z</time>
      </trkpt>
      <trkpt lat="43.77412" lon="5.88356">
        <ele>425.60000610352</ele>
        <time>2021-01-18T13:47:00.000Z</time>
      </trkpt>
      <trkpt lat="43.77424" lon="5.88364">
        <ele>426.39999389648</ele>
        <time>2021-01-18T13:47:04.000Z</time>
      </trkpt>
      <trkpt lat="43.77427" lon="5.88366">
        <ele>426.60000610352</ele>
        <time>2021-01-18T13:47:05.000Z</time>
      </trkpt>
      <trkpt lat="43.77446" lon="5.88377">
        <ele>427.39999389648</ele>
        <time>2021-01-18T13:47:11.000Z</time>
      </trkpt>
      <trkpt lat="43.77452" lon="5.8838">
        <ele>427.39999389648</ele>
        <time>2021-01-18T13:47:13.000Z</time>
      </trkpt>
      <trkpt lat="43.77463" lon="5.88384">
        <ele>428.39999389648</ele>
        <time>2021-01-18T13:47:16.000Z</time>
      </trkpt>
      <trkpt lat="43.77481" lon="5.88388">
        <ele>429.60000610352</ele>
        <time>2021-01-18T13:47:21.000Z</time>
      </trkpt>
      <trkpt lat="43.77491" lon="5.88389">
        <ele>430.60000610352</ele>
        <time>2021-01-18T13:47:24.000Z</time>
      </trkpt>
      <trkpt lat="43.77501" lon="5.88391">
        <ele>431.39999389648</ele>
        <time>2021-01-18T13:47:27.000Z</time>
      </trkpt>
      <trkpt lat="43.77509" lon="5.88392">
        <ele>431.60000610352</ele>
        <time>2021-01-18T13:47:29.000Z</time>
      </trkpt>
      <trkpt lat="43.77526" lon="5.88394">
        <ele>432.20001220703</ele>
        <time>2021-01-18T13:47:34.000Z</time>
      </trkpt>
      <trkpt lat="43.7754" lon="5.88399">
        <ele>432.60000610352</ele>
        <time>2021-01-18T13:47:38.000Z</time>
      </trkpt>
      <trkpt lat="43.77549" lon="5.88406">
        <ele>433.20001220703</ele>
        <time>2021-01-18T13:47:41.000Z</time>
      </trkpt>
      <trkpt lat="43.77558" lon="5.88415">
        <ele>433.79998779297</ele>
        <time>2021-01-18T13:47:44.000Z</time>
      </trkpt>
      <trkpt lat="43.77568" lon="5.88428">
        <ele>434</ele>
        <time>2021-01-18T13:47:48.000Z</time>
      </trkpt>
      <trkpt lat="43.77577" lon="5.88435">
        <ele>434.79998779297</ele>
        <time>2021-01-18T13:47:51.000Z</time>
      </trkpt>
      <trkpt lat="43.77589" lon="5.88444">
        <ele>436</ele>
        <time>2021-01-18T13:47:55.000Z</time>
      </trkpt>
      <trkpt lat="43.77599" lon="5.8845">
        <ele>437.20001220703</ele>
        <time>2021-01-18T13:47:58.000Z</time>
      </trkpt>
      <trkpt lat="43.77611" lon="5.88458">
        <ele>438.20001220703</ele>
        <time>2021-01-18T13:48:02.000Z</time>
      </trkpt>
      <trkpt lat="43.77615" lon="5.8846">
        <ele>438.20001220703</ele>
        <time>2021-01-18T13:48:03.000Z</time>
      </trkpt>
      <trkpt lat="43.77635" lon="5.88475">
        <ele>439.20001220703</ele>
        <time>2021-01-18T13:48:10.000Z</time>
      </trkpt>
      <trkpt lat="43.77638" lon="5.88478">
        <ele>439.60000610352</ele>
        <time>2021-01-18T13:48:11.000Z</time>
      </trkpt>
      <trkpt lat="43.77648" lon="5.88483">
        <ele>440.60000610352</ele>
        <time>2021-01-18T13:48:14.000Z</time>
      </trkpt>
      <trkpt lat="43.7766" lon="5.8849">
        <ele>441.39999389648</ele>
        <time>2021-01-18T13:48:18.000Z</time>
      </trkpt>
      <trkpt lat="43.77663" lon="5.88491">
        <ele>442.20001220703</ele>
        <time>2021-01-18T13:48:19.000Z</time>
      </trkpt>
      <trkpt lat="43.77669" lon="5.88494">
        <ele>442.60000610352</ele>
        <time>2021-01-18T13:48:21.000Z</time>
      </trkpt>
      <trkpt lat="43.77685" lon="5.88502">
        <ele>443.60000610352</ele>
        <time>2021-01-18T13:48:26.000Z</time>
      </trkpt>
      <trkpt lat="43.77697" lon="5.88509">
        <ele>444.79998779297</ele>
        <time>2021-01-18T13:48:30.000Z</time>
      </trkpt>
      <trkpt lat="43.77709" lon="5.88518">
        <ele>446</ele>
        <time>2021-01-18T13:48:34.000Z</time>
      </trkpt>
      <trkpt lat="43.77717" lon="5.88525">
        <ele>447</ele>
        <time>2021-01-18T13:48:37.000Z</time>
      </trkpt>
      <trkpt lat="43.77726" lon="5.88538">
        <ele>448.20001220703</ele>
        <time>2021-01-18T13:48:41.000Z</time>
      </trkpt>
      <trkpt lat="43.77728" lon="5.88541">
        <ele>448.60000610352</ele>
        <time>2021-01-18T13:48:42.000Z</time>
      </trkpt>
      <trkpt lat="43.77734" lon="5.88552">
        <ele>449.60000610352</ele>
        <time>2021-01-18T13:48:45.000Z</time>
      </trkpt>
      <trkpt lat="43.77741" lon="5.88568">
        <ele>450.20001220703</ele>
        <time>2021-01-18T13:48:49.000Z</time>
      </trkpt>
      <trkpt lat="43.77743" lon="5.88571">
        <ele>450.39999389648</ele>
        <time>2021-01-18T13:48:50.000Z</time>
      </trkpt>
      <trkpt lat="43.77747" lon="5.88587">
        <ele>451.60000610352</ele>
        <time>2021-01-18T13:48:54.000Z</time>
      </trkpt>
      <trkpt lat="43.77751" lon="5.88601">
        <ele>452.60000610352</ele>
        <time>2021-01-18T13:48:58.000Z</time>
      </trkpt>
      <trkpt lat="43.77757" lon="5.88622">
        <ele>453.79998779297</ele>
        <time>2021-01-18T13:49:04.000Z</time>
      </trkpt>
      <trkpt lat="43.77758" lon="5.88626">
        <ele>454.20001220703</ele>
        <time>2021-01-18T13:49:05.000Z</time>
      </trkpt>
      <trkpt lat="43.7776" lon="5.88634">
        <ele>455</ele>
        <time>2021-01-18T13:49:07.000Z</time>
      </trkpt>
      <trkpt lat="43.77765" lon="5.88647">
        <ele>456</ele>
        <time>2021-01-18T13:49:11.000Z</time>
      </trkpt>
      <trkpt lat="43.77766" lon="5.8865">
        <ele>456.39999389648</ele>
        <time>2021-01-18T13:49:12.000Z</time>
      </trkpt>
      <trkpt lat="43.77768" lon="5.8866">
        <ele>457.20001220703</ele>
        <time>2021-01-18T13:49:15.000Z</time>
      </trkpt>
      <trkpt lat="43.7777" lon="5.8867">
        <ele>458.39999389648</ele>
        <time>2021-01-18T13:49:18.000Z</time>
      </trkpt>
      <trkpt lat="43.77771" lon="5.88674">
        <ele>458.79998779297</ele>
        <time>2021-01-18T13:49:19.000Z</time>
      </trkpt>
      <trkpt lat="43.77775" lon="5.88683">
        <ele>459.60000610352</ele>
        <time>2021-01-18T13:49:22.000Z</time>
      </trkpt>
      <trkpt lat="43.77779" lon="5.88688">
        <ele>460.39999389648</ele>
        <time>2021-01-18T13:49:24.000Z</time>
      </trkpt>
      <trkpt lat="43.77783" lon="5.88693">
        <ele>460.79998779297</ele>
        <time>2021-01-18T13:49:26.000Z</time>
      </trkpt>
      <trkpt lat="43.77793" lon="5.88697">
        <ele>461.39999389648</ele>
        <time>2021-01-18T13:49:30.000Z</time>
      </trkpt>
      <trkpt lat="43.77796" lon="5.88699">
        <ele>461.79998779297</ele>
        <time>2021-01-18T13:49:32.000Z</time>
      </trkpt>
      <trkpt lat="43.77799" lon="5.88699">
        <ele>462.79998779297</ele>
        <time>2021-01-18T13:49:35.000Z</time>
      </trkpt>
      <trkpt lat="43.778" lon="5.88699">
        <ele>463.20001220703</ele>
        <time>2021-01-18T13:49:36.000Z</time>
      </trkpt>
      <trkpt lat="43.77805" lon="5.88699">
        <ele>464.39999389648</ele>
        <time>2021-01-18T13:49:41.000Z</time>
      </trkpt>
      <trkpt lat="43.77813" lon="5.88699">
        <ele>464.79998779297</ele>
        <time>2021-01-18T13:49:47.000Z</time>
      </trkpt>
      <trkpt lat="43.77821" lon="5.88698">
        <ele>465.20001220703</ele>
        <time>2021-01-18T13:49:52.000Z</time>
      </trkpt>
      <trkpt lat="43.77822" lon="5.88698">
        <ele>465.20001220703</ele>
        <time>2021-01-18T13:49:53.000Z</time>
      </trkpt>
      <trkpt lat="43.77825" lon="5.88698">
        <ele>465.39999389648</ele>
        <time>2021-01-18T13:49:55.000Z</time>
      </trkpt>
      <trkpt lat="43.77835" lon="5.88697">
        <ele>465.60000610352</ele>
        <time>2021-01-18T13:50:00.000Z</time>
      </trkpt>
      <trkpt lat="43.7785" lon="5.88691">
        <ele>466.20001220703</ele>
        <time>2021-01-18T13:50:07.000Z</time>
      </trkpt>
      <trkpt lat="43.77853" lon="5.88689">
        <ele>466.39999389648</ele>
        <time>2021-01-18T13:50:08.000Z</time>
      </trkpt>
      <trkpt lat="43.77861" lon="5.88681">
        <ele>467.39999389648</ele>
        <time>2021-01-18T13:50:12.000Z</time>
      </trkpt>
      <trkpt lat="43.77865" lon="5.88676">
        <ele>468</ele>
        <time>2021-01-18T13:50:14.000Z</time>
      </trkpt>
      <trkpt lat="43.77868" lon="5.88671">
        <ele>468.39999389648</ele>
        <time>2021-01-18T13:50:16.000Z</time>
      </trkpt>
      <trkpt lat="43.77875" lon="5.88659">
        <ele>469.20001220703</ele>
        <time>2021-01-18T13:50:20.000Z</time>
      </trkpt>
      <trkpt lat="43.77879" lon="5.88654">
        <ele>469.79998779297</ele>
        <time>2021-01-18T13:50:22.000Z</time>
      </trkpt>
      <trkpt lat="43.77883" lon="5.8865">
        <ele>470.60000610352</ele>
        <time>2021-01-18T13:50:24.000Z</time>
      </trkpt>
      <trkpt lat="43.77891" lon="5.88644">
        <ele>471.79998779297</ele>
        <time>2021-01-18T13:50:28.000Z</time>
      </trkpt>
      <trkpt lat="43.77893" lon="5.88643">
        <ele>472</ele>
        <time>2021-01-18T13:50:29.000Z</time>
      </trkpt>
      <trkpt lat="43.77897" lon="5.8864">
        <ele>472.79998779297</ele>
        <time>2021-01-18T13:50:31.000Z</time>
      </trkpt>
      <trkpt lat="43.77903" lon="5.88637">
        <ele>473.79998779297</ele>
        <time>2021-01-18T13:50:34.000Z</time>
      </trkpt>
      <trkpt lat="43.77912" lon="5.88631">
        <ele>475</ele>
        <time>2021-01-18T13:50:38.000Z</time>
      </trkpt>
      <trkpt lat="43.77914" lon="5.8863">
        <ele>475.20001220703</ele>
        <time>2021-01-18T13:50:39.000Z</time>
      </trkpt>
      <trkpt lat="43.77923" lon="5.88623">
        <ele>476.20001220703</ele>
        <time>2021-01-18T13:50:43.000Z</time>
      </trkpt>
      <trkpt lat="43.77931" lon="5.88613">
        <ele>477</ele>
        <time>2021-01-18T13:50:47.000Z</time>
      </trkpt>
      <trkpt lat="43.77933" lon="5.88611">
        <ele>477.20001220703</ele>
        <time>2021-01-18T13:50:48.000Z</time>
      </trkpt>
      <trkpt lat="43.77943" lon="5.88598">
        <ele>478.60000610352</ele>
        <time>2021-01-18T13:50:53.000Z</time>
      </trkpt>
      <trkpt lat="43.77951" lon="5.88589">
        <ele>479.39999389648</ele>
        <time>2021-01-18T13:50:57.000Z</time>
      </trkpt>
      <trkpt lat="43.77953" lon="5.88587">
        <ele>479.60000610352</ele>
        <time>2021-01-18T13:50:58.000Z</time>
      </trkpt>
      <trkpt lat="43.77965" lon="5.88579">
        <ele>480.79998779297</ele>
        <time>2021-01-18T13:51:03.000Z</time>
      </trkpt>
      <trkpt lat="43.77973" lon="5.88575">
        <ele>482</ele>
        <time>2021-01-18T13:51:06.000Z</time>
      </trkpt>
      <trkpt lat="43.77985" lon="5.88569">
        <ele>482.79998779297</ele>
        <time>2021-01-18T13:51:11.000Z</time>
      </trkpt>
      <trkpt lat="43.77993" lon="5.88564">
        <ele>483.79998779297</ele>
        <time>2021-01-18T13:51:14.000Z</time>
      </trkpt>
      <trkpt lat="43.78003" lon="5.88554">
        <ele>485</ele>
        <time>2021-01-18T13:51:19.000Z</time>
      </trkpt>
      <trkpt lat="43.78013" lon="5.88548">
        <ele>486</ele>
        <time>2021-01-18T13:51:23.000Z</time>
      </trkpt>
      <trkpt lat="43.78015" lon="5.88546">
        <ele>486.20001220703</ele>
        <time>2021-01-18T13:51:24.000Z</time>
      </trkpt>
      <trkpt lat="43.78025" lon="5.8854">
        <ele>487.20001220703</ele>
        <time>2021-01-18T13:51:28.000Z</time>
      </trkpt>
      <trkpt lat="43.78035" lon="5.88534">
        <ele>488.79998779297</ele>
        <time>2021-01-18T13:51:32.000Z</time>
      </trkpt>
      <trkpt lat="43.78037" lon="5.88532">
        <ele>489</ele>
        <time>2021-01-18T13:51:33.000Z</time>
      </trkpt>
      <trkpt lat="43.78044" lon="5.88527">
        <ele>490</ele>
        <time>2021-01-18T13:51:36.000Z</time>
      </trkpt>
      <trkpt lat="43.78055" lon="5.88522">
        <ele>491.20001220703</ele>
        <time>2021-01-18T13:51:40.000Z</time>
      </trkpt>
      <trkpt lat="43.78058" lon="5.88521">
        <ele>491.39999389648</ele>
        <time>2021-01-18T13:51:41.000Z</time>
      </trkpt>
      <trkpt lat="43.78063" lon="5.88518">
        <ele>492.20001220703</ele>
        <time>2021-01-18T13:51:43.000Z</time>
      </trkpt>
      <trkpt lat="43.78071" lon="5.88514">
        <ele>493.20001220703</ele>
        <time>2021-01-18T13:51:46.000Z</time>
      </trkpt>
      <trkpt lat="43.78079" lon="5.88509">
        <ele>494.60000610352</ele>
        <time>2021-01-18T13:51:49.000Z</time>
      </trkpt>
      <trkpt lat="43.78084" lon="5.88506">
        <ele>495.60000610352</ele>
        <time>2021-01-18T13:51:51.000Z</time>
      </trkpt>
      <trkpt lat="43.78095" lon="5.88501">
        <ele>496.60000610352</ele>
        <time>2021-01-18T13:51:55.000Z</time>
      </trkpt>
      <trkpt lat="43.78105" lon="5.88498">
        <ele>497.79998779297</ele>
        <time>2021-01-18T13:51:59.000Z</time>
      </trkpt>
      <trkpt lat="43.78108" lon="5.88497">
        <ele>498.39999389648</ele>
        <time>2021-01-18T13:52:00.000Z</time>
      </trkpt>
      <trkpt lat="43.78113" lon="5.88497">
        <ele>499</ele>
        <time>2021-01-18T13:52:02.000Z</time>
      </trkpt>
      <trkpt lat="43.7812" lon="5.88497">
        <ele>500</ele>
        <time>2021-01-18T13:52:05.000Z</time>
      </trkpt>
      <trkpt lat="43.78128" lon="5.88497">
        <ele>501</ele>
        <time>2021-01-18T13:52:08.000Z</time>
      </trkpt>
      <trkpt lat="43.78131" lon="5.88497">
        <ele>501.39999389648</ele>
        <time>2021-01-18T13:52:09.000Z</time>
      </trkpt>
      <trkpt lat="43.78139" lon="5.88498">
        <ele>502.39999389648</ele>
        <time>2021-01-18T13:52:12.000Z</time>
      </trkpt>
      <trkpt lat="43.78144" lon="5.88497">
        <ele>503.60000610352</ele>
        <time>2021-01-18T13:52:14.000Z</time>
      </trkpt>
      <trkpt lat="43.78152" lon="5.88496">
        <ele>505</ele>
        <time>2021-01-18T13:52:17.000Z</time>
      </trkpt>
      <trkpt lat="43.78157" lon="5.88494">
        <ele>505.79998779297</ele>
        <time>2021-01-18T13:52:19.000Z</time>
      </trkpt>
      <trkpt lat="43.78159" lon="5.88493">
        <ele>506.20001220703</ele>
        <time>2021-01-18T13:52:20.000Z</time>
      </trkpt>
      <trkpt lat="43.78167" lon="5.88491">
        <ele>507.60000610352</ele>
        <time>2021-01-18T13:52:23.000Z</time>
      </trkpt>
      <trkpt lat="43.78175" lon="5.88488">
        <ele>509</ele>
        <time>2021-01-18T13:52:26.000Z</time>
      </trkpt>
      <trkpt lat="43.7818" lon="5.88487">
        <ele>510.20001220703</ele>
        <time>2021-01-18T13:52:28.000Z</time>
      </trkpt>
      <trkpt lat="43.78187" lon="5.88484">
        <ele>511.60000610352</ele>
        <time>2021-01-18T13:52:31.000Z</time>
      </trkpt>
      <trkpt lat="43.78195" lon="5.88481">
        <ele>512.79998779297</ele>
        <time>2021-01-18T13:52:34.000Z</time>
      </trkpt>
      <trkpt lat="43.78202" lon="5.88478">
        <ele>514</ele>
        <time>2021-01-18T13:52:37.000Z</time>
      </trkpt>
      <trkpt lat="43.78208" lon="5.88474">
        <ele>515</ele>
        <time>2021-01-18T13:52:40.000Z</time>
      </trkpt>
      <trkpt lat="43.78212" lon="5.88471">
        <ele>515.59997558594</ele>
        <time>2021-01-18T13:52:42.000Z</time>
      </trkpt>
      <trkpt lat="43.78217" lon="5.88463">
        <ele>516.40002441406</ele>
        <time>2021-01-18T13:52:45.000Z</time>
      </trkpt>
      <trkpt lat="43.78222" lon="5.88454">
        <ele>517.40002441406</ele>
        <time>2021-01-18T13:52:48.000Z</time>
      </trkpt>
      <trkpt lat="43.78224" lon="5.88452">
        <ele>517.59997558594</ele>
        <time>2021-01-18T13:52:49.000Z</time>
      </trkpt>
      <trkpt lat="43.78242" lon="5.88426">
        <ele>518.40002441406</ele>
        <time>2021-01-18T13:52:58.000Z</time>
      </trkpt>
      <trkpt lat="43.78248" lon="5.88418">
        <ele>518.79998779297</ele>
        <time>2021-01-18T13:53:01.000Z</time>
      </trkpt>
      <trkpt lat="43.78258" lon="5.88409">
        <ele>519.79998779297</ele>
        <time>2021-01-18T13:53:05.000Z</time>
      </trkpt>
      <trkpt lat="43.78263" lon="5.88405">
        <ele>520</ele>
        <time>2021-01-18T13:53:07.000Z</time>
      </trkpt>
      <trkpt lat="43.78281" lon="5.88394">
        <ele>521.20001220703</ele>
        <time>2021-01-18T13:53:14.000Z</time>
      </trkpt>
      <trkpt lat="43.78287" lon="5.88391">
        <ele>521.79998779297</ele>
        <time>2021-01-18T13:53:16.000Z</time>
      </trkpt>
      <trkpt lat="43.78308" lon="5.88384">
        <ele>522</ele>
        <time>2021-01-18T13:53:22.000Z</time>
      </trkpt>
      <trkpt lat="43.78344" lon="5.8837">
        <ele>522.20001220703</ele>
        <time>2021-01-18T13:53:32.000Z</time>
      </trkpt>
      <trkpt lat="43.78362" lon="5.88364">
        <ele>522.20001220703</ele>
        <time>2021-01-18T13:53:37.000Z</time>
      </trkpt>
      <trkpt lat="43.7837" lon="5.88361">
        <ele>522.40002441406</ele>
        <time>2021-01-18T13:53:39.000Z</time>
      </trkpt>
      <trkpt lat="43.78387" lon="5.8835">
        <ele>522.20001220703</ele>
        <time>2021-01-18T13:53:45.000Z</time>
      </trkpt>
      <trkpt lat="43.78388" lon="5.88346">
        <ele>522.20001220703</ele>
        <time>2021-01-18T13:53:46.000Z</time>
      </trkpt>
      <trkpt lat="43.78386" lon="5.88334">
        <ele>522.20001220703</ele>
        <time>2021-01-18T13:53:49.000Z</time>
      </trkpt>
      <trkpt lat="43.78384" lon="5.88329">
        <ele>522.20001220703</ele>
        <time>2021-01-18T13:53:50.000Z</time>
      </trkpt>
      <trkpt lat="43.78373" lon="5.88305">
        <ele>522.20001220703</ele>
        <time>2021-01-18T13:53:55.000Z</time>
      </trkpt>
      <trkpt lat="43.78357" lon="5.88267">
        <ele>522.20001220703</ele>
        <time>2021-01-18T13:54:03.000Z</time>
      </trkpt>
      <trkpt lat="43.7834" lon="5.8823">
        <ele>522</ele>
        <time>2021-01-18T13:54:11.000Z</time>
      </trkpt>
      <trkpt lat="43.78327" lon="5.88204">
        <ele>521.40002441406</ele>
        <time>2021-01-18T13:54:16.000Z</time>
      </trkpt>
      <trkpt lat="43.78317" lon="5.88187">
        <ele>521.20001220703</ele>
        <time>2021-01-18T13:54:19.000Z</time>
      </trkpt>
      <trkpt lat="43.78298" lon="5.88156">
        <ele>520.40002441406</ele>
        <time>2021-01-18T13:54:24.000Z</time>
      </trkpt>
      <trkpt lat="43.78286" lon="5.88138">
        <ele>519.20001220703</ele>
        <time>2021-01-18T13:54:27.000Z</time>
      </trkpt>
      <trkpt lat="43.78273" lon="5.8812">
        <ele>518.20001220703</ele>
        <time>2021-01-18T13:54:30.000Z</time>
      </trkpt>
      <trkpt lat="43.78262" lon="5.88102">
        <ele>517.20001220703</ele>
        <time>2021-01-18T13:54:33.000Z</time>
      </trkpt>
      <trkpt lat="43.78253" lon="5.88084">
        <ele>516.79998779297</ele>
        <time>2021-01-18T13:54:36.000Z</time>
      </trkpt>
      <trkpt lat="43.78238" lon="5.88042">
        <ele>516.59997558594</ele>
        <time>2021-01-18T13:54:42.000Z</time>
      </trkpt>
      <trkpt lat="43.78229" lon="5.88024">
        <ele>516.59997558594</ele>
        <time>2021-01-18T13:54:45.000Z</time>
      </trkpt>
      <trkpt lat="43.78222" lon="5.88013">
        <ele>516.59997558594</ele>
        <time>2021-01-18T13:54:47.000Z</time>
      </trkpt>
      <trkpt lat="43.78219" lon="5.88008">
        <ele>516.59997558594</ele>
        <time>2021-01-18T13:54:48.000Z</time>
      </trkpt>
      <trkpt lat="43.78203" lon="5.87985">
        <ele>516.59997558594</ele>
        <time>2021-01-18T13:54:52.000Z</time>
      </trkpt>
      <trkpt lat="43.78187" lon="5.87955">
        <ele>516.40002441406</ele>
        <time>2021-01-18T13:54:57.000Z</time>
      </trkpt>
      <trkpt lat="43.78176" lon="5.8793">
        <ele>516.20001220703</ele>
        <time>2021-01-18T13:55:01.000Z</time>
      </trkpt>
      <trkpt lat="43.78167" lon="5.87901">
        <ele>515.79998779297</ele>
        <time>2021-01-18T13:55:05.000Z</time>
      </trkpt>
      <trkpt lat="43.78161" lon="5.87876">
        <ele>515.20001220703</ele>
        <time>2021-01-18T13:55:08.000Z</time>
      </trkpt>
      <trkpt lat="43.78159" lon="5.87868">
        <ele>514.79998779297</ele>
        <time>2021-01-18T13:55:09.000Z</time>
      </trkpt>
      <trkpt lat="43.78155" lon="5.87861">
        <ele>514.79998779297</ele>
        <time>2021-01-18T13:55:10.000Z</time>
      </trkpt>
      <trkpt lat="43.78146" lon="5.87849">
        <ele>514</ele>
        <time>2021-01-18T13:55:12.000Z</time>
      </trkpt>
      <trkpt lat="43.78138" lon="5.8784">
        <ele>513</ele>
        <time>2021-01-18T13:55:14.000Z</time>
      </trkpt>
      <trkpt lat="43.78133" lon="5.87836">
        <ele>512.79998779297</ele>
        <time>2021-01-18T13:55:15.000Z</time>
      </trkpt>
      <trkpt lat="43.78106" lon="5.87806">
        <ele>512.40002441406</ele>
        <time>2021-01-18T13:55:21.000Z</time>
      </trkpt>
      <trkpt lat="43.78082" lon="5.87772">
        <ele>512.40002441406</ele>
        <time>2021-01-18T13:55:27.000Z</time>
      </trkpt>
      <trkpt lat="43.78052" lon="5.87733">
        <ele>512.40002441406</ele>
        <time>2021-01-18T13:55:35.000Z</time>
      </trkpt>
      <trkpt lat="43.78047" lon="5.87729">
        <ele>512.40002441406</ele>
        <time>2021-01-18T13:55:36.000Z</time>
      </trkpt>
      <trkpt lat="43.7803" lon="5.87723">
        <ele>512.20001220703</ele>
        <time>2021-01-18T13:55:39.000Z</time>
      </trkpt>
      <trkpt lat="43.78018" lon="5.87723">
        <ele>512</ele>
        <time>2021-01-18T13:55:41.000Z</time>
      </trkpt>
      <trkpt lat="43.78012" lon="5.87722">
        <ele>511.79998779297</ele>
        <time>2021-01-18T13:55:42.000Z</time>
      </trkpt>
      <trkpt lat="43.78" lon="5.87718">
        <ele>511.39999389648</ele>
        <time>2021-01-18T13:55:44.000Z</time>
      </trkpt>
      <trkpt lat="43.77989" lon="5.87711">
        <ele>510.79998779297</ele>
        <time>2021-01-18T13:55:46.000Z</time>
      </trkpt>
      <trkpt lat="43.77974" lon="5.87698">
        <ele>510.39999389648</ele>
        <time>2021-01-18T13:55:49.000Z</time>
      </trkpt>
      <trkpt lat="43.77946" lon="5.87666">
        <ele>510.39999389648</ele>
        <time>2021-01-18T13:55:56.000Z</time>
      </trkpt>
      <trkpt lat="43.77923" lon="5.87635">
        <ele>510.39999389648</ele>
        <time>2021-01-18T13:56:02.000Z</time>
      </trkpt>
      <trkpt lat="43.7792" lon="5.87629">
        <ele>510.60000610352</ele>
        <time>2021-01-18T13:56:03.000Z</time>
      </trkpt>
      <trkpt lat="43.77908" lon="5.87608">
        <ele>510.79998779297</ele>
        <time>2021-01-18T13:56:07.000Z</time>
      </trkpt>
      <trkpt lat="43.779" lon="5.87596">
        <ele>511.20001220703</ele>
        <time>2021-01-18T13:56:10.000Z</time>
      </trkpt>
      <trkpt lat="43.77894" lon="5.87588">
        <ele>511.39999389648</ele>
        <time>2021-01-18T13:56:12.000Z</time>
      </trkpt>
      <trkpt lat="43.7789" lon="5.87584">
        <ele>511.39999389648</ele>
        <time>2021-01-18T13:56:13.000Z</time>
      </trkpt>
      <trkpt lat="43.77881" lon="5.87568">
        <ele>511.60000610352</ele>
        <time>2021-01-18T13:56:16.000Z</time>
      </trkpt>
      <trkpt lat="43.77876" lon="5.87563">
        <ele>511.60000610352</ele>
        <time>2021-01-18T13:56:17.000Z</time>
      </trkpt>
      <trkpt lat="43.77849" lon="5.87538">
        <ele>511.20001220703</ele>
        <time>2021-01-18T13:56:22.000Z</time>
      </trkpt>
      <trkpt lat="43.77824" lon="5.87514">
        <ele>509.60000610352</ele>
        <time>2021-01-18T13:56:26.000Z</time>
      </trkpt>
      <trkpt lat="43.77818" lon="5.87506">
        <ele>509</ele>
        <time>2021-01-18T13:56:27.000Z</time>
      </trkpt>
      <trkpt lat="43.77813" lon="5.87499">
        <ele>508.39999389648</ele>
        <time>2021-01-18T13:56:28.000Z</time>
      </trkpt>
      <trkpt lat="43.77808" lon="5.87491">
        <ele>507.79998779297</ele>
        <time>2021-01-18T13:56:29.000Z</time>
      </trkpt>
      <trkpt lat="43.77804" lon="5.87483">
        <ele>507.39999389648</ele>
        <time>2021-01-18T13:56:30.000Z</time>
      </trkpt>
      <trkpt lat="43.77801" lon="5.87475">
        <ele>506.79998779297</ele>
        <time>2021-01-18T13:56:31.000Z</time>
      </trkpt>
      <trkpt lat="43.77799" lon="5.87468">
        <ele>505.79998779297</ele>
        <time>2021-01-18T13:56:32.000Z</time>
      </trkpt>
      <trkpt lat="43.77796" lon="5.87462">
        <ele>504.20001220703</ele>
        <time>2021-01-18T13:56:33.000Z</time>
      </trkpt>
      <trkpt lat="43.77794" lon="5.87457">
        <ele>502.79998779297</ele>
        <time>2021-01-18T13:56:34.000Z</time>
      </trkpt>
      <trkpt lat="43.77793" lon="5.87453">
        <ele>502.60000610352</ele>
        <time>2021-01-18T13:56:35.000Z</time>
      </trkpt>
      <trkpt lat="43.77784" lon="5.8743">
        <ele>502.39999389648</ele>
        <time>2021-01-18T13:56:41.000Z</time>
      </trkpt>
      <trkpt lat="43.77773" lon="5.87409">
        <ele>504</ele>
        <time>2021-01-18T13:56:46.000Z</time>
      </trkpt>
      <trkpt lat="43.77769" lon="5.874">
        <ele>505</ele>
        <time>2021-01-18T13:56:48.000Z</time>
      </trkpt>
      <trkpt lat="43.77766" lon="5.87395">
        <ele>505.60000610352</ele>
        <time>2021-01-18T13:56:49.000Z</time>
      </trkpt>
      <trkpt lat="43.77762" lon="5.87385">
        <ele>506.60000610352</ele>
        <time>2021-01-18T13:56:51.000Z</time>
      </trkpt>
      <trkpt lat="43.77757" lon="5.87375">
        <ele>507.60000610352</ele>
        <time>2021-01-18T13:56:53.000Z</time>
      </trkpt>
      <trkpt lat="43.77753" lon="5.87364">
        <ele>508.60000610352</ele>
        <time>2021-01-18T13:56:55.000Z</time>
      </trkpt>
      <trkpt lat="43.77751" lon="5.8736">
        <ele>509</ele>
        <time>2021-01-18T13:56:56.000Z</time>
      </trkpt>
      <trkpt lat="43.77746" lon="5.87349">
        <ele>510</ele>
        <time>2021-01-18T13:57:00.000Z</time>
      </trkpt>
      <trkpt lat="43.77744" lon="5.87347">
        <ele>511.39999389648</ele>
        <time>2021-01-18T13:57:03.000Z</time>
      </trkpt>
      <trkpt lat="43.77742" lon="5.87347">
        <ele>512</ele>
        <time>2021-01-18T13:57:05.000Z</time>
      </trkpt>
      <trkpt lat="43.77741" lon="5.87347">
        <ele>512.40002441406</ele>
        <time>2021-01-18T13:57:07.000Z</time>
      </trkpt>
      <trkpt lat="43.77741" lon="5.87346">
        <ele>513</ele>
        <time>2021-01-18T13:57:10.000Z</time>
      </trkpt>
      <trkpt lat="43.77737" lon="5.87345">
        <ele>513.20001220703</ele>
        <time>2021-01-18T13:57:15.000Z</time>
      </trkpt>
      <trkpt lat="43.77731" lon="5.8733">
        <ele>513.20001220703</ele>
        <time>2021-01-18T13:57:19.000Z</time>
      </trkpt>
      <trkpt lat="43.7772" lon="5.87302">
        <ele>513</ele>
        <time>2021-01-18T13:57:25.000Z</time>
      </trkpt>
      <trkpt lat="43.77705" lon="5.87267">
        <ele>512.79998779297</ele>
        <time>2021-01-18T13:57:33.000Z</time>
      </trkpt>
      <trkpt lat="43.77691" lon="5.87236">
        <ele>512.40002441406</ele>
        <time>2021-01-18T13:57:39.000Z</time>
      </trkpt>
      <trkpt lat="43.77668" lon="5.87196">
        <ele>512.20001220703</ele>
        <time>2021-01-18T13:57:47.000Z</time>
      </trkpt>
      <trkpt lat="43.77648" lon="5.87156">
        <ele>511.79998779297</ele>
        <time>2021-01-18T13:57:54.000Z</time>
      </trkpt>
      <trkpt lat="43.77643" lon="5.87145">
        <ele>511.39999389648</ele>
        <time>2021-01-18T13:57:56.000Z</time>
      </trkpt>
      <trkpt lat="43.77629" lon="5.87118">
        <ele>511</ele>
        <time>2021-01-18T13:58:00.000Z</time>
      </trkpt>
      <trkpt lat="43.77617" lon="5.8707">
        <ele>510.60000610352</ele>
        <time>2021-01-18T13:58:06.000Z</time>
      </trkpt>
      <trkpt lat="43.77614" lon="5.87062">
        <ele>510</ele>
        <time>2021-01-18T13:58:07.000Z</time>
      </trkpt>
      <trkpt lat="43.77605" lon="5.87033">
        <ele>508.79998779297</ele>
        <time>2021-01-18T13:58:11.000Z</time>
      </trkpt>
      <trkpt lat="43.77602" lon="5.87018">
        <ele>508.20001220703</ele>
        <time>2021-01-18T13:58:13.000Z</time>
      </trkpt>
      <trkpt lat="43.77594" lon="5.86987">
        <ele>507.79998779297</ele>
        <time>2021-01-18T13:58:17.000Z</time>
      </trkpt>
      <trkpt lat="43.7759" lon="5.86971">
        <ele>507.79998779297</ele>
        <time>2021-01-18T13:58:19.000Z</time>
      </trkpt>
      <trkpt lat="43.77584" lon="5.86949">
        <ele>507.60000610352</ele>
        <time>2021-01-18T13:58:22.000Z</time>
      </trkpt>
      <trkpt lat="43.77581" lon="5.86927">
        <ele>507.60000610352</ele>
        <time>2021-01-18T13:58:25.000Z</time>
      </trkpt>
      <trkpt lat="43.77569" lon="5.86875">
        <ele>507.60000610352</ele>
        <time>2021-01-18T13:58:32.000Z</time>
      </trkpt>
      <trkpt lat="43.77556" lon="5.86814">
        <ele>507.60000610352</ele>
        <time>2021-01-18T13:58:40.000Z</time>
      </trkpt>
      <trkpt lat="43.77553" lon="5.86807">
        <ele>507.39999389648</ele>
        <time>2021-01-18T13:58:41.000Z</time>
      </trkpt>
      <trkpt lat="43.77547" lon="5.86793">
        <ele>507.20001220703</ele>
        <time>2021-01-18T13:58:43.000Z</time>
      </trkpt>
      <trkpt lat="43.77539" lon="5.8678">
        <ele>506.79998779297</ele>
        <time>2021-01-18T13:58:45.000Z</time>
      </trkpt>
      <trkpt lat="43.77534" lon="5.86774">
        <ele>506.60000610352</ele>
        <time>2021-01-18T13:58:46.000Z</time>
      </trkpt>
      <trkpt lat="43.77524" lon="5.86763">
        <ele>506.20001220703</ele>
        <time>2021-01-18T13:58:48.000Z</time>
      </trkpt>
      <trkpt lat="43.77513" lon="5.86756">
        <ele>505.39999389648</ele>
        <time>2021-01-18T13:58:50.000Z</time>
      </trkpt>
      <trkpt lat="43.77507" lon="5.86754">
        <ele>505.20001220703</ele>
        <time>2021-01-18T13:58:51.000Z</time>
      </trkpt>
      <trkpt lat="43.77488" lon="5.86752">
        <ele>504.60000610352</ele>
        <time>2021-01-18T13:58:54.000Z</time>
      </trkpt>
      <trkpt lat="43.77476" lon="5.86751">
        <ele>504.60000610352</ele>
        <time>2021-01-18T13:58:56.000Z</time>
      </trkpt>
      <trkpt lat="43.77439" lon="5.86746">
        <ele>504.39999389648</ele>
        <time>2021-01-18T13:59:03.000Z</time>
      </trkpt>
      <trkpt lat="43.77428" lon="5.86745">
        <ele>504.39999389648</ele>
        <time>2021-01-18T13:59:05.000Z</time>
      </trkpt>
      <trkpt lat="43.77412" lon="5.86739">
        <ele>504.60000610352</ele>
        <time>2021-01-18T13:59:08.000Z</time>
      </trkpt>
      <trkpt lat="43.77408" lon="5.86736">
        <ele>504.60000610352</ele>
        <time>2021-01-18T13:59:09.000Z</time>
      </trkpt>
      <trkpt lat="43.77393" lon="5.86728">
        <ele>504.79998779297</ele>
        <time>2021-01-18T13:59:12.000Z</time>
      </trkpt>
      <trkpt lat="43.77382" lon="5.86722">
        <ele>504.79998779297</ele>
        <time>2021-01-18T13:59:14.000Z</time>
      </trkpt>
      <trkpt lat="43.77357" lon="5.86707">
        <ele>504.79998779297</ele>
        <time>2021-01-18T13:59:18.000Z</time>
      </trkpt>
      <trkpt lat="43.77351" lon="5.86701">
        <ele>504.60000610352</ele>
        <time>2021-01-18T13:59:19.000Z</time>
      </trkpt>
      <trkpt lat="43.77341" lon="5.86686">
        <ele>504.20001220703</ele>
        <time>2021-01-18T13:59:21.000Z</time>
      </trkpt>
      <trkpt lat="43.77334" lon="5.8667">
        <ele>503.39999389648</ele>
        <time>2021-01-18T13:59:23.000Z</time>
      </trkpt>
      <trkpt lat="43.77332" lon="5.86661">
        <ele>502.79998779297</ele>
        <time>2021-01-18T13:59:24.000Z</time>
      </trkpt>
      <trkpt lat="43.7733" lon="5.86653">
        <ele>502.39999389648</ele>
        <time>2021-01-18T13:59:25.000Z</time>
      </trkpt>
      <trkpt lat="43.77328" lon="5.86644">
        <ele>501.79998779297</ele>
        <time>2021-01-18T13:59:26.000Z</time>
      </trkpt>
      <trkpt lat="43.77323" lon="5.86629">
        <ele>501</ele>
        <time>2021-01-18T13:59:28.000Z</time>
      </trkpt>
      <trkpt lat="43.7732" lon="5.86622">
        <ele>500.79998779297</ele>
        <time>2021-01-18T13:59:29.000Z</time>
      </trkpt>
      <trkpt lat="43.77302" lon="5.86581">
        <ele>500.20001220703</ele>
        <time>2021-01-18T13:59:35.000Z</time>
      </trkpt>
      <trkpt lat="43.7728" lon="5.86529">
        <ele>500.39999389648</ele>
        <time>2021-01-18T13:59:43.000Z</time>
      </trkpt>
      <trkpt lat="43.77265" lon="5.86482">
        <ele>500.79998779297</ele>
        <time>2021-01-18T13:59:49.000Z</time>
      </trkpt>
      <trkpt lat="43.77262" lon="5.86475">
        <ele>500.79998779297</ele>
        <time>2021-01-18T13:59:50.000Z</time>
      </trkpt>
      <trkpt lat="43.77249" lon="5.8645">
        <ele>500.79998779297</ele>
        <time>2021-01-18T13:59:54.000Z</time>
      </trkpt>
      <trkpt lat="43.77232" lon="5.86424">
        <ele>500.79998779297</ele>
        <time>2021-01-18T13:59:59.000Z</time>
      </trkpt>
      <trkpt lat="43.77206" lon="5.86388">
        <ele>500.79998779297</ele>
        <time>2021-01-18T14:00:06.000Z</time>
      </trkpt>
      <trkpt lat="43.77171" lon="5.86342">
        <ele>500.39999389648</ele>
        <time>2021-01-18T14:00:14.000Z</time>
      </trkpt>
      <trkpt lat="43.77159" lon="5.86326">
        <ele>500</ele>
        <time>2021-01-18T14:00:17.000Z</time>
      </trkpt>
      <trkpt lat="43.77151" lon="5.86319">
        <ele>500</ele>
        <time>2021-01-18T14:00:19.000Z</time>
      </trkpt>
      <trkpt lat="43.77148" lon="5.86317">
        <ele>500</ele>
        <time>2021-01-18T14:00:21.000Z</time>
      </trkpt>
      <trkpt lat="43.77146" lon="5.86318">
        <ele>499.79998779297</ele>
        <time>2021-01-18T14:00:22.000Z</time>
      </trkpt>
      <trkpt lat="43.77145" lon="5.86319">
        <ele>499.79998779297</ele>
        <time>2021-01-18T14:00:23.000Z</time>
      </trkpt>
      <trkpt lat="43.77144" lon="5.86326">
        <ele>499.79998779297</ele>
        <time>2021-01-18T14:00:25.000Z</time>
      </trkpt>
      <trkpt lat="43.77141" lon="5.86333">
        <ele>499.60000610352</ele>
        <time>2021-01-18T14:00:27.000Z</time>
      </trkpt>
      <trkpt lat="43.77127" lon="5.86339">
        <ele>499.39999389648</ele>
        <time>2021-01-18T14:00:32.000Z</time>
      </trkpt>
      <trkpt lat="43.77119" lon="5.86343">
        <ele>498.60000610352</ele>
        <time>2021-01-18T14:00:35.000Z</time>
      </trkpt>
      <trkpt lat="43.77118" lon="5.86345">
        <ele>498</ele>
        <time>2021-01-18T14:00:36.000Z</time>
      </trkpt>
      <trkpt lat="43.77121" lon="5.8635">
        <ele>497.39999389648</ele>
        <time>2021-01-18T14:00:38.000Z</time>
      </trkpt>
      <trkpt lat="43.77123" lon="5.86351">
        <ele>497.39999389648</ele>
        <time>2021-01-18T14:00:39.000Z</time>
      </trkpt>
      <trkpt lat="43.77127" lon="5.86359">
        <ele>496.60000610352</ele>
        <time>2021-01-18T14:00:42.000Z</time>
      </trkpt>
      <trkpt lat="43.77122" lon="5.86379">
        <ele>495.79998779297</ele>
        <time>2021-01-18T14:00:46.000Z</time>
      </trkpt>
      <trkpt lat="43.77122" lon="5.86384">
        <ele>495.39999389648</ele>
        <time>2021-01-18T14:00:47.000Z</time>
      </trkpt>
      <trkpt lat="43.77122" lon="5.86393">
        <ele>495</ele>
        <time>2021-01-18T14:00:49.000Z</time>
      </trkpt>
      <trkpt lat="43.77122" lon="5.86396">
        <ele>494.39999389648</ele>
        <time>2021-01-18T14:00:50.000Z</time>
      </trkpt>
      <trkpt lat="43.77121" lon="5.86399">
        <ele>493.79998779297</ele>
        <time>2021-01-18T14:00:51.000Z</time>
      </trkpt>
      <trkpt lat="43.77119" lon="5.86403">
        <ele>493.20001220703</ele>
        <time>2021-01-18T14:00:52.000Z</time>
      </trkpt>
      <trkpt lat="43.77115" lon="5.86407">
        <ele>492.60000610352</ele>
        <time>2021-01-18T14:00:53.000Z</time>
      </trkpt>
      <trkpt lat="43.7711" lon="5.86411">
        <ele>492.20001220703</ele>
        <time>2021-01-18T14:00:54.000Z</time>
      </trkpt>
      <trkpt lat="43.77099" lon="5.8642">
        <ele>490.79998779297</ele>
        <time>2021-01-18T14:00:56.000Z</time>
      </trkpt>
      <trkpt lat="43.77095" lon="5.86426">
        <ele>490.39999389648</ele>
        <time>2021-01-18T14:00:57.000Z</time>
      </trkpt>
      <trkpt lat="43.77082" lon="5.86449">
        <ele>489.60000610352</ele>
        <time>2021-01-18T14:01:00.000Z</time>
      </trkpt>
      <trkpt lat="43.77077" lon="5.86457">
        <ele>488.79998779297</ele>
        <time>2021-01-18T14:01:01.000Z</time>
      </trkpt>
      <trkpt lat="43.77073" lon="5.86465">
        <ele>488</ele>
        <time>2021-01-18T14:01:02.000Z</time>
      </trkpt>
      <trkpt lat="43.77069" lon="5.86474">
        <ele>487</ele>
        <time>2021-01-18T14:01:03.000Z</time>
      </trkpt>
      <trkpt lat="43.77065" lon="5.86484">
        <ele>486.20001220703</ele>
        <time>2021-01-18T14:01:04.000Z</time>
      </trkpt>
      <trkpt lat="43.77062" lon="5.86493">
        <ele>485.20001220703</ele>
        <time>2021-01-18T14:01:05.000Z</time>
      </trkpt>
      <trkpt lat="43.77059" lon="5.865">
        <ele>484.20001220703</ele>
        <time>2021-01-18T14:01:06.000Z</time>
      </trkpt>
      <trkpt lat="43.7705" lon="5.8651">
        <ele>480.60000610352</ele>
        <time>2021-01-18T14:01:08.000Z</time>
      </trkpt>
      <trkpt lat="43.77046" lon="5.86516">
        <ele>479.60000610352</ele>
        <time>2021-01-18T14:01:09.000Z</time>
      </trkpt>
      <trkpt lat="43.77038" lon="5.86532">
        <ele>478</ele>
        <time>2021-01-18T14:01:11.000Z</time>
      </trkpt>
      <trkpt lat="43.77034" lon="5.8654">
        <ele>477.20001220703</ele>
        <time>2021-01-18T14:01:12.000Z</time>
      </trkpt>
      <trkpt lat="43.7703" lon="5.86545">
        <ele>476.60000610352</ele>
        <time>2021-01-18T14:01:13.000Z</time>
      </trkpt>
      <trkpt lat="43.77026" lon="5.86547">
        <ele>476</ele>
        <time>2021-01-18T14:01:14.000Z</time>
      </trkpt>
      <trkpt lat="43.77023" lon="5.8655">
        <ele>475.39999389648</ele>
        <time>2021-01-18T14:01:15.000Z</time>
      </trkpt>
      <trkpt lat="43.7702" lon="5.86555">
        <ele>474.60000610352</ele>
        <time>2021-01-18T14:01:16.000Z</time>
      </trkpt>
      <trkpt lat="43.77017" lon="5.8656">
        <ele>473.60000610352</ele>
        <time>2021-01-18T14:01:17.000Z</time>
      </trkpt>
      <trkpt lat="43.77013" lon="5.86566">
        <ele>472.79998779297</ele>
        <time>2021-01-18T14:01:18.000Z</time>
      </trkpt>
      <trkpt lat="43.77009" lon="5.86572">
        <ele>472.20001220703</ele>
        <time>2021-01-18T14:01:19.000Z</time>
      </trkpt>
      <trkpt lat="43.77" lon="5.86586">
        <ele>471.20001220703</ele>
        <time>2021-01-18T14:01:21.000Z</time>
      </trkpt>
      <trkpt lat="43.76991" lon="5.86601">
        <ele>470.39999389648</ele>
        <time>2021-01-18T14:01:23.000Z</time>
      </trkpt>
      <trkpt lat="43.76986" lon="5.86608">
        <ele>469.60000610352</ele>
        <time>2021-01-18T14:01:24.000Z</time>
      </trkpt>
      <trkpt lat="43.76979" lon="5.86623">
        <ele>468.39999389648</ele>
        <time>2021-01-18T14:01:26.000Z</time>
      </trkpt>
      <trkpt lat="43.76976" lon="5.86631">
        <ele>467.79998779297</ele>
        <time>2021-01-18T14:01:27.000Z</time>
      </trkpt>
      <trkpt lat="43.76972" lon="5.86637">
        <ele>467</ele>
        <time>2021-01-18T14:01:28.000Z</time>
      </trkpt>
      <trkpt lat="43.76964" lon="5.8665">
        <ele>465.20001220703</ele>
        <time>2021-01-18T14:01:30.000Z</time>
      </trkpt>
      <trkpt lat="43.76957" lon="5.86664">
        <ele>463.39999389648</ele>
        <time>2021-01-18T14:01:32.000Z</time>
      </trkpt>
      <trkpt lat="43.76953" lon="5.86671">
        <ele>462.39999389648</ele>
        <time>2021-01-18T14:01:33.000Z</time>
      </trkpt>
      <trkpt lat="43.7695" lon="5.86678">
        <ele>461.60000610352</ele>
        <time>2021-01-18T14:01:34.000Z</time>
      </trkpt>
      <trkpt lat="43.76947" lon="5.86684">
        <ele>460.20001220703</ele>
        <time>2021-01-18T14:01:35.000Z</time>
      </trkpt>
      <trkpt lat="43.7694" lon="5.86697">
        <ele>458.39999389648</ele>
        <time>2021-01-18T14:01:37.000Z</time>
      </trkpt>
      <trkpt lat="43.76935" lon="5.86712">
        <ele>456.20001220703</ele>
        <time>2021-01-18T14:01:39.000Z</time>
      </trkpt>
      <trkpt lat="43.76932" lon="5.86721">
        <ele>455</ele>
        <time>2021-01-18T14:01:40.000Z</time>
      </trkpt>
      <trkpt lat="43.76931" lon="5.8673">
        <ele>453.79998779297</ele>
        <time>2021-01-18T14:01:41.000Z</time>
      </trkpt>
      <trkpt lat="43.76929" lon="5.86739">
        <ele>452.60000610352</ele>
        <time>2021-01-18T14:01:42.000Z</time>
      </trkpt>
      <trkpt lat="43.76928" lon="5.86746">
        <ele>451.20001220703</ele>
        <time>2021-01-18T14:01:43.000Z</time>
      </trkpt>
      <trkpt lat="43.76927" lon="5.86753">
        <ele>450.20001220703</ele>
        <time>2021-01-18T14:01:44.000Z</time>
      </trkpt>
      <trkpt lat="43.76926" lon="5.8676">
        <ele>448.60000610352</ele>
        <time>2021-01-18T14:01:45.000Z</time>
      </trkpt>
      <trkpt lat="43.76926" lon="5.86767">
        <ele>447.20001220703</ele>
        <time>2021-01-18T14:01:46.000Z</time>
      </trkpt>
      <trkpt lat="43.76925" lon="5.86776">
        <ele>446</ele>
        <time>2021-01-18T14:01:47.000Z</time>
      </trkpt>
      <trkpt lat="43.76923" lon="5.86786">
        <ele>444.20001220703</ele>
        <time>2021-01-18T14:01:48.000Z</time>
      </trkpt>
      <trkpt lat="43.7692" lon="5.86795">
        <ele>442.60000610352</ele>
        <time>2021-01-18T14:01:49.000Z</time>
      </trkpt>
      <trkpt lat="43.76917" lon="5.86803">
        <ele>441.39999389648</ele>
        <time>2021-01-18T14:01:50.000Z</time>
      </trkpt>
      <trkpt lat="43.76915" lon="5.8681">
        <ele>440.60000610352</ele>
        <time>2021-01-18T14:01:51.000Z</time>
      </trkpt>
      <trkpt lat="43.76914" lon="5.86818">
        <ele>439.60000610352</ele>
        <time>2021-01-18T14:01:52.000Z</time>
      </trkpt>
      <trkpt lat="43.76915" lon="5.86826">
        <ele>438.20001220703</ele>
        <time>2021-01-18T14:01:53.000Z</time>
      </trkpt>
      <trkpt lat="43.76916" lon="5.86832">
        <ele>437.20001220703</ele>
        <time>2021-01-18T14:01:54.000Z</time>
      </trkpt>
      <trkpt lat="43.76915" lon="5.86838">
        <ele>436</ele>
        <time>2021-01-18T14:01:55.000Z</time>
      </trkpt>
      <trkpt lat="43.76912" lon="5.86843">
        <ele>434</ele>
        <time>2021-01-18T14:01:56.000Z</time>
      </trkpt>
      <trkpt lat="43.7691" lon="5.86848">
        <ele>432.39999389648</ele>
        <time>2021-01-18T14:01:57.000Z</time>
      </trkpt>
      <trkpt lat="43.76906" lon="5.86862">
        <ele>430.79998779297</ele>
        <time>2021-01-18T14:01:59.000Z</time>
      </trkpt>
      <trkpt lat="43.76904" lon="5.86867">
        <ele>430.39999389648</ele>
        <time>2021-01-18T14:02:00.000Z</time>
      </trkpt>
      <trkpt lat="43.76901" lon="5.8687">
        <ele>429</ele>
        <time>2021-01-18T14:02:02.000Z</time>
      </trkpt>
      <trkpt lat="43.769" lon="5.86871">
        <ele>428.20001220703</ele>
        <time>2021-01-18T14:02:03.000Z</time>
      </trkpt>
      <trkpt lat="43.769" lon="5.86872">
        <ele>427.79998779297</ele>
        <time>2021-01-18T14:02:04.000Z</time>
      </trkpt>
      <trkpt lat="43.769" lon="5.86873">
        <ele>426.60000610352</ele>
        <time>2021-01-18T14:02:06.000Z</time>
      </trkpt>
      <trkpt lat="43.769" lon="5.86873">
        <ele>425.39999389648</ele>
        <time>2021-01-18T14:02:08.000Z</time>
      </trkpt>
      <trkpt lat="43.769" lon="5.86873">
        <ele>425</ele>
        <time>2021-01-18T14:02:09.000Z</time>
      </trkpt>
      <trkpt lat="43.769" lon="5.86873">
        <ele>424.79998779297</ele>
        <time>2021-01-18T14:02:25.000Z</time>
      </trkpt>
      <trkpt lat="43.76899" lon="5.86874">
        <ele>424.79998779297</ele>
        <time>2021-01-18T14:02:27.000Z</time>
      </trkpt>
      <trkpt lat="43.76897" lon="5.86879">
        <ele>424.79998779297</ele>
        <time>2021-01-18T14:02:29.000Z</time>
      </trkpt>
      <trkpt lat="43.76891" lon="5.86897">
        <ele>424.79998779297</ele>
        <time>2021-01-18T14:02:35.000Z</time>
      </trkpt>
      <trkpt lat="43.76886" lon="5.86923">
        <ele>424.60000610352</ele>
        <time>2021-01-18T14:02:42.000Z</time>
      </trkpt>
      <trkpt lat="43.76886" lon="5.86942">
        <ele>424.79998779297</ele>
        <time>2021-01-18T14:02:47.000Z</time>
      </trkpt>
      <trkpt lat="43.76885" lon="5.86951">
        <ele>426.39999389648</ele>
        <time>2021-01-18T14:02:54.000Z</time>
      </trkpt>
      <trkpt lat="43.76885" lon="5.86952">
        <ele>426.79998779297</ele>
        <time>2021-01-18T14:02:55.000Z</time>
      </trkpt>
      <trkpt lat="43.76885" lon="5.86956">
        <ele>427.39999389648</ele>
        <time>2021-01-18T14:02:57.000Z</time>
      </trkpt>
      <trkpt lat="43.76886" lon="5.86957">
        <ele>427.39999389648</ele>
        <time>2021-01-18T14:02:59.000Z</time>
      </trkpt>
      <trkpt lat="43.76887" lon="5.86958">
        <ele>428</ele>
        <time>2021-01-18T14:03:06.000Z</time>
      </trkpt>
      <trkpt lat="43.76886" lon="5.86957">
        <ele>428.39999389648</ele>
        <time>2021-01-18T14:03:14.000Z</time>
      </trkpt>
      <trkpt lat="43.76884" lon="5.86955">
        <ele>428.39999389648</ele>
        <time>2021-01-18T14:03:18.000Z</time>
      </trkpt>
      <trkpt lat="43.76884" lon="5.86952">
        <ele>428.39999389648</ele>
        <time>2021-01-18T14:03:21.000Z</time>
      </trkpt>
      <trkpt lat="43.76882" lon="5.86948">
        <ele>427.79998779297</ele>
        <time>2021-01-18T14:03:28.000Z</time>
      </trkpt>
      <trkpt lat="43.76881" lon="5.86948">
        <ele>427.79998779297</ele>
        <time>2021-01-18T14:03:29.000Z</time>
      </trkpt>
      <trkpt lat="43.76873" lon="5.86949">
        <ele>427.39999389648</ele>
        <time>2021-01-18T14:03:35.000Z</time>
      </trkpt>
      <trkpt lat="43.7686" lon="5.86954">
        <ele>427.39999389648</ele>
        <time>2021-01-18T14:03:42.000Z</time>
      </trkpt>
      <trkpt lat="43.76852" lon="5.86958">
        <ele>428.20001220703</ele>
        <time>2021-01-18T14:03:47.000Z</time>
      </trkpt>
      <trkpt lat="43.76849" lon="5.8696">
        <ele>429</ele>
        <time>2021-01-18T14:03:49.000Z</time>
      </trkpt>
      <trkpt lat="43.76847" lon="5.86961">
        <ele>429.39999389648</ele>
        <time>2021-01-18T14:03:50.000Z</time>
      </trkpt>
      <trkpt lat="43.76844" lon="5.86963">
        <ele>431</ele>
        <time>2021-01-18T14:03:52.000Z</time>
      </trkpt>
      <trkpt lat="43.76841" lon="5.86965">
        <ele>432.20001220703</ele>
        <time>2021-01-18T14:03:54.000Z</time>
      </trkpt>
      <trkpt lat="43.76837" lon="5.86969">
        <ele>433.39999389648</ele>
        <time>2021-01-18T14:03:57.000Z</time>
      </trkpt>
      <trkpt lat="43.76835" lon="5.86971">
        <ele>434</ele>
        <time>2021-01-18T14:03:58.000Z</time>
      </trkpt>
      <trkpt lat="43.76832" lon="5.86974">
        <ele>434.79998779297</ele>
        <time>2021-01-18T14:04:00.000Z</time>
      </trkpt>
      <trkpt lat="43.76828" lon="5.86975">
        <ele>435.79998779297</ele>
        <time>2021-01-18T14:04:02.000Z</time>
      </trkpt>
      <trkpt lat="43.76823" lon="5.86978">
        <ele>437.39999389648</ele>
        <time>2021-01-18T14:04:05.000Z</time>
      </trkpt>
      <trkpt lat="43.76821" lon="5.8698">
        <ele>437.60000610352</ele>
        <time>2021-01-18T14:04:06.000Z</time>
      </trkpt>
      <trkpt lat="43.76819" lon="5.86983">
        <ele>438.39999389648</ele>
        <time>2021-01-18T14:04:08.000Z</time>
      </trkpt>
      <trkpt lat="43.76814" lon="5.86987">
        <ele>439.79998779297</ele>
        <time>2021-01-18T14:04:11.000Z</time>
      </trkpt>
      <trkpt lat="43.76811" lon="5.8699">
        <ele>440.79998779297</ele>
        <time>2021-01-18T14:04:13.000Z</time>
      </trkpt>
      <trkpt lat="43.76808" lon="5.86992">
        <ele>441.79998779297</ele>
        <time>2021-01-18T14:04:15.000Z</time>
      </trkpt>
      <trkpt lat="43.76806" lon="5.86993">
        <ele>442.20001220703</ele>
        <time>2021-01-18T14:04:16.000Z</time>
      </trkpt>
      <trkpt lat="43.76803" lon="5.86998">
        <ele>444</ele>
        <time>2021-01-18T14:04:19.000Z</time>
      </trkpt>
      <trkpt lat="43.768" lon="5.87001">
        <ele>445.20001220703</ele>
        <time>2021-01-18T14:04:21.000Z</time>
      </trkpt>
      <trkpt lat="43.76799" lon="5.87003">
        <ele>445.39999389648</ele>
        <time>2021-01-18T14:04:22.000Z</time>
      </trkpt>
      <trkpt lat="43.76794" lon="5.87006">
        <ele>446.60000610352</ele>
        <time>2021-01-18T14:04:25.000Z</time>
      </trkpt>
      <trkpt lat="43.7679" lon="5.8701">
        <ele>447.79998779297</ele>
        <time>2021-01-18T14:04:28.000Z</time>
      </trkpt>
      <trkpt lat="43.76786" lon="5.87014">
        <ele>449.39999389648</ele>
        <time>2021-01-18T14:04:31.000Z</time>
      </trkpt>
      <trkpt lat="43.76782" lon="5.87017">
        <ele>450.79998779297</ele>
        <time>2021-01-18T14:04:34.000Z</time>
      </trkpt>
      <trkpt lat="43.76779" lon="5.8702">
        <ele>451.39999389648</ele>
        <time>2021-01-18T14:04:36.000Z</time>
      </trkpt>
      <trkpt lat="43.76778" lon="5.87022">
        <ele>451.79998779297</ele>
        <time>2021-01-18T14:04:37.000Z</time>
      </trkpt>
      <trkpt lat="43.76772" lon="5.87027">
        <ele>453</ele>
        <time>2021-01-18T14:04:40.000Z</time>
      </trkpt>
      <trkpt lat="43.76767" lon="5.8703">
        <ele>454.20001220703</ele>
        <time>2021-01-18T14:04:43.000Z</time>
      </trkpt>
      <trkpt lat="43.76765" lon="5.87031">
        <ele>454.60000610352</ele>
        <time>2021-01-18T14:04:44.000Z</time>
      </trkpt>
      <trkpt lat="43.76763" lon="5.87034">
        <ele>456.20001220703</ele>
        <time>2021-01-18T14:04:46.000Z</time>
      </trkpt>
      <trkpt lat="43.76761" lon="5.87038">
        <ele>457.39999389648</ele>
        <time>2021-01-18T14:04:48.000Z</time>
      </trkpt>
      <trkpt lat="43.76758" lon="5.87043">
        <ele>458.20001220703</ele>
        <time>2021-01-18T14:04:50.000Z</time>
      </trkpt>
      <trkpt lat="43.76756" lon="5.87044">
        <ele>458.79998779297</ele>
        <time>2021-01-18T14:04:51.000Z</time>
      </trkpt>
      <trkpt lat="43.76753" lon="5.87049">
        <ele>459.79998779297</ele>
        <time>2021-01-18T14:04:53.000Z</time>
      </trkpt>
      <trkpt lat="43.7675" lon="5.87057">
        <ele>461</ele>
        <time>2021-01-18T14:04:56.000Z</time>
      </trkpt>
      <trkpt lat="43.76749" lon="5.8706">
        <ele>461.39999389648</ele>
        <time>2021-01-18T14:04:57.000Z</time>
      </trkpt>
      <trkpt lat="43.76747" lon="5.87064">
        <ele>462.20001220703</ele>
        <time>2021-01-18T14:04:59.000Z</time>
      </trkpt>
      <trkpt lat="43.76743" lon="5.87073">
        <ele>463.39999389648</ele>
        <time>2021-01-18T14:05:03.000Z</time>
      </trkpt>
      <trkpt lat="43.76742" lon="5.87076">
        <ele>463.60000610352</ele>
        <time>2021-01-18T14:05:04.000Z</time>
      </trkpt>
      <trkpt lat="43.7674" lon="5.87083">
        <ele>464.60000610352</ele>
        <time>2021-01-18T14:05:07.000Z</time>
      </trkpt>
      <trkpt lat="43.76738" lon="5.8709">
        <ele>465.60000610352</ele>
        <time>2021-01-18T14:05:10.000Z</time>
      </trkpt>
      <trkpt lat="43.76737" lon="5.87093">
        <ele>465.79998779297</ele>
        <time>2021-01-18T14:05:11.000Z</time>
      </trkpt>
      <trkpt lat="43.76733" lon="5.87102">
        <ele>467.20001220703</ele>
        <time>2021-01-18T14:05:14.000Z</time>
      </trkpt>
      <trkpt lat="43.76731" lon="5.87107">
        <ele>467.60000610352</ele>
        <time>2021-01-18T14:05:16.000Z</time>
      </trkpt>
      <trkpt lat="43.76728" lon="5.87113">
        <ele>468.39999389648</ele>
        <time>2021-01-18T14:05:18.000Z</time>
      </trkpt>
      <trkpt lat="43.76723" lon="5.87121">
        <ele>469.60000610352</ele>
        <time>2021-01-18T14:05:21.000Z</time>
      </trkpt>
      <trkpt lat="43.7672" lon="5.87128">
        <ele>470.39999389648</ele>
        <time>2021-01-18T14:05:24.000Z</time>
      </trkpt>
      <trkpt lat="43.76719" lon="5.8713">
        <ele>471</ele>
        <time>2021-01-18T14:05:25.000Z</time>
      </trkpt>
      <trkpt lat="43.76715" lon="5.87138">
        <ele>472.20001220703</ele>
        <time>2021-01-18T14:05:28.000Z</time>
      </trkpt>
      <trkpt lat="43.76711" lon="5.87146">
        <ele>473</ele>
        <time>2021-01-18T14:05:31.000Z</time>
      </trkpt>
      <trkpt lat="43.76709" lon="5.87149">
        <ele>473.39999389648</ele>
        <time>2021-01-18T14:05:32.000Z</time>
      </trkpt>
      <trkpt lat="43.76706" lon="5.87158">
        <ele>474.60000610352</ele>
        <time>2021-01-18T14:05:35.000Z</time>
      </trkpt>
      <trkpt lat="43.76702" lon="5.87168">
        <ele>476</ele>
        <time>2021-01-18T14:05:38.000Z</time>
      </trkpt>
      <trkpt lat="43.76701" lon="5.87171">
        <ele>476.20001220703</ele>
        <time>2021-01-18T14:05:39.000Z</time>
      </trkpt>
      <trkpt lat="43.767" lon="5.87173">
        <ele>477.20001220703</ele>
        <time>2021-01-18T14:05:40.000Z</time>
      </trkpt>
      <trkpt lat="43.76697" lon="5.87185">
        <ele>478.39999389648</ele>
        <time>2021-01-18T14:05:44.000Z</time>
      </trkpt>
      <trkpt lat="43.76697" lon="5.87189">
        <ele>478.79998779297</ele>
        <time>2021-01-18T14:05:45.000Z</time>
      </trkpt>
      <trkpt lat="43.76696" lon="5.87202">
        <ele>479.60000610352</ele>
        <time>2021-01-18T14:05:49.000Z</time>
      </trkpt>
      <trkpt lat="43.76697" lon="5.87213">
        <ele>480.20001220703</ele>
        <time>2021-01-18T14:05:52.000Z</time>
      </trkpt>
      <trkpt lat="43.76698" lon="5.87225">
        <ele>480.79998779297</ele>
        <time>2021-01-18T14:05:55.000Z</time>
      </trkpt>
      <trkpt lat="43.767" lon="5.87237">
        <ele>481.39999389648</ele>
        <time>2021-01-18T14:05:58.000Z</time>
      </trkpt>
      <trkpt lat="43.76697" lon="5.87259">
        <ele>481.79998779297</ele>
        <time>2021-01-18T14:06:04.000Z</time>
      </trkpt>
      <trkpt lat="43.76696" lon="5.87265">
        <ele>482.20001220703</ele>
        <time>2021-01-18T14:06:06.000Z</time>
      </trkpt>
      <trkpt lat="43.76692" lon="5.87276">
        <ele>483.39999389648</ele>
        <time>2021-01-18T14:06:10.000Z</time>
      </trkpt>
      <trkpt lat="43.76691" lon="5.87278">
        <ele>483.60000610352</ele>
        <time>2021-01-18T14:06:11.000Z</time>
      </trkpt>
      <trkpt lat="43.76688" lon="5.87284">
        <ele>484.39999389648</ele>
        <time>2021-01-18T14:06:14.000Z</time>
      </trkpt>
      <trkpt lat="43.76687" lon="5.87288">
        <ele>485.20001220703</ele>
        <time>2021-01-18T14:06:16.000Z</time>
      </trkpt>
      <trkpt lat="43.76687" lon="5.8729">
        <ele>485.60000610352</ele>
        <time>2021-01-18T14:06:17.000Z</time>
      </trkpt>
      <trkpt lat="43.76687" lon="5.87293">
        <ele>486</ele>
        <time>2021-01-18T14:06:18.000Z</time>
      </trkpt>
      <trkpt lat="43.76685" lon="5.87297">
        <ele>487</ele>
        <time>2021-01-18T14:06:20.000Z</time>
      </trkpt>
      <trkpt lat="43.76684" lon="5.87306">
        <ele>488.20001220703</ele>
        <time>2021-01-18T14:06:23.000Z</time>
      </trkpt>
      <trkpt lat="43.76682" lon="5.87313">
        <ele>489.39999389648</ele>
        <time>2021-01-18T14:06:26.000Z</time>
      </trkpt>
      <trkpt lat="43.76681" lon="5.87315">
        <ele>489.79998779297</ele>
        <time>2021-01-18T14:06:27.000Z</time>
      </trkpt>
      <trkpt lat="43.76681" lon="5.87317">
        <ele>490</ele>
        <time>2021-01-18T14:06:28.000Z</time>
      </trkpt>
      <trkpt lat="43.7668" lon="5.8732">
        <ele>490.39999389648</ele>
        <time>2021-01-18T14:06:29.000Z</time>
      </trkpt>
      <trkpt lat="43.76677" lon="5.87329">
        <ele>491.39999389648</ele>
        <time>2021-01-18T14:06:32.000Z</time>
      </trkpt>
      <trkpt lat="43.76675" lon="5.87335">
        <ele>492.60000610352</ele>
        <time>2021-01-18T14:06:34.000Z</time>
      </trkpt>
      <trkpt lat="43.76675" lon="5.87338">
        <ele>492.79998779297</ele>
        <time>2021-01-18T14:06:35.000Z</time>
      </trkpt>
      <trkpt lat="43.76675" lon="5.87344">
        <ele>493.79998779297</ele>
        <time>2021-01-18T14:06:37.000Z</time>
      </trkpt>
      <trkpt lat="43.76673" lon="5.87353">
        <ele>494.60000610352</ele>
        <time>2021-01-18T14:06:40.000Z</time>
      </trkpt>
      <trkpt lat="43.76672" lon="5.87356">
        <ele>495</ele>
        <time>2021-01-18T14:06:41.000Z</time>
      </trkpt>
      <trkpt lat="43.76672" lon="5.87363">
        <ele>496</ele>
        <time>2021-01-18T14:06:44.000Z</time>
      </trkpt>
      <trkpt lat="43.76673" lon="5.87365">
        <ele>496.39999389648</ele>
        <time>2021-01-18T14:06:45.000Z</time>
      </trkpt>
      <trkpt lat="43.76676" lon="5.87363">
        <ele>497.20001220703</ele>
        <time>2021-01-18T14:06:48.000Z</time>
      </trkpt>
      <trkpt lat="43.76678" lon="5.87363">
        <ele>497.60000610352</ele>
        <time>2021-01-18T14:06:50.000Z</time>
      </trkpt>
      <trkpt lat="43.76682" lon="5.87363">
        <ele>498.20001220703</ele>
        <time>2021-01-18T14:06:56.000Z</time>
      </trkpt>
      <trkpt lat="43.76682" lon="5.87363">
        <ele>498.39999389648</ele>
        <time>2021-01-18T14:06:59.000Z</time>
      </trkpt>
      <trkpt lat="43.76682" lon="5.87363">
        <ele>498.60000610352</ele>
        <time>2021-01-18T14:07:11.000Z</time>
      </trkpt>
      <trkpt lat="43.76683" lon="5.87363">
        <ele>498.60000610352</ele>
        <time>2021-01-18T14:07:19.000Z</time>
      </trkpt>
      <trkpt lat="43.76689" lon="5.87362">
        <ele>498.79998779297</ele>
        <time>2021-01-18T14:07:25.000Z</time>
      </trkpt>
      <trkpt lat="43.76709" lon="5.87363">
        <ele>498.60000610352</ele>
        <time>2021-01-18T14:07:31.000Z</time>
      </trkpt>
      <trkpt lat="43.76722" lon="5.87364">
        <ele>498.60000610352</ele>
        <time>2021-01-18T14:07:34.000Z</time>
      </trkpt>
      <trkpt lat="43.76732" lon="5.87368">
        <ele>498.39999389648</ele>
        <time>2021-01-18T14:07:36.000Z</time>
      </trkpt>
      <trkpt lat="43.76749" lon="5.87376">
        <ele>498.20001220703</ele>
        <time>2021-01-18T14:07:41.000Z</time>
      </trkpt>
      <trkpt lat="43.76764" lon="5.87379">
        <ele>498.20001220703</ele>
        <time>2021-01-18T14:07:47.000Z</time>
      </trkpt>
      <trkpt lat="43.7678" lon="5.87373">
        <ele>498.20001220703</ele>
        <time>2021-01-18T14:07:52.000Z</time>
      </trkpt>
      <trkpt lat="43.76804" lon="5.87373">
        <ele>498.20001220703</ele>
        <time>2021-01-18T14:07:58.000Z</time>
      </trkpt>
      <trkpt lat="43.76824" lon="5.87379">
        <ele>497.60000610352</ele>
        <time>2021-01-18T14:08:04.000Z</time>
      </trkpt>
      <trkpt lat="43.76841" lon="5.87389">
        <ele>496.39999389648</ele>
        <time>2021-01-18T14:08:10.000Z</time>
      </trkpt>
      <trkpt lat="43.76862" lon="5.87402">
        <ele>496</ele>
        <time>2021-01-18T14:08:17.000Z</time>
      </trkpt>
      <trkpt lat="43.76883" lon="5.87417">
        <ele>496.39999389648</ele>
        <time>2021-01-18T14:08:25.000Z</time>
      </trkpt>
      <trkpt lat="43.76892" lon="5.87429">
        <ele>497.60000610352</ele>
        <time>2021-01-18T14:08:29.000Z</time>
      </trkpt>
      <trkpt lat="43.76904" lon="5.87443">
        <ele>498.60000610352</ele>
        <time>2021-01-18T14:08:34.000Z</time>
      </trkpt>
      <trkpt lat="43.76921" lon="5.87463">
        <ele>499.60000610352</ele>
        <time>2021-01-18T14:08:41.000Z</time>
      </trkpt>
      <trkpt lat="43.76923" lon="5.87466">
        <ele>499.79998779297</ele>
        <time>2021-01-18T14:08:42.000Z</time>
      </trkpt>
      <trkpt lat="43.76936" lon="5.8749">
        <ele>501</ele>
        <time>2021-01-18T14:08:49.000Z</time>
      </trkpt>
      <trkpt lat="43.76947" lon="5.87517">
        <ele>501</ele>
        <time>2021-01-18T14:08:56.000Z</time>
      </trkpt>
      <trkpt lat="43.76947" lon="5.87522">
        <ele>500.79998779297</ele>
        <time>2021-01-18T14:08:57.000Z</time>
      </trkpt>
      <trkpt lat="43.76944" lon="5.87539">
        <ele>500.60000610352</ele>
        <time>2021-01-18T14:09:00.000Z</time>
      </trkpt>
      <trkpt lat="43.76937" lon="5.87564">
        <ele>500.60000610352</ele>
        <time>2021-01-18T14:09:06.000Z</time>
      </trkpt>
      <trkpt lat="43.76933" lon="5.87577">
        <ele>500.79998779297</ele>
        <time>2021-01-18T14:09:10.000Z</time>
      </trkpt>
      <trkpt lat="43.7693" lon="5.87578">
        <ele>500.79998779297</ele>
        <time>2021-01-18T14:09:11.000Z</time>
      </trkpt>
      <trkpt lat="43.76915" lon="5.87573">
        <ele>501</ele>
        <time>2021-01-18T14:09:15.000Z</time>
      </trkpt>
      <trkpt lat="43.76906" lon="5.87575">
        <ele>501</ele>
        <time>2021-01-18T14:09:18.000Z</time>
      </trkpt>
      <trkpt lat="43.76904" lon="5.87579">
        <ele>501</ele>
        <time>2021-01-18T14:09:19.000Z</time>
      </trkpt>
      <trkpt lat="43.76897" lon="5.87585">
        <ele>500.39999389648</ele>
        <time>2021-01-18T14:09:21.000Z</time>
      </trkpt>
      <trkpt lat="43.76892" lon="5.87587">
        <ele>499.79998779297</ele>
        <time>2021-01-18T14:09:22.000Z</time>
      </trkpt>
      <trkpt lat="43.76884" lon="5.87591">
        <ele>497.60000610352</ele>
        <time>2021-01-18T14:09:24.000Z</time>
      </trkpt>
      <trkpt lat="43.76881" lon="5.87591">
        <ele>497</ele>
        <time>2021-01-18T14:09:25.000Z</time>
      </trkpt>
      <trkpt lat="43.76878" lon="5.87589">
        <ele>496.20001220703</ele>
        <time>2021-01-18T14:09:26.000Z</time>
      </trkpt>
      <trkpt lat="43.76877" lon="5.87583">
        <ele>494.79998779297</ele>
        <time>2021-01-18T14:09:28.000Z</time>
      </trkpt>
      <trkpt lat="43.76878" lon="5.87575">
        <ele>493</ele>
        <time>2021-01-18T14:09:30.000Z</time>
      </trkpt>
      <trkpt lat="43.76876" lon="5.87572">
        <ele>492</ele>
        <time>2021-01-18T14:09:31.000Z</time>
      </trkpt>
      <trkpt lat="43.76872" lon="5.8757">
        <ele>490.20001220703</ele>
        <time>2021-01-18T14:09:33.000Z</time>
      </trkpt>
      <trkpt lat="43.76866" lon="5.87568">
        <ele>488</ele>
        <time>2021-01-18T14:09:35.000Z</time>
      </trkpt>
      <trkpt lat="43.76861" lon="5.87567">
        <ele>486.20001220703</ele>
        <time>2021-01-18T14:09:37.000Z</time>
      </trkpt>
      <trkpt lat="43.76859" lon="5.87565">
        <ele>485</ele>
        <time>2021-01-18T14:09:38.000Z</time>
      </trkpt>
      <trkpt lat="43.76857" lon="5.87563">
        <ele>484.39999389648</ele>
        <time>2021-01-18T14:09:39.000Z</time>
      </trkpt>
      <trkpt lat="43.76854" lon="5.87562">
        <ele>483.79998779297</ele>
        <time>2021-01-18T14:09:40.000Z</time>
      </trkpt>
      <trkpt lat="43.76847" lon="5.87564">
        <ele>482</ele>
        <time>2021-01-18T14:09:42.000Z</time>
      </trkpt>
      <trkpt lat="43.76843" lon="5.87566">
        <ele>480.79998779297</ele>
        <time>2021-01-18T14:09:43.000Z</time>
      </trkpt>
      <trkpt lat="43.76839" lon="5.87567">
        <ele>479.20001220703</ele>
        <time>2021-01-18T14:09:44.000Z</time>
      </trkpt>
      <trkpt lat="43.76834" lon="5.87566">
        <ele>478.39999389648</ele>
        <time>2021-01-18T14:09:45.000Z</time>
      </trkpt>
      <trkpt lat="43.76829" lon="5.87565">
        <ele>477</ele>
        <time>2021-01-18T14:09:46.000Z</time>
      </trkpt>
      <trkpt lat="43.76822" lon="5.8756">
        <ele>475.60000610352</ele>
        <time>2021-01-18T14:09:48.000Z</time>
      </trkpt>
      <trkpt lat="43.76819" lon="5.87558">
        <ele>475</ele>
        <time>2021-01-18T14:09:49.000Z</time>
      </trkpt>
      <trkpt lat="43.76816" lon="5.87556">
        <ele>474.39999389648</ele>
        <time>2021-01-18T14:09:50.000Z</time>
      </trkpt>
      <trkpt lat="43.76807" lon="5.87552">
        <ele>473.20001220703</ele>
        <time>2021-01-18T14:09:53.000Z</time>
      </trkpt>
      <trkpt lat="43.76803" lon="5.87553">
        <ele>471.60000610352</ele>
        <time>2021-01-18T14:09:55.000Z</time>
      </trkpt>
      <trkpt lat="43.76799" lon="5.87555">
        <ele>469.60000610352</ele>
        <time>2021-01-18T14:09:57.000Z</time>
      </trkpt>
      <trkpt lat="43.76795" lon="5.87555">
        <ele>468.60000610352</ele>
        <time>2021-01-18T14:09:58.000Z</time>
      </trkpt>
      <trkpt lat="43.76792" lon="5.87555">
        <ele>467.39999389648</ele>
        <time>2021-01-18T14:09:59.000Z</time>
      </trkpt>
      <trkpt lat="43.7679" lon="5.87554">
        <ele>466.20001220703</ele>
        <time>2021-01-18T14:10:00.000Z</time>
      </trkpt>
      <trkpt lat="43.76787" lon="5.87551">
        <ele>465.79998779297</ele>
        <time>2021-01-18T14:10:01.000Z</time>
      </trkpt>
      <trkpt lat="43.76782" lon="5.87549">
        <ele>465.20001220703</ele>
        <time>2021-01-18T14:10:03.000Z</time>
      </trkpt>
      <trkpt lat="43.76776" lon="5.8755">
        <ele>464.79998779297</ele>
        <time>2021-01-18T14:10:05.000Z</time>
      </trkpt>
      <trkpt lat="43.76766" lon="5.87552">
        <ele>464</ele>
        <time>2021-01-18T14:10:08.000Z</time>
      </trkpt>
      <trkpt lat="43.76763" lon="5.87552">
        <ele>463.60000610352</ele>
        <time>2021-01-18T14:10:09.000Z</time>
      </trkpt>
      <trkpt lat="43.7676" lon="5.87552">
        <ele>463</ele>
        <time>2021-01-18T14:10:10.000Z</time>
      </trkpt>
      <trkpt lat="43.76752" lon="5.87553">
        <ele>461.20001220703</ele>
        <time>2021-01-18T14:10:12.000Z</time>
      </trkpt>
      <trkpt lat="43.76749" lon="5.87555">
        <ele>459.20001220703</ele>
        <time>2021-01-18T14:10:13.000Z</time>
      </trkpt>
      <trkpt lat="43.76746" lon="5.87556">
        <ele>458.20001220703</ele>
        <time>2021-01-18T14:10:14.000Z</time>
      </trkpt>
      <trkpt lat="43.76743" lon="5.87557">
        <ele>457.39999389648</ele>
        <time>2021-01-18T14:10:15.000Z</time>
      </trkpt>
      <trkpt lat="43.7674" lon="5.87558">
        <ele>456.79998779297</ele>
        <time>2021-01-18T14:10:16.000Z</time>
      </trkpt>
      <trkpt lat="43.76736" lon="5.87563">
        <ele>455.60000610352</ele>
        <time>2021-01-18T14:10:18.000Z</time>
      </trkpt>
      <trkpt lat="43.76733" lon="5.87568">
        <ele>454.79998779297</ele>
        <time>2021-01-18T14:10:19.000Z</time>
      </trkpt>
      <trkpt lat="43.76731" lon="5.87573">
        <ele>453.79998779297</ele>
        <time>2021-01-18T14:10:20.000Z</time>
      </trkpt>
      <trkpt lat="43.76726" lon="5.87581">
        <ele>452.20001220703</ele>
        <time>2021-01-18T14:10:22.000Z</time>
      </trkpt>
      <trkpt lat="43.76722" lon="5.87586">
        <ele>451.20001220703</ele>
        <time>2021-01-18T14:10:24.000Z</time>
      </trkpt>
      <trkpt lat="43.76719" lon="5.87588">
        <ele>449.39999389648</ele>
        <time>2021-01-18T14:10:26.000Z</time>
      </trkpt>
      <trkpt lat="43.76719" lon="5.8759">
        <ele>448.39999389648</ele>
        <time>2021-01-18T14:10:27.000Z</time>
      </trkpt>
      <trkpt lat="43.76718" lon="5.87591">
        <ele>447.60000610352</ele>
        <time>2021-01-18T14:10:28.000Z</time>
      </trkpt>
      <trkpt lat="43.76717" lon="5.87591">
        <ele>447</ele>
        <time>2021-01-18T14:10:29.000Z</time>
      </trkpt>
      <trkpt lat="43.76715" lon="5.87593">
        <ele>445.79998779297</ele>
        <time>2021-01-18T14:10:31.000Z</time>
      </trkpt>
      <trkpt lat="43.76713" lon="5.87596">
        <ele>445.39999389648</ele>
        <time>2021-01-18T14:10:32.000Z</time>
      </trkpt>
      <trkpt lat="43.76709" lon="5.87606">
        <ele>445</ele>
        <time>2021-01-18T14:10:34.000Z</time>
      </trkpt>
      <trkpt lat="43.76706" lon="5.87613">
        <ele>444.79998779297</ele>
        <time>2021-01-18T14:10:35.000Z</time>
      </trkpt>
      <trkpt lat="43.76703" lon="5.8762">
        <ele>444.60000610352</ele>
        <time>2021-01-18T14:10:36.000Z</time>
      </trkpt>
      <trkpt lat="43.76696" lon="5.87631">
        <ele>444.39999389648</ele>
        <time>2021-01-18T14:10:38.000Z</time>
      </trkpt>
      <trkpt lat="43.76695" lon="5.87645">
        <ele>444</ele>
        <time>2021-01-18T14:10:41.000Z</time>
      </trkpt>
      <trkpt lat="43.76692" lon="5.87651">
        <ele>443.20001220703</ele>
        <time>2021-01-18T14:10:42.000Z</time>
      </trkpt>
      <trkpt lat="43.76691" lon="5.87655">
        <ele>442.20001220703</ele>
        <time>2021-01-18T14:10:43.000Z</time>
      </trkpt>
      <trkpt lat="43.76689" lon="5.8766">
        <ele>441</ele>
        <time>2021-01-18T14:10:45.000Z</time>
      </trkpt>
      <trkpt lat="43.76688" lon="5.87663">
        <ele>440.79998779297</ele>
        <time>2021-01-18T14:10:46.000Z</time>
      </trkpt>
      <trkpt lat="43.76687" lon="5.87687">
        <ele>440.39999389648</ele>
        <time>2021-01-18T14:10:52.000Z</time>
      </trkpt>
      <trkpt lat="43.76691" lon="5.87707">
        <ele>440.39999389648</ele>
        <time>2021-01-18T14:10:57.000Z</time>
      </trkpt>
      <trkpt lat="43.76694" lon="5.87721">
        <ele>441.39999389648</ele>
        <time>2021-01-18T14:11:01.000Z</time>
      </trkpt>
      <trkpt lat="43.76694" lon="5.87721">
        <ele>442</ele>
        <time>2021-01-18T14:11:02.000Z</time>
      </trkpt>
      <trkpt lat="43.76694" lon="5.87721">
        <ele>443</ele>
        <time>2021-01-18T14:11:04.000Z</time>
      </trkpt>
      <trkpt lat="43.76694" lon="5.87721">
        <ele>444.20001220703</ele>
        <time>2021-01-18T14:11:09.000Z</time>
      </trkpt>
      <trkpt lat="43.76694" lon="5.87722">
        <ele>444.39999389648</ele>
        <time>2021-01-18T14:11:16.000Z</time>
      </trkpt>
      <trkpt lat="43.76695" lon="5.87724">
        <ele>444.20001220703</ele>
        <time>2021-01-18T14:11:34.000Z</time>
      </trkpt>
      <trkpt lat="43.76698" lon="5.87734">
        <ele>444.20001220703</ele>
        <time>2021-01-18T14:11:38.000Z</time>
      </trkpt>
      <trkpt lat="43.76697" lon="5.87737">
        <ele>444.20001220703</ele>
        <time>2021-01-18T14:11:39.000Z</time>
      </trkpt>
      <trkpt lat="43.76692" lon="5.87749">
        <ele>444.20001220703</ele>
        <time>2021-01-18T14:11:44.000Z</time>
      </trkpt>
      <trkpt lat="43.76695" lon="5.87761">
        <ele>442.79998779297</ele>
        <time>2021-01-18T14:11:48.000Z</time>
      </trkpt>
      <trkpt lat="43.76694" lon="5.87768">
        <ele>440.79998779297</ele>
        <time>2021-01-18T14:11:50.000Z</time>
      </trkpt>
      <trkpt lat="43.76694" lon="5.87777">
        <ele>439.20001220703</ele>
        <time>2021-01-18T14:11:52.000Z</time>
      </trkpt>
      <trkpt lat="43.76692" lon="5.87794">
        <ele>437.79998779297</ele>
        <time>2021-01-18T14:11:55.000Z</time>
      </trkpt>
      <trkpt lat="43.76692" lon="5.87799">
        <ele>437.60000610352</ele>
        <time>2021-01-18T14:11:56.000Z</time>
      </trkpt>
      <trkpt lat="43.7669" lon="5.8781">
        <ele>437.20001220703</ele>
        <time>2021-01-18T14:11:58.000Z</time>
      </trkpt>
      <trkpt lat="43.76688" lon="5.87816">
        <ele>437.20001220703</ele>
        <time>2021-01-18T14:11:59.000Z</time>
      </trkpt>
      <trkpt lat="43.76686" lon="5.87835">
        <ele>437</ele>
        <time>2021-01-18T14:12:02.000Z</time>
      </trkpt>
      <trkpt lat="43.76686" lon="5.87855">
        <ele>436.79998779297</ele>
        <time>2021-01-18T14:12:07.000Z</time>
      </trkpt>
      <trkpt lat="43.76688" lon="5.87877">
        <ele>437.60000610352</ele>
        <time>2021-01-18T14:12:13.000Z</time>
      </trkpt>
      <trkpt lat="43.76689" lon="5.87894">
        <ele>439</ele>
        <time>2021-01-18T14:12:17.000Z</time>
      </trkpt>
      <trkpt lat="43.76687" lon="5.87898">
        <ele>439.39999389648</ele>
        <time>2021-01-18T14:12:18.000Z</time>
      </trkpt>
      <trkpt lat="43.76684" lon="5.87904">
        <ele>440.60000610352</ele>
        <time>2021-01-18T14:12:20.000Z</time>
      </trkpt>
      <trkpt lat="43.76683" lon="5.87905">
        <ele>441.20001220703</ele>
        <time>2021-01-18T14:12:21.000Z</time>
      </trkpt>
      <trkpt lat="43.76682" lon="5.87907">
        <ele>441.60000610352</ele>
        <time>2021-01-18T14:12:22.000Z</time>
      </trkpt>
      <trkpt lat="43.76681" lon="5.87909">
        <ele>442</ele>
        <time>2021-01-18T14:12:25.000Z</time>
      </trkpt>
      <trkpt lat="43.76678" lon="5.87911">
        <ele>441.39999389648</ele>
        <time>2021-01-18T14:12:31.000Z</time>
      </trkpt>
      <trkpt lat="43.76675" lon="5.8792">
        <ele>440.79998779297</ele>
        <time>2021-01-18T14:12:34.000Z</time>
      </trkpt>
      <trkpt lat="43.76676" lon="5.87924">
        <ele>440.60000610352</ele>
        <time>2021-01-18T14:12:35.000Z</time>
      </trkpt>
      <trkpt lat="43.76681" lon="5.87935">
        <ele>440.39999389648</ele>
        <time>2021-01-18T14:12:38.000Z</time>
      </trkpt>
      <trkpt lat="43.76679" lon="5.87941">
        <ele>439.20001220703</ele>
        <time>2021-01-18T14:12:41.000Z</time>
      </trkpt>
      <trkpt lat="43.7668" lon="5.87946">
        <ele>438.60000610352</ele>
        <time>2021-01-18T14:12:43.000Z</time>
      </trkpt>
      <trkpt lat="43.7668" lon="5.87949">
        <ele>438.39999389648</ele>
        <time>2021-01-18T14:12:44.000Z</time>
      </trkpt>
      <trkpt lat="43.76678" lon="5.87951">
        <ele>438</ele>
        <time>2021-01-18T14:12:45.000Z</time>
      </trkpt>
      <trkpt lat="43.76675" lon="5.87954">
        <ele>438</ele>
        <time>2021-01-18T14:12:47.000Z</time>
      </trkpt>
      <trkpt lat="43.76676" lon="5.87959">
        <ele>437</ele>
        <time>2021-01-18T14:12:49.000Z</time>
      </trkpt>
      <trkpt lat="43.76678" lon="5.87961">
        <ele>436.60000610352</ele>
        <time>2021-01-18T14:12:50.000Z</time>
      </trkpt>
      <trkpt lat="43.76679" lon="5.87968">
        <ele>435.39999389648</ele>
        <time>2021-01-18T14:12:52.000Z</time>
      </trkpt>
      <trkpt lat="43.76678" lon="5.87971">
        <ele>434.79998779297</ele>
        <time>2021-01-18T14:12:53.000Z</time>
      </trkpt>
      <trkpt lat="43.76677" lon="5.87973">
        <ele>434.20001220703</ele>
        <time>2021-01-18T14:12:54.000Z</time>
      </trkpt>
      <trkpt lat="43.76675" lon="5.87976">
        <ele>432.79998779297</ele>
        <time>2021-01-18T14:12:56.000Z</time>
      </trkpt>
      <trkpt lat="43.76676" lon="5.87978">
        <ele>431.60000610352</ele>
        <time>2021-01-18T14:12:57.000Z</time>
      </trkpt>
      <trkpt lat="43.76678" lon="5.87984">
        <ele>430.20001220703</ele>
        <time>2021-01-18T14:13:00.000Z</time>
      </trkpt>
      <trkpt lat="43.76678" lon="5.87987">
        <ele>429.20001220703</ele>
        <time>2021-01-18T14:13:01.000Z</time>
      </trkpt>
      <trkpt lat="43.76678" lon="5.87993">
        <ele>427.60000610352</ele>
        <time>2021-01-18T14:13:03.000Z</time>
      </trkpt>
      <trkpt lat="43.76678" lon="5.87995">
        <ele>427</ele>
        <time>2021-01-18T14:13:04.000Z</time>
      </trkpt>
      <trkpt lat="43.76677" lon="5.87998">
        <ele>426.39999389648</ele>
        <time>2021-01-18T14:13:05.000Z</time>
      </trkpt>
      <trkpt lat="43.76673" lon="5.88001">
        <ele>425.79998779297</ele>
        <time>2021-01-18T14:13:07.000Z</time>
      </trkpt>
      <trkpt lat="43.76672" lon="5.88003">
        <ele>425.39999389648</ele>
        <time>2021-01-18T14:13:08.000Z</time>
      </trkpt>
      <trkpt lat="43.76673" lon="5.88006">
        <ele>424</ele>
        <time>2021-01-18T14:13:10.000Z</time>
      </trkpt>
      <trkpt lat="43.76675" lon="5.88007">
        <ele>423.39999389648</ele>
        <time>2021-01-18T14:13:11.000Z</time>
      </trkpt>
      <trkpt lat="43.76677" lon="5.88009">
        <ele>422.60000610352</ele>
        <time>2021-01-18T14:13:12.000Z</time>
      </trkpt>
      <trkpt lat="43.76674" lon="5.88019">
        <ele>420.79998779297</ele>
        <time>2021-01-18T14:13:14.000Z</time>
      </trkpt>
      <trkpt lat="43.76671" lon="5.88033">
        <ele>419.20001220703</ele>
        <time>2021-01-18T14:13:16.000Z</time>
      </trkpt>
      <trkpt lat="43.76674" lon="5.88044">
        <ele>417.79998779297</ele>
        <time>2021-01-18T14:13:18.000Z</time>
      </trkpt>
      <trkpt lat="43.7668" lon="5.88053">
        <ele>416.60000610352</ele>
        <time>2021-01-18T14:13:20.000Z</time>
      </trkpt>
      <trkpt lat="43.76683" lon="5.88062">
        <ele>415.39999389648</ele>
        <time>2021-01-18T14:13:22.000Z</time>
      </trkpt>
      <trkpt lat="43.76682" lon="5.88066">
        <ele>413.79998779297</ele>
        <time>2021-01-18T14:13:23.000Z</time>
      </trkpt>
      <trkpt lat="43.76681" lon="5.8807">
        <ele>412.39999389648</ele>
        <time>2021-01-18T14:13:24.000Z</time>
      </trkpt>
      <trkpt lat="43.76682" lon="5.88074">
        <ele>411.39999389648</ele>
        <time>2021-01-18T14:13:25.000Z</time>
      </trkpt>
      <trkpt lat="43.76684" lon="5.88077">
        <ele>411.20001220703</ele>
        <time>2021-01-18T14:13:26.000Z</time>
      </trkpt>
      <trkpt lat="43.76687" lon="5.88081">
        <ele>411</ele>
        <time>2021-01-18T14:13:27.000Z</time>
      </trkpt>
      <trkpt lat="43.76693" lon="5.8809">
        <ele>410.79998779297</ele>
        <time>2021-01-18T14:13:29.000Z</time>
      </trkpt>
      <trkpt lat="43.76696" lon="5.88096">
        <ele>410.60000610352</ele>
        <time>2021-01-18T14:13:30.000Z</time>
      </trkpt>
      <trkpt lat="43.76702" lon="5.88119">
        <ele>410.20001220703</ele>
        <time>2021-01-18T14:13:34.000Z</time>
      </trkpt>
      <trkpt lat="43.76708" lon="5.8814">
        <ele>410</ele>
        <time>2021-01-18T14:13:38.000Z</time>
      </trkpt>
      <trkpt lat="43.76713" lon="5.88145">
        <ele>410</ele>
        <time>2021-01-18T14:13:40.000Z</time>
      </trkpt>
      <trkpt lat="43.76715" lon="5.88148">
        <ele>410</ele>
        <time>2021-01-18T14:13:42.000Z</time>
      </trkpt>
      <trkpt lat="43.76718" lon="5.88151">
        <ele>410</ele>
        <time>2021-01-18T14:13:48.000Z</time>
      </trkpt>
      <trkpt lat="43.76718" lon="5.88151">
        <ele>410</ele>
        <time>2021-01-18T14:13:58.000Z</time>
      </trkpt>
      <trkpt lat="43.76718" lon="5.88151">
        <ele>410</ele>
        <time>2021-01-18T14:14:22.000Z</time>
      </trkpt>
      <trkpt lat="43.76719" lon="5.88152">
        <ele>410</ele>
        <time>2021-01-18T14:14:51.000Z</time>
      </trkpt>
      <trkpt lat="43.76722" lon="5.88165">
        <ele>410</ele>
        <time>2021-01-18T14:14:55.000Z</time>
      </trkpt>
      <trkpt lat="43.76726" lon="5.88185">
        <ele>410</ele>
        <time>2021-01-18T14:15:00.000Z</time>
      </trkpt>
      <trkpt lat="43.76728" lon="5.88194">
        <ele>409.39999389648</ele>
        <time>2021-01-18T14:15:02.000Z</time>
      </trkpt>
      <trkpt lat="43.76727" lon="5.88202">
        <ele>408.79998779297</ele>
        <time>2021-01-18T14:15:04.000Z</time>
      </trkpt>
      <trkpt lat="43.76725" lon="5.88209">
        <ele>408</ele>
        <time>2021-01-18T14:15:06.000Z</time>
      </trkpt>
      <trkpt lat="43.76722" lon="5.88216">
        <ele>406.60000610352</ele>
        <time>2021-01-18T14:15:08.000Z</time>
      </trkpt>
      <trkpt lat="43.76722" lon="5.88219">
        <ele>405.79998779297</ele>
        <time>2021-01-18T14:15:09.000Z</time>
      </trkpt>
      <trkpt lat="43.76721" lon="5.88221">
        <ele>405.20001220703</ele>
        <time>2021-01-18T14:15:10.000Z</time>
      </trkpt>
      <trkpt lat="43.76721" lon="5.88227">
        <ele>403.20001220703</ele>
        <time>2021-01-18T14:15:12.000Z</time>
      </trkpt>
      <trkpt lat="43.76722" lon="5.88234">
        <ele>400.20001220703</ele>
        <time>2021-01-18T14:15:14.000Z</time>
      </trkpt>
      <trkpt lat="43.76723" lon="5.88236">
        <ele>399.20001220703</ele>
        <time>2021-01-18T14:15:15.000Z</time>
      </trkpt>
      <trkpt lat="43.76722" lon="5.88237">
        <ele>398</ele>
        <time>2021-01-18T14:15:16.000Z</time>
      </trkpt>
      <trkpt lat="43.76719" lon="5.88238">
        <ele>397</ele>
        <time>2021-01-18T14:15:17.000Z</time>
      </trkpt>
      <trkpt lat="43.76711" lon="5.8824">
        <ele>395.60000610352</ele>
        <time>2021-01-18T14:15:19.000Z</time>
      </trkpt>
      <trkpt lat="43.76702" lon="5.88243">
        <ele>393.39999389648</ele>
        <time>2021-01-18T14:15:21.000Z</time>
      </trkpt>
      <trkpt lat="43.76698" lon="5.88245">
        <ele>391.60000610352</ele>
        <time>2021-01-18T14:15:22.000Z</time>
      </trkpt>
      <trkpt lat="43.76695" lon="5.88248">
        <ele>390.20001220703</ele>
        <time>2021-01-18T14:15:23.000Z</time>
      </trkpt>
      <trkpt lat="43.76689" lon="5.88254">
        <ele>388.60000610352</ele>
        <time>2021-01-18T14:15:25.000Z</time>
      </trkpt>
      <trkpt lat="43.76687" lon="5.88258">
        <ele>388.20001220703</ele>
        <time>2021-01-18T14:15:26.000Z</time>
      </trkpt>
      <trkpt lat="43.76686" lon="5.88262">
        <ele>388</ele>
        <time>2021-01-18T14:15:27.000Z</time>
      </trkpt>
      <trkpt lat="43.76683" lon="5.88271">
        <ele>387.79998779297</ele>
        <time>2021-01-18T14:15:30.000Z</time>
      </trkpt>
      <trkpt lat="43.76683" lon="5.88274">
        <ele>387.60000610352</ele>
        <time>2021-01-18T14:15:31.000Z</time>
      </trkpt>
      <trkpt lat="43.76681" lon="5.88278">
        <ele>387.60000610352</ele>
        <time>2021-01-18T14:15:37.000Z</time>
      </trkpt>
      <trkpt lat="43.76681" lon="5.88286">
        <ele>387.60000610352</ele>
        <time>2021-01-18T14:15:42.000Z</time>
      </trkpt>
      <trkpt lat="43.76676" lon="5.88308">
        <ele>387.60000610352</ele>
        <time>2021-01-18T14:15:45.000Z</time>
      </trkpt>
      <trkpt lat="43.76663" lon="5.8834">
        <ele>387.39999389648</ele>
        <time>2021-01-18T14:15:49.000Z</time>
      </trkpt>
      <trkpt lat="43.76657" lon="5.88356">
        <ele>386.39999389648</ele>
        <time>2021-01-18T14:15:51.000Z</time>
      </trkpt>
      <trkpt lat="43.76646" lon="5.8837">
        <ele>384.20001220703</ele>
        <time>2021-01-18T14:15:53.000Z</time>
      </trkpt>
      <trkpt lat="43.7664" lon="5.88375">
        <ele>383.20001220703</ele>
        <time>2021-01-18T14:15:54.000Z</time>
      </trkpt>
      <trkpt lat="43.76633" lon="5.88377">
        <ele>382.20001220703</ele>
        <time>2021-01-18T14:15:55.000Z</time>
      </trkpt>
      <trkpt lat="43.76626" lon="5.88378">
        <ele>381.60000610352</ele>
        <time>2021-01-18T14:15:56.000Z</time>
      </trkpt>
      <trkpt lat="43.76619" lon="5.88378">
        <ele>381</ele>
        <time>2021-01-18T14:15:57.000Z</time>
      </trkpt>
      <trkpt lat="43.76606" lon="5.88375">
        <ele>379.60000610352</ele>
        <time>2021-01-18T14:15:59.000Z</time>
      </trkpt>
      <trkpt lat="43.76601" lon="5.88374">
        <ele>379</ele>
        <time>2021-01-18T14:16:00.000Z</time>
      </trkpt>
      <trkpt lat="43.76595" lon="5.88374">
        <ele>378.39999389648</ele>
        <time>2021-01-18T14:16:01.000Z</time>
      </trkpt>
      <trkpt lat="43.76584" lon="5.88375">
        <ele>377.39999389648</ele>
        <time>2021-01-18T14:16:03.000Z</time>
      </trkpt>
      <trkpt lat="43.76579" lon="5.88377">
        <ele>376.79998779297</ele>
        <time>2021-01-18T14:16:04.000Z</time>
      </trkpt>
      <trkpt lat="43.76572" lon="5.88379">
        <ele>376.20001220703</ele>
        <time>2021-01-18T14:16:05.000Z</time>
      </trkpt>
      <trkpt lat="43.7656" lon="5.88381">
        <ele>375.39999389648</ele>
        <time>2021-01-18T14:16:07.000Z</time>
      </trkpt>
      <trkpt lat="43.76547" lon="5.8838">
        <ele>375</ele>
        <time>2021-01-18T14:16:09.000Z</time>
      </trkpt>
      <trkpt lat="43.76541" lon="5.8838">
        <ele>374.79998779297</ele>
        <time>2021-01-18T14:16:10.000Z</time>
      </trkpt>
      <trkpt lat="43.7653" lon="5.88383">
        <ele>374.39999389648</ele>
        <time>2021-01-18T14:16:12.000Z</time>
      </trkpt>
      <trkpt lat="43.76525" lon="5.88386">
        <ele>374</ele>
        <time>2021-01-18T14:16:13.000Z</time>
      </trkpt>
      <trkpt lat="43.7652" lon="5.88391">
        <ele>373.39999389648</ele>
        <time>2021-01-18T14:16:14.000Z</time>
      </trkpt>
      <trkpt lat="43.7651" lon="5.88402">
        <ele>372.20001220703</ele>
        <time>2021-01-18T14:16:16.000Z</time>
      </trkpt>
      <trkpt lat="43.76504" lon="5.88407">
        <ele>372</ele>
        <time>2021-01-18T14:16:17.000Z</time>
      </trkpt>
      <trkpt lat="43.76499" lon="5.88412">
        <ele>371.79998779297</ele>
        <time>2021-01-18T14:16:18.000Z</time>
      </trkpt>
      <trkpt lat="43.76495" lon="5.88418">
        <ele>371.60000610352</ele>
        <time>2021-01-18T14:16:19.000Z</time>
      </trkpt>
      <trkpt lat="43.76492" lon="5.88423">
        <ele>371.39999389648</ele>
        <time>2021-01-18T14:16:20.000Z</time>
      </trkpt>
      <trkpt lat="43.76488" lon="5.88429">
        <ele>370.79998779297</ele>
        <time>2021-01-18T14:16:22.000Z</time>
      </trkpt>
      <trkpt lat="43.76484" lon="5.88431">
        <ele>370.20001220703</ele>
        <time>2021-01-18T14:16:23.000Z</time>
      </trkpt>
      <trkpt lat="43.76473" lon="5.88435">
        <ele>369.79998779297</ele>
        <time>2021-01-18T14:16:25.000Z</time>
      </trkpt>
      <trkpt lat="43.76468" lon="5.88436">
        <ele>369.60000610352</ele>
        <time>2021-01-18T14:16:26.000Z</time>
      </trkpt>
      <trkpt lat="43.76461" lon="5.88436">
        <ele>369.39999389648</ele>
        <time>2021-01-18T14:16:27.000Z</time>
      </trkpt>
      <trkpt lat="43.76441" lon="5.88434">
        <ele>369</ele>
        <time>2021-01-18T14:16:30.000Z</time>
      </trkpt>
      <trkpt lat="43.76428" lon="5.88437">
        <ele>368.60000610352</ele>
        <time>2021-01-18T14:16:32.000Z</time>
      </trkpt>
      <trkpt lat="43.764" lon="5.88446">
        <ele>367.39999389648</ele>
        <time>2021-01-18T14:16:36.000Z</time>
      </trkpt>
      <trkpt lat="43.76386" lon="5.88454">
        <ele>366.39999389648</ele>
        <time>2021-01-18T14:16:38.000Z</time>
      </trkpt>
      <trkpt lat="43.76379" lon="5.88459">
        <ele>366</ele>
        <time>2021-01-18T14:16:39.000Z</time>
      </trkpt>
      <trkpt lat="43.76365" lon="5.88468">
        <ele>364.79998779297</ele>
        <time>2021-01-18T14:16:41.000Z</time>
      </trkpt>
      <trkpt lat="43.76344" lon="5.88482">
        <ele>363.60000610352</ele>
        <time>2021-01-18T14:16:44.000Z</time>
      </trkpt>
      <trkpt lat="43.76333" lon="5.88492">
        <ele>363</ele>
        <time>2021-01-18T14:16:46.000Z</time>
      </trkpt>
      <trkpt lat="43.76328" lon="5.88497">
        <ele>362.60000610352</ele>
        <time>2021-01-18T14:16:47.000Z</time>
      </trkpt>
      <trkpt lat="43.76319" lon="5.88507">
        <ele>361.39999389648</ele>
        <time>2021-01-18T14:16:49.000Z</time>
      </trkpt>
      <trkpt lat="43.76311" lon="5.88517">
        <ele>360.20001220703</ele>
        <time>2021-01-18T14:16:51.000Z</time>
      </trkpt>
      <trkpt lat="43.76307" lon="5.88522">
        <ele>360</ele>
        <time>2021-01-18T14:16:52.000Z</time>
      </trkpt>
      <trkpt lat="43.7629" lon="5.88543">
        <ele>359.60000610352</ele>
        <time>2021-01-18T14:16:56.000Z</time>
      </trkpt>
      <trkpt lat="43.76278" lon="5.88555">
        <ele>359.39999389648</ele>
        <time>2021-01-18T14:16:59.000Z</time>
      </trkpt>
      <trkpt lat="43.7627" lon="5.88562">
        <ele>359</ele>
        <time>2021-01-18T14:17:01.000Z</time>
      </trkpt>
      <trkpt lat="43.76261" lon="5.88578">
        <ele>357.79998779297</ele>
        <time>2021-01-18T14:17:04.000Z</time>
      </trkpt>
      <trkpt lat="43.76258" lon="5.88584">
        <ele>357.60000610352</ele>
        <time>2021-01-18T14:17:05.000Z</time>
      </trkpt>
      <trkpt lat="43.76246" lon="5.88617">
        <ele>356.79998779297</ele>
        <time>2021-01-18T14:17:10.000Z</time>
      </trkpt>
      <trkpt lat="43.76244" lon="5.88623">
        <ele>356.79998779297</ele>
        <time>2021-01-18T14:17:11.000Z</time>
      </trkpt>
      <trkpt lat="43.76238" lon="5.88643">
        <ele>355.60000610352</ele>
        <time>2021-01-18T14:17:15.000Z</time>
      </trkpt>
      <trkpt lat="43.76236" lon="5.88647">
        <ele>355.39999389648</ele>
        <time>2021-01-18T14:17:16.000Z</time>
      </trkpt>
      <trkpt lat="43.76228" lon="5.88648">
        <ele>355.20001220703</ele>
        <time>2021-01-18T14:17:18.000Z</time>
      </trkpt>
      <trkpt lat="43.76217" lon="5.88643">
        <ele>354.79998779297</ele>
        <time>2021-01-18T14:17:21.000Z</time>
      </trkpt>
      <trkpt lat="43.76209" lon="5.88639">
        <ele>354.79998779297</ele>
        <time>2021-01-18T14:17:23.000Z</time>
      </trkpt>
      <trkpt lat="43.76195" lon="5.88631">
        <ele>354.79998779297</ele>
        <time>2021-01-18T14:17:28.000Z</time>
      </trkpt>
      <trkpt lat="43.76181" lon="5.88625">
        <ele>356.79998779297</ele>
        <time>2021-01-18T14:17:33.000Z</time>
      </trkpt>
      <trkpt lat="43.76176" lon="5.88624">
        <ele>357.79998779297</ele>
        <time>2021-01-18T14:17:35.000Z</time>
      </trkpt>
      <trkpt lat="43.76174" lon="5.88624">
        <ele>358</ele>
        <time>2021-01-18T14:17:36.000Z</time>
      </trkpt>
      <trkpt lat="43.76167" lon="5.88625">
        <ele>359</ele>
        <time>2021-01-18T14:17:39.000Z</time>
      </trkpt>
      <trkpt lat="43.76159" lon="5.88627">
        <ele>360.20001220703</ele>
        <time>2021-01-18T14:17:42.000Z</time>
      </trkpt>
      <trkpt lat="43.76157" lon="5.88626">
        <ele>360.60000610352</ele>
        <time>2021-01-18T14:17:43.000Z</time>
      </trkpt>
      <trkpt lat="43.76153" lon="5.88624">
        <ele>361.39999389648</ele>
        <time>2021-01-18T14:17:45.000Z</time>
      </trkpt>
      <trkpt lat="43.76146" lon="5.88619">
        <ele>362.79998779297</ele>
        <time>2021-01-18T14:17:48.000Z</time>
      </trkpt>
      <trkpt lat="43.76142" lon="5.88615">
        <ele>364</ele>
        <time>2021-01-18T14:17:50.000Z</time>
      </trkpt>
      <trkpt lat="43.76137" lon="5.8861">
        <ele>365.39999389648</ele>
        <time>2021-01-18T14:17:52.000Z</time>
      </trkpt>
      <trkpt lat="43.76132" lon="5.88606">
        <ele>366.60000610352</ele>
        <time>2021-01-18T14:17:54.000Z</time>
      </trkpt>
      <trkpt lat="43.76126" lon="5.88601">
        <ele>367.60000610352</ele>
        <time>2021-01-18T14:17:56.000Z</time>
      </trkpt>
      <trkpt lat="43.76119" lon="5.88597">
        <ele>369.20001220703</ele>
        <time>2021-01-18T14:17:58.000Z</time>
      </trkpt>
      <trkpt lat="43.76114" lon="5.88593">
        <ele>370.20001220703</ele>
        <time>2021-01-18T14:18:00.000Z</time>
      </trkpt>
      <trkpt lat="43.76108" lon="5.88588">
        <ele>371.39999389648</ele>
        <time>2021-01-18T14:18:02.000Z</time>
      </trkpt>
      <trkpt lat="43.76101" lon="5.88583">
        <ele>372.39999389648</ele>
        <time>2021-01-18T14:18:04.000Z</time>
      </trkpt>
      <trkpt lat="43.76088" lon="5.88574">
        <ele>373.39999389648</ele>
        <time>2021-01-18T14:18:07.000Z</time>
      </trkpt>
      <trkpt lat="43.76078" lon="5.88567">
        <ele>373.60000610352</ele>
        <time>2021-01-18T14:18:09.000Z</time>
      </trkpt>
      <trkpt lat="43.76062" lon="5.88558">
        <ele>373.60000610352</ele>
        <time>2021-01-18T14:18:13.000Z</time>
      </trkpt>
      <trkpt lat="43.76045" lon="5.88552">
        <ele>372.39999389648</ele>
        <time>2021-01-18T14:18:19.000Z</time>
      </trkpt>
      <trkpt lat="43.76018" lon="5.88551">
        <ele>372</ele>
        <time>2021-01-18T14:18:24.000Z</time>
      </trkpt>
      <trkpt lat="43.75997" lon="5.88547">
        <ele>371.20001220703</ele>
        <time>2021-01-18T14:18:27.000Z</time>
      </trkpt>
      <trkpt lat="43.75982" lon="5.88544">
        <ele>370.60000610352</ele>
        <time>2021-01-18T14:18:29.000Z</time>
      </trkpt>
      <trkpt lat="43.75973" lon="5.88542">
        <ele>370</ele>
        <time>2021-01-18T14:18:30.000Z</time>
      </trkpt>
      <trkpt lat="43.75947" lon="5.88534">
        <ele>368.39999389648</ele>
        <time>2021-01-18T14:18:33.000Z</time>
      </trkpt>
      <trkpt lat="43.75928" lon="5.88529">
        <ele>367</ele>
        <time>2021-01-18T14:18:35.000Z</time>
      </trkpt>
      <trkpt lat="43.75909" lon="5.88523">
        <ele>365.60000610352</ele>
        <time>2021-01-18T14:18:37.000Z</time>
      </trkpt>
      <trkpt lat="43.7589" lon="5.88517">
        <ele>364.20001220703</ele>
        <time>2021-01-18T14:18:39.000Z</time>
      </trkpt>
      <trkpt lat="43.7587" lon="5.88511">
        <ele>362.60000610352</ele>
        <time>2021-01-18T14:18:41.000Z</time>
      </trkpt>
      <trkpt lat="43.75862" lon="5.88509">
        <ele>361.60000610352</ele>
        <time>2021-01-18T14:18:42.000Z</time>
      </trkpt>
      <trkpt lat="43.75855" lon="5.88508">
        <ele>360.79998779297</ele>
        <time>2021-01-18T14:18:43.000Z</time>
      </trkpt>
      <trkpt lat="43.75846" lon="5.88513">
        <ele>359.79998779297</ele>
        <time>2021-01-18T14:18:45.000Z</time>
      </trkpt>
      <trkpt lat="43.75843" lon="5.88525">
        <ele>358.60000610352</ele>
        <time>2021-01-18T14:18:47.000Z</time>
      </trkpt>
      <trkpt lat="43.75841" lon="5.88534">
        <ele>358</ele>
        <time>2021-01-18T14:18:48.000Z</time>
      </trkpt>
      <trkpt lat="43.75839" lon="5.88544">
        <ele>357.60000610352</ele>
        <time>2021-01-18T14:18:49.000Z</time>
      </trkpt>
      <trkpt lat="43.75839" lon="5.88554">
        <ele>357.20001220703</ele>
        <time>2021-01-18T14:18:50.000Z</time>
      </trkpt>
      <trkpt lat="43.75837" lon="5.88581">
        <ele>356.39999389648</ele>
        <time>2021-01-18T14:18:53.000Z</time>
      </trkpt>
      <trkpt lat="43.75836" lon="5.88589">
        <ele>356.39999389648</ele>
        <time>2021-01-18T14:18:54.000Z</time>
      </trkpt>
      <trkpt lat="43.75834" lon="5.88596">
        <ele>356</ele>
        <time>2021-01-18T14:18:55.000Z</time>
      </trkpt>
      <trkpt lat="43.75831" lon="5.886">
        <ele>355.39999389648</ele>
        <time>2021-01-18T14:18:56.000Z</time>
      </trkpt>
      <trkpt lat="43.75828" lon="5.88603">
        <ele>354.39999389648</ele>
        <time>2021-01-18T14:18:57.000Z</time>
      </trkpt>
      <trkpt lat="43.75821" lon="5.88603">
        <ele>353.20001220703</ele>
        <time>2021-01-18T14:18:59.000Z</time>
      </trkpt>
      <trkpt lat="43.75803" lon="5.88595">
        <ele>352.20001220703</ele>
        <time>2021-01-18T14:19:05.000Z</time>
      </trkpt>
      <trkpt lat="43.75789" lon="5.88574">
        <ele>353.60000610352</ele>
        <time>2021-01-18T14:19:12.000Z</time>
      </trkpt>
      <trkpt lat="43.75784" lon="5.88573">
        <ele>354.39999389648</ele>
        <time>2021-01-18T14:19:14.000Z</time>
      </trkpt>
      <trkpt lat="43.75777" lon="5.88575">
        <ele>355.39999389648</ele>
        <time>2021-01-18T14:19:18.000Z</time>
      </trkpt>
      <trkpt lat="43.75775" lon="5.88575">
        <ele>355.60000610352</ele>
        <time>2021-01-18T14:19:19.000Z</time>
      </trkpt>
      <trkpt lat="43.75765" lon="5.88576">
        <ele>356.20001220703</ele>
        <time>2021-01-18T14:19:25.000Z</time>
      </trkpt>
      <trkpt lat="43.75762" lon="5.88577">
        <ele>356.39999389648</ele>
        <time>2021-01-18T14:19:30.000Z</time>
      </trkpt>
      <trkpt lat="43.75762" lon="5.88577">
        <ele>356.39999389648</ele>
        <time>2021-01-18T14:19:32.000Z</time>
      </trkpt>
    </trkseg>
  </trk>
</gpx>